<?xml version="1.0" encoding="UTF-8" standalone="no" ?>
<gpx xmlns="http://www.topografix.com/GPX/1/1" xmlns:xsi="http://www.w3.org/2001/XMLSchema-instance" xsi:schemaLocation="http://www.topografix.com/GPX/1/1 http://www.topografix.com/GPX/1/1/gpx.xsd" version="1.1" creator="VisuGPX - https://www.visugpx.com">
  <metadata>
    <name>VTT - Aumont Aubrac Château de la Baume</name>
    <desc><![CDATA[Très belle rando et visite du Versailles du Gévaudan.]]></desc>
  </metadata>
  <trk>
    <name><![CDATA[24-FEV-16 14:13:07]]></name>
    <trkseg>
      <trkpt lat="44.72191" lon="3.28719">
        <ele>1047.49</ele>
        <time>2016-02-24T08:29:42Z</time>
      </trkpt>
      <trkpt lat="44.72185" lon="3.28722">
        <ele>1047.49</ele>
        <time>2016-02-24T08:29:48Z</time>
      </trkpt>
      <trkpt lat="44.72161" lon="3.28697">
        <ele>1051.34</ele>
        <time>2016-02-24T08:30:09Z</time>
      </trkpt>
      <trkpt lat="44.72159" lon="3.28696">
        <ele>1052.78</ele>
        <time>2016-02-24T08:30:11Z</time>
      </trkpt>
      <trkpt lat="44.72147" lon="3.28701">
        <ele>1047.97</ele>
        <time>2016-02-24T08:37:23Z</time>
      </trkpt>
      <trkpt lat="44.72147" lon="3.28701">
        <ele>1047.97</ele>
        <time>2016-02-24T08:37:24Z</time>
      </trkpt>
      <trkpt lat="44.72142" lon="3.28699">
        <ele>1047.97</ele>
        <time>2016-02-24T08:37:38Z</time>
      </trkpt>
      <trkpt lat="44.72141" lon="3.28687">
        <ele>1052.78</ele>
        <time>2016-02-24T08:37:43Z</time>
      </trkpt>
      <trkpt lat="44.72144" lon="3.28679">
        <ele>1055.18</ele>
        <time>2016-02-24T08:37:46Z</time>
      </trkpt>
      <trkpt lat="44.72149" lon="3.2867">
        <ele>1057.11</ele>
        <time>2016-02-24T08:37:50Z</time>
      </trkpt>
      <trkpt lat="44.72158" lon="3.28671">
        <ele>1056.63</ele>
        <time>2016-02-24T08:37:53Z</time>
      </trkpt>
      <trkpt lat="44.72162" lon="3.28671">
        <ele>1060.95</ele>
        <time>2016-02-24T08:37:54Z</time>
      </trkpt>
      <trkpt lat="44.72167" lon="3.28671">
        <ele>1056.63</ele>
        <time>2016-02-24T08:37:55Z</time>
      </trkpt>
      <trkpt lat="44.72173" lon="3.28668">
        <ele>1055.18</ele>
        <time>2016-02-24T08:37:56Z</time>
      </trkpt>
      <trkpt lat="44.72178" lon="3.28664">
        <ele>1053.74</ele>
        <time>2016-02-24T08:37:57Z</time>
      </trkpt>
      <trkpt lat="44.72182" lon="3.2866">
        <ele>1053.74</ele>
        <time>2016-02-24T08:37:58Z</time>
      </trkpt>
      <trkpt lat="44.72188" lon="3.28656">
        <ele>1053.74</ele>
        <time>2016-02-24T08:37:59Z</time>
      </trkpt>
      <trkpt lat="44.72194" lon="3.28652">
        <ele>1053.26</ele>
        <time>2016-02-24T08:38:00Z</time>
      </trkpt>
      <trkpt lat="44.72211" lon="3.28645">
        <ele>1052.78</ele>
        <time>2016-02-24T08:38:04Z</time>
      </trkpt>
      <trkpt lat="44.72213" lon="3.28641">
        <ele>1052.78</ele>
        <time>2016-02-24T08:38:05Z</time>
      </trkpt>
      <trkpt lat="44.72214" lon="3.28636">
        <ele>1052.78</ele>
        <time>2016-02-24T08:38:06Z</time>
      </trkpt>
      <trkpt lat="44.72215" lon="3.2863">
        <ele>1052.3</ele>
        <time>2016-02-24T08:38:07Z</time>
      </trkpt>
      <trkpt lat="44.72216" lon="3.28624">
        <ele>1052.3</ele>
        <time>2016-02-24T08:38:08Z</time>
      </trkpt>
      <trkpt lat="44.72222" lon="3.28597">
        <ele>1051.82</ele>
        <time>2016-02-24T08:38:12Z</time>
      </trkpt>
      <trkpt lat="44.72248" lon="3.28538">
        <ele>1049.42</ele>
        <time>2016-02-24T08:38:22Z</time>
      </trkpt>
      <trkpt lat="44.72251" lon="3.28536">
        <ele>1049.42</ele>
        <time>2016-02-24T08:38:24Z</time>
      </trkpt>
      <trkpt lat="44.72253" lon="3.28535">
        <ele>1049.42</ele>
        <time>2016-02-24T08:38:25Z</time>
      </trkpt>
      <trkpt lat="44.72255" lon="3.28535">
        <ele>1048.94</ele>
        <time>2016-02-24T08:38:26Z</time>
      </trkpt>
      <trkpt lat="44.72258" lon="3.28534">
        <ele>1048.94</ele>
        <time>2016-02-24T08:38:27Z</time>
      </trkpt>
      <trkpt lat="44.72261" lon="3.28533">
        <ele>1048.94</ele>
        <time>2016-02-24T08:38:28Z</time>
      </trkpt>
      <trkpt lat="44.72265" lon="3.28535">
        <ele>1048.45</ele>
        <time>2016-02-24T08:38:29Z</time>
      </trkpt>
      <trkpt lat="44.72269" lon="3.28539">
        <ele>1047.97</ele>
        <time>2016-02-24T08:38:30Z</time>
      </trkpt>
      <trkpt lat="44.72272" lon="3.28544">
        <ele>1046.53</ele>
        <time>2016-02-24T08:38:31Z</time>
      </trkpt>
      <trkpt lat="44.72275" lon="3.28549">
        <ele>1045.57</ele>
        <time>2016-02-24T08:38:32Z</time>
      </trkpt>
      <trkpt lat="44.72277" lon="3.28552">
        <ele>1045.57</ele>
        <time>2016-02-24T08:38:33Z</time>
      </trkpt>
      <trkpt lat="44.72279" lon="3.28553">
        <ele>1045.09</ele>
        <time>2016-02-24T08:38:34Z</time>
      </trkpt>
      <trkpt lat="44.72281" lon="3.28553">
        <ele>1045.09</ele>
        <time>2016-02-24T08:38:35Z</time>
      </trkpt>
      <trkpt lat="44.72283" lon="3.28551">
        <ele>1044.61</ele>
        <time>2016-02-24T08:38:36Z</time>
      </trkpt>
      <trkpt lat="44.72286" lon="3.28549">
        <ele>1045.09</ele>
        <time>2016-02-24T08:38:37Z</time>
      </trkpt>
      <trkpt lat="44.72288" lon="3.28546">
        <ele>1044.61</ele>
        <time>2016-02-24T08:38:38Z</time>
      </trkpt>
      <trkpt lat="44.7229" lon="3.28544">
        <ele>1044.61</ele>
        <time>2016-02-24T08:38:39Z</time>
      </trkpt>
      <trkpt lat="44.72293" lon="3.28541">
        <ele>1044.61</ele>
        <time>2016-02-24T08:38:40Z</time>
      </trkpt>
      <trkpt lat="44.723" lon="3.28536">
        <ele>1044.61</ele>
        <time>2016-02-24T08:38:43Z</time>
      </trkpt>
      <trkpt lat="44.723" lon="3.28533">
        <ele>1044.61</ele>
        <time>2016-02-24T08:38:44Z</time>
      </trkpt>
      <trkpt lat="44.72299" lon="3.2853">
        <ele>1044.61</ele>
        <time>2016-02-24T08:38:45Z</time>
      </trkpt>
      <trkpt lat="44.72294" lon="3.28509">
        <ele>1046.05</ele>
        <time>2016-02-24T08:38:51Z</time>
      </trkpt>
      <trkpt lat="44.72294" lon="3.28506">
        <ele>1046.53</ele>
        <time>2016-02-24T08:38:52Z</time>
      </trkpt>
      <trkpt lat="44.72295" lon="3.28503">
        <ele>1047.01</ele>
        <time>2016-02-24T08:38:53Z</time>
      </trkpt>
      <trkpt lat="44.72294" lon="3.28501">
        <ele>1047.01</ele>
        <time>2016-02-24T08:38:54Z</time>
      </trkpt>
      <trkpt lat="44.72293" lon="3.285">
        <ele>1047.01</ele>
        <time>2016-02-24T08:38:55Z</time>
      </trkpt>
      <trkpt lat="44.72292" lon="3.28498">
        <ele>1047.01</ele>
        <time>2016-02-24T08:38:56Z</time>
      </trkpt>
      <trkpt lat="44.72292" lon="3.28495">
        <ele>1047.01</ele>
        <time>2016-02-24T08:38:57Z</time>
      </trkpt>
      <trkpt lat="44.72292" lon="3.28492">
        <ele>1047.49</ele>
        <time>2016-02-24T08:38:58Z</time>
      </trkpt>
      <trkpt lat="44.72294" lon="3.28489">
        <ele>1047.01</ele>
        <time>2016-02-24T08:38:59Z</time>
      </trkpt>
      <trkpt lat="44.72295" lon="3.28488">
        <ele>1047.01</ele>
        <time>2016-02-24T08:39:00Z</time>
      </trkpt>
      <trkpt lat="44.72298" lon="3.2849">
        <ele>1046.05</ele>
        <time>2016-02-24T08:39:02Z</time>
      </trkpt>
      <trkpt lat="44.72301" lon="3.28494">
        <ele>1045.57</ele>
        <time>2016-02-24T08:39:03Z</time>
      </trkpt>
      <trkpt lat="44.72302" lon="3.28496">
        <ele>1045.57</ele>
        <time>2016-02-24T08:39:04Z</time>
      </trkpt>
      <trkpt lat="44.72304" lon="3.28497">
        <ele>1044.61</ele>
        <time>2016-02-24T08:39:14Z</time>
      </trkpt>
      <trkpt lat="44.72305" lon="3.28497">
        <ele>1044.61</ele>
        <time>2016-02-24T08:39:25Z</time>
      </trkpt>
      <trkpt lat="44.72306" lon="3.28495">
        <ele>1044.13</ele>
        <time>2016-02-24T08:39:26Z</time>
      </trkpt>
      <trkpt lat="44.72306" lon="3.28492">
        <ele>1044.61</ele>
        <time>2016-02-24T08:39:27Z</time>
      </trkpt>
      <trkpt lat="44.72306" lon="3.28489">
        <ele>1044.61</ele>
        <time>2016-02-24T08:39:28Z</time>
      </trkpt>
      <trkpt lat="44.72306" lon="3.28486">
        <ele>1044.61</ele>
        <time>2016-02-24T08:39:29Z</time>
      </trkpt>
      <trkpt lat="44.72306" lon="3.28482">
        <ele>1044.61</ele>
        <time>2016-02-24T08:39:30Z</time>
      </trkpt>
      <trkpt lat="44.72307" lon="3.28479">
        <ele>1044.61</ele>
        <time>2016-02-24T08:39:31Z</time>
      </trkpt>
      <trkpt lat="44.72307" lon="3.28475">
        <ele>1044.61</ele>
        <time>2016-02-24T08:39:32Z</time>
      </trkpt>
      <trkpt lat="44.72308" lon="3.28471">
        <ele>1044.61</ele>
        <time>2016-02-24T08:39:33Z</time>
      </trkpt>
      <trkpt lat="44.72308" lon="3.28467">
        <ele>1044.13</ele>
        <time>2016-02-24T08:39:34Z</time>
      </trkpt>
      <trkpt lat="44.72308" lon="3.28463">
        <ele>1044.13</ele>
        <time>2016-02-24T08:39:35Z</time>
      </trkpt>
      <trkpt lat="44.72298" lon="3.28415">
        <ele>1044.61</ele>
        <time>2016-02-24T08:39:46Z</time>
      </trkpt>
      <trkpt lat="44.72297" lon="3.28386">
        <ele>1045.09</ele>
        <time>2016-02-24T08:39:52Z</time>
      </trkpt>
      <trkpt lat="44.72298" lon="3.28382">
        <ele>1045.09</ele>
        <time>2016-02-24T08:39:53Z</time>
      </trkpt>
      <trkpt lat="44.72301" lon="3.28329">
        <ele>1047.49</ele>
        <time>2016-02-24T08:40:06Z</time>
      </trkpt>
      <trkpt lat="44.723" lon="3.28281">
        <ele>1045.09</ele>
        <time>2016-02-24T08:40:19Z</time>
      </trkpt>
      <trkpt lat="44.72299" lon="3.28267">
        <ele>1043.17</ele>
        <time>2016-02-24T08:40:21Z</time>
      </trkpt>
      <trkpt lat="44.72299" lon="3.28258">
        <ele>1042.21</ele>
        <time>2016-02-24T08:40:22Z</time>
      </trkpt>
      <trkpt lat="44.72301" lon="3.28219">
        <ele>1038.36</ele>
        <time>2016-02-24T08:40:26Z</time>
      </trkpt>
      <trkpt lat="44.72303" lon="3.28196">
        <ele>1036.44</ele>
        <time>2016-02-24T08:40:28Z</time>
      </trkpt>
      <trkpt lat="44.72306" lon="3.28168">
        <ele>1031.63</ele>
        <time>2016-02-24T08:40:30Z</time>
      </trkpt>
      <trkpt lat="44.7231" lon="3.28142">
        <ele>1027.31</ele>
        <time>2016-02-24T08:40:32Z</time>
      </trkpt>
      <trkpt lat="44.72313" lon="3.2813">
        <ele>1025.86</ele>
        <time>2016-02-24T08:40:33Z</time>
      </trkpt>
      <trkpt lat="44.72324" lon="3.28097">
        <ele>1024.42</ele>
        <time>2016-02-24T08:40:36Z</time>
      </trkpt>
      <trkpt lat="44.72327" lon="3.28087">
        <ele>1024.42</ele>
        <time>2016-02-24T08:40:37Z</time>
      </trkpt>
      <trkpt lat="44.72329" lon="3.28078">
        <ele>1023.46</ele>
        <time>2016-02-24T08:40:38Z</time>
      </trkpt>
      <trkpt lat="44.72328" lon="3.28068">
        <ele>1022.5</ele>
        <time>2016-02-24T08:40:39Z</time>
      </trkpt>
      <trkpt lat="44.72324" lon="3.28061">
        <ele>1021.54</ele>
        <time>2016-02-24T08:40:40Z</time>
      </trkpt>
      <trkpt lat="44.7232" lon="3.28054">
        <ele>1020.58</ele>
        <time>2016-02-24T08:40:41Z</time>
      </trkpt>
      <trkpt lat="44.72315" lon="3.28048">
        <ele>1020.1</ele>
        <time>2016-02-24T08:40:42Z</time>
      </trkpt>
      <trkpt lat="44.72296" lon="3.28023">
        <ele>1019.62</ele>
        <time>2016-02-24T08:40:47Z</time>
      </trkpt>
      <trkpt lat="44.72292" lon="3.2802">
        <ele>1019.13</ele>
        <time>2016-02-24T08:40:48Z</time>
      </trkpt>
      <trkpt lat="44.72254" lon="3.28003">
        <ele>1022.5</ele>
        <time>2016-02-24T08:41:00Z</time>
      </trkpt>
      <trkpt lat="44.72236" lon="3.27988">
        <ele>1022.98</ele>
        <time>2016-02-24T08:41:10Z</time>
      </trkpt>
      <trkpt lat="44.72236" lon="3.27988">
        <ele>1023.46</ele>
        <time>2016-02-24T08:41:30Z</time>
      </trkpt>
      <trkpt lat="44.72236" lon="3.27988">
        <ele>1023.46</ele>
        <time>2016-02-24T08:41:54Z</time>
      </trkpt>
      <trkpt lat="44.72236" lon="3.27988">
        <ele>1023.46</ele>
        <time>2016-02-24T08:42:17Z</time>
      </trkpt>
      <trkpt lat="44.72223" lon="3.27972">
        <ele>1022.98</ele>
        <time>2016-02-24T08:42:25Z</time>
      </trkpt>
      <trkpt lat="44.72182" lon="3.27934">
        <ele>1022.02</ele>
        <time>2016-02-24T08:42:38Z</time>
      </trkpt>
      <trkpt lat="44.72144" lon="3.2791">
        <ele>1021.06</ele>
        <time>2016-02-24T08:42:53Z</time>
      </trkpt>
      <trkpt lat="44.72143" lon="3.27908">
        <ele>1021.54</ele>
        <time>2016-02-24T08:42:54Z</time>
      </trkpt>
      <trkpt lat="44.72143" lon="3.27904">
        <ele>1022.98</ele>
        <time>2016-02-24T08:42:55Z</time>
      </trkpt>
      <trkpt lat="44.72143" lon="3.27901">
        <ele>1022.98</ele>
        <time>2016-02-24T08:42:56Z</time>
      </trkpt>
      <trkpt lat="44.72144" lon="3.27897">
        <ele>1022.5</ele>
        <time>2016-02-24T08:42:57Z</time>
      </trkpt>
      <trkpt lat="44.72145" lon="3.27892">
        <ele>1022.5</ele>
        <time>2016-02-24T08:42:58Z</time>
      </trkpt>
      <trkpt lat="44.72143" lon="3.27832">
        <ele>1022.98</ele>
        <time>2016-02-24T08:43:11Z</time>
      </trkpt>
      <trkpt lat="44.7213" lon="3.27789">
        <ele>1026.34</ele>
        <time>2016-02-24T08:43:24Z</time>
      </trkpt>
      <trkpt lat="44.72125" lon="3.27759">
        <ele>1029.23</ele>
        <time>2016-02-24T08:43:36Z</time>
      </trkpt>
      <trkpt lat="44.72128" lon="3.2773">
        <ele>1032.11</ele>
        <time>2016-02-24T08:43:47Z</time>
      </trkpt>
      <trkpt lat="44.72135" lon="3.27696">
        <ele>1035</ele>
        <time>2016-02-24T08:43:59Z</time>
      </trkpt>
      <trkpt lat="44.72132" lon="3.2765">
        <ele>1036.44</ele>
        <time>2016-02-24T08:44:13Z</time>
      </trkpt>
      <trkpt lat="44.72107" lon="3.27595">
        <ele>1036.92</ele>
        <time>2016-02-24T08:44:30Z</time>
      </trkpt>
      <trkpt lat="44.72078" lon="3.27532">
        <ele>1038.84</ele>
        <time>2016-02-24T08:44:49Z</time>
      </trkpt>
      <trkpt lat="44.72061" lon="3.27476">
        <ele>1041.73</ele>
        <time>2016-02-24T08:45:06Z</time>
      </trkpt>
      <trkpt lat="44.72031" lon="3.27424">
        <ele>1041.25</ele>
        <time>2016-02-24T08:45:21Z</time>
      </trkpt>
      <trkpt lat="44.72009" lon="3.2739">
        <ele>1040.28</ele>
        <time>2016-02-24T08:45:29Z</time>
      </trkpt>
      <trkpt lat="44.7201" lon="3.27385">
        <ele>1040.28</ele>
        <time>2016-02-24T08:45:30Z</time>
      </trkpt>
      <trkpt lat="44.72013" lon="3.27382">
        <ele>1040.28</ele>
        <time>2016-02-24T08:45:31Z</time>
      </trkpt>
      <trkpt lat="44.72015" lon="3.27378">
        <ele>1040.28</ele>
        <time>2016-02-24T08:45:32Z</time>
      </trkpt>
      <trkpt lat="44.72018" lon="3.27375">
        <ele>1040.28</ele>
        <time>2016-02-24T08:45:33Z</time>
      </trkpt>
      <trkpt lat="44.72039" lon="3.27331">
        <ele>1041.73</ele>
        <time>2016-02-24T08:45:47Z</time>
      </trkpt>
      <trkpt lat="44.72038" lon="3.27329">
        <ele>1042.21</ele>
        <time>2016-02-24T08:45:48Z</time>
      </trkpt>
      <trkpt lat="44.72037" lon="3.27327">
        <ele>1042.21</ele>
        <time>2016-02-24T08:45:49Z</time>
      </trkpt>
      <trkpt lat="44.72037" lon="3.27324">
        <ele>1042.69</ele>
        <time>2016-02-24T08:45:50Z</time>
      </trkpt>
      <trkpt lat="44.72036" lon="3.27321">
        <ele>1042.69</ele>
        <time>2016-02-24T08:45:51Z</time>
      </trkpt>
      <trkpt lat="44.72027" lon="3.2729">
        <ele>1045.09</ele>
        <time>2016-02-24T08:46:02Z</time>
      </trkpt>
      <trkpt lat="44.7202" lon="3.27255">
        <ele>1047.49</ele>
        <time>2016-02-24T08:46:13Z</time>
      </trkpt>
      <trkpt lat="44.72025" lon="3.27197">
        <ele>1047.01</ele>
        <time>2016-02-24T08:46:28Z</time>
      </trkpt>
      <trkpt lat="44.72036" lon="3.27137">
        <ele>1046.53</ele>
        <time>2016-02-24T08:46:42Z</time>
      </trkpt>
      <trkpt lat="44.72045" lon="3.27083">
        <ele>1044.13</ele>
        <time>2016-02-24T08:46:53Z</time>
      </trkpt>
      <trkpt lat="44.72048" lon="3.27028">
        <ele>1040.76</ele>
        <time>2016-02-24T08:47:01Z</time>
      </trkpt>
      <trkpt lat="44.7205" lon="3.26926">
        <ele>1040.28</ele>
        <time>2016-02-24T08:47:16Z</time>
      </trkpt>
      <trkpt lat="44.72041" lon="3.26856">
        <ele>1042.21</ele>
        <time>2016-02-24T08:47:31Z</time>
      </trkpt>
      <trkpt lat="44.72029" lon="3.26801">
        <ele>1045.09</ele>
        <time>2016-02-24T08:47:44Z</time>
      </trkpt>
      <trkpt lat="44.72024" lon="3.2679">
        <ele>1046.53</ele>
        <time>2016-02-24T08:47:47Z</time>
      </trkpt>
      <trkpt lat="44.7201" lon="3.2675">
        <ele>1047.97</ele>
        <time>2016-02-24T08:47:57Z</time>
      </trkpt>
      <trkpt lat="44.71994" lon="3.26685">
        <ele>1050.38</ele>
        <time>2016-02-24T08:48:12Z</time>
      </trkpt>
      <trkpt lat="44.71996" lon="3.26643">
        <ele>1051.34</ele>
        <time>2016-02-24T08:48:22Z</time>
      </trkpt>
      <trkpt lat="44.72003" lon="3.26614">
        <ele>1052.78</ele>
        <time>2016-02-24T08:48:30Z</time>
      </trkpt>
      <trkpt lat="44.72004" lon="3.26612">
        <ele>1052.78</ele>
        <time>2016-02-24T08:48:31Z</time>
      </trkpt>
      <trkpt lat="44.72004" lon="3.26609">
        <ele>1053.26</ele>
        <time>2016-02-24T08:48:32Z</time>
      </trkpt>
      <trkpt lat="44.72005" lon="3.26606">
        <ele>1053.26</ele>
        <time>2016-02-24T08:48:33Z</time>
      </trkpt>
      <trkpt lat="44.72005" lon="3.26602">
        <ele>1053.74</ele>
        <time>2016-02-24T08:48:34Z</time>
      </trkpt>
      <trkpt lat="44.72006" lon="3.26599">
        <ele>1054.22</ele>
        <time>2016-02-24T08:48:35Z</time>
      </trkpt>
      <trkpt lat="44.72007" lon="3.26596">
        <ele>1054.22</ele>
        <time>2016-02-24T08:48:36Z</time>
      </trkpt>
      <trkpt lat="44.72008" lon="3.26593">
        <ele>1054.22</ele>
        <time>2016-02-24T08:48:37Z</time>
      </trkpt>
      <trkpt lat="44.72008" lon="3.2659">
        <ele>1054.22</ele>
        <time>2016-02-24T08:48:38Z</time>
      </trkpt>
      <trkpt lat="44.72009" lon="3.26587">
        <ele>1054.7</ele>
        <time>2016-02-24T08:48:39Z</time>
      </trkpt>
      <trkpt lat="44.7201" lon="3.26584">
        <ele>1054.7</ele>
        <time>2016-02-24T08:48:40Z</time>
      </trkpt>
      <trkpt lat="44.7201" lon="3.2658">
        <ele>1055.18</ele>
        <time>2016-02-24T08:48:41Z</time>
      </trkpt>
      <trkpt lat="44.72009" lon="3.26576">
        <ele>1055.18</ele>
        <time>2016-02-24T08:48:42Z</time>
      </trkpt>
      <trkpt lat="44.72008" lon="3.26572">
        <ele>1055.67</ele>
        <time>2016-02-24T08:48:43Z</time>
      </trkpt>
      <trkpt lat="44.72008" lon="3.26569">
        <ele>1055.67</ele>
        <time>2016-02-24T08:48:44Z</time>
      </trkpt>
      <trkpt lat="44.72009" lon="3.26566">
        <ele>1055.67</ele>
        <time>2016-02-24T08:48:45Z</time>
      </trkpt>
      <trkpt lat="44.7201" lon="3.26562">
        <ele>1055.67</ele>
        <time>2016-02-24T08:48:46Z</time>
      </trkpt>
      <trkpt lat="44.72011" lon="3.26559">
        <ele>1055.67</ele>
        <time>2016-02-24T08:48:47Z</time>
      </trkpt>
      <trkpt lat="44.72011" lon="3.26556">
        <ele>1056.15</ele>
        <time>2016-02-24T08:48:48Z</time>
      </trkpt>
      <trkpt lat="44.72011" lon="3.26553">
        <ele>1056.15</ele>
        <time>2016-02-24T08:48:49Z</time>
      </trkpt>
      <trkpt lat="44.72011" lon="3.2655">
        <ele>1056.15</ele>
        <time>2016-02-24T08:48:50Z</time>
      </trkpt>
      <trkpt lat="44.7201" lon="3.26543">
        <ele>1058.07</ele>
        <time>2016-02-24T08:48:52Z</time>
      </trkpt>
      <trkpt lat="44.7201" lon="3.2654">
        <ele>1054.7</ele>
        <time>2016-02-24T08:48:53Z</time>
      </trkpt>
      <trkpt lat="44.72011" lon="3.26535">
        <ele>1058.07</ele>
        <time>2016-02-24T08:48:55Z</time>
      </trkpt>
      <trkpt lat="44.72013" lon="3.26526">
        <ele>1057.11</ele>
        <time>2016-02-24T08:48:58Z</time>
      </trkpt>
      <trkpt lat="44.72012" lon="3.26522">
        <ele>1057.11</ele>
        <time>2016-02-24T08:48:59Z</time>
      </trkpt>
      <trkpt lat="44.72012" lon="3.26519">
        <ele>1057.11</ele>
        <time>2016-02-24T08:49:00Z</time>
      </trkpt>
      <trkpt lat="44.72015" lon="3.26508">
        <ele>1058.07</ele>
        <time>2016-02-24T08:49:03Z</time>
      </trkpt>
      <trkpt lat="44.72016" lon="3.26505">
        <ele>1058.55</ele>
        <time>2016-02-24T08:49:04Z</time>
      </trkpt>
      <trkpt lat="44.72022" lon="3.26455">
        <ele>1060.47</ele>
        <time>2016-02-24T08:49:18Z</time>
      </trkpt>
      <trkpt lat="44.72021" lon="3.26404">
        <ele>1062.39</ele>
        <time>2016-02-24T08:49:32Z</time>
      </trkpt>
      <trkpt lat="44.72013" lon="3.26346">
        <ele>1064.32</ele>
        <time>2016-02-24T08:49:48Z</time>
      </trkpt>
      <trkpt lat="44.7201" lon="3.26327">
        <ele>1065.76</ele>
        <time>2016-02-24T08:49:54Z</time>
      </trkpt>
      <trkpt lat="44.7201" lon="3.26324">
        <ele>1065.76</ele>
        <time>2016-02-24T08:49:55Z</time>
      </trkpt>
      <trkpt lat="44.72001" lon="3.26284">
        <ele>1067.2</ele>
        <time>2016-02-24T08:50:07Z</time>
      </trkpt>
      <trkpt lat="44.71989" lon="3.26236">
        <ele>1068.16</ele>
        <time>2016-02-24T08:50:21Z</time>
      </trkpt>
      <trkpt lat="44.71988" lon="3.26229">
        <ele>1068.16</ele>
        <time>2016-02-24T08:50:23Z</time>
      </trkpt>
      <trkpt lat="44.71988" lon="3.26226">
        <ele>1068.64</ele>
        <time>2016-02-24T08:50:24Z</time>
      </trkpt>
      <trkpt lat="44.71987" lon="3.26173">
        <ele>1069.12</ele>
        <time>2016-02-24T08:50:37Z</time>
      </trkpt>
      <trkpt lat="44.71991" lon="3.26121">
        <ele>1069.6</ele>
        <time>2016-02-24T08:50:51Z</time>
      </trkpt>
      <trkpt lat="44.72" lon="3.26077">
        <ele>1070.57</ele>
        <time>2016-02-24T08:51:03Z</time>
      </trkpt>
      <trkpt lat="44.72011" lon="3.2603">
        <ele>1072.01</ele>
        <time>2016-02-24T08:51:17Z</time>
      </trkpt>
      <trkpt lat="44.72015" lon="3.25996">
        <ele>1072.49</ele>
        <time>2016-02-24T08:51:28Z</time>
      </trkpt>
      <trkpt lat="44.72026" lon="3.25963">
        <ele>1072.49</ele>
        <time>2016-02-24T08:51:39Z</time>
      </trkpt>
      <trkpt lat="44.72037" lon="3.25919">
        <ele>1072.97</ele>
        <time>2016-02-24T08:51:52Z</time>
      </trkpt>
      <trkpt lat="44.72046" lon="3.25866">
        <ele>1074.89</ele>
        <time>2016-02-24T08:52:08Z</time>
      </trkpt>
      <trkpt lat="44.72051" lon="3.25806">
        <ele>1076.33</ele>
        <time>2016-02-24T08:52:25Z</time>
      </trkpt>
      <trkpt lat="44.72058" lon="3.25751">
        <ele>1077.78</ele>
        <time>2016-02-24T08:52:41Z</time>
      </trkpt>
      <trkpt lat="44.72061" lon="3.25743">
        <ele>1078.26</ele>
        <time>2016-02-24T08:52:44Z</time>
      </trkpt>
      <trkpt lat="44.72061" lon="3.25739">
        <ele>1078.26</ele>
        <time>2016-02-24T08:52:45Z</time>
      </trkpt>
      <trkpt lat="44.72061" lon="3.25736">
        <ele>1078.26</ele>
        <time>2016-02-24T08:52:46Z</time>
      </trkpt>
      <trkpt lat="44.72062" lon="3.25733">
        <ele>1078.74</ele>
        <time>2016-02-24T08:52:47Z</time>
      </trkpt>
      <trkpt lat="44.72063" lon="3.25731">
        <ele>1078.74</ele>
        <time>2016-02-24T08:52:48Z</time>
      </trkpt>
      <trkpt lat="44.72064" lon="3.25728">
        <ele>1078.74</ele>
        <time>2016-02-24T08:52:49Z</time>
      </trkpt>
      <trkpt lat="44.72064" lon="3.25726">
        <ele>1078.74</ele>
        <time>2016-02-24T08:52:50Z</time>
      </trkpt>
      <trkpt lat="44.72065" lon="3.25723">
        <ele>1078.74</ele>
        <time>2016-02-24T08:52:51Z</time>
      </trkpt>
      <trkpt lat="44.72066" lon="3.25721">
        <ele>1079.22</ele>
        <time>2016-02-24T08:52:52Z</time>
      </trkpt>
      <trkpt lat="44.72066" lon="3.25718">
        <ele>1078.74</ele>
        <time>2016-02-24T08:52:53Z</time>
      </trkpt>
      <trkpt lat="44.72079" lon="3.25683">
        <ele>1080.66</ele>
        <time>2016-02-24T08:53:07Z</time>
      </trkpt>
      <trkpt lat="44.72093" lon="3.2565">
        <ele>1081.62</ele>
        <time>2016-02-24T08:53:19Z</time>
      </trkpt>
      <trkpt lat="44.72109" lon="3.25613">
        <ele>1083.06</ele>
        <time>2016-02-24T08:53:32Z</time>
      </trkpt>
      <trkpt lat="44.72134" lon="3.25569">
        <ele>1084.5</ele>
        <time>2016-02-24T08:53:49Z</time>
      </trkpt>
      <trkpt lat="44.72135" lon="3.25568">
        <ele>1084.5</ele>
        <time>2016-02-24T08:54:01Z</time>
      </trkpt>
      <trkpt lat="44.72136" lon="3.25563">
        <ele>1084.02</ele>
        <time>2016-02-24T08:54:23Z</time>
      </trkpt>
      <trkpt lat="44.72136" lon="3.2556">
        <ele>1084.02</ele>
        <time>2016-02-24T08:54:24Z</time>
      </trkpt>
      <trkpt lat="44.72138" lon="3.25558">
        <ele>1084.02</ele>
        <time>2016-02-24T08:54:25Z</time>
      </trkpt>
      <trkpt lat="44.72139" lon="3.25556">
        <ele>1084.02</ele>
        <time>2016-02-24T08:54:26Z</time>
      </trkpt>
      <trkpt lat="44.7214" lon="3.25553">
        <ele>1083.54</ele>
        <time>2016-02-24T08:54:27Z</time>
      </trkpt>
      <trkpt lat="44.72157" lon="3.25503">
        <ele>1084.99</ele>
        <time>2016-02-24T08:54:43Z</time>
      </trkpt>
      <trkpt lat="44.72171" lon="3.25459">
        <ele>1085.95</ele>
        <time>2016-02-24T08:54:57Z</time>
      </trkpt>
      <trkpt lat="44.7218" lon="3.2542">
        <ele>1085.95</ele>
        <time>2016-02-24T08:55:12Z</time>
      </trkpt>
      <trkpt lat="44.72188" lon="3.25384">
        <ele>1086.43</ele>
        <time>2016-02-24T08:55:26Z</time>
      </trkpt>
      <trkpt lat="44.72197" lon="3.2535">
        <ele>1086.91</ele>
        <time>2016-02-24T08:55:39Z</time>
      </trkpt>
      <trkpt lat="44.72207" lon="3.25309">
        <ele>1087.87</ele>
        <time>2016-02-24T08:55:52Z</time>
      </trkpt>
      <trkpt lat="44.7221" lon="3.25277">
        <ele>1088.83</ele>
        <time>2016-02-24T08:56:03Z</time>
      </trkpt>
      <trkpt lat="44.72213" lon="3.25238">
        <ele>1089.79</ele>
        <time>2016-02-24T08:56:16Z</time>
      </trkpt>
      <trkpt lat="44.72216" lon="3.25222">
        <ele>1089.31</ele>
        <time>2016-02-24T08:56:21Z</time>
      </trkpt>
      <trkpt lat="44.72217" lon="3.25219">
        <ele>1089.79</ele>
        <time>2016-02-24T08:56:22Z</time>
      </trkpt>
      <trkpt lat="44.72217" lon="3.25216">
        <ele>1089.79</ele>
        <time>2016-02-24T08:56:23Z</time>
      </trkpt>
      <trkpt lat="44.72218" lon="3.25213">
        <ele>1089.79</ele>
        <time>2016-02-24T08:56:24Z</time>
      </trkpt>
      <trkpt lat="44.72218" lon="3.25211">
        <ele>1089.79</ele>
        <time>2016-02-24T08:56:25Z</time>
      </trkpt>
      <trkpt lat="44.72219" lon="3.25208">
        <ele>1089.79</ele>
        <time>2016-02-24T08:56:26Z</time>
      </trkpt>
      <trkpt lat="44.72219" lon="3.25206">
        <ele>1090.27</ele>
        <time>2016-02-24T08:56:27Z</time>
      </trkpt>
      <trkpt lat="44.72219" lon="3.25204">
        <ele>1090.27</ele>
        <time>2016-02-24T08:56:28Z</time>
      </trkpt>
      <trkpt lat="44.72221" lon="3.25201">
        <ele>1090.75</ele>
        <time>2016-02-24T08:56:39Z</time>
      </trkpt>
      <trkpt lat="44.72221" lon="3.25199">
        <ele>1090.75</ele>
        <time>2016-02-24T08:56:54Z</time>
      </trkpt>
      <trkpt lat="44.7222" lon="3.25197">
        <ele>1090.75</ele>
        <time>2016-02-24T08:56:55Z</time>
      </trkpt>
      <trkpt lat="44.72221" lon="3.25159">
        <ele>1092.2</ele>
        <time>2016-02-24T08:57:08Z</time>
      </trkpt>
      <trkpt lat="44.72211" lon="3.25106">
        <ele>1092.2</ele>
        <time>2016-02-24T08:57:23Z</time>
      </trkpt>
      <trkpt lat="44.72212" lon="3.25059">
        <ele>1092.68</ele>
        <time>2016-02-24T08:57:36Z</time>
      </trkpt>
      <trkpt lat="44.72231" lon="3.25014">
        <ele>1094.12</ele>
        <time>2016-02-24T08:57:51Z</time>
      </trkpt>
      <trkpt lat="44.72249" lon="3.24973">
        <ele>1096.52</ele>
        <time>2016-02-24T08:58:07Z</time>
      </trkpt>
      <trkpt lat="44.7226" lon="3.24947">
        <ele>1099.4</ele>
        <time>2016-02-24T08:58:19Z</time>
      </trkpt>
      <trkpt lat="44.72275" lon="3.24909">
        <ele>1102.77</ele>
        <time>2016-02-24T08:58:35Z</time>
      </trkpt>
      <trkpt lat="44.72288" lon="3.24874">
        <ele>1105.65</ele>
        <time>2016-02-24T08:58:50Z</time>
      </trkpt>
      <trkpt lat="44.72294" lon="3.24844">
        <ele>1107.1</ele>
        <time>2016-02-24T08:59:01Z</time>
      </trkpt>
      <trkpt lat="44.72304" lon="3.24788">
        <ele>1109.02</ele>
        <time>2016-02-24T08:59:19Z</time>
      </trkpt>
      <trkpt lat="44.72323" lon="3.24724">
        <ele>1107.58</ele>
        <time>2016-02-24T08:59:36Z</time>
      </trkpt>
      <trkpt lat="44.72365" lon="3.2462">
        <ele>1105.65</ele>
        <time>2016-02-24T08:59:55Z</time>
      </trkpt>
      <trkpt lat="44.72392" lon="3.24535">
        <ele>1105.17</ele>
        <time>2016-02-24T09:00:11Z</time>
      </trkpt>
      <trkpt lat="44.72406" lon="3.24432">
        <ele>1105.65</ele>
        <time>2016-02-24T09:00:29Z</time>
      </trkpt>
      <trkpt lat="44.72429" lon="3.24374">
        <ele>1107.1</ele>
        <time>2016-02-24T09:00:44Z</time>
      </trkpt>
      <trkpt lat="44.72446" lon="3.24334">
        <ele>1110.46</ele>
        <time>2016-02-24T09:00:58Z</time>
      </trkpt>
      <trkpt lat="44.72448" lon="3.24329">
        <ele>1111.42</ele>
        <time>2016-02-24T09:01:00Z</time>
      </trkpt>
      <trkpt lat="44.72458" lon="3.24299">
        <ele>1114.31</ele>
        <time>2016-02-24T09:01:11Z</time>
      </trkpt>
      <trkpt lat="44.72477" lon="3.24239">
        <ele>1116.71</ele>
        <time>2016-02-24T09:01:30Z</time>
      </trkpt>
      <trkpt lat="44.7249" lon="3.24204">
        <ele>1116.71</ele>
        <time>2016-02-24T09:01:45Z</time>
      </trkpt>
      <trkpt lat="44.7251" lon="3.24157">
        <ele>1117.67</ele>
        <time>2016-02-24T09:02:03Z</time>
      </trkpt>
      <trkpt lat="44.72532" lon="3.24103">
        <ele>1118.63</ele>
        <time>2016-02-24T09:02:22Z</time>
      </trkpt>
      <trkpt lat="44.72545" lon="3.24052">
        <ele>1119.59</ele>
        <time>2016-02-24T09:02:38Z</time>
      </trkpt>
      <trkpt lat="44.72552" lon="3.24013">
        <ele>1122.96</ele>
        <time>2016-02-24T09:02:51Z</time>
      </trkpt>
      <trkpt lat="44.72558" lon="3.23963">
        <ele>1124.88</ele>
        <time>2016-02-24T09:03:06Z</time>
      </trkpt>
      <trkpt lat="44.72571" lon="3.23919">
        <ele>1126.32</ele>
        <time>2016-02-24T09:03:21Z</time>
      </trkpt>
      <trkpt lat="44.72584" lon="3.23883">
        <ele>1127.28</ele>
        <time>2016-02-24T09:03:34Z</time>
      </trkpt>
      <trkpt lat="44.72591" lon="3.23866">
        <ele>1127.76</ele>
        <time>2016-02-24T09:03:42Z</time>
      </trkpt>
      <trkpt lat="44.72592" lon="3.23866">
        <ele>1128.73</ele>
        <time>2016-02-24T09:03:46Z</time>
      </trkpt>
      <trkpt lat="44.72592" lon="3.23866">
        <ele>1128.73</ele>
        <time>2016-02-24T09:04:20Z</time>
      </trkpt>
      <trkpt lat="44.72592" lon="3.23864">
        <ele>1129.21</ele>
        <time>2016-02-24T09:04:37Z</time>
      </trkpt>
      <trkpt lat="44.72592" lon="3.23863">
        <ele>1128.73</ele>
        <time>2016-02-24T09:04:38Z</time>
      </trkpt>
      <trkpt lat="44.72593" lon="3.23861">
        <ele>1128.73</ele>
        <time>2016-02-24T09:04:39Z</time>
      </trkpt>
      <trkpt lat="44.72594" lon="3.2386">
        <ele>1128.73</ele>
        <time>2016-02-24T09:04:40Z</time>
      </trkpt>
      <trkpt lat="44.72595" lon="3.23858">
        <ele>1129.21</ele>
        <time>2016-02-24T09:04:41Z</time>
      </trkpt>
      <trkpt lat="44.72604" lon="3.23831">
        <ele>1128.73</ele>
        <time>2016-02-24T09:04:53Z</time>
      </trkpt>
      <trkpt lat="44.7262" lon="3.23791">
        <ele>1130.17</ele>
        <time>2016-02-24T09:05:09Z</time>
      </trkpt>
      <trkpt lat="44.72641" lon="3.2374">
        <ele>1131.13</ele>
        <time>2016-02-24T09:05:27Z</time>
      </trkpt>
      <trkpt lat="44.72657" lon="3.23698">
        <ele>1132.09</ele>
        <time>2016-02-24T09:05:41Z</time>
      </trkpt>
      <trkpt lat="44.72672" lon="3.23657">
        <ele>1134.49</ele>
        <time>2016-02-24T09:05:55Z</time>
      </trkpt>
      <trkpt lat="44.72672" lon="3.23654">
        <ele>1134.01</ele>
        <time>2016-02-24T09:05:56Z</time>
      </trkpt>
      <trkpt lat="44.72672" lon="3.23652">
        <ele>1134.01</ele>
        <time>2016-02-24T09:05:57Z</time>
      </trkpt>
      <trkpt lat="44.72671" lon="3.23649">
        <ele>1134.49</ele>
        <time>2016-02-24T09:05:58Z</time>
      </trkpt>
      <trkpt lat="44.72669" lon="3.23647">
        <ele>1134.01</ele>
        <time>2016-02-24T09:05:59Z</time>
      </trkpt>
      <trkpt lat="44.72668" lon="3.23644">
        <ele>1134.49</ele>
        <time>2016-02-24T09:06:00Z</time>
      </trkpt>
      <trkpt lat="44.72666" lon="3.23642">
        <ele>1134.97</ele>
        <time>2016-02-24T09:06:01Z</time>
      </trkpt>
      <trkpt lat="44.72665" lon="3.23641">
        <ele>1134.97</ele>
        <time>2016-02-24T09:06:02Z</time>
      </trkpt>
      <trkpt lat="44.72663" lon="3.2364">
        <ele>1134.97</ele>
        <time>2016-02-24T09:06:03Z</time>
      </trkpt>
      <trkpt lat="44.72661" lon="3.23639">
        <ele>1134.49</ele>
        <time>2016-02-24T09:06:04Z</time>
      </trkpt>
      <trkpt lat="44.72633" lon="3.23624">
        <ele>1136.42</ele>
        <time>2016-02-24T09:06:18Z</time>
      </trkpt>
      <trkpt lat="44.72603" lon="3.23599">
        <ele>1135.45</ele>
        <time>2016-02-24T09:06:30Z</time>
      </trkpt>
      <trkpt lat="44.7259" lon="3.23586">
        <ele>1134.01</ele>
        <time>2016-02-24T09:06:34Z</time>
      </trkpt>
      <trkpt lat="44.7258" lon="3.23573">
        <ele>1134.01</ele>
        <time>2016-02-24T09:06:37Z</time>
      </trkpt>
      <trkpt lat="44.7255" lon="3.23533">
        <ele>1133.53</ele>
        <time>2016-02-24T09:06:46Z</time>
      </trkpt>
      <trkpt lat="44.72542" lon="3.23525">
        <ele>1133.05</ele>
        <time>2016-02-24T09:06:48Z</time>
      </trkpt>
      <trkpt lat="44.72538" lon="3.23521">
        <ele>1133.05</ele>
        <time>2016-02-24T09:06:49Z</time>
      </trkpt>
      <trkpt lat="44.72534" lon="3.23518">
        <ele>1133.05</ele>
        <time>2016-02-24T09:06:50Z</time>
      </trkpt>
      <trkpt lat="44.72531" lon="3.23515">
        <ele>1133.53</ele>
        <time>2016-02-24T09:06:51Z</time>
      </trkpt>
      <trkpt lat="44.72527" lon="3.23512">
        <ele>1133.53</ele>
        <time>2016-02-24T09:06:52Z</time>
      </trkpt>
      <trkpt lat="44.72523" lon="3.23509">
        <ele>1134.01</ele>
        <time>2016-02-24T09:06:53Z</time>
      </trkpt>
      <trkpt lat="44.72483" lon="3.23473">
        <ele>1135.94</ele>
        <time>2016-02-24T09:07:06Z</time>
      </trkpt>
      <trkpt lat="44.72461" lon="3.2344">
        <ele>1135.94</ele>
        <time>2016-02-24T09:07:15Z</time>
      </trkpt>
      <trkpt lat="44.72438" lon="3.23413">
        <ele>1135.94</ele>
        <time>2016-02-24T09:07:23Z</time>
      </trkpt>
      <trkpt lat="44.72435" lon="3.23408">
        <ele>1135.45</ele>
        <time>2016-02-24T09:07:24Z</time>
      </trkpt>
      <trkpt lat="44.72429" lon="3.234">
        <ele>1135.45</ele>
        <time>2016-02-24T09:07:26Z</time>
      </trkpt>
      <trkpt lat="44.72411" lon="3.23382">
        <ele>1135.45</ele>
        <time>2016-02-24T09:07:31Z</time>
      </trkpt>
      <trkpt lat="44.72398" lon="3.23363">
        <ele>1134.49</ele>
        <time>2016-02-24T09:07:35Z</time>
      </trkpt>
      <trkpt lat="44.72383" lon="3.23337">
        <ele>1132.09</ele>
        <time>2016-02-24T09:07:40Z</time>
      </trkpt>
      <trkpt lat="44.7238" lon="3.23331">
        <ele>1131.61</ele>
        <time>2016-02-24T09:07:41Z</time>
      </trkpt>
      <trkpt lat="44.7236" lon="3.2329">
        <ele>1128.73</ele>
        <time>2016-02-24T09:07:47Z</time>
      </trkpt>
      <trkpt lat="44.72315" lon="3.23223">
        <ele>1127.76</ele>
        <time>2016-02-24T09:07:57Z</time>
      </trkpt>
      <trkpt lat="44.72311" lon="3.23218">
        <ele>1127.76</ele>
        <time>2016-02-24T09:07:58Z</time>
      </trkpt>
      <trkpt lat="44.72262" lon="3.23179">
        <ele>1130.65</ele>
        <time>2016-02-24T09:08:10Z</time>
      </trkpt>
      <trkpt lat="44.72253" lon="3.23172">
        <ele>1130.65</ele>
        <time>2016-02-24T09:08:14Z</time>
      </trkpt>
      <trkpt lat="44.72251" lon="3.23173">
        <ele>1130.65</ele>
        <time>2016-02-24T09:08:15Z</time>
      </trkpt>
      <trkpt lat="44.7225" lon="3.23178">
        <ele>1130.17</ele>
        <time>2016-02-24T09:08:18Z</time>
      </trkpt>
      <trkpt lat="44.72251" lon="3.23187">
        <ele>1130.17</ele>
        <time>2016-02-24T09:08:28Z</time>
      </trkpt>
      <trkpt lat="44.72251" lon="3.23189">
        <ele>1129.69</ele>
        <time>2016-02-24T09:08:48Z</time>
      </trkpt>
      <trkpt lat="44.7225" lon="3.23196">
        <ele>1129.69</ele>
        <time>2016-02-24T09:09:04Z</time>
      </trkpt>
      <trkpt lat="44.72251" lon="3.23203">
        <ele>1129.21</ele>
        <time>2016-02-24T09:09:17Z</time>
      </trkpt>
      <trkpt lat="44.72253" lon="3.23204">
        <ele>1129.21</ele>
        <time>2016-02-24T09:09:47Z</time>
      </trkpt>
      <trkpt lat="44.72253" lon="3.23202">
        <ele>1129.21</ele>
        <time>2016-02-24T09:09:49Z</time>
      </trkpt>
      <trkpt lat="44.72252" lon="3.232">
        <ele>1129.21</ele>
        <time>2016-02-24T09:09:50Z</time>
      </trkpt>
      <trkpt lat="44.72251" lon="3.23199">
        <ele>1129.21</ele>
        <time>2016-02-24T09:09:51Z</time>
      </trkpt>
      <trkpt lat="44.72251" lon="3.23197">
        <ele>1129.21</ele>
        <time>2016-02-24T09:09:52Z</time>
      </trkpt>
      <trkpt lat="44.72251" lon="3.23195">
        <ele>1129.21</ele>
        <time>2016-02-24T09:09:53Z</time>
      </trkpt>
      <trkpt lat="44.72241" lon="3.23153">
        <ele>1129.69</ele>
        <time>2016-02-24T09:10:05Z</time>
      </trkpt>
      <trkpt lat="44.7222" lon="3.2312">
        <ele>1129.69</ele>
        <time>2016-02-24T09:10:15Z</time>
      </trkpt>
      <trkpt lat="44.72197" lon="3.23083">
        <ele>1130.65</ele>
        <time>2016-02-24T09:10:25Z</time>
      </trkpt>
      <trkpt lat="44.72179" lon="3.23055">
        <ele>1131.13</ele>
        <time>2016-02-24T09:10:33Z</time>
      </trkpt>
      <trkpt lat="44.72156" lon="3.23018">
        <ele>1132.57</ele>
        <time>2016-02-24T09:10:45Z</time>
      </trkpt>
      <trkpt lat="44.72132" lon="3.23006">
        <ele>1134.01</ele>
        <time>2016-02-24T09:10:57Z</time>
      </trkpt>
      <trkpt lat="44.72112" lon="3.22983">
        <ele>1136.42</ele>
        <time>2016-02-24T09:11:10Z</time>
      </trkpt>
      <trkpt lat="44.72096" lon="3.22966">
        <ele>1139.3</ele>
        <time>2016-02-24T09:11:20Z</time>
      </trkpt>
      <trkpt lat="44.72078" lon="3.22948">
        <ele>1142.18</ele>
        <time>2016-02-24T09:11:33Z</time>
      </trkpt>
      <trkpt lat="44.72073" lon="3.22945">
        <ele>1142.66</ele>
        <time>2016-02-24T09:11:36Z</time>
      </trkpt>
      <trkpt lat="44.72068" lon="3.22941">
        <ele>1143.63</ele>
        <time>2016-02-24T09:11:39Z</time>
      </trkpt>
      <trkpt lat="44.72066" lon="3.22939">
        <ele>1144.11</ele>
        <time>2016-02-24T09:11:40Z</time>
      </trkpt>
      <trkpt lat="44.72065" lon="3.22938">
        <ele>1144.11</ele>
        <time>2016-02-24T09:11:41Z</time>
      </trkpt>
      <trkpt lat="44.72042" lon="3.22924">
        <ele>1146.99</ele>
        <time>2016-02-24T09:11:55Z</time>
      </trkpt>
      <trkpt lat="44.72021" lon="3.22908">
        <ele>1148.91</ele>
        <time>2016-02-24T09:12:09Z</time>
      </trkpt>
      <trkpt lat="44.72012" lon="3.22899">
        <ele>1149.39</ele>
        <time>2016-02-24T09:12:15Z</time>
      </trkpt>
      <trkpt lat="44.72011" lon="3.22898">
        <ele>1149.39</ele>
        <time>2016-02-24T09:12:16Z</time>
      </trkpt>
      <trkpt lat="44.7201" lon="3.22897">
        <ele>1149.87</ele>
        <time>2016-02-24T09:12:17Z</time>
      </trkpt>
      <trkpt lat="44.72009" lon="3.22896">
        <ele>1150.35</ele>
        <time>2016-02-24T09:12:18Z</time>
      </trkpt>
      <trkpt lat="44.72007" lon="3.22895">
        <ele>1150.35</ele>
        <time>2016-02-24T09:12:19Z</time>
      </trkpt>
      <trkpt lat="44.72005" lon="3.22889">
        <ele>1150.84</ele>
        <time>2016-02-24T09:12:33Z</time>
      </trkpt>
      <trkpt lat="44.72005" lon="3.2289">
        <ele>1151.32</ele>
        <time>2016-02-24T09:12:52Z</time>
      </trkpt>
      <trkpt lat="44.72004" lon="3.2289">
        <ele>1150.84</ele>
        <time>2016-02-24T09:13:06Z</time>
      </trkpt>
      <trkpt lat="44.72003" lon="3.2289">
        <ele>1150.84</ele>
        <time>2016-02-24T09:13:07Z</time>
      </trkpt>
      <trkpt lat="44.72002" lon="3.22889">
        <ele>1150.35</ele>
        <time>2016-02-24T09:13:09Z</time>
      </trkpt>
      <trkpt lat="44.72001" lon="3.22887">
        <ele>1150.84</ele>
        <time>2016-02-24T09:13:24Z</time>
      </trkpt>
      <trkpt lat="44.71998" lon="3.22881">
        <ele>1151.32</ele>
        <time>2016-02-24T09:13:39Z</time>
      </trkpt>
      <trkpt lat="44.71999" lon="3.22882">
        <ele>1151.8</ele>
        <time>2016-02-24T09:14:01Z</time>
      </trkpt>
      <trkpt lat="44.71999" lon="3.22882">
        <ele>1151.32</ele>
        <time>2016-02-24T09:14:28Z</time>
      </trkpt>
      <trkpt lat="44.71994" lon="3.22878">
        <ele>1151.32</ele>
        <time>2016-02-24T09:14:46Z</time>
      </trkpt>
      <trkpt lat="44.71994" lon="3.22876">
        <ele>1151.32</ele>
        <time>2016-02-24T09:14:47Z</time>
      </trkpt>
      <trkpt lat="44.71992" lon="3.22875">
        <ele>1151.32</ele>
        <time>2016-02-24T09:14:48Z</time>
      </trkpt>
      <trkpt lat="44.71991" lon="3.22873">
        <ele>1151.8</ele>
        <time>2016-02-24T09:14:49Z</time>
      </trkpt>
      <trkpt lat="44.71989" lon="3.22873">
        <ele>1151.8</ele>
        <time>2016-02-24T09:14:50Z</time>
      </trkpt>
      <trkpt lat="44.71988" lon="3.22872">
        <ele>1151.8</ele>
        <time>2016-02-24T09:14:51Z</time>
      </trkpt>
      <trkpt lat="44.71986" lon="3.2287">
        <ele>1151.8</ele>
        <time>2016-02-24T09:14:52Z</time>
      </trkpt>
      <trkpt lat="44.71985" lon="3.22869">
        <ele>1151.8</ele>
        <time>2016-02-24T09:14:53Z</time>
      </trkpt>
      <trkpt lat="44.71984" lon="3.22868">
        <ele>1151.8</ele>
        <time>2016-02-24T09:14:54Z</time>
      </trkpt>
      <trkpt lat="44.71983" lon="3.22867">
        <ele>1151.8</ele>
        <time>2016-02-24T09:14:55Z</time>
      </trkpt>
      <trkpt lat="44.71981" lon="3.22865">
        <ele>1151.8</ele>
        <time>2016-02-24T09:14:56Z</time>
      </trkpt>
      <trkpt lat="44.7198" lon="3.22864">
        <ele>1152.28</ele>
        <time>2016-02-24T09:14:57Z</time>
      </trkpt>
      <trkpt lat="44.71976" lon="3.22859">
        <ele>1152.76</ele>
        <time>2016-02-24T09:15:01Z</time>
      </trkpt>
      <trkpt lat="44.71974" lon="3.22858">
        <ele>1152.76</ele>
        <time>2016-02-24T09:15:02Z</time>
      </trkpt>
      <trkpt lat="44.71973" lon="3.22857">
        <ele>1153.24</ele>
        <time>2016-02-24T09:15:03Z</time>
      </trkpt>
      <trkpt lat="44.71972" lon="3.22855">
        <ele>1152.76</ele>
        <time>2016-02-24T09:15:04Z</time>
      </trkpt>
      <trkpt lat="44.7197" lon="3.22854">
        <ele>1153.24</ele>
        <time>2016-02-24T09:15:05Z</time>
      </trkpt>
      <trkpt lat="44.71953" lon="3.22835">
        <ele>1155.16</ele>
        <time>2016-02-24T09:15:18Z</time>
      </trkpt>
      <trkpt lat="44.71935" lon="3.22812">
        <ele>1155.64</ele>
        <time>2016-02-24T09:15:31Z</time>
      </trkpt>
      <trkpt lat="44.71915" lon="3.22785">
        <ele>1157.08</ele>
        <time>2016-02-24T09:15:44Z</time>
      </trkpt>
      <trkpt lat="44.71888" lon="3.22755">
        <ele>1158.53</ele>
        <time>2016-02-24T09:15:58Z</time>
      </trkpt>
      <trkpt lat="44.71861" lon="3.22729">
        <ele>1159.49</ele>
        <time>2016-02-24T09:16:12Z</time>
      </trkpt>
      <trkpt lat="44.71832" lon="3.22708">
        <ele>1159.49</ele>
        <time>2016-02-24T09:16:27Z</time>
      </trkpt>
      <trkpt lat="44.71801" lon="3.22694">
        <ele>1155.64</ele>
        <time>2016-02-24T09:16:34Z</time>
      </trkpt>
      <trkpt lat="44.71773" lon="3.22685">
        <ele>1152.76</ele>
        <time>2016-02-24T09:16:38Z</time>
      </trkpt>
      <trkpt lat="44.71752" lon="3.22673">
        <ele>1151.32</ele>
        <time>2016-02-24T09:16:41Z</time>
      </trkpt>
      <trkpt lat="44.7172" lon="3.22647">
        <ele>1148.91</ele>
        <time>2016-02-24T09:16:46Z</time>
      </trkpt>
      <trkpt lat="44.71701" lon="3.22626">
        <ele>1149.39</ele>
        <time>2016-02-24T09:16:53Z</time>
      </trkpt>
      <trkpt lat="44.71701" lon="3.22624">
        <ele>1149.39</ele>
        <time>2016-02-24T09:17:04Z</time>
      </trkpt>
      <trkpt lat="44.7169" lon="3.22606">
        <ele>1146.51</ele>
        <time>2016-02-24T09:17:10Z</time>
      </trkpt>
      <trkpt lat="44.71678" lon="3.22586">
        <ele>1143.14</ele>
        <time>2016-02-24T09:17:13Z</time>
      </trkpt>
      <trkpt lat="44.71673" lon="3.22578">
        <ele>1141.7</ele>
        <time>2016-02-24T09:17:14Z</time>
      </trkpt>
      <trkpt lat="44.71667" lon="3.2257">
        <ele>1139.3</ele>
        <time>2016-02-24T09:17:15Z</time>
      </trkpt>
      <trkpt lat="44.71654" lon="3.22554">
        <ele>1135.94</ele>
        <time>2016-02-24T09:17:17Z</time>
      </trkpt>
      <trkpt lat="44.71636" lon="3.22523">
        <ele>1131.61</ele>
        <time>2016-02-24T09:17:20Z</time>
      </trkpt>
      <trkpt lat="44.71621" lon="3.22499">
        <ele>1125.84</ele>
        <time>2016-02-24T09:17:22Z</time>
      </trkpt>
      <trkpt lat="44.71612" lon="3.22488">
        <ele>1124.4</ele>
        <time>2016-02-24T09:17:23Z</time>
      </trkpt>
      <trkpt lat="44.71603" lon="3.22479">
        <ele>1122.96</ele>
        <time>2016-02-24T09:17:24Z</time>
      </trkpt>
      <trkpt lat="44.71593" lon="3.22473">
        <ele>1122.96</ele>
        <time>2016-02-24T09:17:25Z</time>
      </trkpt>
      <trkpt lat="44.71584" lon="3.2247">
        <ele>1122</ele>
        <time>2016-02-24T09:17:26Z</time>
      </trkpt>
      <trkpt lat="44.71574" lon="3.22468">
        <ele>1121.52</ele>
        <time>2016-02-24T09:17:27Z</time>
      </trkpt>
      <trkpt lat="44.71564" lon="3.22468">
        <ele>1121.03</ele>
        <time>2016-02-24T09:17:28Z</time>
      </trkpt>
      <trkpt lat="44.71555" lon="3.22468">
        <ele>1121.03</ele>
        <time>2016-02-24T09:17:29Z</time>
      </trkpt>
      <trkpt lat="44.71547" lon="3.22466">
        <ele>1121.52</ele>
        <time>2016-02-24T09:17:30Z</time>
      </trkpt>
      <trkpt lat="44.7154" lon="3.2246">
        <ele>1121.03</ele>
        <time>2016-02-24T09:17:31Z</time>
      </trkpt>
      <trkpt lat="44.71536" lon="3.22451">
        <ele>1120.55</ele>
        <time>2016-02-24T09:17:32Z</time>
      </trkpt>
      <trkpt lat="44.71534" lon="3.22441">
        <ele>1119.59</ele>
        <time>2016-02-24T09:17:33Z</time>
      </trkpt>
      <trkpt lat="44.71533" lon="3.22431">
        <ele>1119.59</ele>
        <time>2016-02-24T09:17:34Z</time>
      </trkpt>
      <trkpt lat="44.71533" lon="3.2242">
        <ele>1118.63</ele>
        <time>2016-02-24T09:17:35Z</time>
      </trkpt>
      <trkpt lat="44.71533" lon="3.22409">
        <ele>1118.15</ele>
        <time>2016-02-24T09:17:36Z</time>
      </trkpt>
      <trkpt lat="44.71521" lon="3.22303">
        <ele>1115.27</ele>
        <time>2016-02-24T09:17:47Z</time>
      </trkpt>
      <trkpt lat="44.71514" lon="3.22267">
        <ele>1115.75</ele>
        <time>2016-02-24T09:17:51Z</time>
      </trkpt>
      <trkpt lat="44.71511" lon="3.2226">
        <ele>1115.27</ele>
        <time>2016-02-24T09:17:52Z</time>
      </trkpt>
      <trkpt lat="44.71507" lon="3.22254">
        <ele>1115.75</ele>
        <time>2016-02-24T09:17:53Z</time>
      </trkpt>
      <trkpt lat="44.71502" lon="3.2225">
        <ele>1115.27</ele>
        <time>2016-02-24T09:17:54Z</time>
      </trkpt>
      <trkpt lat="44.71496" lon="3.22248">
        <ele>1115.27</ele>
        <time>2016-02-24T09:17:55Z</time>
      </trkpt>
      <trkpt lat="44.71491" lon="3.22245">
        <ele>1115.75</ele>
        <time>2016-02-24T09:17:56Z</time>
      </trkpt>
      <trkpt lat="44.71487" lon="3.2224">
        <ele>1115.75</ele>
        <time>2016-02-24T09:17:57Z</time>
      </trkpt>
      <trkpt lat="44.71485" lon="3.22235">
        <ele>1115.27</ele>
        <time>2016-02-24T09:17:58Z</time>
      </trkpt>
      <trkpt lat="44.71469" lon="3.22202">
        <ele>1117.67</ele>
        <time>2016-02-24T09:18:09Z</time>
      </trkpt>
      <trkpt lat="44.71446" lon="3.22164">
        <ele>1118.63</ele>
        <time>2016-02-24T09:18:22Z</time>
      </trkpt>
      <trkpt lat="44.71425" lon="3.22125">
        <ele>1120.55</ele>
        <time>2016-02-24T09:18:35Z</time>
      </trkpt>
      <trkpt lat="44.71412" lon="3.22099">
        <ele>1122</ele>
        <time>2016-02-24T09:18:47Z</time>
      </trkpt>
      <trkpt lat="44.71411" lon="3.22096">
        <ele>1122</ele>
        <time>2016-02-24T09:18:48Z</time>
      </trkpt>
      <trkpt lat="44.7141" lon="3.22094">
        <ele>1122.48</ele>
        <time>2016-02-24T09:18:49Z</time>
      </trkpt>
      <trkpt lat="44.71409" lon="3.22092">
        <ele>1122.48</ele>
        <time>2016-02-24T09:18:50Z</time>
      </trkpt>
      <trkpt lat="44.71408" lon="3.2209">
        <ele>1122.48</ele>
        <time>2016-02-24T09:18:51Z</time>
      </trkpt>
      <trkpt lat="44.71407" lon="3.22088">
        <ele>1122.96</ele>
        <time>2016-02-24T09:18:52Z</time>
      </trkpt>
      <trkpt lat="44.71406" lon="3.22086">
        <ele>1122.96</ele>
        <time>2016-02-24T09:18:53Z</time>
      </trkpt>
      <trkpt lat="44.71404" lon="3.22084">
        <ele>1123.44</ele>
        <time>2016-02-24T09:18:54Z</time>
      </trkpt>
      <trkpt lat="44.71403" lon="3.22082">
        <ele>1122.96</ele>
        <time>2016-02-24T09:18:55Z</time>
      </trkpt>
      <trkpt lat="44.71402" lon="3.2208">
        <ele>1122.96</ele>
        <time>2016-02-24T09:18:56Z</time>
      </trkpt>
      <trkpt lat="44.714" lon="3.22078">
        <ele>1123.44</ele>
        <time>2016-02-24T09:18:57Z</time>
      </trkpt>
      <trkpt lat="44.71382" lon="3.22051">
        <ele>1125.84</ele>
        <time>2016-02-24T09:19:10Z</time>
      </trkpt>
      <trkpt lat="44.71356" lon="3.22016">
        <ele>1128.24</ele>
        <time>2016-02-24T09:19:26Z</time>
      </trkpt>
      <trkpt lat="44.7134" lon="3.22">
        <ele>1128.73</ele>
        <time>2016-02-24T09:19:35Z</time>
      </trkpt>
      <trkpt lat="44.71338" lon="3.21998">
        <ele>1128.73</ele>
        <time>2016-02-24T09:19:36Z</time>
      </trkpt>
      <trkpt lat="44.71336" lon="3.21997">
        <ele>1128.73</ele>
        <time>2016-02-24T09:19:37Z</time>
      </trkpt>
      <trkpt lat="44.71334" lon="3.21995">
        <ele>1129.21</ele>
        <time>2016-02-24T09:19:38Z</time>
      </trkpt>
      <trkpt lat="44.71332" lon="3.21993">
        <ele>1129.21</ele>
        <time>2016-02-24T09:19:39Z</time>
      </trkpt>
      <trkpt lat="44.7133" lon="3.21992">
        <ele>1129.21</ele>
        <time>2016-02-24T09:19:40Z</time>
      </trkpt>
      <trkpt lat="44.71328" lon="3.2199">
        <ele>1129.21</ele>
        <time>2016-02-24T09:19:41Z</time>
      </trkpt>
      <trkpt lat="44.71326" lon="3.21989">
        <ele>1129.21</ele>
        <time>2016-02-24T09:19:42Z</time>
      </trkpt>
      <trkpt lat="44.71324" lon="3.21987">
        <ele>1129.21</ele>
        <time>2016-02-24T09:19:43Z</time>
      </trkpt>
      <trkpt lat="44.71297" lon="3.2197">
        <ele>1130.65</ele>
        <time>2016-02-24T09:19:56Z</time>
      </trkpt>
      <trkpt lat="44.71276" lon="3.21958">
        <ele>1132.09</ele>
        <time>2016-02-24T09:20:06Z</time>
      </trkpt>
      <trkpt lat="44.71273" lon="3.21958">
        <ele>1132.09</ele>
        <time>2016-02-24T09:20:07Z</time>
      </trkpt>
      <trkpt lat="44.71268" lon="3.21955">
        <ele>1132.57</ele>
        <time>2016-02-24T09:20:10Z</time>
      </trkpt>
      <trkpt lat="44.71266" lon="3.21954">
        <ele>1132.57</ele>
        <time>2016-02-24T09:20:11Z</time>
      </trkpt>
      <trkpt lat="44.71264" lon="3.21953">
        <ele>1132.57</ele>
        <time>2016-02-24T09:20:12Z</time>
      </trkpt>
      <trkpt lat="44.71262" lon="3.21951">
        <ele>1133.05</ele>
        <time>2016-02-24T09:20:13Z</time>
      </trkpt>
      <trkpt lat="44.71261" lon="3.2195">
        <ele>1133.05</ele>
        <time>2016-02-24T09:20:14Z</time>
      </trkpt>
      <trkpt lat="44.71259" lon="3.2195">
        <ele>1133.05</ele>
        <time>2016-02-24T09:20:15Z</time>
      </trkpt>
      <trkpt lat="44.71256" lon="3.21949">
        <ele>1133.53</ele>
        <time>2016-02-24T09:20:16Z</time>
      </trkpt>
      <trkpt lat="44.71235" lon="3.21929">
        <ele>1134.01</ele>
        <time>2016-02-24T09:20:25Z</time>
      </trkpt>
      <trkpt lat="44.71233" lon="3.21926">
        <ele>1134.01</ele>
        <time>2016-02-24T09:20:26Z</time>
      </trkpt>
      <trkpt lat="44.71217" lon="3.21891">
        <ele>1135.94</ele>
        <time>2016-02-24T09:20:39Z</time>
      </trkpt>
      <trkpt lat="44.71198" lon="3.21847">
        <ele>1136.9</ele>
        <time>2016-02-24T09:20:54Z</time>
      </trkpt>
      <trkpt lat="44.71182" lon="3.2183">
        <ele>1137.86</ele>
        <time>2016-02-24T09:21:04Z</time>
      </trkpt>
      <trkpt lat="44.71181" lon="3.21829">
        <ele>1137.86</ele>
        <time>2016-02-24T09:21:05Z</time>
      </trkpt>
      <trkpt lat="44.71179" lon="3.21829">
        <ele>1137.86</ele>
        <time>2016-02-24T09:21:06Z</time>
      </trkpt>
      <trkpt lat="44.71178" lon="3.2183">
        <ele>1138.34</ele>
        <time>2016-02-24T09:21:07Z</time>
      </trkpt>
      <trkpt lat="44.71176" lon="3.2183">
        <ele>1138.34</ele>
        <time>2016-02-24T09:21:08Z</time>
      </trkpt>
      <trkpt lat="44.71175" lon="3.21829">
        <ele>1138.34</ele>
        <time>2016-02-24T09:21:09Z</time>
      </trkpt>
      <trkpt lat="44.71173" lon="3.21828">
        <ele>1138.82</ele>
        <time>2016-02-24T09:21:10Z</time>
      </trkpt>
      <trkpt lat="44.71172" lon="3.21827">
        <ele>1138.82</ele>
        <time>2016-02-24T09:21:11Z</time>
      </trkpt>
      <trkpt lat="44.7117" lon="3.21827">
        <ele>1138.82</ele>
        <time>2016-02-24T09:21:12Z</time>
      </trkpt>
      <trkpt lat="44.71168" lon="3.21827">
        <ele>1139.3</ele>
        <time>2016-02-24T09:21:13Z</time>
      </trkpt>
      <trkpt lat="44.71161" lon="3.21827">
        <ele>1139.3</ele>
        <time>2016-02-24T09:21:17Z</time>
      </trkpt>
      <trkpt lat="44.7116" lon="3.21827">
        <ele>1139.78</ele>
        <time>2016-02-24T09:21:18Z</time>
      </trkpt>
      <trkpt lat="44.71158" lon="3.21826">
        <ele>1139.78</ele>
        <time>2016-02-24T09:21:19Z</time>
      </trkpt>
      <trkpt lat="44.71156" lon="3.21825">
        <ele>1139.78</ele>
        <time>2016-02-24T09:21:20Z</time>
      </trkpt>
      <trkpt lat="44.71153" lon="3.21825">
        <ele>1140.26</ele>
        <time>2016-02-24T09:21:21Z</time>
      </trkpt>
      <trkpt lat="44.71151" lon="3.21825">
        <ele>1139.78</ele>
        <time>2016-02-24T09:21:22Z</time>
      </trkpt>
      <trkpt lat="44.71121" lon="3.21816">
        <ele>1141.22</ele>
        <time>2016-02-24T09:21:35Z</time>
      </trkpt>
      <trkpt lat="44.71094" lon="3.21803">
        <ele>1142.66</ele>
        <time>2016-02-24T09:21:48Z</time>
      </trkpt>
      <trkpt lat="44.71066" lon="3.21793">
        <ele>1144.11</ele>
        <time>2016-02-24T09:22:00Z</time>
      </trkpt>
      <trkpt lat="44.71044" lon="3.21787">
        <ele>1145.55</ele>
        <time>2016-02-24T09:22:11Z</time>
      </trkpt>
      <trkpt lat="44.71041" lon="3.21787">
        <ele>1146.03</ele>
        <time>2016-02-24T09:22:12Z</time>
      </trkpt>
      <trkpt lat="44.71039" lon="3.21788">
        <ele>1146.03</ele>
        <time>2016-02-24T09:22:13Z</time>
      </trkpt>
      <trkpt lat="44.71036" lon="3.21788">
        <ele>1146.03</ele>
        <time>2016-02-24T09:22:14Z</time>
      </trkpt>
      <trkpt lat="44.71034" lon="3.21788">
        <ele>1146.03</ele>
        <time>2016-02-24T09:22:15Z</time>
      </trkpt>
      <trkpt lat="44.71032" lon="3.21787">
        <ele>1146.51</ele>
        <time>2016-02-24T09:22:16Z</time>
      </trkpt>
      <trkpt lat="44.71006" lon="3.2179">
        <ele>1147.95</ele>
        <time>2016-02-24T09:22:29Z</time>
      </trkpt>
      <trkpt lat="44.71002" lon="3.21791">
        <ele>1147.95</ele>
        <time>2016-02-24T09:22:31Z</time>
      </trkpt>
      <trkpt lat="44.71001" lon="3.21791">
        <ele>1147.95</ele>
        <time>2016-02-24T09:22:32Z</time>
      </trkpt>
      <trkpt lat="44.70971" lon="3.21801">
        <ele>1148.91</ele>
        <time>2016-02-24T09:22:44Z</time>
      </trkpt>
      <trkpt lat="44.70963" lon="3.21804">
        <ele>1149.39</ele>
        <time>2016-02-24T09:22:48Z</time>
      </trkpt>
      <trkpt lat="44.70961" lon="3.21804">
        <ele>1149.39</ele>
        <time>2016-02-24T09:22:49Z</time>
      </trkpt>
      <trkpt lat="44.7096" lon="3.21806">
        <ele>1149.87</ele>
        <time>2016-02-24T09:22:50Z</time>
      </trkpt>
      <trkpt lat="44.70958" lon="3.21807">
        <ele>1149.39</ele>
        <time>2016-02-24T09:22:51Z</time>
      </trkpt>
      <trkpt lat="44.70957" lon="3.21807">
        <ele>1149.87</ele>
        <time>2016-02-24T09:22:52Z</time>
      </trkpt>
      <trkpt lat="44.70955" lon="3.21807">
        <ele>1149.39</ele>
        <time>2016-02-24T09:22:53Z</time>
      </trkpt>
      <trkpt lat="44.70942" lon="3.21814">
        <ele>1149.87</ele>
        <time>2016-02-24T09:23:00Z</time>
      </trkpt>
      <trkpt lat="44.7094" lon="3.21814">
        <ele>1150.35</ele>
        <time>2016-02-24T09:23:01Z</time>
      </trkpt>
      <trkpt lat="44.70939" lon="3.21815">
        <ele>1150.35</ele>
        <time>2016-02-24T09:23:02Z</time>
      </trkpt>
      <trkpt lat="44.70937" lon="3.21815">
        <ele>1150.84</ele>
        <time>2016-02-24T09:23:03Z</time>
      </trkpt>
      <trkpt lat="44.70935" lon="3.21815">
        <ele>1150.84</ele>
        <time>2016-02-24T09:23:04Z</time>
      </trkpt>
      <trkpt lat="44.70933" lon="3.21816">
        <ele>1151.32</ele>
        <time>2016-02-24T09:23:05Z</time>
      </trkpt>
      <trkpt lat="44.70931" lon="3.21818">
        <ele>1151.32</ele>
        <time>2016-02-24T09:23:06Z</time>
      </trkpt>
      <trkpt lat="44.70905" lon="3.21834">
        <ele>1153.72</ele>
        <time>2016-02-24T09:23:20Z</time>
      </trkpt>
      <trkpt lat="44.70902" lon="3.21835">
        <ele>1154.2</ele>
        <time>2016-02-24T09:23:22Z</time>
      </trkpt>
      <trkpt lat="44.70886" lon="3.21847">
        <ele>1156.12</ele>
        <time>2016-02-24T09:23:33Z</time>
      </trkpt>
      <trkpt lat="44.70882" lon="3.21851">
        <ele>1156.6</ele>
        <time>2016-02-24T09:23:35Z</time>
      </trkpt>
      <trkpt lat="44.70881" lon="3.21852">
        <ele>1156.6</ele>
        <time>2016-02-24T09:23:36Z</time>
      </trkpt>
      <trkpt lat="44.70879" lon="3.21853">
        <ele>1156.6</ele>
        <time>2016-02-24T09:23:37Z</time>
      </trkpt>
      <trkpt lat="44.70871" lon="3.21858">
        <ele>1157.56</ele>
        <time>2016-02-24T09:23:42Z</time>
      </trkpt>
      <trkpt lat="44.70869" lon="3.21859">
        <ele>1157.56</ele>
        <time>2016-02-24T09:23:43Z</time>
      </trkpt>
      <trkpt lat="44.70868" lon="3.21861">
        <ele>1158.05</ele>
        <time>2016-02-24T09:23:44Z</time>
      </trkpt>
      <trkpt lat="44.70866" lon="3.21861">
        <ele>1158.05</ele>
        <time>2016-02-24T09:23:45Z</time>
      </trkpt>
      <trkpt lat="44.70864" lon="3.21863">
        <ele>1158.05</ele>
        <time>2016-02-24T09:23:46Z</time>
      </trkpt>
      <trkpt lat="44.70862" lon="3.21864">
        <ele>1158.53</ele>
        <time>2016-02-24T09:23:47Z</time>
      </trkpt>
      <trkpt lat="44.7086" lon="3.21864">
        <ele>1158.53</ele>
        <time>2016-02-24T09:23:48Z</time>
      </trkpt>
      <trkpt lat="44.70858" lon="3.21865">
        <ele>1159.01</ele>
        <time>2016-02-24T09:23:49Z</time>
      </trkpt>
      <trkpt lat="44.70856" lon="3.21865">
        <ele>1159.01</ele>
        <time>2016-02-24T09:23:50Z</time>
      </trkpt>
      <trkpt lat="44.70855" lon="3.21865">
        <ele>1159.49</ele>
        <time>2016-02-24T09:23:51Z</time>
      </trkpt>
      <trkpt lat="44.70854" lon="3.21865">
        <ele>1159.97</ele>
        <time>2016-02-24T09:23:52Z</time>
      </trkpt>
      <trkpt lat="44.70852" lon="3.21866">
        <ele>1160.45</ele>
        <time>2016-02-24T09:23:53Z</time>
      </trkpt>
      <trkpt lat="44.70851" lon="3.21866">
        <ele>1160.93</ele>
        <time>2016-02-24T09:23:54Z</time>
      </trkpt>
      <trkpt lat="44.7085" lon="3.21867">
        <ele>1161.41</ele>
        <time>2016-02-24T09:23:55Z</time>
      </trkpt>
      <trkpt lat="44.70848" lon="3.21868">
        <ele>1161.89</ele>
        <time>2016-02-24T09:23:56Z</time>
      </trkpt>
      <trkpt lat="44.70847" lon="3.21869">
        <ele>1162.37</ele>
        <time>2016-02-24T09:23:58Z</time>
      </trkpt>
      <trkpt lat="44.70837" lon="3.21867">
        <ele>1164.77</ele>
        <time>2016-02-24T09:24:11Z</time>
      </trkpt>
      <trkpt lat="44.70825" lon="3.21866">
        <ele>1167.66</ele>
        <time>2016-02-24T09:24:24Z</time>
      </trkpt>
      <trkpt lat="44.70809" lon="3.21866">
        <ele>1170.54</ele>
        <time>2016-02-24T09:24:39Z</time>
      </trkpt>
      <trkpt lat="44.70794" lon="3.21867">
        <ele>1172.95</ele>
        <time>2016-02-24T09:24:54Z</time>
      </trkpt>
      <trkpt lat="44.70782" lon="3.21868">
        <ele>1173.91</ele>
        <time>2016-02-24T09:25:06Z</time>
      </trkpt>
      <trkpt lat="44.70768" lon="3.21869">
        <ele>1174.39</ele>
        <time>2016-02-24T09:25:18Z</time>
      </trkpt>
      <trkpt lat="44.70764" lon="3.21868">
        <ele>1174.87</ele>
        <time>2016-02-24T09:25:21Z</time>
      </trkpt>
      <trkpt lat="44.70748" lon="3.2186">
        <ele>1176.79</ele>
        <time>2016-02-24T09:25:36Z</time>
      </trkpt>
      <trkpt lat="44.70739" lon="3.21855">
        <ele>1177.27</ele>
        <time>2016-02-24T09:25:47Z</time>
      </trkpt>
      <trkpt lat="44.70737" lon="3.21855">
        <ele>1177.27</ele>
        <time>2016-02-24T09:25:48Z</time>
      </trkpt>
      <trkpt lat="44.70736" lon="3.21854">
        <ele>1177.27</ele>
        <time>2016-02-24T09:25:49Z</time>
      </trkpt>
      <trkpt lat="44.70734" lon="3.21854">
        <ele>1177.27</ele>
        <time>2016-02-24T09:25:50Z</time>
      </trkpt>
      <trkpt lat="44.70732" lon="3.21854">
        <ele>1177.27</ele>
        <time>2016-02-24T09:25:51Z</time>
      </trkpt>
      <trkpt lat="44.7073" lon="3.21853">
        <ele>1177.75</ele>
        <time>2016-02-24T09:25:52Z</time>
      </trkpt>
      <trkpt lat="44.70729" lon="3.21853">
        <ele>1177.75</ele>
        <time>2016-02-24T09:25:53Z</time>
      </trkpt>
      <trkpt lat="44.70723" lon="3.21853">
        <ele>1177.75</ele>
        <time>2016-02-24T09:25:57Z</time>
      </trkpt>
      <trkpt lat="44.70694" lon="3.21851">
        <ele>1178.71</ele>
        <time>2016-02-24T09:26:12Z</time>
      </trkpt>
      <trkpt lat="44.70666" lon="3.21854">
        <ele>1180.16</ele>
        <time>2016-02-24T09:26:27Z</time>
      </trkpt>
      <trkpt lat="44.7064" lon="3.21856">
        <ele>1181.12</ele>
        <time>2016-02-24T09:26:39Z</time>
      </trkpt>
      <trkpt lat="44.7059" lon="3.21858">
        <ele>1182.08</ele>
        <time>2016-02-24T09:26:57Z</time>
      </trkpt>
      <trkpt lat="44.70549" lon="3.21855">
        <ele>1183.04</ele>
        <time>2016-02-24T09:27:11Z</time>
      </trkpt>
      <trkpt lat="44.70498" lon="3.21839">
        <ele>1184.96</ele>
        <time>2016-02-24T09:27:29Z</time>
      </trkpt>
      <trkpt lat="44.70466" lon="3.21818">
        <ele>1187.37</ele>
        <time>2016-02-24T09:27:43Z</time>
      </trkpt>
      <trkpt lat="44.70464" lon="3.21817">
        <ele>1187.37</ele>
        <time>2016-02-24T09:27:44Z</time>
      </trkpt>
      <trkpt lat="44.70462" lon="3.21816">
        <ele>1187.37</ele>
        <time>2016-02-24T09:27:45Z</time>
      </trkpt>
      <trkpt lat="44.70459" lon="3.21815">
        <ele>1187.37</ele>
        <time>2016-02-24T09:27:46Z</time>
      </trkpt>
      <trkpt lat="44.70419" lon="3.21799">
        <ele>1189.77</ele>
        <time>2016-02-24T09:28:01Z</time>
      </trkpt>
      <trkpt lat="44.70378" lon="3.21783">
        <ele>1191.69</ele>
        <time>2016-02-24T09:28:17Z</time>
      </trkpt>
      <trkpt lat="44.70341" lon="3.21777">
        <ele>1192.65</ele>
        <time>2016-02-24T09:28:31Z</time>
      </trkpt>
      <trkpt lat="44.70297" lon="3.21768">
        <ele>1191.69</ele>
        <time>2016-02-24T09:28:46Z</time>
      </trkpt>
      <trkpt lat="44.70234" lon="3.21754">
        <ele>1191.21</ele>
        <time>2016-02-24T09:29:02Z</time>
      </trkpt>
      <trkpt lat="44.7021" lon="3.21753">
        <ele>1190.73</ele>
        <time>2016-02-24T09:29:08Z</time>
      </trkpt>
      <trkpt lat="44.70206" lon="3.21755">
        <ele>1190.73</ele>
        <time>2016-02-24T09:29:09Z</time>
      </trkpt>
      <trkpt lat="44.70202" lon="3.21757">
        <ele>1191.21</ele>
        <time>2016-02-24T09:29:10Z</time>
      </trkpt>
      <trkpt lat="44.70143" lon="3.21776">
        <ele>1190.73</ele>
        <time>2016-02-24T09:29:25Z</time>
      </trkpt>
      <trkpt lat="44.70133" lon="3.21777">
        <ele>1190.25</ele>
        <time>2016-02-24T09:29:27Z</time>
      </trkpt>
      <trkpt lat="44.70128" lon="3.21777">
        <ele>1190.25</ele>
        <time>2016-02-24T09:29:28Z</time>
      </trkpt>
      <trkpt lat="44.70072" lon="3.21762">
        <ele>1189.29</ele>
        <time>2016-02-24T09:29:42Z</time>
      </trkpt>
      <trkpt lat="44.70026" lon="3.21729">
        <ele>1190.73</ele>
        <time>2016-02-24T09:29:56Z</time>
      </trkpt>
      <trkpt lat="44.6998" lon="3.21695">
        <ele>1191.69</ele>
        <time>2016-02-24T09:30:10Z</time>
      </trkpt>
      <trkpt lat="44.69924" lon="3.21652">
        <ele>1192.65</ele>
        <time>2016-02-24T09:30:27Z</time>
      </trkpt>
      <trkpt lat="44.69864" lon="3.21616">
        <ele>1194.09</ele>
        <time>2016-02-24T09:30:45Z</time>
      </trkpt>
      <trkpt lat="44.69815" lon="3.21584">
        <ele>1195.06</ele>
        <time>2016-02-24T09:31:00Z</time>
      </trkpt>
      <trkpt lat="44.69764" lon="3.21553">
        <ele>1195.54</ele>
        <time>2016-02-24T09:31:16Z</time>
      </trkpt>
      <trkpt lat="44.69728" lon="3.21529">
        <ele>1197.46</ele>
        <time>2016-02-24T09:31:31Z</time>
      </trkpt>
      <trkpt lat="44.6968" lon="3.21501">
        <ele>1199.86</ele>
        <time>2016-02-24T09:31:49Z</time>
      </trkpt>
      <trkpt lat="44.6964" lon="3.2148">
        <ele>1200.82</ele>
        <time>2016-02-24T09:32:04Z</time>
      </trkpt>
      <trkpt lat="44.69591" lon="3.21454">
        <ele>1203.23</ele>
        <time>2016-02-24T09:32:22Z</time>
      </trkpt>
      <trkpt lat="44.69554" lon="3.21444">
        <ele>1205.63</ele>
        <time>2016-02-24T09:32:37Z</time>
      </trkpt>
      <trkpt lat="44.69522" lon="3.21436">
        <ele>1207.07</ele>
        <time>2016-02-24T09:32:49Z</time>
      </trkpt>
      <trkpt lat="44.69486" lon="3.21416">
        <ele>1208.51</ele>
        <time>2016-02-24T09:33:01Z</time>
      </trkpt>
      <trkpt lat="44.69446" lon="3.21382">
        <ele>1208.51</ele>
        <time>2016-02-24T09:33:14Z</time>
      </trkpt>
      <trkpt lat="44.69406" lon="3.21365">
        <ele>1209.96</ele>
        <time>2016-02-24T09:33:26Z</time>
      </trkpt>
      <trkpt lat="44.69362" lon="3.21347">
        <ele>1210.92</ele>
        <time>2016-02-24T09:33:39Z</time>
      </trkpt>
      <trkpt lat="44.69324" lon="3.21322">
        <ele>1211.88</ele>
        <time>2016-02-24T09:33:53Z</time>
      </trkpt>
      <trkpt lat="44.69281" lon="3.21285">
        <ele>1213.8</ele>
        <time>2016-02-24T09:34:10Z</time>
      </trkpt>
      <trkpt lat="44.69233" lon="3.21252">
        <ele>1215.24</ele>
        <time>2016-02-24T09:34:27Z</time>
      </trkpt>
      <trkpt lat="44.69195" lon="3.21236">
        <ele>1214.76</ele>
        <time>2016-02-24T09:34:37Z</time>
      </trkpt>
      <trkpt lat="44.69168" lon="3.21229">
        <ele>1214.28</ele>
        <time>2016-02-24T09:34:43Z</time>
      </trkpt>
      <trkpt lat="44.69093" lon="3.21215">
        <ele>1212.36</ele>
        <time>2016-02-24T09:34:59Z</time>
      </trkpt>
      <trkpt lat="44.69024" lon="3.21232">
        <ele>1209.48</ele>
        <time>2016-02-24T09:35:09Z</time>
      </trkpt>
      <trkpt lat="44.69004" lon="3.21236">
        <ele>1208.03</ele>
        <time>2016-02-24T09:35:12Z</time>
      </trkpt>
      <trkpt lat="44.68998" lon="3.21237">
        <ele>1208.03</ele>
        <time>2016-02-24T09:35:13Z</time>
      </trkpt>
      <trkpt lat="44.68936" lon="3.21256">
        <ele>1208.03</ele>
        <time>2016-02-24T09:35:25Z</time>
      </trkpt>
      <trkpt lat="44.68926" lon="3.21259">
        <ele>1208.03</ele>
        <time>2016-02-24T09:35:27Z</time>
      </trkpt>
      <trkpt lat="44.68922" lon="3.2126">
        <ele>1207.55</ele>
        <time>2016-02-24T09:35:28Z</time>
      </trkpt>
      <trkpt lat="44.68917" lon="3.21261">
        <ele>1207.55</ele>
        <time>2016-02-24T09:35:29Z</time>
      </trkpt>
      <trkpt lat="44.68913" lon="3.21262">
        <ele>1207.55</ele>
        <time>2016-02-24T09:35:30Z</time>
      </trkpt>
      <trkpt lat="44.68909" lon="3.21263">
        <ele>1207.55</ele>
        <time>2016-02-24T09:35:31Z</time>
      </trkpt>
      <trkpt lat="44.68904" lon="3.21263">
        <ele>1207.55</ele>
        <time>2016-02-24T09:35:32Z</time>
      </trkpt>
      <trkpt lat="44.68899" lon="3.21261">
        <ele>1207.07</ele>
        <time>2016-02-24T09:35:33Z</time>
      </trkpt>
      <trkpt lat="44.68895" lon="3.21258">
        <ele>1207.07</ele>
        <time>2016-02-24T09:35:34Z</time>
      </trkpt>
      <trkpt lat="44.68891" lon="3.21254">
        <ele>1207.07</ele>
        <time>2016-02-24T09:35:35Z</time>
      </trkpt>
      <trkpt lat="44.68887" lon="3.2125">
        <ele>1207.07</ele>
        <time>2016-02-24T09:35:36Z</time>
      </trkpt>
      <trkpt lat="44.68883" lon="3.21247">
        <ele>1207.07</ele>
        <time>2016-02-24T09:35:37Z</time>
      </trkpt>
      <trkpt lat="44.68879" lon="3.21243">
        <ele>1207.55</ele>
        <time>2016-02-24T09:35:38Z</time>
      </trkpt>
      <trkpt lat="44.68869" lon="3.21231">
        <ele>1207.07</ele>
        <time>2016-02-24T09:35:41Z</time>
      </trkpt>
      <trkpt lat="44.68868" lon="3.21226">
        <ele>1207.07</ele>
        <time>2016-02-24T09:35:42Z</time>
      </trkpt>
      <trkpt lat="44.68867" lon="3.2122">
        <ele>1206.59</ele>
        <time>2016-02-24T09:35:43Z</time>
      </trkpt>
      <trkpt lat="44.68868" lon="3.21215">
        <ele>1206.59</ele>
        <time>2016-02-24T09:35:44Z</time>
      </trkpt>
      <trkpt lat="44.68869" lon="3.2121">
        <ele>1206.59</ele>
        <time>2016-02-24T09:35:45Z</time>
      </trkpt>
      <trkpt lat="44.68871" lon="3.21206">
        <ele>1207.07</ele>
        <time>2016-02-24T09:35:46Z</time>
      </trkpt>
      <trkpt lat="44.68873" lon="3.21202">
        <ele>1207.07</ele>
        <time>2016-02-24T09:35:47Z</time>
      </trkpt>
      <trkpt lat="44.68875" lon="3.21199">
        <ele>1207.55</ele>
        <time>2016-02-24T09:35:48Z</time>
      </trkpt>
      <trkpt lat="44.68905" lon="3.21153">
        <ele>1208.03</ele>
        <time>2016-02-24T09:36:01Z</time>
      </trkpt>
      <trkpt lat="44.68917" lon="3.21138">
        <ele>1207.07</ele>
        <time>2016-02-24T09:36:05Z</time>
      </trkpt>
      <trkpt lat="44.68919" lon="3.21134">
        <ele>1207.07</ele>
        <time>2016-02-24T09:36:06Z</time>
      </trkpt>
      <trkpt lat="44.68936" lon="3.21098">
        <ele>1206.59</ele>
        <time>2016-02-24T09:36:13Z</time>
      </trkpt>
      <trkpt lat="44.68938" lon="3.21093">
        <ele>1206.59</ele>
        <time>2016-02-24T09:36:14Z</time>
      </trkpt>
      <trkpt lat="44.68942" lon="3.21081">
        <ele>1206.59</ele>
        <time>2016-02-24T09:36:16Z</time>
      </trkpt>
      <trkpt lat="44.68955" lon="3.21032">
        <ele>1204.67</ele>
        <time>2016-02-24T09:36:24Z</time>
      </trkpt>
      <trkpt lat="44.68976" lon="3.2096">
        <ele>1202.75</ele>
        <time>2016-02-24T09:36:35Z</time>
      </trkpt>
      <trkpt lat="44.68978" lon="3.20954">
        <ele>1202.27</ele>
        <time>2016-02-24T09:36:36Z</time>
      </trkpt>
      <trkpt lat="44.6898" lon="3.20947">
        <ele>1201.79</ele>
        <time>2016-02-24T09:36:37Z</time>
      </trkpt>
      <trkpt lat="44.68981" lon="3.2094">
        <ele>1201.79</ele>
        <time>2016-02-24T09:36:38Z</time>
      </trkpt>
      <trkpt lat="44.68983" lon="3.20934">
        <ele>1201.79</ele>
        <time>2016-02-24T09:36:39Z</time>
      </trkpt>
      <trkpt lat="44.69003" lon="3.20861">
        <ele>1198.42</ele>
        <time>2016-02-24T09:36:50Z</time>
      </trkpt>
      <trkpt lat="44.6901" lon="3.20832">
        <ele>1197.94</ele>
        <time>2016-02-24T09:36:54Z</time>
      </trkpt>
      <trkpt lat="44.69015" lon="3.20818">
        <ele>1196.98</ele>
        <time>2016-02-24T09:36:56Z</time>
      </trkpt>
      <trkpt lat="44.69018" lon="3.20811">
        <ele>1196.98</ele>
        <time>2016-02-24T09:36:57Z</time>
      </trkpt>
      <trkpt lat="44.69022" lon="3.20804">
        <ele>1196.5</ele>
        <time>2016-02-24T09:36:58Z</time>
      </trkpt>
      <trkpt lat="44.69026" lon="3.20797">
        <ele>1196.02</ele>
        <time>2016-02-24T09:36:59Z</time>
      </trkpt>
      <trkpt lat="44.6903" lon="3.20791">
        <ele>1195.54</ele>
        <time>2016-02-24T09:37:00Z</time>
      </trkpt>
      <trkpt lat="44.69034" lon="3.20786">
        <ele>1196.02</ele>
        <time>2016-02-24T09:37:01Z</time>
      </trkpt>
      <trkpt lat="44.69059" lon="3.20747">
        <ele>1193.61</ele>
        <time>2016-02-24T09:37:07Z</time>
      </trkpt>
      <trkpt lat="44.69062" lon="3.20738">
        <ele>1193.61</ele>
        <time>2016-02-24T09:37:08Z</time>
      </trkpt>
      <trkpt lat="44.69064" lon="3.2073">
        <ele>1193.13</ele>
        <time>2016-02-24T09:37:09Z</time>
      </trkpt>
      <trkpt lat="44.69073" lon="3.20629">
        <ele>1190.25</ele>
        <time>2016-02-24T09:37:20Z</time>
      </trkpt>
      <trkpt lat="44.69072" lon="3.206">
        <ele>1188.81</ele>
        <time>2016-02-24T09:37:23Z</time>
      </trkpt>
      <trkpt lat="44.6907" lon="3.20591">
        <ele>1188.33</ele>
        <time>2016-02-24T09:37:24Z</time>
      </trkpt>
      <trkpt lat="44.69052" lon="3.20526">
        <ele>1186.4</ele>
        <time>2016-02-24T09:37:31Z</time>
      </trkpt>
      <trkpt lat="44.69052" lon="3.20516">
        <ele>1185.44</ele>
        <time>2016-02-24T09:37:32Z</time>
      </trkpt>
      <trkpt lat="44.69052" lon="3.20507">
        <ele>1185.44</ele>
        <time>2016-02-24T09:37:33Z</time>
      </trkpt>
      <trkpt lat="44.69053" lon="3.20497">
        <ele>1184.96</ele>
        <time>2016-02-24T09:37:34Z</time>
      </trkpt>
      <trkpt lat="44.69055" lon="3.20487">
        <ele>1184.96</ele>
        <time>2016-02-24T09:37:35Z</time>
      </trkpt>
      <trkpt lat="44.69064" lon="3.20432">
        <ele>1183.52</ele>
        <time>2016-02-24T09:37:41Z</time>
      </trkpt>
      <trkpt lat="44.69067" lon="3.20422">
        <ele>1183.04</ele>
        <time>2016-02-24T09:37:42Z</time>
      </trkpt>
      <trkpt lat="44.69076" lon="3.20394">
        <ele>1181.6</ele>
        <time>2016-02-24T09:37:45Z</time>
      </trkpt>
      <trkpt lat="44.69079" lon="3.20386">
        <ele>1181.6</ele>
        <time>2016-02-24T09:37:46Z</time>
      </trkpt>
      <trkpt lat="44.69084" lon="3.20379">
        <ele>1181.6</ele>
        <time>2016-02-24T09:37:47Z</time>
      </trkpt>
      <trkpt lat="44.69088" lon="3.20373">
        <ele>1181.6</ele>
        <time>2016-02-24T09:37:48Z</time>
      </trkpt>
      <trkpt lat="44.69093" lon="3.20369">
        <ele>1182.08</ele>
        <time>2016-02-24T09:37:49Z</time>
      </trkpt>
      <trkpt lat="44.69098" lon="3.20364">
        <ele>1182.56</ele>
        <time>2016-02-24T09:37:50Z</time>
      </trkpt>
      <trkpt lat="44.69125" lon="3.20342">
        <ele>1183.04</ele>
        <time>2016-02-24T09:37:57Z</time>
      </trkpt>
      <trkpt lat="44.69126" lon="3.20338">
        <ele>1183.52</ele>
        <time>2016-02-24T09:37:58Z</time>
      </trkpt>
      <trkpt lat="44.69125" lon="3.20333">
        <ele>1183.52</ele>
        <time>2016-02-24T09:37:59Z</time>
      </trkpt>
      <trkpt lat="44.69124" lon="3.2033">
        <ele>1184</ele>
        <time>2016-02-24T09:38:00Z</time>
      </trkpt>
      <trkpt lat="44.69123" lon="3.20328">
        <ele>1184.48</ele>
        <time>2016-02-24T09:38:01Z</time>
      </trkpt>
      <trkpt lat="44.69122" lon="3.20325">
        <ele>1184.48</ele>
        <time>2016-02-24T09:38:02Z</time>
      </trkpt>
      <trkpt lat="44.6912" lon="3.20323">
        <ele>1184.96</ele>
        <time>2016-02-24T09:38:03Z</time>
      </trkpt>
      <trkpt lat="44.69119" lon="3.20321">
        <ele>1184.96</ele>
        <time>2016-02-24T09:38:04Z</time>
      </trkpt>
      <trkpt lat="44.69118" lon="3.20319">
        <ele>1185.44</ele>
        <time>2016-02-24T09:38:05Z</time>
      </trkpt>
      <trkpt lat="44.69117" lon="3.20318">
        <ele>1185.44</ele>
        <time>2016-02-24T09:38:06Z</time>
      </trkpt>
      <trkpt lat="44.69116" lon="3.20316">
        <ele>1185.92</ele>
        <time>2016-02-24T09:38:07Z</time>
      </trkpt>
      <trkpt lat="44.69115" lon="3.20314">
        <ele>1185.92</ele>
        <time>2016-02-24T09:38:08Z</time>
      </trkpt>
      <trkpt lat="44.69114" lon="3.20313">
        <ele>1186.4</ele>
        <time>2016-02-24T09:38:09Z</time>
      </trkpt>
      <trkpt lat="44.69113" lon="3.20311">
        <ele>1186.4</ele>
        <time>2016-02-24T09:38:10Z</time>
      </trkpt>
      <trkpt lat="44.69112" lon="3.20309">
        <ele>1186.4</ele>
        <time>2016-02-24T09:38:11Z</time>
      </trkpt>
      <trkpt lat="44.69111" lon="3.20308">
        <ele>1186.88</ele>
        <time>2016-02-24T09:38:12Z</time>
      </trkpt>
      <trkpt lat="44.69111" lon="3.20307">
        <ele>1186.88</ele>
        <time>2016-02-24T09:38:13Z</time>
      </trkpt>
      <trkpt lat="44.6911" lon="3.20305">
        <ele>1186.88</ele>
        <time>2016-02-24T09:38:14Z</time>
      </trkpt>
      <trkpt lat="44.69109" lon="3.20304">
        <ele>1187.37</ele>
        <time>2016-02-24T09:38:15Z</time>
      </trkpt>
      <trkpt lat="44.69109" lon="3.20302">
        <ele>1187.37</ele>
        <time>2016-02-24T09:38:16Z</time>
      </trkpt>
      <trkpt lat="44.69108" lon="3.203">
        <ele>1187.37</ele>
        <time>2016-02-24T09:38:17Z</time>
      </trkpt>
      <trkpt lat="44.69108" lon="3.20299">
        <ele>1187.85</ele>
        <time>2016-02-24T09:38:18Z</time>
      </trkpt>
      <trkpt lat="44.69107" lon="3.20297">
        <ele>1187.85</ele>
        <time>2016-02-24T09:38:19Z</time>
      </trkpt>
      <trkpt lat="44.69107" lon="3.20295">
        <ele>1187.85</ele>
        <time>2016-02-24T09:38:20Z</time>
      </trkpt>
      <trkpt lat="44.69106" lon="3.2028">
        <ele>1188.81</ele>
        <time>2016-02-24T09:38:28Z</time>
      </trkpt>
      <trkpt lat="44.69105" lon="3.20278">
        <ele>1188.81</ele>
        <time>2016-02-24T09:38:29Z</time>
      </trkpt>
      <trkpt lat="44.69105" lon="3.20276">
        <ele>1189.29</ele>
        <time>2016-02-24T09:38:30Z</time>
      </trkpt>
      <trkpt lat="44.69105" lon="3.20275">
        <ele>1189.77</ele>
        <time>2016-02-24T09:38:31Z</time>
      </trkpt>
      <trkpt lat="44.69105" lon="3.20273">
        <ele>1189.29</ele>
        <time>2016-02-24T09:38:32Z</time>
      </trkpt>
      <trkpt lat="44.69103" lon="3.2024">
        <ele>1191.21</ele>
        <time>2016-02-24T09:38:47Z</time>
      </trkpt>
      <trkpt lat="44.69102" lon="3.2022">
        <ele>1192.65</ele>
        <time>2016-02-24T09:38:56Z</time>
      </trkpt>
      <trkpt lat="44.69102" lon="3.20218">
        <ele>1192.65</ele>
        <time>2016-02-24T09:38:57Z</time>
      </trkpt>
      <trkpt lat="44.69099" lon="3.20173">
        <ele>1194.58</ele>
        <time>2016-02-24T09:39:16Z</time>
      </trkpt>
      <trkpt lat="44.69092" lon="3.20132">
        <ele>1195.06</ele>
        <time>2016-02-24T09:39:32Z</time>
      </trkpt>
      <trkpt lat="44.69082" lon="3.20088">
        <ele>1196.02</ele>
        <time>2016-02-24T09:39:49Z</time>
      </trkpt>
      <trkpt lat="44.69075" lon="3.20055">
        <ele>1196.98</ele>
        <time>2016-02-24T09:40:04Z</time>
      </trkpt>
      <trkpt lat="44.69071" lon="3.20034">
        <ele>1197.46</ele>
        <time>2016-02-24T09:40:18Z</time>
      </trkpt>
      <trkpt lat="44.69071" lon="3.2003">
        <ele>1197.46</ele>
        <time>2016-02-24T09:40:27Z</time>
      </trkpt>
      <trkpt lat="44.69071" lon="3.20028">
        <ele>1197.46</ele>
        <time>2016-02-24T09:40:28Z</time>
      </trkpt>
      <trkpt lat="44.6907" lon="3.20026">
        <ele>1197.46</ele>
        <time>2016-02-24T09:40:29Z</time>
      </trkpt>
      <trkpt lat="44.69069" lon="3.19991">
        <ele>1196.98</ele>
        <time>2016-02-24T09:40:43Z</time>
      </trkpt>
      <trkpt lat="44.69076" lon="3.19963">
        <ele>1198.42</ele>
        <time>2016-02-24T09:40:55Z</time>
      </trkpt>
      <trkpt lat="44.69079" lon="3.19953">
        <ele>1198.42</ele>
        <time>2016-02-24T09:40:59Z</time>
      </trkpt>
      <trkpt lat="44.69079" lon="3.19951">
        <ele>1198.42</ele>
        <time>2016-02-24T09:41:00Z</time>
      </trkpt>
      <trkpt lat="44.6908" lon="3.19949">
        <ele>1198.9</ele>
        <time>2016-02-24T09:41:01Z</time>
      </trkpt>
      <trkpt lat="44.6908" lon="3.19947">
        <ele>1198.9</ele>
        <time>2016-02-24T09:41:02Z</time>
      </trkpt>
      <trkpt lat="44.6908" lon="3.19945">
        <ele>1198.9</ele>
        <time>2016-02-24T09:41:03Z</time>
      </trkpt>
      <trkpt lat="44.6908" lon="3.19943">
        <ele>1198.9</ele>
        <time>2016-02-24T09:41:17Z</time>
      </trkpt>
      <trkpt lat="44.6908" lon="3.19943">
        <ele>1195.06</ele>
        <time>2016-02-24T09:41:26Z</time>
      </trkpt>
      <trkpt lat="44.6908" lon="3.19943">
        <ele>1201.79</ele>
        <time>2016-02-24T09:41:27Z</time>
      </trkpt>
      <trkpt lat="44.6908" lon="3.19943">
        <ele>1194.09</ele>
        <time>2016-02-24T09:41:28Z</time>
      </trkpt>
      <trkpt lat="44.6908" lon="3.19943">
        <ele>1202.75</ele>
        <time>2016-02-24T09:41:29Z</time>
      </trkpt>
      <trkpt lat="44.6908" lon="3.19943">
        <ele>1198.9</ele>
        <time>2016-02-24T09:41:30Z</time>
      </trkpt>
      <trkpt lat="44.6908" lon="3.19943">
        <ele>1198.9</ele>
        <time>2016-02-24T09:42:03Z</time>
      </trkpt>
      <trkpt lat="44.6908" lon="3.19943">
        <ele>1198.9</ele>
        <time>2016-02-24T09:42:38Z</time>
      </trkpt>
      <trkpt lat="44.6908" lon="3.19942">
        <ele>1198.9</ele>
        <time>2016-02-24T09:43:08Z</time>
      </trkpt>
      <trkpt lat="44.6908" lon="3.19942">
        <ele>1198.9</ele>
        <time>2016-02-24T09:43:40Z</time>
      </trkpt>
      <trkpt lat="44.69081" lon="3.19939">
        <ele>1199.38</ele>
        <time>2016-02-24T09:43:58Z</time>
      </trkpt>
      <trkpt lat="44.69082" lon="3.19937">
        <ele>1199.38</ele>
        <time>2016-02-24T09:43:59Z</time>
      </trkpt>
      <trkpt lat="44.69082" lon="3.19935">
        <ele>1199.38</ele>
        <time>2016-02-24T09:44:00Z</time>
      </trkpt>
      <trkpt lat="44.69082" lon="3.19932">
        <ele>1199.38</ele>
        <time>2016-02-24T09:44:01Z</time>
      </trkpt>
      <trkpt lat="44.69082" lon="3.1993">
        <ele>1199.38</ele>
        <time>2016-02-24T09:44:02Z</time>
      </trkpt>
      <trkpt lat="44.69082" lon="3.19927">
        <ele>1199.38</ele>
        <time>2016-02-24T09:44:03Z</time>
      </trkpt>
      <trkpt lat="44.69083" lon="3.19925">
        <ele>1199.38</ele>
        <time>2016-02-24T09:44:04Z</time>
      </trkpt>
      <trkpt lat="44.69083" lon="3.19922">
        <ele>1199.38</ele>
        <time>2016-02-24T09:44:05Z</time>
      </trkpt>
      <trkpt lat="44.69083" lon="3.19919">
        <ele>1199.38</ele>
        <time>2016-02-24T09:44:06Z</time>
      </trkpt>
      <trkpt lat="44.69083" lon="3.19917">
        <ele>1199.38</ele>
        <time>2016-02-24T09:44:07Z</time>
      </trkpt>
      <trkpt lat="44.69084" lon="3.19914">
        <ele>1199.38</ele>
        <time>2016-02-24T09:44:08Z</time>
      </trkpt>
      <trkpt lat="44.69084" lon="3.19912">
        <ele>1199.38</ele>
        <time>2016-02-24T09:44:09Z</time>
      </trkpt>
      <trkpt lat="44.69084" lon="3.19909">
        <ele>1199.86</ele>
        <time>2016-02-24T09:44:10Z</time>
      </trkpt>
      <trkpt lat="44.69085" lon="3.19866">
        <ele>1200.82</ele>
        <time>2016-02-24T09:44:26Z</time>
      </trkpt>
      <trkpt lat="44.69081" lon="3.19829">
        <ele>1201.79</ele>
        <time>2016-02-24T09:44:40Z</time>
      </trkpt>
      <trkpt lat="44.6907" lon="3.19794">
        <ele>1202.27</ele>
        <time>2016-02-24T09:44:55Z</time>
      </trkpt>
      <trkpt lat="44.69061" lon="3.19769">
        <ele>1203.23</ele>
        <time>2016-02-24T09:45:08Z</time>
      </trkpt>
      <trkpt lat="44.69054" lon="3.19752">
        <ele>1203.71</ele>
        <time>2016-02-24T09:45:16Z</time>
      </trkpt>
      <trkpt lat="44.69053" lon="3.1975">
        <ele>1203.71</ele>
        <time>2016-02-24T09:45:17Z</time>
      </trkpt>
      <trkpt lat="44.69036" lon="3.1972">
        <ele>1204.67</ele>
        <time>2016-02-24T09:45:33Z</time>
      </trkpt>
      <trkpt lat="44.6902" lon="3.19697">
        <ele>1206.11</ele>
        <time>2016-02-24T09:45:47Z</time>
      </trkpt>
      <trkpt lat="44.69019" lon="3.19695">
        <ele>1206.11</ele>
        <time>2016-02-24T09:45:48Z</time>
      </trkpt>
      <trkpt lat="44.69018" lon="3.19694">
        <ele>1206.59</ele>
        <time>2016-02-24T09:45:49Z</time>
      </trkpt>
      <trkpt lat="44.68995" lon="3.1966">
        <ele>1208.51</ele>
        <time>2016-02-24T09:46:07Z</time>
      </trkpt>
      <trkpt lat="44.68975" lon="3.19638">
        <ele>1209.96</ele>
        <time>2016-02-24T09:46:21Z</time>
      </trkpt>
      <trkpt lat="44.68948" lon="3.1962">
        <ele>1211.4</ele>
        <time>2016-02-24T09:46:37Z</time>
      </trkpt>
      <trkpt lat="44.68916" lon="3.19609">
        <ele>1211.4</ele>
        <time>2016-02-24T09:46:52Z</time>
      </trkpt>
      <trkpt lat="44.68882" lon="3.19609">
        <ele>1211.4</ele>
        <time>2016-02-24T09:47:06Z</time>
      </trkpt>
      <trkpt lat="44.68847" lon="3.19594">
        <ele>1212.36</ele>
        <time>2016-02-24T09:47:22Z</time>
      </trkpt>
      <trkpt lat="44.6883" lon="3.19573">
        <ele>1213.32</ele>
        <time>2016-02-24T09:47:35Z</time>
      </trkpt>
      <trkpt lat="44.68828" lon="3.19569">
        <ele>1213.8</ele>
        <time>2016-02-24T09:47:37Z</time>
      </trkpt>
      <trkpt lat="44.68827" lon="3.19567">
        <ele>1213.8</ele>
        <time>2016-02-24T09:47:38Z</time>
      </trkpt>
      <trkpt lat="44.68825" lon="3.19566">
        <ele>1213.8</ele>
        <time>2016-02-24T09:47:39Z</time>
      </trkpt>
      <trkpt lat="44.68824" lon="3.19564">
        <ele>1213.8</ele>
        <time>2016-02-24T09:47:40Z</time>
      </trkpt>
      <trkpt lat="44.68822" lon="3.19562">
        <ele>1213.8</ele>
        <time>2016-02-24T09:47:41Z</time>
      </trkpt>
      <trkpt lat="44.6881" lon="3.19551">
        <ele>1215.24</ele>
        <time>2016-02-24T09:47:48Z</time>
      </trkpt>
      <trkpt lat="44.68809" lon="3.19549">
        <ele>1215.72</ele>
        <time>2016-02-24T09:47:49Z</time>
      </trkpt>
      <trkpt lat="44.68807" lon="3.19548">
        <ele>1215.72</ele>
        <time>2016-02-24T09:47:50Z</time>
      </trkpt>
      <trkpt lat="44.68806" lon="3.19546">
        <ele>1216.21</ele>
        <time>2016-02-24T09:47:51Z</time>
      </trkpt>
      <trkpt lat="44.68804" lon="3.19544">
        <ele>1216.21</ele>
        <time>2016-02-24T09:47:52Z</time>
      </trkpt>
      <trkpt lat="44.68803" lon="3.19543">
        <ele>1216.69</ele>
        <time>2016-02-24T09:47:53Z</time>
      </trkpt>
      <trkpt lat="44.68801" lon="3.19541">
        <ele>1216.69</ele>
        <time>2016-02-24T09:47:54Z</time>
      </trkpt>
      <trkpt lat="44.688" lon="3.19539">
        <ele>1217.17</ele>
        <time>2016-02-24T09:47:55Z</time>
      </trkpt>
      <trkpt lat="44.68799" lon="3.19538">
        <ele>1217.65</ele>
        <time>2016-02-24T09:47:56Z</time>
      </trkpt>
      <trkpt lat="44.68798" lon="3.19536">
        <ele>1217.65</ele>
        <time>2016-02-24T09:47:57Z</time>
      </trkpt>
      <trkpt lat="44.68797" lon="3.19535">
        <ele>1218.13</ele>
        <time>2016-02-24T09:47:58Z</time>
      </trkpt>
      <trkpt lat="44.6878" lon="3.19508">
        <ele>1220.53</ele>
        <time>2016-02-24T09:48:12Z</time>
      </trkpt>
      <trkpt lat="44.68773" lon="3.19498">
        <ele>1221.01</ele>
        <time>2016-02-24T09:48:17Z</time>
      </trkpt>
      <trkpt lat="44.68757" lon="3.19474">
        <ele>1222.93</ele>
        <time>2016-02-24T09:48:29Z</time>
      </trkpt>
      <trkpt lat="44.68754" lon="3.1947">
        <ele>1223.42</ele>
        <time>2016-02-24T09:48:32Z</time>
      </trkpt>
      <trkpt lat="44.68754" lon="3.19468">
        <ele>1223.42</ele>
        <time>2016-02-24T09:48:33Z</time>
      </trkpt>
      <trkpt lat="44.6875" lon="3.19459">
        <ele>1224.38</ele>
        <time>2016-02-24T09:48:38Z</time>
      </trkpt>
      <trkpt lat="44.68751" lon="3.19457">
        <ele>1224.38</ele>
        <time>2016-02-24T09:48:39Z</time>
      </trkpt>
      <trkpt lat="44.68752" lon="3.19453">
        <ele>1225.34</ele>
        <time>2016-02-24T09:48:41Z</time>
      </trkpt>
      <trkpt lat="44.68751" lon="3.19451">
        <ele>1225.34</ele>
        <time>2016-02-24T09:48:42Z</time>
      </trkpt>
      <trkpt lat="44.6875" lon="3.19451">
        <ele>1225.82</ele>
        <time>2016-02-24T09:48:43Z</time>
      </trkpt>
      <trkpt lat="44.68749" lon="3.19452">
        <ele>1225.82</ele>
        <time>2016-02-24T09:48:44Z</time>
      </trkpt>
      <trkpt lat="44.68748" lon="3.19451">
        <ele>1225.82</ele>
        <time>2016-02-24T09:48:57Z</time>
      </trkpt>
      <trkpt lat="44.68748" lon="3.1945">
        <ele>1225.34</ele>
        <time>2016-02-24T09:49:14Z</time>
      </trkpt>
      <trkpt lat="44.68748" lon="3.19447">
        <ele>1225.82</ele>
        <time>2016-02-24T09:49:18Z</time>
      </trkpt>
      <trkpt lat="44.68747" lon="3.19444">
        <ele>1225.34</ele>
        <time>2016-02-24T09:49:19Z</time>
      </trkpt>
      <trkpt lat="44.68747" lon="3.19441">
        <ele>1225.34</ele>
        <time>2016-02-24T09:49:20Z</time>
      </trkpt>
      <trkpt lat="44.68746" lon="3.19438">
        <ele>1225.34</ele>
        <time>2016-02-24T09:49:21Z</time>
      </trkpt>
      <trkpt lat="44.68745" lon="3.19435">
        <ele>1225.82</ele>
        <time>2016-02-24T09:49:22Z</time>
      </trkpt>
      <trkpt lat="44.68741" lon="3.19386">
        <ele>1226.78</ele>
        <time>2016-02-24T09:49:39Z</time>
      </trkpt>
      <trkpt lat="44.68755" lon="3.19362">
        <ele>1227.74</ele>
        <time>2016-02-24T09:49:49Z</time>
      </trkpt>
      <trkpt lat="44.68756" lon="3.19358">
        <ele>1228.22</ele>
        <time>2016-02-24T09:49:50Z</time>
      </trkpt>
      <trkpt lat="44.68755" lon="3.19315">
        <ele>1228.22</ele>
        <time>2016-02-24T09:50:01Z</time>
      </trkpt>
      <trkpt lat="44.68756" lon="3.19282">
        <ele>1227.26</ele>
        <time>2016-02-24T09:50:08Z</time>
      </trkpt>
      <trkpt lat="44.68757" lon="3.19279">
        <ele>1227.74</ele>
        <time>2016-02-24T09:50:09Z</time>
      </trkpt>
      <trkpt lat="44.68759" lon="3.19276">
        <ele>1228.22</ele>
        <time>2016-02-24T09:50:10Z</time>
      </trkpt>
      <trkpt lat="44.68761" lon="3.19273">
        <ele>1228.22</ele>
        <time>2016-02-24T09:50:11Z</time>
      </trkpt>
      <trkpt lat="44.68762" lon="3.19271">
        <ele>1228.22</ele>
        <time>2016-02-24T09:50:12Z</time>
      </trkpt>
      <trkpt lat="44.68763" lon="3.19269">
        <ele>1228.22</ele>
        <time>2016-02-24T09:50:13Z</time>
      </trkpt>
      <trkpt lat="44.68781" lon="3.19243">
        <ele>1230.62</ele>
        <time>2016-02-24T09:50:25Z</time>
      </trkpt>
      <trkpt lat="44.68798" lon="3.19207">
        <ele>1232.55</ele>
        <time>2016-02-24T09:50:38Z</time>
      </trkpt>
      <trkpt lat="44.68811" lon="3.19158">
        <ele>1226.3</ele>
        <time>2016-02-24T09:50:53Z</time>
      </trkpt>
      <trkpt lat="44.68811" lon="3.19156">
        <ele>1238.32</ele>
        <time>2016-02-24T09:50:54Z</time>
      </trkpt>
      <trkpt lat="44.68812" lon="3.19153">
        <ele>1233.03</ele>
        <time>2016-02-24T09:50:55Z</time>
      </trkpt>
      <trkpt lat="44.68815" lon="3.1913">
        <ele>1233.03</ele>
        <time>2016-02-24T09:51:04Z</time>
      </trkpt>
      <trkpt lat="44.68815" lon="3.19127">
        <ele>1233.03</ele>
        <time>2016-02-24T09:51:05Z</time>
      </trkpt>
      <trkpt lat="44.68815" lon="3.19124">
        <ele>1233.03</ele>
        <time>2016-02-24T09:51:06Z</time>
      </trkpt>
      <trkpt lat="44.68817" lon="3.1909">
        <ele>1237.83</ele>
        <time>2016-02-24T09:51:16Z</time>
      </trkpt>
      <trkpt lat="44.68817" lon="3.19087">
        <ele>1232.55</ele>
        <time>2016-02-24T09:51:17Z</time>
      </trkpt>
      <trkpt lat="44.68802" lon="3.19037">
        <ele>1232.07</ele>
        <time>2016-02-24T09:51:29Z</time>
      </trkpt>
      <trkpt lat="44.68759" lon="3.19002">
        <ele>1233.03</ele>
        <time>2016-02-24T09:51:43Z</time>
      </trkpt>
      <trkpt lat="44.68721" lon="3.18986">
        <ele>1234.47</ele>
        <time>2016-02-24T09:51:56Z</time>
      </trkpt>
      <trkpt lat="44.68708" lon="3.18957">
        <ele>1236.87</ele>
        <time>2016-02-24T09:52:09Z</time>
      </trkpt>
      <trkpt lat="44.68697" lon="3.18927">
        <ele>1237.83</ele>
        <time>2016-02-24T09:52:22Z</time>
      </trkpt>
      <trkpt lat="44.68691" lon="3.18905">
        <ele>1237.83</ele>
        <time>2016-02-24T09:52:30Z</time>
      </trkpt>
      <trkpt lat="44.6869" lon="3.18902">
        <ele>1237.83</ele>
        <time>2016-02-24T09:52:31Z</time>
      </trkpt>
      <trkpt lat="44.68689" lon="3.189">
        <ele>1237.83</ele>
        <time>2016-02-24T09:52:32Z</time>
      </trkpt>
      <trkpt lat="44.68688" lon="3.18897">
        <ele>1237.83</ele>
        <time>2016-02-24T09:52:33Z</time>
      </trkpt>
      <trkpt lat="44.68687" lon="3.18894">
        <ele>1237.83</ele>
        <time>2016-02-24T09:52:34Z</time>
      </trkpt>
      <trkpt lat="44.68686" lon="3.18891">
        <ele>1237.83</ele>
        <time>2016-02-24T09:52:35Z</time>
      </trkpt>
      <trkpt lat="44.68667" lon="3.18846">
        <ele>1238.8</ele>
        <time>2016-02-24T09:52:51Z</time>
      </trkpt>
      <trkpt lat="44.68661" lon="3.18808">
        <ele>1239.28</ele>
        <time>2016-02-24T09:53:05Z</time>
      </trkpt>
      <trkpt lat="44.68677" lon="3.18773">
        <ele>1240.24</ele>
        <time>2016-02-24T09:53:19Z</time>
      </trkpt>
      <trkpt lat="44.68704" lon="3.18727">
        <ele>1239.28</ele>
        <time>2016-02-24T09:53:34Z</time>
      </trkpt>
      <trkpt lat="44.68747" lon="3.18661">
        <ele>1237.83</ele>
        <time>2016-02-24T09:53:51Z</time>
      </trkpt>
      <trkpt lat="44.68749" lon="3.18657">
        <ele>1237.35</ele>
        <time>2016-02-24T09:53:52Z</time>
      </trkpt>
      <trkpt lat="44.68785" lon="3.18579">
        <ele>1234.47</ele>
        <time>2016-02-24T09:54:06Z</time>
      </trkpt>
      <trkpt lat="44.68796" lon="3.18559">
        <ele>1233.99</ele>
        <time>2016-02-24T09:54:10Z</time>
      </trkpt>
      <trkpt lat="44.68824" lon="3.1846">
        <ele>1232.55</ele>
        <time>2016-02-24T09:54:27Z</time>
      </trkpt>
      <trkpt lat="44.68846" lon="3.18365">
        <ele>1229.18</ele>
        <time>2016-02-24T09:54:44Z</time>
      </trkpt>
      <trkpt lat="44.6885" lon="3.18353">
        <ele>1228.7</ele>
        <time>2016-02-24T09:54:46Z</time>
      </trkpt>
      <trkpt lat="44.68867" lon="3.18308">
        <ele>1226.3</ele>
        <time>2016-02-24T09:54:55Z</time>
      </trkpt>
      <trkpt lat="44.6887" lon="3.18302">
        <ele>1226.3</ele>
        <time>2016-02-24T09:54:56Z</time>
      </trkpt>
      <trkpt lat="44.68872" lon="3.18292">
        <ele>1226.3</ele>
        <time>2016-02-24T09:54:57Z</time>
      </trkpt>
      <trkpt lat="44.68893" lon="3.18193">
        <ele>1224.38</ele>
        <time>2016-02-24T09:55:10Z</time>
      </trkpt>
      <trkpt lat="44.68909" lon="3.1808">
        <ele>1223.9</ele>
        <time>2016-02-24T09:55:28Z</time>
      </trkpt>
      <trkpt lat="44.6891" lon="3.18075">
        <ele>1223.9</ele>
        <time>2016-02-24T09:55:29Z</time>
      </trkpt>
      <trkpt lat="44.68928" lon="3.17997">
        <ele>1223.9</ele>
        <time>2016-02-24T09:55:45Z</time>
      </trkpt>
      <trkpt lat="44.68954" lon="3.17933">
        <ele>1226.3</ele>
        <time>2016-02-24T09:56:01Z</time>
      </trkpt>
      <trkpt lat="44.68979" lon="3.17883">
        <ele>1227.74</ele>
        <time>2016-02-24T09:56:14Z</time>
      </trkpt>
      <trkpt lat="44.68981" lon="3.17879">
        <ele>1228.22</ele>
        <time>2016-02-24T09:56:15Z</time>
      </trkpt>
      <trkpt lat="44.68987" lon="3.17842">
        <ele>1229.18</ele>
        <time>2016-02-24T09:56:27Z</time>
      </trkpt>
      <trkpt lat="44.68978" lon="3.17803">
        <ele>1228.22</ele>
        <time>2016-02-24T09:56:41Z</time>
      </trkpt>
      <trkpt lat="44.68958" lon="3.17758">
        <ele>1227.26</ele>
        <time>2016-02-24T09:56:55Z</time>
      </trkpt>
      <trkpt lat="44.68956" lon="3.17753">
        <ele>1226.78</ele>
        <time>2016-02-24T09:56:56Z</time>
      </trkpt>
      <trkpt lat="44.68945" lon="3.1772">
        <ele>1222.93</ele>
        <time>2016-02-24T09:57:01Z</time>
      </trkpt>
      <trkpt lat="44.68938" lon="3.17698">
        <ele>1221.49</ele>
        <time>2016-02-24T09:57:04Z</time>
      </trkpt>
      <trkpt lat="44.68935" lon="3.1768">
        <ele>1219.57</ele>
        <time>2016-02-24T09:57:06Z</time>
      </trkpt>
      <trkpt lat="44.68934" lon="3.17671">
        <ele>1218.61</ele>
        <time>2016-02-24T09:57:07Z</time>
      </trkpt>
      <trkpt lat="44.68934" lon="3.17661">
        <ele>1218.13</ele>
        <time>2016-02-24T09:57:08Z</time>
      </trkpt>
      <trkpt lat="44.68934" lon="3.17651">
        <ele>1217.17</ele>
        <time>2016-02-24T09:57:09Z</time>
      </trkpt>
      <trkpt lat="44.68933" lon="3.17641">
        <ele>1216.69</ele>
        <time>2016-02-24T09:57:10Z</time>
      </trkpt>
      <trkpt lat="44.68932" lon="3.17546">
        <ele>1214.28</ele>
        <time>2016-02-24T09:57:22Z</time>
      </trkpt>
      <trkpt lat="44.6893" lon="3.17474">
        <ele>1211.4</ele>
        <time>2016-02-24T09:57:35Z</time>
      </trkpt>
      <trkpt lat="44.68928" lon="3.17467">
        <ele>1210.92</ele>
        <time>2016-02-24T09:57:36Z</time>
      </trkpt>
      <trkpt lat="44.68926" lon="3.1746">
        <ele>1210.44</ele>
        <time>2016-02-24T09:57:37Z</time>
      </trkpt>
      <trkpt lat="44.68924" lon="3.17453">
        <ele>1209.48</ele>
        <time>2016-02-24T09:57:38Z</time>
      </trkpt>
      <trkpt lat="44.68921" lon="3.17446">
        <ele>1209</ele>
        <time>2016-02-24T09:57:39Z</time>
      </trkpt>
      <trkpt lat="44.68918" lon="3.1744">
        <ele>1209.48</ele>
        <time>2016-02-24T09:57:40Z</time>
      </trkpt>
      <trkpt lat="44.68916" lon="3.17433">
        <ele>1209</ele>
        <time>2016-02-24T09:57:41Z</time>
      </trkpt>
      <trkpt lat="44.68915" lon="3.17427">
        <ele>1209</ele>
        <time>2016-02-24T09:57:42Z</time>
      </trkpt>
      <trkpt lat="44.68912" lon="3.1742">
        <ele>1208.51</ele>
        <time>2016-02-24T09:57:43Z</time>
      </trkpt>
      <trkpt lat="44.6891" lon="3.17414">
        <ele>1207.55</ele>
        <time>2016-02-24T09:57:44Z</time>
      </trkpt>
      <trkpt lat="44.68905" lon="3.174">
        <ele>1206.59</ele>
        <time>2016-02-24T09:57:46Z</time>
      </trkpt>
      <trkpt lat="44.68898" lon="3.17382">
        <ele>1206.11</ele>
        <time>2016-02-24T09:57:49Z</time>
      </trkpt>
      <trkpt lat="44.68884" lon="3.17353">
        <ele>1204.67</ele>
        <time>2016-02-24T09:57:54Z</time>
      </trkpt>
      <trkpt lat="44.68882" lon="3.17346">
        <ele>1204.19</ele>
        <time>2016-02-24T09:57:55Z</time>
      </trkpt>
      <trkpt lat="44.6888" lon="3.17339">
        <ele>1204.67</ele>
        <time>2016-02-24T09:57:56Z</time>
      </trkpt>
      <trkpt lat="44.68879" lon="3.17332">
        <ele>1204.67</ele>
        <time>2016-02-24T09:57:57Z</time>
      </trkpt>
      <trkpt lat="44.68879" lon="3.17325">
        <ele>1204.67</ele>
        <time>2016-02-24T09:57:58Z</time>
      </trkpt>
      <trkpt lat="44.6888" lon="3.17318">
        <ele>1204.67</ele>
        <time>2016-02-24T09:57:59Z</time>
      </trkpt>
      <trkpt lat="44.68881" lon="3.17311">
        <ele>1204.67</ele>
        <time>2016-02-24T09:58:00Z</time>
      </trkpt>
      <trkpt lat="44.68883" lon="3.17304">
        <ele>1204.67</ele>
        <time>2016-02-24T09:58:01Z</time>
      </trkpt>
      <trkpt lat="44.68885" lon="3.17298">
        <ele>1204.67</ele>
        <time>2016-02-24T09:58:02Z</time>
      </trkpt>
      <trkpt lat="44.68887" lon="3.17292">
        <ele>1204.19</ele>
        <time>2016-02-24T09:58:03Z</time>
      </trkpt>
      <trkpt lat="44.6892" lon="3.17212">
        <ele>1202.75</ele>
        <time>2016-02-24T09:58:18Z</time>
      </trkpt>
      <trkpt lat="44.68924" lon="3.172">
        <ele>1202.27</ele>
        <time>2016-02-24T09:58:20Z</time>
      </trkpt>
      <trkpt lat="44.68927" lon="3.17195">
        <ele>1202.75</ele>
        <time>2016-02-24T09:58:21Z</time>
      </trkpt>
      <trkpt lat="44.68958" lon="3.17111">
        <ele>1203.23</ele>
        <time>2016-02-24T09:58:36Z</time>
      </trkpt>
      <trkpt lat="44.68961" lon="3.17106">
        <ele>1203.23</ele>
        <time>2016-02-24T09:58:37Z</time>
      </trkpt>
      <trkpt lat="44.68989" lon="3.1706">
        <ele>1206.59</ele>
        <time>2016-02-24T09:58:51Z</time>
      </trkpt>
      <trkpt lat="44.69006" lon="3.17039">
        <ele>1209.48</ele>
        <time>2016-02-24T09:59:02Z</time>
      </trkpt>
      <trkpt lat="44.6903" lon="3.17015">
        <ele>1210.44</ele>
        <time>2016-02-24T09:59:16Z</time>
      </trkpt>
      <trkpt lat="44.69049" lon="3.16992">
        <ele>1211.4</ele>
        <time>2016-02-24T09:59:31Z</time>
      </trkpt>
      <trkpt lat="44.6905" lon="3.16991">
        <ele>1211.4</ele>
        <time>2016-02-24T09:59:47Z</time>
      </trkpt>
      <trkpt lat="44.6905" lon="3.16991">
        <ele>1211.88</ele>
        <time>2016-02-24T10:00:06Z</time>
      </trkpt>
      <trkpt lat="44.6905" lon="3.16991">
        <ele>1211.88</ele>
        <time>2016-02-24T10:00:30Z</time>
      </trkpt>
      <trkpt lat="44.69053" lon="3.16987">
        <ele>1210.92</ele>
        <time>2016-02-24T10:00:36Z</time>
      </trkpt>
      <trkpt lat="44.69052" lon="3.16984">
        <ele>1210.92</ele>
        <time>2016-02-24T10:00:37Z</time>
      </trkpt>
      <trkpt lat="44.69051" lon="3.16982">
        <ele>1210.44</ele>
        <time>2016-02-24T10:00:38Z</time>
      </trkpt>
      <trkpt lat="44.69049" lon="3.16981">
        <ele>1210.44</ele>
        <time>2016-02-24T10:00:39Z</time>
      </trkpt>
      <trkpt lat="44.69047" lon="3.1698">
        <ele>1210.92</ele>
        <time>2016-02-24T10:00:40Z</time>
      </trkpt>
      <trkpt lat="44.69045" lon="3.1698">
        <ele>1210.92</ele>
        <time>2016-02-24T10:00:41Z</time>
      </trkpt>
      <trkpt lat="44.6902" lon="3.16978">
        <ele>1209.48</ele>
        <time>2016-02-24T10:00:48Z</time>
      </trkpt>
      <trkpt lat="44.68947" lon="3.16979">
        <ele>1206.11</ele>
        <time>2016-02-24T10:01:03Z</time>
      </trkpt>
      <trkpt lat="44.68902" lon="3.16981">
        <ele>1207.55</ele>
        <time>2016-02-24T10:01:14Z</time>
      </trkpt>
      <trkpt lat="44.68899" lon="3.16981">
        <ele>1208.51</ele>
        <time>2016-02-24T10:01:24Z</time>
      </trkpt>
      <trkpt lat="44.68899" lon="3.16981">
        <ele>1208.03</ele>
        <time>2016-02-24T10:01:59Z</time>
      </trkpt>
      <trkpt lat="44.68899" lon="3.16981">
        <ele>1208.03</ele>
        <time>2016-02-24T10:02:18Z</time>
      </trkpt>
      <trkpt lat="44.68896" lon="3.1698">
        <ele>1207.07</ele>
        <time>2016-02-24T10:02:19Z</time>
      </trkpt>
      <trkpt lat="44.68894" lon="3.16978">
        <ele>1207.55</ele>
        <time>2016-02-24T10:02:20Z</time>
      </trkpt>
      <trkpt lat="44.68891" lon="3.16977">
        <ele>1207.07</ele>
        <time>2016-02-24T10:02:21Z</time>
      </trkpt>
      <trkpt lat="44.68888" lon="3.16976">
        <ele>1207.55</ele>
        <time>2016-02-24T10:02:22Z</time>
      </trkpt>
      <trkpt lat="44.68884" lon="3.16976">
        <ele>1207.55</ele>
        <time>2016-02-24T10:02:23Z</time>
      </trkpt>
      <trkpt lat="44.68881" lon="3.16975">
        <ele>1207.55</ele>
        <time>2016-02-24T10:02:24Z</time>
      </trkpt>
      <trkpt lat="44.68878" lon="3.16975">
        <ele>1207.55</ele>
        <time>2016-02-24T10:02:25Z</time>
      </trkpt>
      <trkpt lat="44.68819" lon="3.16971">
        <ele>1208.03</ele>
        <time>2016-02-24T10:02:42Z</time>
      </trkpt>
      <trkpt lat="44.68785" lon="3.1698">
        <ele>1203.71</ele>
        <time>2016-02-24T10:02:49Z</time>
      </trkpt>
      <trkpt lat="44.68758" lon="3.16996">
        <ele>1200.34</ele>
        <time>2016-02-24T10:02:53Z</time>
      </trkpt>
      <trkpt lat="44.68733" lon="3.1701">
        <ele>1197.46</ele>
        <time>2016-02-24T10:02:56Z</time>
      </trkpt>
      <trkpt lat="44.68662" lon="3.1704">
        <ele>1196.98</ele>
        <time>2016-02-24T10:03:05Z</time>
      </trkpt>
      <trkpt lat="44.68652" lon="3.17044">
        <ele>1197.46</ele>
        <time>2016-02-24T10:03:07Z</time>
      </trkpt>
      <trkpt lat="44.68621" lon="3.17058">
        <ele>1198.42</ele>
        <time>2016-02-24T10:03:14Z</time>
      </trkpt>
      <trkpt lat="44.68593" lon="3.17061">
        <ele>1198.42</ele>
        <time>2016-02-24T10:03:21Z</time>
      </trkpt>
      <trkpt lat="44.68589" lon="3.1706">
        <ele>1198.42</ele>
        <time>2016-02-24T10:03:22Z</time>
      </trkpt>
      <trkpt lat="44.68585" lon="3.17058">
        <ele>1198.42</ele>
        <time>2016-02-24T10:03:23Z</time>
      </trkpt>
      <trkpt lat="44.68582" lon="3.17057">
        <ele>1198.42</ele>
        <time>2016-02-24T10:03:24Z</time>
      </trkpt>
      <trkpt lat="44.68578" lon="3.17054">
        <ele>1197.94</ele>
        <time>2016-02-24T10:03:25Z</time>
      </trkpt>
      <trkpt lat="44.68575" lon="3.17051">
        <ele>1197.94</ele>
        <time>2016-02-24T10:03:26Z</time>
      </trkpt>
      <trkpt lat="44.68537" lon="3.17019">
        <ele>1200.34</ele>
        <time>2016-02-24T10:03:40Z</time>
      </trkpt>
      <trkpt lat="44.68511" lon="3.16995">
        <ele>1202.75</ele>
        <time>2016-02-24T10:03:52Z</time>
      </trkpt>
      <trkpt lat="44.68493" lon="3.16984">
        <ele>1205.63</ele>
        <time>2016-02-24T10:04:01Z</time>
      </trkpt>
      <trkpt lat="44.6848" lon="3.16972">
        <ele>1208.03</ele>
        <time>2016-02-24T10:04:09Z</time>
      </trkpt>
      <trkpt lat="44.68478" lon="3.16972">
        <ele>1209.48</ele>
        <time>2016-02-24T10:04:10Z</time>
      </trkpt>
      <trkpt lat="44.68477" lon="3.16971">
        <ele>1209</ele>
        <time>2016-02-24T10:04:11Z</time>
      </trkpt>
      <trkpt lat="44.68476" lon="3.1697">
        <ele>1208.03</ele>
        <time>2016-02-24T10:04:12Z</time>
      </trkpt>
      <trkpt lat="44.68475" lon="3.16966">
        <ele>1207.55</ele>
        <time>2016-02-24T10:04:14Z</time>
      </trkpt>
      <trkpt lat="44.68474" lon="3.16964">
        <ele>1208.03</ele>
        <time>2016-02-24T10:04:15Z</time>
      </trkpt>
      <trkpt lat="44.68472" lon="3.16963">
        <ele>1208.03</ele>
        <time>2016-02-24T10:04:16Z</time>
      </trkpt>
      <trkpt lat="44.6847" lon="3.16962">
        <ele>1208.51</ele>
        <time>2016-02-24T10:04:17Z</time>
      </trkpt>
      <trkpt lat="44.68469" lon="3.16961">
        <ele>1208.51</ele>
        <time>2016-02-24T10:04:18Z</time>
      </trkpt>
      <trkpt lat="44.68467" lon="3.16961">
        <ele>1208.51</ele>
        <time>2016-02-24T10:04:19Z</time>
      </trkpt>
      <trkpt lat="44.68464" lon="3.16962">
        <ele>1209.96</ele>
        <time>2016-02-24T10:04:28Z</time>
      </trkpt>
      <trkpt lat="44.68463" lon="3.16962">
        <ele>1209.96</ele>
        <time>2016-02-24T10:04:32Z</time>
      </trkpt>
      <trkpt lat="44.68462" lon="3.16961">
        <ele>1209</ele>
        <time>2016-02-24T10:04:33Z</time>
      </trkpt>
      <trkpt lat="44.6846" lon="3.1696">
        <ele>1209</ele>
        <time>2016-02-24T10:04:34Z</time>
      </trkpt>
      <trkpt lat="44.68458" lon="3.16958">
        <ele>1208.51</ele>
        <time>2016-02-24T10:04:35Z</time>
      </trkpt>
      <trkpt lat="44.68456" lon="3.16956">
        <ele>1209</ele>
        <time>2016-02-24T10:04:36Z</time>
      </trkpt>
      <trkpt lat="44.68454" lon="3.16954">
        <ele>1209</ele>
        <time>2016-02-24T10:04:37Z</time>
      </trkpt>
      <trkpt lat="44.68442" lon="3.16945">
        <ele>1210.44</ele>
        <time>2016-02-24T10:04:43Z</time>
      </trkpt>
      <trkpt lat="44.68426" lon="3.16932">
        <ele>1211.88</ele>
        <time>2016-02-24T10:04:53Z</time>
      </trkpt>
      <trkpt lat="44.68399" lon="3.16908">
        <ele>1214.76</ele>
        <time>2016-02-24T10:05:08Z</time>
      </trkpt>
      <trkpt lat="44.6838" lon="3.16896">
        <ele>1217.17</ele>
        <time>2016-02-24T10:05:19Z</time>
      </trkpt>
      <trkpt lat="44.68374" lon="3.16892">
        <ele>1217.65</ele>
        <time>2016-02-24T10:05:22Z</time>
      </trkpt>
      <trkpt lat="44.68351" lon="3.16891">
        <ele>1219.57</ele>
        <time>2016-02-24T10:05:35Z</time>
      </trkpt>
      <trkpt lat="44.6835" lon="3.16891">
        <ele>1219.09</ele>
        <time>2016-02-24T10:05:36Z</time>
      </trkpt>
      <trkpt lat="44.68345" lon="3.1689">
        <ele>1219.09</ele>
        <time>2016-02-24T10:05:39Z</time>
      </trkpt>
      <trkpt lat="44.68343" lon="3.16891">
        <ele>1220.05</ele>
        <time>2016-02-24T10:05:40Z</time>
      </trkpt>
      <trkpt lat="44.68342" lon="3.16891">
        <ele>1219.57</ele>
        <time>2016-02-24T10:05:41Z</time>
      </trkpt>
      <trkpt lat="44.6834" lon="3.16891">
        <ele>1219.09</ele>
        <time>2016-02-24T10:05:42Z</time>
      </trkpt>
      <trkpt lat="44.68339" lon="3.16891">
        <ele>1219.57</ele>
        <time>2016-02-24T10:05:43Z</time>
      </trkpt>
      <trkpt lat="44.68337" lon="3.16892">
        <ele>1219.57</ele>
        <time>2016-02-24T10:05:44Z</time>
      </trkpt>
      <trkpt lat="44.68337" lon="3.16892">
        <ele>1219.57</ele>
        <time>2016-02-24T10:05:55Z</time>
      </trkpt>
      <trkpt lat="44.68338" lon="3.16893">
        <ele>1219.57</ele>
        <time>2016-02-24T10:06:00Z</time>
      </trkpt>
      <trkpt lat="44.68339" lon="3.16893">
        <ele>1219.57</ele>
        <time>2016-02-24T10:06:01Z</time>
      </trkpt>
      <trkpt lat="44.6834" lon="3.16893">
        <ele>1219.57</ele>
        <time>2016-02-24T10:06:02Z</time>
      </trkpt>
      <trkpt lat="44.6836" lon="3.1689">
        <ele>1219.09</ele>
        <time>2016-02-24T10:06:12Z</time>
      </trkpt>
      <trkpt lat="44.68363" lon="3.1689">
        <ele>1219.09</ele>
        <time>2016-02-24T10:06:18Z</time>
      </trkpt>
      <trkpt lat="44.68365" lon="3.16888">
        <ele>1219.09</ele>
        <time>2016-02-24T10:06:20Z</time>
      </trkpt>
      <trkpt lat="44.68365" lon="3.16888">
        <ele>1219.09</ele>
        <time>2016-02-24T10:06:32Z</time>
      </trkpt>
      <trkpt lat="44.68365" lon="3.16888">
        <ele>1219.09</ele>
        <time>2016-02-24T10:06:51Z</time>
      </trkpt>
      <trkpt lat="44.68365" lon="3.16888">
        <ele>1219.09</ele>
        <time>2016-02-24T10:07:24Z</time>
      </trkpt>
      <trkpt lat="44.68366" lon="3.16889">
        <ele>1218.61</ele>
        <time>2016-02-24T10:07:32Z</time>
      </trkpt>
      <trkpt lat="44.68367" lon="3.16891">
        <ele>1218.61</ele>
        <time>2016-02-24T10:07:33Z</time>
      </trkpt>
      <trkpt lat="44.68367" lon="3.16893">
        <ele>1218.61</ele>
        <time>2016-02-24T10:07:34Z</time>
      </trkpt>
      <trkpt lat="44.68356" lon="3.16892">
        <ele>1218.13</ele>
        <time>2016-02-24T10:07:42Z</time>
      </trkpt>
      <trkpt lat="44.68336" lon="3.16898">
        <ele>1219.09</ele>
        <time>2016-02-24T10:07:55Z</time>
      </trkpt>
      <trkpt lat="44.6833" lon="3.169">
        <ele>1218.61</ele>
        <time>2016-02-24T10:07:59Z</time>
      </trkpt>
      <trkpt lat="44.68327" lon="3.16902">
        <ele>1218.61</ele>
        <time>2016-02-24T10:08:02Z</time>
      </trkpt>
      <trkpt lat="44.68325" lon="3.16904">
        <ele>1219.09</ele>
        <time>2016-02-24T10:08:12Z</time>
      </trkpt>
      <trkpt lat="44.68325" lon="3.16904">
        <ele>1219.09</ele>
        <time>2016-02-24T10:08:37Z</time>
      </trkpt>
      <trkpt lat="44.68325" lon="3.16904">
        <ele>1218.13</ele>
        <time>2016-02-24T10:09:03Z</time>
      </trkpt>
      <trkpt lat="44.68325" lon="3.16904">
        <ele>1218.61</ele>
        <time>2016-02-24T10:09:04Z</time>
      </trkpt>
      <trkpt lat="44.68317" lon="3.16907">
        <ele>1218.13</ele>
        <time>2016-02-24T10:09:09Z</time>
      </trkpt>
      <trkpt lat="44.68287" lon="3.16911">
        <ele>1214.76</ele>
        <time>2016-02-24T10:09:17Z</time>
      </trkpt>
      <trkpt lat="44.6824" lon="3.16891">
        <ele>1211.88</ele>
        <time>2016-02-24T10:09:25Z</time>
      </trkpt>
      <trkpt lat="44.68169" lon="3.16825">
        <ele>1209.96</ele>
        <time>2016-02-24T10:09:40Z</time>
      </trkpt>
      <trkpt lat="44.68152" lon="3.16807">
        <ele>1208.51</ele>
        <time>2016-02-24T10:09:44Z</time>
      </trkpt>
      <trkpt lat="44.68108" lon="3.16769">
        <ele>1205.63</ele>
        <time>2016-02-24T10:09:53Z</time>
      </trkpt>
      <trkpt lat="44.68097" lon="3.16759">
        <ele>1203.23</ele>
        <time>2016-02-24T10:09:55Z</time>
      </trkpt>
      <trkpt lat="44.68072" lon="3.16732">
        <ele>1199.86</ele>
        <time>2016-02-24T10:09:59Z</time>
      </trkpt>
      <trkpt lat="44.68058" lon="3.16717">
        <ele>1196.02</ele>
        <time>2016-02-24T10:10:01Z</time>
      </trkpt>
      <trkpt lat="44.68049" lon="3.1671">
        <ele>1195.06</ele>
        <time>2016-02-24T10:10:02Z</time>
      </trkpt>
      <trkpt lat="44.68041" lon="3.16705">
        <ele>1194.09</ele>
        <time>2016-02-24T10:10:03Z</time>
      </trkpt>
      <trkpt lat="44.68013" lon="3.16692">
        <ele>1192.65</ele>
        <time>2016-02-24T10:10:06Z</time>
      </trkpt>
      <trkpt lat="44.67929" lon="3.16666">
        <ele>1193.61</ele>
        <time>2016-02-24T10:10:17Z</time>
      </trkpt>
      <trkpt lat="44.67905" lon="3.16661">
        <ele>1195.54</ele>
        <time>2016-02-24T10:10:21Z</time>
      </trkpt>
      <trkpt lat="44.67877" lon="3.1666">
        <ele>1197.46</ele>
        <time>2016-02-24T10:10:27Z</time>
      </trkpt>
      <trkpt lat="44.67827" lon="3.1667">
        <ele>1199.86</ele>
        <time>2016-02-24T10:10:41Z</time>
      </trkpt>
      <trkpt lat="44.67777" lon="3.16684">
        <ele>1202.75</ele>
        <time>2016-02-24T10:10:55Z</time>
      </trkpt>
      <trkpt lat="44.6773" lon="3.16681">
        <ele>1204.67</ele>
        <time>2016-02-24T10:11:10Z</time>
      </trkpt>
      <trkpt lat="44.67698" lon="3.16665">
        <ele>1201.3</ele>
        <time>2016-02-24T10:11:19Z</time>
      </trkpt>
      <trkpt lat="44.67693" lon="3.16662">
        <ele>1201.3</ele>
        <time>2016-02-24T10:11:20Z</time>
      </trkpt>
      <trkpt lat="44.67687" lon="3.1666">
        <ele>1200.34</ele>
        <time>2016-02-24T10:11:21Z</time>
      </trkpt>
      <trkpt lat="44.67679" lon="3.16659">
        <ele>1199.38</ele>
        <time>2016-02-24T10:11:22Z</time>
      </trkpt>
      <trkpt lat="44.67671" lon="3.16659">
        <ele>1198.42</ele>
        <time>2016-02-24T10:11:23Z</time>
      </trkpt>
      <trkpt lat="44.67663" lon="3.1666">
        <ele>1196.98</ele>
        <time>2016-02-24T10:11:24Z</time>
      </trkpt>
      <trkpt lat="44.67645" lon="3.16661">
        <ele>1193.13</ele>
        <time>2016-02-24T10:11:26Z</time>
      </trkpt>
      <trkpt lat="44.67574" lon="3.16674">
        <ele>1190.73</ele>
        <time>2016-02-24T10:11:34Z</time>
      </trkpt>
      <trkpt lat="44.67568" lon="3.16679">
        <ele>1191.21</ele>
        <time>2016-02-24T10:11:35Z</time>
      </trkpt>
      <trkpt lat="44.67562" lon="3.16684">
        <ele>1191.69</ele>
        <time>2016-02-24T10:11:36Z</time>
      </trkpt>
      <trkpt lat="44.67556" lon="3.16689">
        <ele>1192.17</ele>
        <time>2016-02-24T10:11:37Z</time>
      </trkpt>
      <trkpt lat="44.67552" lon="3.16695">
        <ele>1192.65</ele>
        <time>2016-02-24T10:11:38Z</time>
      </trkpt>
      <trkpt lat="44.67548" lon="3.167">
        <ele>1193.13</ele>
        <time>2016-02-24T10:11:39Z</time>
      </trkpt>
      <trkpt lat="44.67516" lon="3.16757">
        <ele>1196.5</ele>
        <time>2016-02-24T10:11:52Z</time>
      </trkpt>
      <trkpt lat="44.6749" lon="3.16822">
        <ele>1199.38</ele>
        <time>2016-02-24T10:12:07Z</time>
      </trkpt>
      <trkpt lat="44.67464" lon="3.16853">
        <ele>1200.82</ele>
        <time>2016-02-24T10:12:18Z</time>
      </trkpt>
      <trkpt lat="44.6745" lon="3.16858">
        <ele>1202.27</ele>
        <time>2016-02-24T10:12:24Z</time>
      </trkpt>
      <trkpt lat="44.67448" lon="3.16857">
        <ele>1202.75</ele>
        <time>2016-02-24T10:12:25Z</time>
      </trkpt>
      <trkpt lat="44.67447" lon="3.16857">
        <ele>1202.75</ele>
        <time>2016-02-24T10:12:26Z</time>
      </trkpt>
      <trkpt lat="44.67444" lon="3.16852">
        <ele>1203.23</ele>
        <time>2016-02-24T10:12:31Z</time>
      </trkpt>
      <trkpt lat="44.67443" lon="3.16851">
        <ele>1203.23</ele>
        <time>2016-02-24T10:12:32Z</time>
      </trkpt>
      <trkpt lat="44.67442" lon="3.1685">
        <ele>1203.71</ele>
        <time>2016-02-24T10:12:33Z</time>
      </trkpt>
      <trkpt lat="44.67441" lon="3.16849">
        <ele>1203.71</ele>
        <time>2016-02-24T10:12:34Z</time>
      </trkpt>
      <trkpt lat="44.6744" lon="3.16848">
        <ele>1203.71</ele>
        <time>2016-02-24T10:12:35Z</time>
      </trkpt>
      <trkpt lat="44.67439" lon="3.16847">
        <ele>1204.19</ele>
        <time>2016-02-24T10:12:36Z</time>
      </trkpt>
      <trkpt lat="44.67438" lon="3.16845">
        <ele>1204.19</ele>
        <time>2016-02-24T10:12:37Z</time>
      </trkpt>
      <trkpt lat="44.67437" lon="3.16844">
        <ele>1204.19</ele>
        <time>2016-02-24T10:12:38Z</time>
      </trkpt>
      <trkpt lat="44.67426" lon="3.16821">
        <ele>1207.07</ele>
        <time>2016-02-24T10:12:51Z</time>
      </trkpt>
      <trkpt lat="44.67423" lon="3.16803">
        <ele>1209</ele>
        <time>2016-02-24T10:13:00Z</time>
      </trkpt>
      <trkpt lat="44.67422" lon="3.16799">
        <ele>1209</ele>
        <time>2016-02-24T10:13:12Z</time>
      </trkpt>
      <trkpt lat="44.67422" lon="3.16799">
        <ele>1209</ele>
        <time>2016-02-24T10:13:31Z</time>
      </trkpt>
      <trkpt lat="44.67422" lon="3.16799">
        <ele>1209</ele>
        <time>2016-02-24T10:13:56Z</time>
      </trkpt>
      <trkpt lat="44.67422" lon="3.16799">
        <ele>1209.48</ele>
        <time>2016-02-24T10:14:29Z</time>
      </trkpt>
      <trkpt lat="44.67421" lon="3.16797">
        <ele>1209.48</ele>
        <time>2016-02-24T10:14:54Z</time>
      </trkpt>
      <trkpt lat="44.67422" lon="3.16793">
        <ele>1209.48</ele>
        <time>2016-02-24T10:15:09Z</time>
      </trkpt>
      <trkpt lat="44.67422" lon="3.16793">
        <ele>1209</ele>
        <time>2016-02-24T10:15:16Z</time>
      </trkpt>
      <trkpt lat="44.67446" lon="3.166">
        <ele>1229.18</ele>
        <time>2016-02-24T10:36:50Z</time>
      </trkpt>
      <trkpt lat="44.67446" lon="3.16598">
        <ele>1227.74</ele>
        <time>2016-02-24T10:36:51Z</time>
      </trkpt>
      <trkpt lat="44.67446" lon="3.16601">
        <ele>1227.74</ele>
        <time>2016-02-24T10:36:53Z</time>
      </trkpt>
      <trkpt lat="44.67444" lon="3.16591">
        <ele>1228.22</ele>
        <time>2016-02-24T10:36:58Z</time>
      </trkpt>
      <trkpt lat="44.67443" lon="3.16588">
        <ele>1227.26</ele>
        <time>2016-02-24T10:37:00Z</time>
      </trkpt>
      <trkpt lat="44.67441" lon="3.16578">
        <ele>1228.22</ele>
        <time>2016-02-24T10:37:06Z</time>
      </trkpt>
      <trkpt lat="44.6744" lon="3.16563">
        <ele>1230.62</ele>
        <time>2016-02-24T10:37:15Z</time>
      </trkpt>
      <trkpt lat="44.67439" lon="3.1656">
        <ele>1234.95</ele>
        <time>2016-02-24T10:37:17Z</time>
      </trkpt>
      <trkpt lat="44.67439" lon="3.16558">
        <ele>1229.66</ele>
        <time>2016-02-24T10:37:18Z</time>
      </trkpt>
      <trkpt lat="44.67439" lon="3.16554">
        <ele>1229.66</ele>
        <time>2016-02-24T10:37:21Z</time>
      </trkpt>
      <trkpt lat="44.67435" lon="3.1654">
        <ele>1231.11</ele>
        <time>2016-02-24T10:37:29Z</time>
      </trkpt>
      <trkpt lat="44.67434" lon="3.16533">
        <ele>1230.62</ele>
        <time>2016-02-24T10:37:32Z</time>
      </trkpt>
      <trkpt lat="44.67432" lon="3.16527">
        <ele>1231.59</ele>
        <time>2016-02-24T10:37:36Z</time>
      </trkpt>
      <trkpt lat="44.67427" lon="3.16511">
        <ele>1233.03</ele>
        <time>2016-02-24T10:37:45Z</time>
      </trkpt>
      <trkpt lat="44.67419" lon="3.16492">
        <ele>1234.47</ele>
        <time>2016-02-24T10:37:57Z</time>
      </trkpt>
      <trkpt lat="44.67409" lon="3.1647">
        <ele>1235.91</ele>
        <time>2016-02-24T10:38:12Z</time>
      </trkpt>
      <trkpt lat="44.67407" lon="3.16465">
        <ele>1236.39</ele>
        <time>2016-02-24T10:38:16Z</time>
      </trkpt>
      <trkpt lat="44.67404" lon="3.16458">
        <ele>1237.35</ele>
        <time>2016-02-24T10:38:21Z</time>
      </trkpt>
      <trkpt lat="44.67399" lon="3.16446">
        <ele>1238.8</ele>
        <time>2016-02-24T10:38:28Z</time>
      </trkpt>
      <trkpt lat="44.67393" lon="3.16425">
        <ele>1241.2</ele>
        <time>2016-02-24T10:38:40Z</time>
      </trkpt>
      <trkpt lat="44.67386" lon="3.16408">
        <ele>1243.12</ele>
        <time>2016-02-24T10:38:51Z</time>
      </trkpt>
      <trkpt lat="44.67374" lon="3.16389">
        <ele>1245.53</ele>
        <time>2016-02-24T10:39:06Z</time>
      </trkpt>
      <trkpt lat="44.6737" lon="3.16385">
        <ele>1246.49</ele>
        <time>2016-02-24T10:39:10Z</time>
      </trkpt>
      <trkpt lat="44.67362" lon="3.16372">
        <ele>1247.93</ele>
        <time>2016-02-24T10:39:20Z</time>
      </trkpt>
      <trkpt lat="44.6735" lon="3.1637">
        <ele>1250.33</ele>
        <time>2016-02-24T10:39:31Z</time>
      </trkpt>
      <trkpt lat="44.67333" lon="3.16375">
        <ele>1252.25</ele>
        <time>2016-02-24T10:39:44Z</time>
      </trkpt>
      <trkpt lat="44.67322" lon="3.1638">
        <ele>1252.74</ele>
        <time>2016-02-24T10:39:51Z</time>
      </trkpt>
      <trkpt lat="44.67281" lon="3.16396">
        <ele>1253.7</ele>
        <time>2016-02-24T10:40:10Z</time>
      </trkpt>
      <trkpt lat="44.67257" lon="3.16403">
        <ele>1255.14</ele>
        <time>2016-02-24T10:40:23Z</time>
      </trkpt>
      <trkpt lat="44.67225" lon="3.1642">
        <ele>1256.1</ele>
        <time>2016-02-24T10:40:38Z</time>
      </trkpt>
      <trkpt lat="44.67196" lon="3.16428">
        <ele>1255.14</ele>
        <time>2016-02-24T10:40:53Z</time>
      </trkpt>
      <trkpt lat="44.67195" lon="3.16427">
        <ele>1255.14</ele>
        <time>2016-02-24T10:41:07Z</time>
      </trkpt>
      <trkpt lat="44.67198" lon="3.16425">
        <ele>1255.62</ele>
        <time>2016-02-24T10:41:23Z</time>
      </trkpt>
      <trkpt lat="44.67199" lon="3.16427">
        <ele>1255.14</ele>
        <time>2016-02-24T10:41:27Z</time>
      </trkpt>
      <trkpt lat="44.67204" lon="3.16431">
        <ele>1255.14</ele>
        <time>2016-02-24T10:41:32Z</time>
      </trkpt>
      <trkpt lat="44.67185" lon="3.16442">
        <ele>1255.62</ele>
        <time>2016-02-24T10:41:45Z</time>
      </trkpt>
      <trkpt lat="44.67161" lon="3.16431">
        <ele>1254.66</ele>
        <time>2016-02-24T10:41:57Z</time>
      </trkpt>
      <trkpt lat="44.67139" lon="3.16405">
        <ele>1254.18</ele>
        <time>2016-02-24T10:42:10Z</time>
      </trkpt>
      <trkpt lat="44.67116" lon="3.16376">
        <ele>1252.74</ele>
        <time>2016-02-24T10:42:22Z</time>
      </trkpt>
      <trkpt lat="44.67088" lon="3.16341">
        <ele>1251.77</ele>
        <time>2016-02-24T10:42:34Z</time>
      </trkpt>
      <trkpt lat="44.67074" lon="3.16323">
        <ele>1251.29</ele>
        <time>2016-02-24T10:42:38Z</time>
      </trkpt>
      <trkpt lat="44.67056" lon="3.16301">
        <ele>1250.81</ele>
        <time>2016-02-24T10:42:43Z</time>
      </trkpt>
      <trkpt lat="44.67037" lon="3.16278">
        <ele>1250.81</ele>
        <time>2016-02-24T10:42:49Z</time>
      </trkpt>
      <trkpt lat="44.67034" lon="3.16274">
        <ele>1251.29</ele>
        <time>2016-02-24T10:42:50Z</time>
      </trkpt>
      <trkpt lat="44.66996" lon="3.16227">
        <ele>1250.81</ele>
        <time>2016-02-24T10:43:05Z</time>
      </trkpt>
      <trkpt lat="44.66963" lon="3.16188">
        <ele>1252.74</ele>
        <time>2016-02-24T10:43:20Z</time>
      </trkpt>
      <trkpt lat="44.66934" lon="3.16154">
        <ele>1252.74</ele>
        <time>2016-02-24T10:43:33Z</time>
      </trkpt>
      <trkpt lat="44.66902" lon="3.16115">
        <ele>1253.22</ele>
        <time>2016-02-24T10:43:47Z</time>
      </trkpt>
      <trkpt lat="44.66872" lon="3.16078">
        <ele>1254.66</ele>
        <time>2016-02-24T10:44:01Z</time>
      </trkpt>
      <trkpt lat="44.66846" lon="3.16037">
        <ele>1255.14</ele>
        <time>2016-02-24T10:44:15Z</time>
      </trkpt>
      <trkpt lat="44.66821" lon="3.16001">
        <ele>1256.58</ele>
        <time>2016-02-24T10:44:30Z</time>
      </trkpt>
      <trkpt lat="44.66819" lon="3.15997">
        <ele>1256.58</ele>
        <time>2016-02-24T10:44:32Z</time>
      </trkpt>
      <trkpt lat="44.66817" lon="3.15996">
        <ele>1257.06</ele>
        <time>2016-02-24T10:44:33Z</time>
      </trkpt>
      <trkpt lat="44.66816" lon="3.15996">
        <ele>1257.54</ele>
        <time>2016-02-24T10:44:34Z</time>
      </trkpt>
      <trkpt lat="44.66786" lon="3.15988">
        <ele>1257.54</ele>
        <time>2016-02-24T10:44:46Z</time>
      </trkpt>
      <trkpt lat="44.66765" lon="3.15983">
        <ele>1258.5</ele>
        <time>2016-02-24T10:44:57Z</time>
      </trkpt>
      <trkpt lat="44.66765" lon="3.15983">
        <ele>1258.5</ele>
        <time>2016-02-24T10:45:25Z</time>
      </trkpt>
      <trkpt lat="44.66764" lon="3.15983">
        <ele>1258.5</ele>
        <time>2016-02-24T10:45:39Z</time>
      </trkpt>
      <trkpt lat="44.66762" lon="3.15984">
        <ele>1258.5</ele>
        <time>2016-02-24T10:45:40Z</time>
      </trkpt>
      <trkpt lat="44.66756" lon="3.15983">
        <ele>1258.98</ele>
        <time>2016-02-24T10:45:43Z</time>
      </trkpt>
      <trkpt lat="44.66754" lon="3.15983">
        <ele>1258.98</ele>
        <time>2016-02-24T10:45:44Z</time>
      </trkpt>
      <trkpt lat="44.66752" lon="3.15983">
        <ele>1258.98</ele>
        <time>2016-02-24T10:45:45Z</time>
      </trkpt>
      <trkpt lat="44.6675" lon="3.15982">
        <ele>1259.46</ele>
        <time>2016-02-24T10:45:46Z</time>
      </trkpt>
      <trkpt lat="44.66748" lon="3.15982">
        <ele>1259.46</ele>
        <time>2016-02-24T10:45:47Z</time>
      </trkpt>
      <trkpt lat="44.66747" lon="3.15982">
        <ele>1258.98</ele>
        <time>2016-02-24T10:46:00Z</time>
      </trkpt>
      <trkpt lat="44.66737" lon="3.15978">
        <ele>1259.94</ele>
        <time>2016-02-24T10:46:07Z</time>
      </trkpt>
      <trkpt lat="44.66735" lon="3.15977">
        <ele>1256.1</ele>
        <time>2016-02-24T10:46:11Z</time>
      </trkpt>
      <trkpt lat="44.66735" lon="3.15977">
        <ele>1259.94</ele>
        <time>2016-02-24T10:46:12Z</time>
      </trkpt>
      <trkpt lat="44.66737" lon="3.15976">
        <ele>1259.46</ele>
        <time>2016-02-24T10:46:34Z</time>
      </trkpt>
      <trkpt lat="44.66731" lon="3.15976">
        <ele>1259.46</ele>
        <time>2016-02-24T10:46:44Z</time>
      </trkpt>
      <trkpt lat="44.66728" lon="3.15976">
        <ele>1258.98</ele>
        <time>2016-02-24T10:46:45Z</time>
      </trkpt>
      <trkpt lat="44.66724" lon="3.15976">
        <ele>1259.46</ele>
        <time>2016-02-24T10:46:46Z</time>
      </trkpt>
      <trkpt lat="44.66721" lon="3.15975">
        <ele>1259.46</ele>
        <time>2016-02-24T10:46:47Z</time>
      </trkpt>
      <trkpt lat="44.66717" lon="3.15975">
        <ele>1258.98</ele>
        <time>2016-02-24T10:46:48Z</time>
      </trkpt>
      <trkpt lat="44.66714" lon="3.15974">
        <ele>1258.5</ele>
        <time>2016-02-24T10:46:49Z</time>
      </trkpt>
      <trkpt lat="44.6671" lon="3.15973">
        <ele>1258.5</ele>
        <time>2016-02-24T10:46:50Z</time>
      </trkpt>
      <trkpt lat="44.66707" lon="3.15972">
        <ele>1258.5</ele>
        <time>2016-02-24T10:46:51Z</time>
      </trkpt>
      <trkpt lat="44.66672" lon="3.15966">
        <ele>1259.46</ele>
        <time>2016-02-24T10:47:02Z</time>
      </trkpt>
      <trkpt lat="44.66649" lon="3.15961">
        <ele>1258.98</ele>
        <time>2016-02-24T10:47:08Z</time>
      </trkpt>
      <trkpt lat="44.66597" lon="3.15955">
        <ele>1259.94</ele>
        <time>2016-02-24T10:47:23Z</time>
      </trkpt>
      <trkpt lat="44.66554" lon="3.15948">
        <ele>1260.91</ele>
        <time>2016-02-24T10:47:37Z</time>
      </trkpt>
      <trkpt lat="44.66518" lon="3.15949">
        <ele>1261.87</ele>
        <time>2016-02-24T10:47:49Z</time>
      </trkpt>
      <trkpt lat="44.66468" lon="3.15936">
        <ele>1259.46</ele>
        <time>2016-02-24T10:48:02Z</time>
      </trkpt>
      <trkpt lat="44.66445" lon="3.1593">
        <ele>1259.94</ele>
        <time>2016-02-24T10:48:08Z</time>
      </trkpt>
      <trkpt lat="44.66441" lon="3.15929">
        <ele>1259.46</ele>
        <time>2016-02-24T10:48:09Z</time>
      </trkpt>
      <trkpt lat="44.66406" lon="3.15909">
        <ele>1258.98</ele>
        <time>2016-02-24T10:48:16Z</time>
      </trkpt>
      <trkpt lat="44.66401" lon="3.15904">
        <ele>1258.02</ele>
        <time>2016-02-24T10:48:17Z</time>
      </trkpt>
      <trkpt lat="44.66396" lon="3.15898">
        <ele>1257.06</ele>
        <time>2016-02-24T10:48:18Z</time>
      </trkpt>
      <trkpt lat="44.66392" lon="3.15892">
        <ele>1256.58</ele>
        <time>2016-02-24T10:48:19Z</time>
      </trkpt>
      <trkpt lat="44.66388" lon="3.15885">
        <ele>1256.1</ele>
        <time>2016-02-24T10:48:20Z</time>
      </trkpt>
      <trkpt lat="44.66383" lon="3.15879">
        <ele>1255.62</ele>
        <time>2016-02-24T10:48:21Z</time>
      </trkpt>
      <trkpt lat="44.66379" lon="3.15874">
        <ele>1255.14</ele>
        <time>2016-02-24T10:48:22Z</time>
      </trkpt>
      <trkpt lat="44.66375" lon="3.15871">
        <ele>1256.58</ele>
        <time>2016-02-24T10:48:23Z</time>
      </trkpt>
      <trkpt lat="44.6637" lon="3.15869">
        <ele>1257.06</ele>
        <time>2016-02-24T10:48:24Z</time>
      </trkpt>
      <trkpt lat="44.66366" lon="3.15868">
        <ele>1257.06</ele>
        <time>2016-02-24T10:48:25Z</time>
      </trkpt>
      <trkpt lat="44.66353" lon="3.15865">
        <ele>1257.06</ele>
        <time>2016-02-24T10:48:28Z</time>
      </trkpt>
      <trkpt lat="44.66303" lon="3.15851">
        <ele>1253.7</ele>
        <time>2016-02-24T10:48:38Z</time>
      </trkpt>
      <trkpt lat="44.66251" lon="3.15832">
        <ele>1251.77</ele>
        <time>2016-02-24T10:48:50Z</time>
      </trkpt>
      <trkpt lat="44.66252" lon="3.15831">
        <ele>1251.77</ele>
        <time>2016-02-24T10:49:00Z</time>
      </trkpt>
      <trkpt lat="44.6625" lon="3.15831">
        <ele>1252.25</ele>
        <time>2016-02-24T10:49:09Z</time>
      </trkpt>
      <trkpt lat="44.66249" lon="3.15832">
        <ele>1251.77</ele>
        <time>2016-02-24T10:49:10Z</time>
      </trkpt>
      <trkpt lat="44.66251" lon="3.15833">
        <ele>1251.77</ele>
        <time>2016-02-24T10:49:12Z</time>
      </trkpt>
      <trkpt lat="44.66252" lon="3.15834">
        <ele>1251.77</ele>
        <time>2016-02-24T10:49:13Z</time>
      </trkpt>
      <trkpt lat="44.66255" lon="3.15833">
        <ele>1252.25</ele>
        <time>2016-02-24T10:49:19Z</time>
      </trkpt>
      <trkpt lat="44.66255" lon="3.15833">
        <ele>1252.74</ele>
        <time>2016-02-24T10:49:20Z</time>
      </trkpt>
      <trkpt lat="44.66251" lon="3.15831">
        <ele>1251.77</ele>
        <time>2016-02-24T10:49:25Z</time>
      </trkpt>
      <trkpt lat="44.66249" lon="3.15832">
        <ele>1251.77</ele>
        <time>2016-02-24T10:49:39Z</time>
      </trkpt>
      <trkpt lat="44.66249" lon="3.15832">
        <ele>1251.77</ele>
        <time>2016-02-24T10:49:58Z</time>
      </trkpt>
      <trkpt lat="44.66236" lon="3.15824">
        <ele>1249.85</ele>
        <time>2016-02-24T10:50:03Z</time>
      </trkpt>
      <trkpt lat="44.66217" lon="3.15814">
        <ele>1247.45</ele>
        <time>2016-02-24T10:50:07Z</time>
      </trkpt>
      <trkpt lat="44.66189" lon="3.1579">
        <ele>1244.08</ele>
        <time>2016-02-24T10:50:12Z</time>
      </trkpt>
      <trkpt lat="44.66169" lon="3.15773">
        <ele>1240.24</ele>
        <time>2016-02-24T10:50:15Z</time>
      </trkpt>
      <trkpt lat="44.66142" lon="3.15747">
        <ele>1237.83</ele>
        <time>2016-02-24T10:50:19Z</time>
      </trkpt>
      <trkpt lat="44.66126" lon="3.15727">
        <ele>1236.87</ele>
        <time>2016-02-24T10:50:22Z</time>
      </trkpt>
      <trkpt lat="44.66122" lon="3.15719">
        <ele>1237.83</ele>
        <time>2016-02-24T10:50:23Z</time>
      </trkpt>
      <trkpt lat="44.6612" lon="3.15711">
        <ele>1237.83</ele>
        <time>2016-02-24T10:50:24Z</time>
      </trkpt>
      <trkpt lat="44.66118" lon="3.15703">
        <ele>1237.83</ele>
        <time>2016-02-24T10:50:25Z</time>
      </trkpt>
      <trkpt lat="44.66117" lon="3.15696">
        <ele>1238.32</ele>
        <time>2016-02-24T10:50:26Z</time>
      </trkpt>
      <trkpt lat="44.66115" lon="3.15689">
        <ele>1238.8</ele>
        <time>2016-02-24T10:50:27Z</time>
      </trkpt>
      <trkpt lat="44.66114" lon="3.15682">
        <ele>1238.32</ele>
        <time>2016-02-24T10:50:28Z</time>
      </trkpt>
      <trkpt lat="44.66112" lon="3.15674">
        <ele>1238.32</ele>
        <time>2016-02-24T10:50:29Z</time>
      </trkpt>
      <trkpt lat="44.66109" lon="3.15668">
        <ele>1238.32</ele>
        <time>2016-02-24T10:50:30Z</time>
      </trkpt>
      <trkpt lat="44.66106" lon="3.15661">
        <ele>1238.32</ele>
        <time>2016-02-24T10:50:31Z</time>
      </trkpt>
      <trkpt lat="44.66102" lon="3.15655">
        <ele>1238.32</ele>
        <time>2016-02-24T10:50:32Z</time>
      </trkpt>
      <trkpt lat="44.66097" lon="3.15652">
        <ele>1238.32</ele>
        <time>2016-02-24T10:50:33Z</time>
      </trkpt>
      <trkpt lat="44.66092" lon="3.1565">
        <ele>1239.28</ele>
        <time>2016-02-24T10:50:34Z</time>
      </trkpt>
      <trkpt lat="44.66087" lon="3.15649">
        <ele>1239.76</ele>
        <time>2016-02-24T10:50:35Z</time>
      </trkpt>
      <trkpt lat="44.66082" lon="3.15647">
        <ele>1240.24</ele>
        <time>2016-02-24T10:50:36Z</time>
      </trkpt>
      <trkpt lat="44.66078" lon="3.15645">
        <ele>1239.76</ele>
        <time>2016-02-24T10:50:37Z</time>
      </trkpt>
      <trkpt lat="44.66073" lon="3.15644">
        <ele>1239.76</ele>
        <time>2016-02-24T10:50:38Z</time>
      </trkpt>
      <trkpt lat="44.6606" lon="3.1564">
        <ele>1240.72</ele>
        <time>2016-02-24T10:50:41Z</time>
      </trkpt>
      <trkpt lat="44.66056" lon="3.15638">
        <ele>1240.24</ele>
        <time>2016-02-24T10:50:42Z</time>
      </trkpt>
      <trkpt lat="44.66029" lon="3.15618">
        <ele>1242.16</ele>
        <time>2016-02-24T10:50:52Z</time>
      </trkpt>
      <trkpt lat="44.65998" lon="3.15595">
        <ele>1241.68</ele>
        <time>2016-02-24T10:51:03Z</time>
      </trkpt>
      <trkpt lat="44.65968" lon="3.15575">
        <ele>1242.64</ele>
        <time>2016-02-24T10:51:14Z</time>
      </trkpt>
      <trkpt lat="44.65922" lon="3.15543">
        <ele>1241.68</ele>
        <time>2016-02-24T10:51:28Z</time>
      </trkpt>
      <trkpt lat="44.65903" lon="3.15531">
        <ele>1244.08</ele>
        <time>2016-02-24T10:51:39Z</time>
      </trkpt>
      <trkpt lat="44.65903" lon="3.15531">
        <ele>1244.08</ele>
        <time>2016-02-24T10:52:05Z</time>
      </trkpt>
      <trkpt lat="44.65886" lon="3.15521">
        <ele>1243.6</ele>
        <time>2016-02-24T10:52:19Z</time>
      </trkpt>
      <trkpt lat="44.65878" lon="3.15517">
        <ele>1243.12</ele>
        <time>2016-02-24T10:52:21Z</time>
      </trkpt>
      <trkpt lat="44.6583" lon="3.155">
        <ele>1244.56</ele>
        <time>2016-02-24T10:52:34Z</time>
      </trkpt>
      <trkpt lat="44.6577" lon="3.15477">
        <ele>1245.04</ele>
        <time>2016-02-24T10:52:51Z</time>
      </trkpt>
      <trkpt lat="44.65732" lon="3.15464">
        <ele>1244.56</ele>
        <time>2016-02-24T10:53:01Z</time>
      </trkpt>
      <trkpt lat="44.65728" lon="3.15464">
        <ele>1244.56</ele>
        <time>2016-02-24T10:53:02Z</time>
      </trkpt>
      <trkpt lat="44.65684" lon="3.1545">
        <ele>1244.08</ele>
        <time>2016-02-24T10:53:15Z</time>
      </trkpt>
      <trkpt lat="44.6565" lon="3.15441">
        <ele>1248.41</ele>
        <time>2016-02-24T10:53:27Z</time>
      </trkpt>
      <trkpt lat="44.65612" lon="3.1543">
        <ele>1249.37</ele>
        <time>2016-02-24T10:53:39Z</time>
      </trkpt>
      <trkpt lat="44.65584" lon="3.15416">
        <ele>1248.89</ele>
        <time>2016-02-24T10:53:52Z</time>
      </trkpt>
      <trkpt lat="44.65575" lon="3.15408">
        <ele>1249.37</ele>
        <time>2016-02-24T10:53:58Z</time>
      </trkpt>
      <trkpt lat="44.65573" lon="3.15407">
        <ele>1249.37</ele>
        <time>2016-02-24T10:53:59Z</time>
      </trkpt>
      <trkpt lat="44.65572" lon="3.15404">
        <ele>1249.37</ele>
        <time>2016-02-24T10:54:00Z</time>
      </trkpt>
      <trkpt lat="44.6557" lon="3.15402">
        <ele>1249.37</ele>
        <time>2016-02-24T10:54:01Z</time>
      </trkpt>
      <trkpt lat="44.65568" lon="3.154">
        <ele>1249.85</ele>
        <time>2016-02-24T10:54:02Z</time>
      </trkpt>
      <trkpt lat="44.65566" lon="3.15398">
        <ele>1249.85</ele>
        <time>2016-02-24T10:54:03Z</time>
      </trkpt>
      <trkpt lat="44.65564" lon="3.15396">
        <ele>1249.85</ele>
        <time>2016-02-24T10:54:04Z</time>
      </trkpt>
      <trkpt lat="44.65562" lon="3.15394">
        <ele>1249.85</ele>
        <time>2016-02-24T10:54:05Z</time>
      </trkpt>
      <trkpt lat="44.65535" lon="3.15371">
        <ele>1249.37</ele>
        <time>2016-02-24T10:54:16Z</time>
      </trkpt>
      <trkpt lat="44.65495" lon="3.15336">
        <ele>1248.89</ele>
        <time>2016-02-24T10:54:30Z</time>
      </trkpt>
      <trkpt lat="44.65454" lon="3.15304">
        <ele>1247.45</ele>
        <time>2016-02-24T10:54:42Z</time>
      </trkpt>
      <trkpt lat="44.65415" lon="3.15273">
        <ele>1244.56</ele>
        <time>2016-02-24T10:54:51Z</time>
      </trkpt>
      <trkpt lat="44.65382" lon="3.15249">
        <ele>1244.56</ele>
        <time>2016-02-24T10:54:59Z</time>
      </trkpt>
      <trkpt lat="44.65378" lon="3.15247">
        <ele>1244.56</ele>
        <time>2016-02-24T10:55:00Z</time>
      </trkpt>
      <trkpt lat="44.65373" lon="3.15244">
        <ele>1244.08</ele>
        <time>2016-02-24T10:55:01Z</time>
      </trkpt>
      <trkpt lat="44.65303" lon="3.15225">
        <ele>1243.12</ele>
        <time>2016-02-24T10:55:16Z</time>
      </trkpt>
      <trkpt lat="44.65254" lon="3.1522">
        <ele>1239.76</ele>
        <time>2016-02-24T10:55:24Z</time>
      </trkpt>
      <trkpt lat="44.65229" lon="3.15223">
        <ele>1239.28</ele>
        <time>2016-02-24T10:55:28Z</time>
      </trkpt>
      <trkpt lat="44.65204" lon="3.15222">
        <ele>1238.32</ele>
        <time>2016-02-24T10:55:32Z</time>
      </trkpt>
      <trkpt lat="44.65198" lon="3.15221">
        <ele>1237.35</ele>
        <time>2016-02-24T10:55:33Z</time>
      </trkpt>
      <trkpt lat="44.65184" lon="3.15216">
        <ele>1236.39</ele>
        <time>2016-02-24T10:55:35Z</time>
      </trkpt>
      <trkpt lat="44.65107" lon="3.15187">
        <ele>1233.03</ele>
        <time>2016-02-24T10:55:48Z</time>
      </trkpt>
      <trkpt lat="44.65077" lon="3.15177">
        <ele>1230.14</ele>
        <time>2016-02-24T10:55:52Z</time>
      </trkpt>
      <trkpt lat="44.65062" lon="3.15171">
        <ele>1233.99</ele>
        <time>2016-02-24T10:55:55Z</time>
      </trkpt>
      <trkpt lat="44.65058" lon="3.1517">
        <ele>1233.99</ele>
        <time>2016-02-24T10:55:56Z</time>
      </trkpt>
      <trkpt lat="44.65044" lon="3.15163">
        <ele>1234.95</ele>
        <time>2016-02-24T10:56:00Z</time>
      </trkpt>
      <trkpt lat="44.6499" lon="3.15126">
        <ele>1231.59</ele>
        <time>2016-02-24T10:56:13Z</time>
      </trkpt>
      <trkpt lat="44.64975" lon="3.15119">
        <ele>1230.62</ele>
        <time>2016-02-24T10:56:16Z</time>
      </trkpt>
      <trkpt lat="44.64969" lon="3.15119">
        <ele>1231.59</ele>
        <time>2016-02-24T10:56:17Z</time>
      </trkpt>
      <trkpt lat="44.64964" lon="3.15119">
        <ele>1232.07</ele>
        <time>2016-02-24T10:56:18Z</time>
      </trkpt>
      <trkpt lat="44.64959" lon="3.15121">
        <ele>1232.55</ele>
        <time>2016-02-24T10:56:19Z</time>
      </trkpt>
      <trkpt lat="44.64955" lon="3.15123">
        <ele>1233.03</ele>
        <time>2016-02-24T10:56:20Z</time>
      </trkpt>
      <trkpt lat="44.64946" lon="3.15126">
        <ele>1232.55</ele>
        <time>2016-02-24T10:56:22Z</time>
      </trkpt>
      <trkpt lat="44.64914" lon="3.15129">
        <ele>1235.91</ele>
        <time>2016-02-24T10:56:32Z</time>
      </trkpt>
      <trkpt lat="44.64875" lon="3.15127">
        <ele>1239.28</ele>
        <time>2016-02-24T10:56:48Z</time>
      </trkpt>
      <trkpt lat="44.64832" lon="3.15115">
        <ele>1238.32</ele>
        <time>2016-02-24T10:57:03Z</time>
      </trkpt>
      <trkpt lat="44.64784" lon="3.15091">
        <ele>1238.8</ele>
        <time>2016-02-24T10:57:19Z</time>
      </trkpt>
      <trkpt lat="44.64772" lon="3.15086">
        <ele>1239.28</ele>
        <time>2016-02-24T10:57:30Z</time>
      </trkpt>
      <trkpt lat="44.64772" lon="3.15086">
        <ele>1239.28</ele>
        <time>2016-02-24T10:57:50Z</time>
      </trkpt>
      <trkpt lat="44.64772" lon="3.15087">
        <ele>1239.28</ele>
        <time>2016-02-24T10:58:19Z</time>
      </trkpt>
      <trkpt lat="44.64772" lon="3.15087">
        <ele>1239.28</ele>
        <time>2016-02-24T10:58:28Z</time>
      </trkpt>
      <trkpt lat="44.64771" lon="3.15087">
        <ele>1239.28</ele>
        <time>2016-02-24T10:58:29Z</time>
      </trkpt>
      <trkpt lat="44.64769" lon="3.15086">
        <ele>1238.8</ele>
        <time>2016-02-24T10:58:30Z</time>
      </trkpt>
      <trkpt lat="44.6476" lon="3.15082">
        <ele>1238.8</ele>
        <time>2016-02-24T10:58:35Z</time>
      </trkpt>
      <trkpt lat="44.64731" lon="3.15074">
        <ele>1238.32</ele>
        <time>2016-02-24T10:58:47Z</time>
      </trkpt>
      <trkpt lat="44.64689" lon="3.15067">
        <ele>1239.76</ele>
        <time>2016-02-24T10:59:02Z</time>
      </trkpt>
      <trkpt lat="44.64654" lon="3.15068">
        <ele>1241.2</ele>
        <time>2016-02-24T10:59:15Z</time>
      </trkpt>
      <trkpt lat="44.64616" lon="3.15082">
        <ele>1242.64</ele>
        <time>2016-02-24T10:59:32Z</time>
      </trkpt>
      <trkpt lat="44.646" lon="3.15088">
        <ele>1244.08</ele>
        <time>2016-02-24T10:59:40Z</time>
      </trkpt>
      <trkpt lat="44.64598" lon="3.15089">
        <ele>1244.08</ele>
        <time>2016-02-24T10:59:41Z</time>
      </trkpt>
      <trkpt lat="44.64597" lon="3.15089">
        <ele>1244.08</ele>
        <time>2016-02-24T10:59:42Z</time>
      </trkpt>
      <trkpt lat="44.64595" lon="3.1509">
        <ele>1244.08</ele>
        <time>2016-02-24T10:59:43Z</time>
      </trkpt>
      <trkpt lat="44.64593" lon="3.15091">
        <ele>1244.08</ele>
        <time>2016-02-24T10:59:44Z</time>
      </trkpt>
      <trkpt lat="44.64591" lon="3.15092">
        <ele>1244.08</ele>
        <time>2016-02-24T10:59:45Z</time>
      </trkpt>
      <trkpt lat="44.64589" lon="3.15092">
        <ele>1244.08</ele>
        <time>2016-02-24T10:59:46Z</time>
      </trkpt>
      <trkpt lat="44.64561" lon="3.15104">
        <ele>1246.49</ele>
        <time>2016-02-24T11:00:00Z</time>
      </trkpt>
      <trkpt lat="44.64533" lon="3.15112">
        <ele>1249.37</ele>
        <time>2016-02-24T11:00:13Z</time>
      </trkpt>
      <trkpt lat="44.64506" lon="3.15121">
        <ele>1251.29</ele>
        <time>2016-02-24T11:00:26Z</time>
      </trkpt>
      <trkpt lat="44.64493" lon="3.15127">
        <ele>1252.74</ele>
        <time>2016-02-24T11:00:33Z</time>
      </trkpt>
      <trkpt lat="44.64492" lon="3.15128">
        <ele>1253.22</ele>
        <time>2016-02-24T11:00:34Z</time>
      </trkpt>
      <trkpt lat="44.64464" lon="3.15143">
        <ele>1253.7</ele>
        <time>2016-02-24T11:00:48Z</time>
      </trkpt>
      <trkpt lat="44.64426" lon="3.15163">
        <ele>1253.7</ele>
        <time>2016-02-24T11:01:06Z</time>
      </trkpt>
      <trkpt lat="44.64425" lon="3.15164">
        <ele>1254.18</ele>
        <time>2016-02-24T11:01:20Z</time>
      </trkpt>
      <trkpt lat="44.64425" lon="3.15164">
        <ele>1254.66</ele>
        <time>2016-02-24T11:01:45Z</time>
      </trkpt>
      <trkpt lat="44.64418" lon="3.15168">
        <ele>1254.18</ele>
        <time>2016-02-24T11:02:02Z</time>
      </trkpt>
      <trkpt lat="44.64382" lon="3.15187">
        <ele>1255.62</ele>
        <time>2016-02-24T11:02:17Z</time>
      </trkpt>
      <trkpt lat="44.64341" lon="3.1521">
        <ele>1257.06</ele>
        <time>2016-02-24T11:02:34Z</time>
      </trkpt>
      <trkpt lat="44.64307" lon="3.1523">
        <ele>1260.43</ele>
        <time>2016-02-24T11:02:49Z</time>
      </trkpt>
      <trkpt lat="44.64283" lon="3.15243">
        <ele>1261.87</ele>
        <time>2016-02-24T11:03:04Z</time>
      </trkpt>
      <trkpt lat="44.64282" lon="3.15244">
        <ele>1262.35</ele>
        <time>2016-02-24T11:03:05Z</time>
      </trkpt>
      <trkpt lat="44.64281" lon="3.15245">
        <ele>1262.35</ele>
        <time>2016-02-24T11:03:06Z</time>
      </trkpt>
      <trkpt lat="44.6428" lon="3.15246">
        <ele>1261.87</ele>
        <time>2016-02-24T11:03:07Z</time>
      </trkpt>
      <trkpt lat="44.64278" lon="3.15248">
        <ele>1261.87</ele>
        <time>2016-02-24T11:03:22Z</time>
      </trkpt>
      <trkpt lat="44.64277" lon="3.15248">
        <ele>1262.35</ele>
        <time>2016-02-24T11:03:36Z</time>
      </trkpt>
      <trkpt lat="44.64275" lon="3.15248">
        <ele>1261.87</ele>
        <time>2016-02-24T11:03:37Z</time>
      </trkpt>
      <trkpt lat="44.64273" lon="3.15249">
        <ele>1261.87</ele>
        <time>2016-02-24T11:03:38Z</time>
      </trkpt>
      <trkpt lat="44.6427" lon="3.1525">
        <ele>1261.87</ele>
        <time>2016-02-24T11:03:39Z</time>
      </trkpt>
      <trkpt lat="44.64268" lon="3.15251">
        <ele>1261.87</ele>
        <time>2016-02-24T11:03:40Z</time>
      </trkpt>
      <trkpt lat="44.64265" lon="3.15251">
        <ele>1261.87</ele>
        <time>2016-02-24T11:03:41Z</time>
      </trkpt>
      <trkpt lat="44.64262" lon="3.15252">
        <ele>1261.39</ele>
        <time>2016-02-24T11:03:42Z</time>
      </trkpt>
      <trkpt lat="44.64213" lon="3.15261">
        <ele>1260.43</ele>
        <time>2016-02-24T11:03:55Z</time>
      </trkpt>
      <trkpt lat="44.64173" lon="3.15277">
        <ele>1261.39</ele>
        <time>2016-02-24T11:04:09Z</time>
      </trkpt>
      <trkpt lat="44.64131" lon="3.15299">
        <ele>1262.83</ele>
        <time>2016-02-24T11:04:23Z</time>
      </trkpt>
      <trkpt lat="44.64077" lon="3.15326">
        <ele>1262.35</ele>
        <time>2016-02-24T11:04:39Z</time>
      </trkpt>
      <trkpt lat="44.64054" lon="3.15355">
        <ele>1263.79</ele>
        <time>2016-02-24T11:04:47Z</time>
      </trkpt>
      <trkpt lat="44.64051" lon="3.15359">
        <ele>1263.31</ele>
        <time>2016-02-24T11:04:48Z</time>
      </trkpt>
      <trkpt lat="44.64044" lon="3.15365">
        <ele>1263.31</ele>
        <time>2016-02-24T11:04:50Z</time>
      </trkpt>
      <trkpt lat="44.6404" lon="3.15367">
        <ele>1263.31</ele>
        <time>2016-02-24T11:04:51Z</time>
      </trkpt>
      <trkpt lat="44.64036" lon="3.15368">
        <ele>1263.31</ele>
        <time>2016-02-24T11:04:52Z</time>
      </trkpt>
      <trkpt lat="44.64032" lon="3.15368">
        <ele>1262.83</ele>
        <time>2016-02-24T11:04:53Z</time>
      </trkpt>
      <trkpt lat="44.64028" lon="3.15368">
        <ele>1262.35</ele>
        <time>2016-02-24T11:04:54Z</time>
      </trkpt>
      <trkpt lat="44.64018" lon="3.15368">
        <ele>1262.35</ele>
        <time>2016-02-24T11:05:03Z</time>
      </trkpt>
      <trkpt lat="44.64018" lon="3.15368">
        <ele>1261.87</ele>
        <time>2016-02-24T11:05:32Z</time>
      </trkpt>
      <trkpt lat="44.64018" lon="3.15368">
        <ele>1262.83</ele>
        <time>2016-02-24T11:06:04Z</time>
      </trkpt>
      <trkpt lat="44.64017" lon="3.15369">
        <ele>1262.83</ele>
        <time>2016-02-24T11:06:05Z</time>
      </trkpt>
      <trkpt lat="44.64017" lon="3.15371">
        <ele>1262.83</ele>
        <time>2016-02-24T11:06:06Z</time>
      </trkpt>
      <trkpt lat="44.64018" lon="3.15374">
        <ele>1261.87</ele>
        <time>2016-02-24T11:06:07Z</time>
      </trkpt>
      <trkpt lat="44.6402" lon="3.15376">
        <ele>1261.87</ele>
        <time>2016-02-24T11:06:08Z</time>
      </trkpt>
      <trkpt lat="44.64023" lon="3.15378">
        <ele>1261.87</ele>
        <time>2016-02-24T11:06:09Z</time>
      </trkpt>
      <trkpt lat="44.64025" lon="3.15379">
        <ele>1262.35</ele>
        <time>2016-02-24T11:06:10Z</time>
      </trkpt>
      <trkpt lat="44.64028" lon="3.15378">
        <ele>1262.83</ele>
        <time>2016-02-24T11:06:11Z</time>
      </trkpt>
      <trkpt lat="44.64031" lon="3.15379">
        <ele>1262.35</ele>
        <time>2016-02-24T11:06:12Z</time>
      </trkpt>
      <trkpt lat="44.64033" lon="3.1538">
        <ele>1262.83</ele>
        <time>2016-02-24T11:06:13Z</time>
      </trkpt>
      <trkpt lat="44.64035" lon="3.15382">
        <ele>1263.31</ele>
        <time>2016-02-24T11:06:14Z</time>
      </trkpt>
      <trkpt lat="44.64042" lon="3.15415">
        <ele>1261.87</ele>
        <time>2016-02-24T11:06:24Z</time>
      </trkpt>
      <trkpt lat="44.64042" lon="3.15418">
        <ele>1262.35</ele>
        <time>2016-02-24T11:06:34Z</time>
      </trkpt>
      <trkpt lat="44.64042" lon="3.15416">
        <ele>1260.91</ele>
        <time>2016-02-24T11:06:35Z</time>
      </trkpt>
      <trkpt lat="44.64042" lon="3.15413">
        <ele>1259.94</ele>
        <time>2016-02-24T11:06:36Z</time>
      </trkpt>
      <trkpt lat="44.64043" lon="3.1541">
        <ele>1260.43</ele>
        <time>2016-02-24T11:06:37Z</time>
      </trkpt>
      <trkpt lat="44.64044" lon="3.15406">
        <ele>1260.91</ele>
        <time>2016-02-24T11:06:38Z</time>
      </trkpt>
      <trkpt lat="44.64045" lon="3.15402">
        <ele>1260.91</ele>
        <time>2016-02-24T11:06:39Z</time>
      </trkpt>
      <trkpt lat="44.64045" lon="3.15394">
        <ele>1260.91</ele>
        <time>2016-02-24T11:06:41Z</time>
      </trkpt>
      <trkpt lat="44.64044" lon="3.15392">
        <ele>1261.39</ele>
        <time>2016-02-24T11:06:42Z</time>
      </trkpt>
      <trkpt lat="44.64042" lon="3.15391">
        <ele>1261.87</ele>
        <time>2016-02-24T11:06:43Z</time>
      </trkpt>
      <trkpt lat="44.6404" lon="3.15392">
        <ele>1262.83</ele>
        <time>2016-02-24T11:06:44Z</time>
      </trkpt>
      <trkpt lat="44.64039" lon="3.15393">
        <ele>1263.31</ele>
        <time>2016-02-24T11:06:45Z</time>
      </trkpt>
      <trkpt lat="44.64037" lon="3.15394">
        <ele>1262.83</ele>
        <time>2016-02-24T11:06:46Z</time>
      </trkpt>
      <trkpt lat="44.64036" lon="3.15396">
        <ele>1262.35</ele>
        <time>2016-02-24T11:06:47Z</time>
      </trkpt>
      <trkpt lat="44.64035" lon="3.15398">
        <ele>1261.87</ele>
        <time>2016-02-24T11:06:48Z</time>
      </trkpt>
      <trkpt lat="44.64035" lon="3.15401">
        <ele>1261.87</ele>
        <time>2016-02-24T11:06:49Z</time>
      </trkpt>
      <trkpt lat="44.64035" lon="3.15405">
        <ele>1262.35</ele>
        <time>2016-02-24T11:06:51Z</time>
      </trkpt>
      <trkpt lat="44.64042" lon="3.15415">
        <ele>1261.87</ele>
        <time>2016-02-24T11:06:55Z</time>
      </trkpt>
      <trkpt lat="44.64042" lon="3.1542">
        <ele>1261.39</ele>
        <time>2016-02-24T11:06:56Z</time>
      </trkpt>
      <trkpt lat="44.64042" lon="3.15424">
        <ele>1261.39</ele>
        <time>2016-02-24T11:06:57Z</time>
      </trkpt>
      <trkpt lat="44.6404" lon="3.15435">
        <ele>1259.94</ele>
        <time>2016-02-24T11:07:01Z</time>
      </trkpt>
      <trkpt lat="44.64039" lon="3.15434">
        <ele>1259.94</ele>
        <time>2016-02-24T11:07:02Z</time>
      </trkpt>
      <trkpt lat="44.64034" lon="3.15433">
        <ele>1259.46</ele>
        <time>2016-02-24T11:07:08Z</time>
      </trkpt>
      <trkpt lat="44.64036" lon="3.15436">
        <ele>1258.98</ele>
        <time>2016-02-24T11:07:11Z</time>
      </trkpt>
      <trkpt lat="44.64038" lon="3.15435">
        <ele>1258.98</ele>
        <time>2016-02-24T11:07:13Z</time>
      </trkpt>
      <trkpt lat="44.6404" lon="3.15434">
        <ele>1259.46</ele>
        <time>2016-02-24T11:07:14Z</time>
      </trkpt>
      <trkpt lat="44.64042" lon="3.15433">
        <ele>1259.94</ele>
        <time>2016-02-24T11:07:15Z</time>
      </trkpt>
      <trkpt lat="44.6405" lon="3.15432">
        <ele>1259.94</ele>
        <time>2016-02-24T11:07:19Z</time>
      </trkpt>
      <trkpt lat="44.64051" lon="3.15431">
        <ele>1259.46</ele>
        <time>2016-02-24T11:07:20Z</time>
      </trkpt>
      <trkpt lat="44.64052" lon="3.15432">
        <ele>1259.46</ele>
        <time>2016-02-24T11:07:21Z</time>
      </trkpt>
      <trkpt lat="44.64053" lon="3.15434">
        <ele>1259.46</ele>
        <time>2016-02-24T11:07:22Z</time>
      </trkpt>
      <trkpt lat="44.64051" lon="3.15435">
        <ele>1258.98</ele>
        <time>2016-02-24T11:07:23Z</time>
      </trkpt>
      <trkpt lat="44.6405" lon="3.15435">
        <ele>1258.98</ele>
        <time>2016-02-24T11:07:24Z</time>
      </trkpt>
      <trkpt lat="44.64049" lon="3.15434">
        <ele>1258.98</ele>
        <time>2016-02-24T11:07:25Z</time>
      </trkpt>
      <trkpt lat="44.64046" lon="3.15434">
        <ele>1258.98</ele>
        <time>2016-02-24T11:07:26Z</time>
      </trkpt>
      <trkpt lat="44.64043" lon="3.15434">
        <ele>1259.46</ele>
        <time>2016-02-24T11:07:27Z</time>
      </trkpt>
      <trkpt lat="44.6404" lon="3.15435">
        <ele>1259.46</ele>
        <time>2016-02-24T11:07:28Z</time>
      </trkpt>
      <trkpt lat="44.64035" lon="3.15435">
        <ele>1259.46</ele>
        <time>2016-02-24T11:07:29Z</time>
      </trkpt>
      <trkpt lat="44.6403" lon="3.15436">
        <ele>1258.98</ele>
        <time>2016-02-24T11:07:30Z</time>
      </trkpt>
      <trkpt lat="44.64024" lon="3.15437">
        <ele>1257.54</ele>
        <time>2016-02-24T11:07:31Z</time>
      </trkpt>
      <trkpt lat="44.64018" lon="3.15439">
        <ele>1256.1</ele>
        <time>2016-02-24T11:07:32Z</time>
      </trkpt>
      <trkpt lat="44.64014" lon="3.15442">
        <ele>1255.14</ele>
        <time>2016-02-24T11:07:33Z</time>
      </trkpt>
      <trkpt lat="44.64011" lon="3.15446">
        <ele>1254.66</ele>
        <time>2016-02-24T11:07:34Z</time>
      </trkpt>
      <trkpt lat="44.64009" lon="3.1545">
        <ele>1254.18</ele>
        <time>2016-02-24T11:07:35Z</time>
      </trkpt>
      <trkpt lat="44.64009" lon="3.15456">
        <ele>1253.22</ele>
        <time>2016-02-24T11:07:36Z</time>
      </trkpt>
      <trkpt lat="44.6401" lon="3.15463">
        <ele>1252.74</ele>
        <time>2016-02-24T11:07:37Z</time>
      </trkpt>
      <trkpt lat="44.64013" lon="3.1547">
        <ele>1252.25</ele>
        <time>2016-02-24T11:07:38Z</time>
      </trkpt>
      <trkpt lat="44.64023" lon="3.15491">
        <ele>1250.33</ele>
        <time>2016-02-24T11:07:41Z</time>
      </trkpt>
      <trkpt lat="44.64026" lon="3.15499">
        <ele>1249.85</ele>
        <time>2016-02-24T11:07:42Z</time>
      </trkpt>
      <trkpt lat="44.64028" lon="3.15507">
        <ele>1249.37</ele>
        <time>2016-02-24T11:07:43Z</time>
      </trkpt>
      <trkpt lat="44.6403" lon="3.15515">
        <ele>1249.37</ele>
        <time>2016-02-24T11:07:44Z</time>
      </trkpt>
      <trkpt lat="44.64033" lon="3.15519">
        <ele>1249.37</ele>
        <time>2016-02-24T11:07:45Z</time>
      </trkpt>
      <trkpt lat="44.64035" lon="3.15522">
        <ele>1249.85</ele>
        <time>2016-02-24T11:07:46Z</time>
      </trkpt>
      <trkpt lat="44.64036" lon="3.15523">
        <ele>1250.33</ele>
        <time>2016-02-24T11:07:59Z</time>
      </trkpt>
      <trkpt lat="44.64038" lon="3.15533">
        <ele>1249.37</ele>
        <time>2016-02-24T11:08:07Z</time>
      </trkpt>
      <trkpt lat="44.6404" lon="3.15577">
        <ele>1248.89</ele>
        <time>2016-02-24T11:08:15Z</time>
      </trkpt>
      <trkpt lat="44.6403" lon="3.15635">
        <ele>1249.37</ele>
        <time>2016-02-24T11:08:29Z</time>
      </trkpt>
      <trkpt lat="44.64028" lon="3.15648">
        <ele>1249.85</ele>
        <time>2016-02-24T11:08:33Z</time>
      </trkpt>
      <trkpt lat="44.64026" lon="3.15648">
        <ele>1249.85</ele>
        <time>2016-02-24T11:08:34Z</time>
      </trkpt>
      <trkpt lat="44.64025" lon="3.15646">
        <ele>1249.37</ele>
        <time>2016-02-24T11:08:35Z</time>
      </trkpt>
      <trkpt lat="44.64025" lon="3.15644">
        <ele>1249.37</ele>
        <time>2016-02-24T11:08:36Z</time>
      </trkpt>
      <trkpt lat="44.64026" lon="3.15644">
        <ele>1249.85</ele>
        <time>2016-02-24T11:08:38Z</time>
      </trkpt>
      <trkpt lat="44.64027" lon="3.15647">
        <ele>1249.85</ele>
        <time>2016-02-24T11:08:39Z</time>
      </trkpt>
      <trkpt lat="44.64028" lon="3.15649">
        <ele>1249.85</ele>
        <time>2016-02-24T11:08:50Z</time>
      </trkpt>
      <trkpt lat="44.64028" lon="3.15649">
        <ele>1249.85</ele>
        <time>2016-02-24T11:09:07Z</time>
      </trkpt>
      <trkpt lat="44.64028" lon="3.15652">
        <ele>1249.37</ele>
        <time>2016-02-24T11:09:08Z</time>
      </trkpt>
      <trkpt lat="44.64028" lon="3.15655">
        <ele>1249.85</ele>
        <time>2016-02-24T11:09:09Z</time>
      </trkpt>
      <trkpt lat="44.64028" lon="3.15659">
        <ele>1250.33</ele>
        <time>2016-02-24T11:09:10Z</time>
      </trkpt>
      <trkpt lat="44.64028" lon="3.15663">
        <ele>1250.33</ele>
        <time>2016-02-24T11:09:11Z</time>
      </trkpt>
      <trkpt lat="44.64029" lon="3.15666">
        <ele>1250.33</ele>
        <time>2016-02-24T11:09:12Z</time>
      </trkpt>
      <trkpt lat="44.64028" lon="3.15669">
        <ele>1250.33</ele>
        <time>2016-02-24T11:09:13Z</time>
      </trkpt>
      <trkpt lat="44.64029" lon="3.15677">
        <ele>1250.33</ele>
        <time>2016-02-24T11:09:18Z</time>
      </trkpt>
      <trkpt lat="44.64029" lon="3.15679">
        <ele>1250.33</ele>
        <time>2016-02-24T11:09:19Z</time>
      </trkpt>
      <trkpt lat="44.64029" lon="3.15681">
        <ele>1250.33</ele>
        <time>2016-02-24T11:09:20Z</time>
      </trkpt>
      <trkpt lat="44.64029" lon="3.15683">
        <ele>1250.33</ele>
        <time>2016-02-24T11:09:21Z</time>
      </trkpt>
      <trkpt lat="44.6403" lon="3.15686">
        <ele>1250.33</ele>
        <time>2016-02-24T11:09:22Z</time>
      </trkpt>
      <trkpt lat="44.6403" lon="3.15688">
        <ele>1250.81</ele>
        <time>2016-02-24T11:09:23Z</time>
      </trkpt>
      <trkpt lat="44.64031" lon="3.15691">
        <ele>1250.33</ele>
        <time>2016-02-24T11:09:24Z</time>
      </trkpt>
      <trkpt lat="44.64031" lon="3.15695">
        <ele>1250.81</ele>
        <time>2016-02-24T11:09:25Z</time>
      </trkpt>
      <trkpt lat="44.64033" lon="3.15739">
        <ele>1251.29</ele>
        <time>2016-02-24T11:09:38Z</time>
      </trkpt>
      <trkpt lat="44.64033" lon="3.15776">
        <ele>1251.77</ele>
        <time>2016-02-24T11:09:50Z</time>
      </trkpt>
      <trkpt lat="44.64028" lon="3.15804">
        <ele>1252.25</ele>
        <time>2016-02-24T11:10:05Z</time>
      </trkpt>
      <trkpt lat="44.6403" lon="3.15843">
        <ele>1253.22</ele>
        <time>2016-02-24T11:10:19Z</time>
      </trkpt>
      <trkpt lat="44.64033" lon="3.15892">
        <ele>1254.66</ele>
        <time>2016-02-24T11:10:34Z</time>
      </trkpt>
      <trkpt lat="44.64034" lon="3.15901">
        <ele>1254.18</ele>
        <time>2016-02-24T11:10:36Z</time>
      </trkpt>
      <trkpt lat="44.64037" lon="3.15911">
        <ele>1253.7</ele>
        <time>2016-02-24T11:10:38Z</time>
      </trkpt>
      <trkpt lat="44.64046" lon="3.15937">
        <ele>1251.77</ele>
        <time>2016-02-24T11:10:48Z</time>
      </trkpt>
      <trkpt lat="44.64046" lon="3.15937">
        <ele>1253.22</ele>
        <time>2016-02-24T11:11:06Z</time>
      </trkpt>
      <trkpt lat="44.64056" lon="3.15962">
        <ele>1252.25</ele>
        <time>2016-02-24T11:11:17Z</time>
      </trkpt>
      <trkpt lat="44.64064" lon="3.15985">
        <ele>1251.29</ele>
        <time>2016-02-24T11:11:28Z</time>
      </trkpt>
      <trkpt lat="44.64064" lon="3.15987">
        <ele>1251.29</ele>
        <time>2016-02-24T11:11:50Z</time>
      </trkpt>
      <trkpt lat="44.64064" lon="3.15989">
        <ele>1250.81</ele>
        <time>2016-02-24T11:11:51Z</time>
      </trkpt>
      <trkpt lat="44.64064" lon="3.15991">
        <ele>1250.81</ele>
        <time>2016-02-24T11:11:52Z</time>
      </trkpt>
      <trkpt lat="44.64065" lon="3.15993">
        <ele>1250.33</ele>
        <time>2016-02-24T11:11:53Z</time>
      </trkpt>
      <trkpt lat="44.64067" lon="3.15992">
        <ele>1250.33</ele>
        <time>2016-02-24T11:11:54Z</time>
      </trkpt>
      <trkpt lat="44.64063" lon="3.15979">
        <ele>1250.33</ele>
        <time>2016-02-24T11:12:01Z</time>
      </trkpt>
      <trkpt lat="44.64047" lon="3.15944">
        <ele>1251.29</ele>
        <time>2016-02-24T11:12:11Z</time>
      </trkpt>
      <trkpt lat="44.64045" lon="3.15939">
        <ele>1251.77</ele>
        <time>2016-02-24T11:12:12Z</time>
      </trkpt>
      <trkpt lat="44.64034" lon="3.15886">
        <ele>1254.18</ele>
        <time>2016-02-24T11:12:24Z</time>
      </trkpt>
      <trkpt lat="44.64034" lon="3.15882">
        <ele>1254.66</ele>
        <time>2016-02-24T11:12:25Z</time>
      </trkpt>
      <trkpt lat="44.64031" lon="3.15836">
        <ele>1252.25</ele>
        <time>2016-02-24T11:12:35Z</time>
      </trkpt>
      <trkpt lat="44.64033" lon="3.15756">
        <ele>1250.33</ele>
        <time>2016-02-24T11:12:49Z</time>
      </trkpt>
      <trkpt lat="44.64033" lon="3.15744">
        <ele>1250.33</ele>
        <time>2016-02-24T11:12:51Z</time>
      </trkpt>
      <trkpt lat="44.64033" lon="3.15738">
        <ele>1250.81</ele>
        <time>2016-02-24T11:12:52Z</time>
      </trkpt>
      <trkpt lat="44.64033" lon="3.15733">
        <ele>1249.85</ele>
        <time>2016-02-24T11:12:53Z</time>
      </trkpt>
      <trkpt lat="44.64035" lon="3.15707">
        <ele>1250.33</ele>
        <time>2016-02-24T11:12:58Z</time>
      </trkpt>
      <trkpt lat="44.64032" lon="3.15685">
        <ele>1249.37</ele>
        <time>2016-02-24T11:13:02Z</time>
      </trkpt>
      <trkpt lat="44.64031" lon="3.15635">
        <ele>1249.37</ele>
        <time>2016-02-24T11:13:10Z</time>
      </trkpt>
      <trkpt lat="44.6404" lon="3.15566">
        <ele>1249.37</ele>
        <time>2016-02-24T11:13:21Z</time>
      </trkpt>
      <trkpt lat="44.6404" lon="3.1556">
        <ele>1249.37</ele>
        <time>2016-02-24T11:13:22Z</time>
      </trkpt>
      <trkpt lat="44.64039" lon="3.15542">
        <ele>1249.37</ele>
        <time>2016-02-24T11:13:25Z</time>
      </trkpt>
      <trkpt lat="44.64041" lon="3.15537">
        <ele>1249.37</ele>
        <time>2016-02-24T11:13:26Z</time>
      </trkpt>
      <trkpt lat="44.64045" lon="3.15533">
        <ele>1249.85</ele>
        <time>2016-02-24T11:13:27Z</time>
      </trkpt>
      <trkpt lat="44.64049" lon="3.15533">
        <ele>1249.85</ele>
        <time>2016-02-24T11:13:28Z</time>
      </trkpt>
      <trkpt lat="44.64054" lon="3.15533">
        <ele>1249.85</ele>
        <time>2016-02-24T11:13:29Z</time>
      </trkpt>
      <trkpt lat="44.64058" lon="3.15535">
        <ele>1249.85</ele>
        <time>2016-02-24T11:13:30Z</time>
      </trkpt>
      <trkpt lat="44.64063" lon="3.15537">
        <ele>1249.37</ele>
        <time>2016-02-24T11:13:31Z</time>
      </trkpt>
      <trkpt lat="44.64068" lon="3.15539">
        <ele>1249.37</ele>
        <time>2016-02-24T11:13:32Z</time>
      </trkpt>
      <trkpt lat="44.64094" lon="3.1555">
        <ele>1248.89</ele>
        <time>2016-02-24T11:13:38Z</time>
      </trkpt>
      <trkpt lat="44.64098" lon="3.15553">
        <ele>1248.89</ele>
        <time>2016-02-24T11:13:39Z</time>
      </trkpt>
      <trkpt lat="44.64102" lon="3.15556">
        <ele>1248.89</ele>
        <time>2016-02-24T11:13:40Z</time>
      </trkpt>
      <trkpt lat="44.64112" lon="3.15566">
        <ele>1249.37</ele>
        <time>2016-02-24T11:13:43Z</time>
      </trkpt>
      <trkpt lat="44.6415" lon="3.15601">
        <ele>1249.37</ele>
        <time>2016-02-24T11:13:53Z</time>
      </trkpt>
      <trkpt lat="44.64153" lon="3.15606">
        <ele>1249.37</ele>
        <time>2016-02-24T11:13:54Z</time>
      </trkpt>
      <trkpt lat="44.64157" lon="3.15611">
        <ele>1249.37</ele>
        <time>2016-02-24T11:13:55Z</time>
      </trkpt>
      <trkpt lat="44.6416" lon="3.15617">
        <ele>1249.37</ele>
        <time>2016-02-24T11:13:56Z</time>
      </trkpt>
      <trkpt lat="44.64164" lon="3.15623">
        <ele>1248.89</ele>
        <time>2016-02-24T11:13:57Z</time>
      </trkpt>
      <trkpt lat="44.64166" lon="3.15629">
        <ele>1248.89</ele>
        <time>2016-02-24T11:13:58Z</time>
      </trkpt>
      <trkpt lat="44.64188" lon="3.15676">
        <ele>1249.85</ele>
        <time>2016-02-24T11:14:06Z</time>
      </trkpt>
      <trkpt lat="44.64195" lon="3.15685">
        <ele>1249.37</ele>
        <time>2016-02-24T11:14:08Z</time>
      </trkpt>
      <trkpt lat="44.642" lon="3.15689">
        <ele>1249.85</ele>
        <time>2016-02-24T11:14:09Z</time>
      </trkpt>
      <trkpt lat="44.64208" lon="3.15696">
        <ele>1250.81</ele>
        <time>2016-02-24T11:14:11Z</time>
      </trkpt>
      <trkpt lat="44.64274" lon="3.1575">
        <ele>1249.85</ele>
        <time>2016-02-24T11:14:27Z</time>
      </trkpt>
      <trkpt lat="44.64303" lon="3.15772">
        <ele>1248.89</ele>
        <time>2016-02-24T11:14:33Z</time>
      </trkpt>
      <trkpt lat="44.64308" lon="3.15774">
        <ele>1248.41</ele>
        <time>2016-02-24T11:14:34Z</time>
      </trkpt>
      <trkpt lat="44.64314" lon="3.15776">
        <ele>1247.45</ele>
        <time>2016-02-24T11:14:35Z</time>
      </trkpt>
      <trkpt lat="44.64381" lon="3.15783">
        <ele>1247.45</ele>
        <time>2016-02-24T11:14:46Z</time>
      </trkpt>
      <trkpt lat="44.64415" lon="3.15794">
        <ele>1247.93</ele>
        <time>2016-02-24T11:14:52Z</time>
      </trkpt>
      <trkpt lat="44.6442" lon="3.15795">
        <ele>1247.45</ele>
        <time>2016-02-24T11:14:53Z</time>
      </trkpt>
      <trkpt lat="44.64426" lon="3.15796">
        <ele>1247.93</ele>
        <time>2016-02-24T11:14:54Z</time>
      </trkpt>
      <trkpt lat="44.64431" lon="3.15798">
        <ele>1247.93</ele>
        <time>2016-02-24T11:14:55Z</time>
      </trkpt>
      <trkpt lat="44.64436" lon="3.158">
        <ele>1247.93</ele>
        <time>2016-02-24T11:14:56Z</time>
      </trkpt>
      <trkpt lat="44.64441" lon="3.15803">
        <ele>1248.41</ele>
        <time>2016-02-24T11:14:57Z</time>
      </trkpt>
      <trkpt lat="44.64445" lon="3.15806">
        <ele>1247.93</ele>
        <time>2016-02-24T11:14:58Z</time>
      </trkpt>
      <trkpt lat="44.64449" lon="3.15811">
        <ele>1248.41</ele>
        <time>2016-02-24T11:14:59Z</time>
      </trkpt>
      <trkpt lat="44.64453" lon="3.15816">
        <ele>1248.41</ele>
        <time>2016-02-24T11:15:00Z</time>
      </trkpt>
      <trkpt lat="44.64456" lon="3.15821">
        <ele>1248.89</ele>
        <time>2016-02-24T11:15:01Z</time>
      </trkpt>
      <trkpt lat="44.64458" lon="3.15827">
        <ele>1249.37</ele>
        <time>2016-02-24T11:15:02Z</time>
      </trkpt>
      <trkpt lat="44.6446" lon="3.15833">
        <ele>1249.37</ele>
        <time>2016-02-24T11:15:03Z</time>
      </trkpt>
      <trkpt lat="44.64462" lon="3.1584">
        <ele>1249.37</ele>
        <time>2016-02-24T11:15:04Z</time>
      </trkpt>
      <trkpt lat="44.64463" lon="3.15848">
        <ele>1249.37</ele>
        <time>2016-02-24T11:15:05Z</time>
      </trkpt>
      <trkpt lat="44.64465" lon="3.15855">
        <ele>1248.89</ele>
        <time>2016-02-24T11:15:06Z</time>
      </trkpt>
      <trkpt lat="44.64481" lon="3.15995">
        <ele>1248.41</ele>
        <time>2016-02-24T11:15:23Z</time>
      </trkpt>
      <trkpt lat="44.64482" lon="3.16029">
        <ele>1249.37</ele>
        <time>2016-02-24T11:15:27Z</time>
      </trkpt>
      <trkpt lat="44.64478" lon="3.16153">
        <ele>1248.41</ele>
        <time>2016-02-24T11:15:41Z</time>
      </trkpt>
      <trkpt lat="44.64485" lon="3.16272">
        <ele>1249.37</ele>
        <time>2016-02-24T11:15:54Z</time>
      </trkpt>
      <trkpt lat="44.64485" lon="3.16282">
        <ele>1248.89</ele>
        <time>2016-02-24T11:15:55Z</time>
      </trkpt>
      <trkpt lat="44.6447" lon="3.16402">
        <ele>1252.25</ele>
        <time>2016-02-24T11:16:10Z</time>
      </trkpt>
      <trkpt lat="44.64466" lon="3.16426">
        <ele>1253.22</ele>
        <time>2016-02-24T11:16:14Z</time>
      </trkpt>
      <trkpt lat="44.64464" lon="3.16431">
        <ele>1253.22</ele>
        <time>2016-02-24T11:16:15Z</time>
      </trkpt>
      <trkpt lat="44.64456" lon="3.16461">
        <ele>1254.18</ele>
        <time>2016-02-24T11:16:20Z</time>
      </trkpt>
      <trkpt lat="44.64453" lon="3.16465">
        <ele>1254.18</ele>
        <time>2016-02-24T11:16:21Z</time>
      </trkpt>
      <trkpt lat="44.64415" lon="3.16567">
        <ele>1250.81</ele>
        <time>2016-02-24T11:16:37Z</time>
      </trkpt>
      <trkpt lat="44.64404" lon="3.16611">
        <ele>1248.89</ele>
        <time>2016-02-24T11:16:42Z</time>
      </trkpt>
      <trkpt lat="44.64402" lon="3.16674">
        <ele>1246.97</ele>
        <time>2016-02-24T11:16:48Z</time>
      </trkpt>
      <trkpt lat="44.64405" lon="3.16685">
        <ele>1246.97</ele>
        <time>2016-02-24T11:16:49Z</time>
      </trkpt>
      <trkpt lat="44.64408" lon="3.16696">
        <ele>1246.49</ele>
        <time>2016-02-24T11:16:50Z</time>
      </trkpt>
      <trkpt lat="44.64413" lon="3.16706">
        <ele>1246.49</ele>
        <time>2016-02-24T11:16:51Z</time>
      </trkpt>
      <trkpt lat="44.64418" lon="3.16715">
        <ele>1245.53</ele>
        <time>2016-02-24T11:16:52Z</time>
      </trkpt>
      <trkpt lat="44.64423" lon="3.16725">
        <ele>1245.04</ele>
        <time>2016-02-24T11:16:53Z</time>
      </trkpt>
      <trkpt lat="44.64435" lon="3.16745">
        <ele>1244.08</ele>
        <time>2016-02-24T11:16:55Z</time>
      </trkpt>
      <trkpt lat="44.64459" lon="3.16785">
        <ele>1242.64</ele>
        <time>2016-02-24T11:16:59Z</time>
      </trkpt>
      <trkpt lat="44.64536" lon="3.16921">
        <ele>1238.32</ele>
        <time>2016-02-24T11:17:13Z</time>
      </trkpt>
      <trkpt lat="44.64554" lon="3.16953">
        <ele>1239.76</ele>
        <time>2016-02-24T11:17:17Z</time>
      </trkpt>
      <trkpt lat="44.64579" lon="3.17008">
        <ele>1242.16</ele>
        <time>2016-02-24T11:17:24Z</time>
      </trkpt>
      <trkpt lat="44.64611" lon="3.17092">
        <ele>1244.56</ele>
        <time>2016-02-24T11:17:39Z</time>
      </trkpt>
      <trkpt lat="44.64636" lon="3.17182">
        <ele>1242.64</ele>
        <time>2016-02-24T11:17:53Z</time>
      </trkpt>
      <trkpt lat="44.64658" lon="3.17261">
        <ele>1240.72</ele>
        <time>2016-02-24T11:18:03Z</time>
      </trkpt>
      <trkpt lat="44.64661" lon="3.17268">
        <ele>1240.72</ele>
        <time>2016-02-24T11:18:04Z</time>
      </trkpt>
      <trkpt lat="44.64666" lon="3.17275">
        <ele>1240.72</ele>
        <time>2016-02-24T11:18:05Z</time>
      </trkpt>
      <trkpt lat="44.6467" lon="3.17281">
        <ele>1240.24</ele>
        <time>2016-02-24T11:18:06Z</time>
      </trkpt>
      <trkpt lat="44.64676" lon="3.17286">
        <ele>1239.76</ele>
        <time>2016-02-24T11:18:07Z</time>
      </trkpt>
      <trkpt lat="44.64682" lon="3.1729">
        <ele>1239.28</ele>
        <time>2016-02-24T11:18:08Z</time>
      </trkpt>
      <trkpt lat="44.64688" lon="3.17294">
        <ele>1239.28</ele>
        <time>2016-02-24T11:18:09Z</time>
      </trkpt>
      <trkpt lat="44.64695" lon="3.17297">
        <ele>1238.32</ele>
        <time>2016-02-24T11:18:10Z</time>
      </trkpt>
      <trkpt lat="44.64723" lon="3.17313">
        <ele>1236.39</ele>
        <time>2016-02-24T11:18:14Z</time>
      </trkpt>
      <trkpt lat="44.64729" lon="3.1732">
        <ele>1235.43</ele>
        <time>2016-02-24T11:18:15Z</time>
      </trkpt>
      <trkpt lat="44.64733" lon="3.17329">
        <ele>1235.43</ele>
        <time>2016-02-24T11:18:16Z</time>
      </trkpt>
      <trkpt lat="44.64737" lon="3.17339">
        <ele>1234.95</ele>
        <time>2016-02-24T11:18:17Z</time>
      </trkpt>
      <trkpt lat="44.64737" lon="3.17351">
        <ele>1234.47</ele>
        <time>2016-02-24T11:18:18Z</time>
      </trkpt>
      <trkpt lat="44.64736" lon="3.17364">
        <ele>1231.59</ele>
        <time>2016-02-24T11:18:19Z</time>
      </trkpt>
      <trkpt lat="44.64733" lon="3.17377">
        <ele>1231.11</ele>
        <time>2016-02-24T11:18:20Z</time>
      </trkpt>
      <trkpt lat="44.6473" lon="3.1739">
        <ele>1230.14</ele>
        <time>2016-02-24T11:18:21Z</time>
      </trkpt>
      <trkpt lat="44.64723" lon="3.17419">
        <ele>1225.82</ele>
        <time>2016-02-24T11:18:23Z</time>
      </trkpt>
      <trkpt lat="44.64721" lon="3.17435">
        <ele>1223.9</ele>
        <time>2016-02-24T11:18:24Z</time>
      </trkpt>
      <trkpt lat="44.64721" lon="3.17451">
        <ele>1222.45</ele>
        <time>2016-02-24T11:18:25Z</time>
      </trkpt>
      <trkpt lat="44.64723" lon="3.17467">
        <ele>1221.01</ele>
        <time>2016-02-24T11:18:26Z</time>
      </trkpt>
      <trkpt lat="44.64725" lon="3.17483">
        <ele>1220.53</ele>
        <time>2016-02-24T11:18:27Z</time>
      </trkpt>
      <trkpt lat="44.64729" lon="3.17499">
        <ele>1219.57</ele>
        <time>2016-02-24T11:18:28Z</time>
      </trkpt>
      <trkpt lat="44.64733" lon="3.17514">
        <ele>1218.61</ele>
        <time>2016-02-24T11:18:29Z</time>
      </trkpt>
      <trkpt lat="44.64738" lon="3.17529">
        <ele>1217.65</ele>
        <time>2016-02-24T11:18:30Z</time>
      </trkpt>
      <trkpt lat="44.64743" lon="3.17543">
        <ele>1217.65</ele>
        <time>2016-02-24T11:18:31Z</time>
      </trkpt>
      <trkpt lat="44.64781" lon="3.17621">
        <ele>1214.76</ele>
        <time>2016-02-24T11:18:37Z</time>
      </trkpt>
      <trkpt lat="44.64797" lon="3.17658">
        <ele>1214.28</ele>
        <time>2016-02-24T11:18:40Z</time>
      </trkpt>
      <trkpt lat="44.648" lon="3.17671">
        <ele>1214.28</ele>
        <time>2016-02-24T11:18:41Z</time>
      </trkpt>
      <trkpt lat="44.64803" lon="3.17684">
        <ele>1213.8</ele>
        <time>2016-02-24T11:18:42Z</time>
      </trkpt>
      <trkpt lat="44.64805" lon="3.17698">
        <ele>1213.32</ele>
        <time>2016-02-24T11:18:43Z</time>
      </trkpt>
      <trkpt lat="44.64806" lon="3.17712">
        <ele>1212.84</ele>
        <time>2016-02-24T11:18:44Z</time>
      </trkpt>
      <trkpt lat="44.64808" lon="3.17725">
        <ele>1212.84</ele>
        <time>2016-02-24T11:18:45Z</time>
      </trkpt>
      <trkpt lat="44.64811" lon="3.17738">
        <ele>1212.36</ele>
        <time>2016-02-24T11:18:46Z</time>
      </trkpt>
      <trkpt lat="44.64815" lon="3.17749">
        <ele>1211.88</ele>
        <time>2016-02-24T11:18:47Z</time>
      </trkpt>
      <trkpt lat="44.64839" lon="3.17804">
        <ele>1210.92</ele>
        <time>2016-02-24T11:18:52Z</time>
      </trkpt>
      <trkpt lat="44.64886" lon="3.17902">
        <ele>1209.48</ele>
        <time>2016-02-24T11:19:02Z</time>
      </trkpt>
      <trkpt lat="44.64892" lon="3.17909">
        <ele>1209</ele>
        <time>2016-02-24T11:19:03Z</time>
      </trkpt>
      <trkpt lat="44.64899" lon="3.17916">
        <ele>1208.51</ele>
        <time>2016-02-24T11:19:04Z</time>
      </trkpt>
      <trkpt lat="44.64939" lon="3.17954">
        <ele>1208.03</ele>
        <time>2016-02-24T11:19:10Z</time>
      </trkpt>
      <trkpt lat="44.64987" lon="3.18021">
        <ele>1206.11</ele>
        <time>2016-02-24T11:19:19Z</time>
      </trkpt>
      <trkpt lat="44.65019" lon="3.18065">
        <ele>1206.11</ele>
        <time>2016-02-24T11:19:25Z</time>
      </trkpt>
      <trkpt lat="44.65023" lon="3.18073">
        <ele>1206.11</ele>
        <time>2016-02-24T11:19:26Z</time>
      </trkpt>
      <trkpt lat="44.65027" lon="3.1808">
        <ele>1206.11</ele>
        <time>2016-02-24T11:19:27Z</time>
      </trkpt>
      <trkpt lat="44.65032" lon="3.18087">
        <ele>1206.11</ele>
        <time>2016-02-24T11:19:28Z</time>
      </trkpt>
      <trkpt lat="44.65037" lon="3.18095">
        <ele>1207.07</ele>
        <time>2016-02-24T11:19:29Z</time>
      </trkpt>
      <trkpt lat="44.65095" lon="3.18188">
        <ele>1204.19</ele>
        <time>2016-02-24T11:19:42Z</time>
      </trkpt>
      <trkpt lat="44.65129" lon="3.18301">
        <ele>1202.75</ele>
        <time>2016-02-24T11:19:55Z</time>
      </trkpt>
      <trkpt lat="44.65131" lon="3.18328">
        <ele>1202.27</ele>
        <time>2016-02-24T11:19:58Z</time>
      </trkpt>
      <trkpt lat="44.65131" lon="3.18384">
        <ele>1201.3</ele>
        <time>2016-02-24T11:20:04Z</time>
      </trkpt>
      <trkpt lat="44.65135" lon="3.18413">
        <ele>1200.34</ele>
        <time>2016-02-24T11:20:07Z</time>
      </trkpt>
      <trkpt lat="44.65159" lon="3.18493">
        <ele>1199.38</ele>
        <time>2016-02-24T11:20:16Z</time>
      </trkpt>
      <trkpt lat="44.65169" lon="3.18529">
        <ele>1199.38</ele>
        <time>2016-02-24T11:20:20Z</time>
      </trkpt>
      <trkpt lat="44.65169" lon="3.18538">
        <ele>1198.9</ele>
        <time>2016-02-24T11:20:21Z</time>
      </trkpt>
      <trkpt lat="44.65168" lon="3.18547">
        <ele>1198.9</ele>
        <time>2016-02-24T11:20:22Z</time>
      </trkpt>
      <trkpt lat="44.65166" lon="3.18556">
        <ele>1198.9</ele>
        <time>2016-02-24T11:20:23Z</time>
      </trkpt>
      <trkpt lat="44.65162" lon="3.18563">
        <ele>1198.9</ele>
        <time>2016-02-24T11:20:24Z</time>
      </trkpt>
      <trkpt lat="44.65159" lon="3.1857">
        <ele>1198.9</ele>
        <time>2016-02-24T11:20:25Z</time>
      </trkpt>
      <trkpt lat="44.65134" lon="3.18619">
        <ele>1199.38</ele>
        <time>2016-02-24T11:20:32Z</time>
      </trkpt>
      <trkpt lat="44.65129" lon="3.18632">
        <ele>1199.38</ele>
        <time>2016-02-24T11:20:34Z</time>
      </trkpt>
      <trkpt lat="44.6511" lon="3.18696">
        <ele>1200.82</ele>
        <time>2016-02-24T11:20:46Z</time>
      </trkpt>
      <trkpt lat="44.65112" lon="3.18718">
        <ele>1199.38</ele>
        <time>2016-02-24T11:20:56Z</time>
      </trkpt>
      <trkpt lat="44.65115" lon="3.18741">
        <ele>1198.42</ele>
        <time>2016-02-24T11:21:01Z</time>
      </trkpt>
      <trkpt lat="44.65119" lon="3.1877">
        <ele>1196.5</ele>
        <time>2016-02-24T11:21:05Z</time>
      </trkpt>
      <trkpt lat="44.6512" lon="3.18778">
        <ele>1196.02</ele>
        <time>2016-02-24T11:21:06Z</time>
      </trkpt>
      <trkpt lat="44.6512" lon="3.18787">
        <ele>1195.54</ele>
        <time>2016-02-24T11:21:07Z</time>
      </trkpt>
      <trkpt lat="44.65118" lon="3.18796">
        <ele>1195.06</ele>
        <time>2016-02-24T11:21:08Z</time>
      </trkpt>
      <trkpt lat="44.65115" lon="3.18805">
        <ele>1194.09</ele>
        <time>2016-02-24T11:21:09Z</time>
      </trkpt>
      <trkpt lat="44.65112" lon="3.18814">
        <ele>1193.61</ele>
        <time>2016-02-24T11:21:10Z</time>
      </trkpt>
      <trkpt lat="44.65098" lon="3.18864">
        <ele>1190.73</ele>
        <time>2016-02-24T11:21:15Z</time>
      </trkpt>
      <trkpt lat="44.65089" lon="3.18913">
        <ele>1187.37</ele>
        <time>2016-02-24T11:21:19Z</time>
      </trkpt>
      <trkpt lat="44.65078" lon="3.18952">
        <ele>1183.52</ele>
        <time>2016-02-24T11:21:22Z</time>
      </trkpt>
      <trkpt lat="44.65059" lon="3.19014">
        <ele>1179.67</ele>
        <time>2016-02-24T11:21:27Z</time>
      </trkpt>
      <trkpt lat="44.65045" lon="3.19054">
        <ele>1176.79</ele>
        <time>2016-02-24T11:21:30Z</time>
      </trkpt>
      <trkpt lat="44.65028" lon="3.19105">
        <ele>1172.47</ele>
        <time>2016-02-24T11:21:34Z</time>
      </trkpt>
      <trkpt lat="44.6502" lon="3.19153">
        <ele>1168.62</ele>
        <time>2016-02-24T11:21:38Z</time>
      </trkpt>
      <trkpt lat="44.65016" lon="3.19186">
        <ele>1165.26</ele>
        <time>2016-02-24T11:21:41Z</time>
      </trkpt>
      <trkpt lat="44.65015" lon="3.19197">
        <ele>1164.29</ele>
        <time>2016-02-24T11:21:42Z</time>
      </trkpt>
      <trkpt lat="44.65015" lon="3.19206">
        <ele>1163.33</ele>
        <time>2016-02-24T11:21:43Z</time>
      </trkpt>
      <trkpt lat="44.65016" lon="3.19216">
        <ele>1162.37</ele>
        <time>2016-02-24T11:21:44Z</time>
      </trkpt>
      <trkpt lat="44.65018" lon="3.19233">
        <ele>1160.93</ele>
        <time>2016-02-24T11:21:46Z</time>
      </trkpt>
      <trkpt lat="44.65022" lon="3.19255">
        <ele>1159.97</ele>
        <time>2016-02-24T11:21:49Z</time>
      </trkpt>
      <trkpt lat="44.65027" lon="3.19274">
        <ele>1157.56</ele>
        <time>2016-02-24T11:21:52Z</time>
      </trkpt>
      <trkpt lat="44.6503" lon="3.19286">
        <ele>1156.12</ele>
        <time>2016-02-24T11:21:54Z</time>
      </trkpt>
      <trkpt lat="44.65032" lon="3.19291">
        <ele>1155.64</ele>
        <time>2016-02-24T11:21:55Z</time>
      </trkpt>
      <trkpt lat="44.65033" lon="3.19295">
        <ele>1155.16</ele>
        <time>2016-02-24T11:21:56Z</time>
      </trkpt>
      <trkpt lat="44.65033" lon="3.19299">
        <ele>1155.16</ele>
        <time>2016-02-24T11:21:57Z</time>
      </trkpt>
      <trkpt lat="44.6503" lon="3.193">
        <ele>1154.68</ele>
        <time>2016-02-24T11:21:58Z</time>
      </trkpt>
      <trkpt lat="44.65028" lon="3.193">
        <ele>1153.72</ele>
        <time>2016-02-24T11:21:59Z</time>
      </trkpt>
      <trkpt lat="44.65026" lon="3.19298">
        <ele>1153.72</ele>
        <time>2016-02-24T11:22:00Z</time>
      </trkpt>
      <trkpt lat="44.65024" lon="3.19297">
        <ele>1153.24</ele>
        <time>2016-02-24T11:22:01Z</time>
      </trkpt>
      <trkpt lat="44.65022" lon="3.19296">
        <ele>1153.24</ele>
        <time>2016-02-24T11:22:02Z</time>
      </trkpt>
      <trkpt lat="44.6502" lon="3.19296">
        <ele>1152.76</ele>
        <time>2016-02-24T11:22:03Z</time>
      </trkpt>
      <trkpt lat="44.65013" lon="3.19295">
        <ele>1152.28</ele>
        <time>2016-02-24T11:22:08Z</time>
      </trkpt>
      <trkpt lat="44.65011" lon="3.19297">
        <ele>1151.8</ele>
        <time>2016-02-24T11:22:09Z</time>
      </trkpt>
      <trkpt lat="44.65009" lon="3.19298">
        <ele>1151.8</ele>
        <time>2016-02-24T11:22:10Z</time>
      </trkpt>
      <trkpt lat="44.64994" lon="3.19319">
        <ele>1150.35</ele>
        <time>2016-02-24T11:22:21Z</time>
      </trkpt>
      <trkpt lat="44.64992" lon="3.1932">
        <ele>1150.35</ele>
        <time>2016-02-24T11:22:22Z</time>
      </trkpt>
      <trkpt lat="44.6499" lon="3.1932">
        <ele>1150.35</ele>
        <time>2016-02-24T11:22:23Z</time>
      </trkpt>
      <trkpt lat="44.64988" lon="3.19319">
        <ele>1150.84</ele>
        <time>2016-02-24T11:22:24Z</time>
      </trkpt>
      <trkpt lat="44.64987" lon="3.19319">
        <ele>1150.35</ele>
        <time>2016-02-24T11:22:25Z</time>
      </trkpt>
      <trkpt lat="44.64985" lon="3.19318">
        <ele>1150.35</ele>
        <time>2016-02-24T11:22:26Z</time>
      </trkpt>
      <trkpt lat="44.64983" lon="3.19317">
        <ele>1150.35</ele>
        <time>2016-02-24T11:22:27Z</time>
      </trkpt>
      <trkpt lat="44.64982" lon="3.19316">
        <ele>1149.87</ele>
        <time>2016-02-24T11:22:28Z</time>
      </trkpt>
      <trkpt lat="44.64953" lon="3.19296">
        <ele>1148.91</ele>
        <time>2016-02-24T11:22:39Z</time>
      </trkpt>
      <trkpt lat="44.6495" lon="3.19297">
        <ele>1148.91</ele>
        <time>2016-02-24T11:22:40Z</time>
      </trkpt>
      <trkpt lat="44.64949" lon="3.193">
        <ele>1148.91</ele>
        <time>2016-02-24T11:22:41Z</time>
      </trkpt>
      <trkpt lat="44.64947" lon="3.19304">
        <ele>1148.91</ele>
        <time>2016-02-24T11:22:42Z</time>
      </trkpt>
      <trkpt lat="44.64945" lon="3.19308">
        <ele>1148.91</ele>
        <time>2016-02-24T11:22:43Z</time>
      </trkpt>
      <trkpt lat="44.64943" lon="3.19312">
        <ele>1148.43</ele>
        <time>2016-02-24T11:22:44Z</time>
      </trkpt>
      <trkpt lat="44.6494" lon="3.19316">
        <ele>1148.43</ele>
        <time>2016-02-24T11:22:45Z</time>
      </trkpt>
      <trkpt lat="44.64937" lon="3.19319">
        <ele>1148.43</ele>
        <time>2016-02-24T11:22:46Z</time>
      </trkpt>
      <trkpt lat="44.64934" lon="3.19321">
        <ele>1148.43</ele>
        <time>2016-02-24T11:22:47Z</time>
      </trkpt>
      <trkpt lat="44.64931" lon="3.19323">
        <ele>1148.43</ele>
        <time>2016-02-24T11:22:48Z</time>
      </trkpt>
      <trkpt lat="44.64928" lon="3.19324">
        <ele>1148.43</ele>
        <time>2016-02-24T11:22:49Z</time>
      </trkpt>
      <trkpt lat="44.64925" lon="3.19328">
        <ele>1148.43</ele>
        <time>2016-02-24T11:22:50Z</time>
      </trkpt>
      <trkpt lat="44.64924" lon="3.19332">
        <ele>1148.43</ele>
        <time>2016-02-24T11:22:51Z</time>
      </trkpt>
      <trkpt lat="44.64922" lon="3.19336">
        <ele>1147.95</ele>
        <time>2016-02-24T11:22:52Z</time>
      </trkpt>
      <trkpt lat="44.64921" lon="3.19341">
        <ele>1148.43</ele>
        <time>2016-02-24T11:22:53Z</time>
      </trkpt>
      <trkpt lat="44.64921" lon="3.19346">
        <ele>1148.43</ele>
        <time>2016-02-24T11:22:54Z</time>
      </trkpt>
      <trkpt lat="44.64921" lon="3.1935">
        <ele>1147.95</ele>
        <time>2016-02-24T11:22:55Z</time>
      </trkpt>
      <trkpt lat="44.64923" lon="3.19354">
        <ele>1147.95</ele>
        <time>2016-02-24T11:22:56Z</time>
      </trkpt>
      <trkpt lat="44.64926" lon="3.19358">
        <ele>1148.43</ele>
        <time>2016-02-24T11:22:57Z</time>
      </trkpt>
      <trkpt lat="44.64928" lon="3.19361">
        <ele>1148.43</ele>
        <time>2016-02-24T11:22:58Z</time>
      </trkpt>
      <trkpt lat="44.64953" lon="3.19383">
        <ele>1148.91</ele>
        <time>2016-02-24T11:23:07Z</time>
      </trkpt>
      <trkpt lat="44.64956" lon="3.19383">
        <ele>1148.43</ele>
        <time>2016-02-24T11:23:08Z</time>
      </trkpt>
      <trkpt lat="44.64959" lon="3.19381">
        <ele>1148.43</ele>
        <time>2016-02-24T11:23:09Z</time>
      </trkpt>
      <trkpt lat="44.64962" lon="3.19378">
        <ele>1148.91</ele>
        <time>2016-02-24T11:23:10Z</time>
      </trkpt>
      <trkpt lat="44.64965" lon="3.19375">
        <ele>1148.91</ele>
        <time>2016-02-24T11:23:11Z</time>
      </trkpt>
      <trkpt lat="44.64987" lon="3.19333">
        <ele>1149.87</ele>
        <time>2016-02-24T11:23:22Z</time>
      </trkpt>
      <trkpt lat="44.65005" lon="3.19306">
        <ele>1151.8</ele>
        <time>2016-02-24T11:23:33Z</time>
      </trkpt>
      <trkpt lat="44.65021" lon="3.19298">
        <ele>1153.24</ele>
        <time>2016-02-24T11:23:44Z</time>
      </trkpt>
      <trkpt lat="44.6502" lon="3.193">
        <ele>1153.24</ele>
        <time>2016-02-24T11:24:01Z</time>
      </trkpt>
      <trkpt lat="44.6502" lon="3.193">
        <ele>1153.72</ele>
        <time>2016-02-24T11:24:24Z</time>
      </trkpt>
      <trkpt lat="44.6502" lon="3.19299">
        <ele>1153.24</ele>
        <time>2016-02-24T11:24:43Z</time>
      </trkpt>
      <trkpt lat="44.65019" lon="3.193">
        <ele>1153.24</ele>
        <time>2016-02-24T11:25:01Z</time>
      </trkpt>
      <trkpt lat="44.65021" lon="3.193">
        <ele>1153.72</ele>
        <time>2016-02-24T11:25:12Z</time>
      </trkpt>
      <trkpt lat="44.65023" lon="3.193">
        <ele>1153.72</ele>
        <time>2016-02-24T11:25:13Z</time>
      </trkpt>
      <trkpt lat="44.65024" lon="3.19298">
        <ele>1153.72</ele>
        <time>2016-02-24T11:25:14Z</time>
      </trkpt>
      <trkpt lat="44.65023" lon="3.19296">
        <ele>1153.72</ele>
        <time>2016-02-24T11:25:15Z</time>
      </trkpt>
      <trkpt lat="44.65022" lon="3.19294">
        <ele>1153.72</ele>
        <time>2016-02-24T11:25:16Z</time>
      </trkpt>
      <trkpt lat="44.6502" lon="3.19293">
        <ele>1153.24</ele>
        <time>2016-02-24T11:25:17Z</time>
      </trkpt>
      <trkpt lat="44.65018" lon="3.19293">
        <ele>1153.24</ele>
        <time>2016-02-24T11:25:18Z</time>
      </trkpt>
      <trkpt lat="44.65016" lon="3.19295">
        <ele>1153.24</ele>
        <time>2016-02-24T11:25:19Z</time>
      </trkpt>
      <trkpt lat="44.64992" lon="3.19317">
        <ele>1150.84</ele>
        <time>2016-02-24T11:25:27Z</time>
      </trkpt>
      <trkpt lat="44.64988" lon="3.19318">
        <ele>1150.84</ele>
        <time>2016-02-24T11:25:28Z</time>
      </trkpt>
      <trkpt lat="44.64984" lon="3.19318">
        <ele>1149.87</ele>
        <time>2016-02-24T11:25:29Z</time>
      </trkpt>
      <trkpt lat="44.64981" lon="3.19315">
        <ele>1149.87</ele>
        <time>2016-02-24T11:25:30Z</time>
      </trkpt>
      <trkpt lat="44.64978" lon="3.19311">
        <ele>1150.35</ele>
        <time>2016-02-24T11:25:31Z</time>
      </trkpt>
      <trkpt lat="44.64975" lon="3.19308">
        <ele>1150.35</ele>
        <time>2016-02-24T11:25:32Z</time>
      </trkpt>
      <trkpt lat="44.64971" lon="3.19305">
        <ele>1150.35</ele>
        <time>2016-02-24T11:25:33Z</time>
      </trkpt>
      <trkpt lat="44.64968" lon="3.19302">
        <ele>1149.87</ele>
        <time>2016-02-24T11:25:34Z</time>
      </trkpt>
      <trkpt lat="44.64964" lon="3.193">
        <ele>1149.87</ele>
        <time>2016-02-24T11:25:35Z</time>
      </trkpt>
      <trkpt lat="44.64942" lon="3.19297">
        <ele>1149.39</ele>
        <time>2016-02-24T11:25:45Z</time>
      </trkpt>
      <trkpt lat="44.6494" lon="3.193">
        <ele>1148.91</ele>
        <time>2016-02-24T11:25:47Z</time>
      </trkpt>
      <trkpt lat="44.64939" lon="3.19302">
        <ele>1149.39</ele>
        <time>2016-02-24T11:25:48Z</time>
      </trkpt>
      <trkpt lat="44.64941" lon="3.19303">
        <ele>1148.91</ele>
        <time>2016-02-24T11:25:57Z</time>
      </trkpt>
      <trkpt lat="44.64941" lon="3.19303">
        <ele>1148.91</ele>
        <time>2016-02-24T11:26:03Z</time>
      </trkpt>
      <trkpt lat="44.64942" lon="3.19303">
        <ele>1149.39</ele>
        <time>2016-02-24T11:26:05Z</time>
      </trkpt>
      <trkpt lat="44.64943" lon="3.19301">
        <ele>1149.39</ele>
        <time>2016-02-24T11:26:06Z</time>
      </trkpt>
      <trkpt lat="44.64943" lon="3.19299">
        <ele>1149.39</ele>
        <time>2016-02-24T11:26:07Z</time>
      </trkpt>
      <trkpt lat="44.64945" lon="3.19297">
        <ele>1149.39</ele>
        <time>2016-02-24T11:26:18Z</time>
      </trkpt>
      <trkpt lat="44.64945" lon="3.19297">
        <ele>1149.39</ele>
        <time>2016-02-24T11:26:50Z</time>
      </trkpt>
      <trkpt lat="44.64945" lon="3.19297">
        <ele>1148.91</ele>
        <time>2016-02-24T11:27:14Z</time>
      </trkpt>
      <trkpt lat="44.64947" lon="3.193">
        <ele>1148.91</ele>
        <time>2016-02-24T11:27:24Z</time>
      </trkpt>
      <trkpt lat="44.64948" lon="3.19302">
        <ele>1148.91</ele>
        <time>2016-02-24T11:27:25Z</time>
      </trkpt>
      <trkpt lat="44.64948" lon="3.19305">
        <ele>1148.91</ele>
        <time>2016-02-24T11:27:26Z</time>
      </trkpt>
      <trkpt lat="44.64947" lon="3.19309">
        <ele>1148.91</ele>
        <time>2016-02-24T11:27:27Z</time>
      </trkpt>
      <trkpt lat="44.64935" lon="3.19333">
        <ele>1148.91</ele>
        <time>2016-02-24T11:27:35Z</time>
      </trkpt>
      <trkpt lat="44.64935" lon="3.19331">
        <ele>1148.91</ele>
        <time>2016-02-24T11:27:36Z</time>
      </trkpt>
      <trkpt lat="44.64936" lon="3.19329">
        <ele>1148.43</ele>
        <time>2016-02-24T11:27:37Z</time>
      </trkpt>
      <trkpt lat="44.64941" lon="3.19328">
        <ele>1148.91</ele>
        <time>2016-02-24T11:27:45Z</time>
      </trkpt>
      <trkpt lat="44.64942" lon="3.19328">
        <ele>1148.91</ele>
        <time>2016-02-24T11:27:57Z</time>
      </trkpt>
      <trkpt lat="44.64937" lon="3.19339">
        <ele>1148.43</ele>
        <time>2016-02-24T11:28:02Z</time>
      </trkpt>
      <trkpt lat="44.64929" lon="3.19351">
        <ele>1148.43</ele>
        <time>2016-02-24T11:28:05Z</time>
      </trkpt>
      <trkpt lat="44.64926" lon="3.19356">
        <ele>1148.43</ele>
        <time>2016-02-24T11:28:06Z</time>
      </trkpt>
      <trkpt lat="44.64927" lon="3.19361">
        <ele>1147.95</ele>
        <time>2016-02-24T11:28:07Z</time>
      </trkpt>
      <trkpt lat="44.64929" lon="3.19364">
        <ele>1148.43</ele>
        <time>2016-02-24T11:28:08Z</time>
      </trkpt>
      <trkpt lat="44.64932" lon="3.19367">
        <ele>1148.43</ele>
        <time>2016-02-24T11:28:09Z</time>
      </trkpt>
      <trkpt lat="44.64935" lon="3.19368">
        <ele>1148.43</ele>
        <time>2016-02-24T11:28:10Z</time>
      </trkpt>
      <trkpt lat="44.64937" lon="3.1937">
        <ele>1148.43</ele>
        <time>2016-02-24T11:28:11Z</time>
      </trkpt>
      <trkpt lat="44.6494" lon="3.19372">
        <ele>1147.95</ele>
        <time>2016-02-24T11:28:12Z</time>
      </trkpt>
      <trkpt lat="44.64942" lon="3.19375">
        <ele>1148.43</ele>
        <time>2016-02-24T11:28:13Z</time>
      </trkpt>
      <trkpt lat="44.64944" lon="3.19379">
        <ele>1148.43</ele>
        <time>2016-02-24T11:28:14Z</time>
      </trkpt>
      <trkpt lat="44.64946" lon="3.19381">
        <ele>1148.43</ele>
        <time>2016-02-24T11:28:15Z</time>
      </trkpt>
      <trkpt lat="44.64949" lon="3.19382">
        <ele>1148.43</ele>
        <time>2016-02-24T11:28:16Z</time>
      </trkpt>
      <trkpt lat="44.64953" lon="3.19382">
        <ele>1148.43</ele>
        <time>2016-02-24T11:28:17Z</time>
      </trkpt>
      <trkpt lat="44.64957" lon="3.19379">
        <ele>1148.43</ele>
        <time>2016-02-24T11:28:18Z</time>
      </trkpt>
      <trkpt lat="44.6496" lon="3.19377">
        <ele>1147.95</ele>
        <time>2016-02-24T11:28:19Z</time>
      </trkpt>
      <trkpt lat="44.64975" lon="3.19343">
        <ele>1148.43</ele>
        <time>2016-02-24T11:28:28Z</time>
      </trkpt>
      <trkpt lat="44.64984" lon="3.19329">
        <ele>1149.39</ele>
        <time>2016-02-24T11:28:32Z</time>
      </trkpt>
      <trkpt lat="44.64987" lon="3.19325">
        <ele>1149.39</ele>
        <time>2016-02-24T11:28:33Z</time>
      </trkpt>
      <trkpt lat="44.64989" lon="3.19322">
        <ele>1149.87</ele>
        <time>2016-02-24T11:28:34Z</time>
      </trkpt>
      <trkpt lat="44.64991" lon="3.19318">
        <ele>1150.35</ele>
        <time>2016-02-24T11:28:35Z</time>
      </trkpt>
      <trkpt lat="44.64994" lon="3.19313">
        <ele>1150.84</ele>
        <time>2016-02-24T11:28:36Z</time>
      </trkpt>
      <trkpt lat="44.64996" lon="3.19309">
        <ele>1151.32</ele>
        <time>2016-02-24T11:28:37Z</time>
      </trkpt>
      <trkpt lat="44.64999" lon="3.19305">
        <ele>1151.32</ele>
        <time>2016-02-24T11:28:38Z</time>
      </trkpt>
      <trkpt lat="44.65001" lon="3.19302">
        <ele>1151.8</ele>
        <time>2016-02-24T11:28:39Z</time>
      </trkpt>
      <trkpt lat="44.65004" lon="3.193">
        <ele>1151.8</ele>
        <time>2016-02-24T11:28:40Z</time>
      </trkpt>
      <trkpt lat="44.65006" lon="3.19299">
        <ele>1151.8</ele>
        <time>2016-02-24T11:28:41Z</time>
      </trkpt>
      <trkpt lat="44.65009" lon="3.19298">
        <ele>1151.8</ele>
        <time>2016-02-24T11:28:42Z</time>
      </trkpt>
      <trkpt lat="44.65013" lon="3.19297">
        <ele>1152.76</ele>
        <time>2016-02-24T11:28:44Z</time>
      </trkpt>
      <trkpt lat="44.65015" lon="3.19298">
        <ele>1153.24</ele>
        <time>2016-02-24T11:28:45Z</time>
      </trkpt>
      <trkpt lat="44.65016" lon="3.193">
        <ele>1153.24</ele>
        <time>2016-02-24T11:28:46Z</time>
      </trkpt>
      <trkpt lat="44.65016" lon="3.19302">
        <ele>1152.76</ele>
        <time>2016-02-24T11:28:47Z</time>
      </trkpt>
      <trkpt lat="44.65015" lon="3.19304">
        <ele>1152.76</ele>
        <time>2016-02-24T11:28:53Z</time>
      </trkpt>
      <trkpt lat="44.65019" lon="3.19304">
        <ele>1152.76</ele>
        <time>2016-02-24T11:28:58Z</time>
      </trkpt>
      <trkpt lat="44.65022" lon="3.19304">
        <ele>1153.24</ele>
        <time>2016-02-24T11:28:59Z</time>
      </trkpt>
      <trkpt lat="44.65024" lon="3.19304">
        <ele>1153.24</ele>
        <time>2016-02-24T11:29:00Z</time>
      </trkpt>
      <trkpt lat="44.65029" lon="3.19306">
        <ele>1153.72</ele>
        <time>2016-02-24T11:29:03Z</time>
      </trkpt>
      <trkpt lat="44.6503" lon="3.19307">
        <ele>1154.2</ele>
        <time>2016-02-24T11:29:04Z</time>
      </trkpt>
      <trkpt lat="44.65032" lon="3.19307">
        <ele>1154.2</ele>
        <time>2016-02-24T11:29:05Z</time>
      </trkpt>
      <trkpt lat="44.65034" lon="3.19308">
        <ele>1154.68</ele>
        <time>2016-02-24T11:29:06Z</time>
      </trkpt>
      <trkpt lat="44.65036" lon="3.1931">
        <ele>1154.68</ele>
        <time>2016-02-24T11:29:07Z</time>
      </trkpt>
      <trkpt lat="44.65038" lon="3.19312">
        <ele>1154.68</ele>
        <time>2016-02-24T11:29:08Z</time>
      </trkpt>
      <trkpt lat="44.65039" lon="3.19313">
        <ele>1154.68</ele>
        <time>2016-02-24T11:29:09Z</time>
      </trkpt>
      <trkpt lat="44.65064" lon="3.1934">
        <ele>1154.2</ele>
        <time>2016-02-24T11:29:21Z</time>
      </trkpt>
      <trkpt lat="44.65075" lon="3.19367">
        <ele>1152.76</ele>
        <time>2016-02-24T11:29:28Z</time>
      </trkpt>
      <trkpt lat="44.65074" lon="3.19414">
        <ele>1151.8</ele>
        <time>2016-02-24T11:29:38Z</time>
      </trkpt>
      <trkpt lat="44.65073" lon="3.19419">
        <ele>1151.8</ele>
        <time>2016-02-24T11:29:40Z</time>
      </trkpt>
      <trkpt lat="44.65071" lon="3.19427">
        <ele>1151.32</ele>
        <time>2016-02-24T11:29:44Z</time>
      </trkpt>
      <trkpt lat="44.65072" lon="3.19429">
        <ele>1151.32</ele>
        <time>2016-02-24T11:29:45Z</time>
      </trkpt>
      <trkpt lat="44.65073" lon="3.19431">
        <ele>1151.32</ele>
        <time>2016-02-24T11:29:46Z</time>
      </trkpt>
      <trkpt lat="44.65072" lon="3.19438">
        <ele>1151.32</ele>
        <time>2016-02-24T11:30:02Z</time>
      </trkpt>
      <trkpt lat="44.65072" lon="3.19439">
        <ele>1151.32</ele>
        <time>2016-02-24T11:30:38Z</time>
      </trkpt>
      <trkpt lat="44.65071" lon="3.19448">
        <ele>1151.32</ele>
        <time>2016-02-24T11:30:57Z</time>
      </trkpt>
      <trkpt lat="44.65071" lon="3.19452">
        <ele>1150.84</ele>
        <time>2016-02-24T11:30:58Z</time>
      </trkpt>
      <trkpt lat="44.65071" lon="3.19457">
        <ele>1150.35</ele>
        <time>2016-02-24T11:30:59Z</time>
      </trkpt>
      <trkpt lat="44.65071" lon="3.19487">
        <ele>1148.43</ele>
        <time>2016-02-24T11:31:03Z</time>
      </trkpt>
      <trkpt lat="44.65073" lon="3.19496">
        <ele>1147.47</ele>
        <time>2016-02-24T11:31:04Z</time>
      </trkpt>
      <trkpt lat="44.65076" lon="3.19504">
        <ele>1146.99</ele>
        <time>2016-02-24T11:31:05Z</time>
      </trkpt>
      <trkpt lat="44.6508" lon="3.19513">
        <ele>1146.03</ele>
        <time>2016-02-24T11:31:06Z</time>
      </trkpt>
      <trkpt lat="44.65085" lon="3.19521">
        <ele>1145.55</ele>
        <time>2016-02-24T11:31:07Z</time>
      </trkpt>
      <trkpt lat="44.6509" lon="3.19528">
        <ele>1145.07</ele>
        <time>2016-02-24T11:31:08Z</time>
      </trkpt>
      <trkpt lat="44.65096" lon="3.19536">
        <ele>1144.59</ele>
        <time>2016-02-24T11:31:09Z</time>
      </trkpt>
      <trkpt lat="44.6512" lon="3.19565">
        <ele>1142.18</ele>
        <time>2016-02-24T11:31:13Z</time>
      </trkpt>
      <trkpt lat="44.65161" lon="3.19601">
        <ele>1138.82</ele>
        <time>2016-02-24T11:31:19Z</time>
      </trkpt>
      <trkpt lat="44.65187" lon="3.19616">
        <ele>1139.3</ele>
        <time>2016-02-24T11:31:24Z</time>
      </trkpt>
      <trkpt lat="44.65187" lon="3.19617">
        <ele>1139.78</ele>
        <time>2016-02-24T11:31:25Z</time>
      </trkpt>
      <trkpt lat="44.65187" lon="3.19617">
        <ele>1139.3</ele>
        <time>2016-02-24T11:31:38Z</time>
      </trkpt>
      <trkpt lat="44.65178" lon="3.1962">
        <ele>1137.38</ele>
        <time>2016-02-24T11:31:43Z</time>
      </trkpt>
      <trkpt lat="44.65174" lon="3.1962">
        <ele>1136.9</ele>
        <time>2016-02-24T11:31:44Z</time>
      </trkpt>
      <trkpt lat="44.65166" lon="3.19622">
        <ele>1135.45</ele>
        <time>2016-02-24T11:31:46Z</time>
      </trkpt>
      <trkpt lat="44.65161" lon="3.19622">
        <ele>1134.97</ele>
        <time>2016-02-24T11:31:47Z</time>
      </trkpt>
      <trkpt lat="44.65156" lon="3.19623">
        <ele>1134.97</ele>
        <time>2016-02-24T11:31:48Z</time>
      </trkpt>
      <trkpt lat="44.65151" lon="3.19625">
        <ele>1134.49</ele>
        <time>2016-02-24T11:31:49Z</time>
      </trkpt>
      <trkpt lat="44.65146" lon="3.19629">
        <ele>1134.01</ele>
        <time>2016-02-24T11:31:50Z</time>
      </trkpt>
      <trkpt lat="44.65143" lon="3.19633">
        <ele>1133.53</ele>
        <time>2016-02-24T11:31:51Z</time>
      </trkpt>
      <trkpt lat="44.65142" lon="3.19637">
        <ele>1134.01</ele>
        <time>2016-02-24T11:31:52Z</time>
      </trkpt>
      <trkpt lat="44.65142" lon="3.19643">
        <ele>1133.53</ele>
        <time>2016-02-24T11:31:53Z</time>
      </trkpt>
      <trkpt lat="44.65142" lon="3.19649">
        <ele>1132.57</ele>
        <time>2016-02-24T11:31:54Z</time>
      </trkpt>
      <trkpt lat="44.65141" lon="3.19655">
        <ele>1131.61</ele>
        <time>2016-02-24T11:31:55Z</time>
      </trkpt>
      <trkpt lat="44.65138" lon="3.19661">
        <ele>1130.65</ele>
        <time>2016-02-24T11:31:56Z</time>
      </trkpt>
      <trkpt lat="44.65134" lon="3.19667">
        <ele>1130.17</ele>
        <time>2016-02-24T11:31:57Z</time>
      </trkpt>
      <trkpt lat="44.65131" lon="3.19674">
        <ele>1129.69</ele>
        <time>2016-02-24T11:31:58Z</time>
      </trkpt>
      <trkpt lat="44.65121" lon="3.19694">
        <ele>1127.76</ele>
        <time>2016-02-24T11:32:01Z</time>
      </trkpt>
      <trkpt lat="44.65103" lon="3.19728">
        <ele>1125.84</ele>
        <time>2016-02-24T11:32:10Z</time>
      </trkpt>
      <trkpt lat="44.65102" lon="3.1973">
        <ele>1126.8</ele>
        <time>2016-02-24T11:32:20Z</time>
      </trkpt>
      <trkpt lat="44.65101" lon="3.19733">
        <ele>1126.8</ele>
        <time>2016-02-24T11:32:21Z</time>
      </trkpt>
      <trkpt lat="44.651" lon="3.19735">
        <ele>1126.32</ele>
        <time>2016-02-24T11:32:22Z</time>
      </trkpt>
      <trkpt lat="44.65098" lon="3.19738">
        <ele>1126.32</ele>
        <time>2016-02-24T11:32:23Z</time>
      </trkpt>
      <trkpt lat="44.65096" lon="3.1974">
        <ele>1126.8</ele>
        <time>2016-02-24T11:32:24Z</time>
      </trkpt>
      <trkpt lat="44.65094" lon="3.19743">
        <ele>1125.84</ele>
        <time>2016-02-24T11:32:25Z</time>
      </trkpt>
      <trkpt lat="44.65093" lon="3.19746">
        <ele>1125.36</ele>
        <time>2016-02-24T11:32:26Z</time>
      </trkpt>
      <trkpt lat="44.65091" lon="3.19748">
        <ele>1125.36</ele>
        <time>2016-02-24T11:32:27Z</time>
      </trkpt>
      <trkpt lat="44.65089" lon="3.19751">
        <ele>1125.36</ele>
        <time>2016-02-24T11:32:28Z</time>
      </trkpt>
      <trkpt lat="44.65088" lon="3.19753">
        <ele>1125.36</ele>
        <time>2016-02-24T11:32:29Z</time>
      </trkpt>
      <trkpt lat="44.65065" lon="3.1979">
        <ele>1123.44</ele>
        <time>2016-02-24T11:32:42Z</time>
      </trkpt>
      <trkpt lat="44.65045" lon="3.19821">
        <ele>1122.48</ele>
        <time>2016-02-24T11:32:54Z</time>
      </trkpt>
      <trkpt lat="44.65023" lon="3.1986">
        <ele>1123.44</ele>
        <time>2016-02-24T11:33:06Z</time>
      </trkpt>
      <trkpt lat="44.65011" lon="3.19883">
        <ele>1124.88</ele>
        <time>2016-02-24T11:33:15Z</time>
      </trkpt>
      <trkpt lat="44.64995" lon="3.1991">
        <ele>1127.28</ele>
        <time>2016-02-24T11:33:26Z</time>
      </trkpt>
      <trkpt lat="44.64979" lon="3.19934">
        <ele>1128.73</ele>
        <time>2016-02-24T11:33:35Z</time>
      </trkpt>
      <trkpt lat="44.64978" lon="3.19935">
        <ele>1129.21</ele>
        <time>2016-02-24T11:33:36Z</time>
      </trkpt>
      <trkpt lat="44.64977" lon="3.19937">
        <ele>1129.21</ele>
        <time>2016-02-24T11:33:37Z</time>
      </trkpt>
      <trkpt lat="44.64976" lon="3.19939">
        <ele>1129.69</ele>
        <time>2016-02-24T11:33:38Z</time>
      </trkpt>
      <trkpt lat="44.64975" lon="3.19941">
        <ele>1129.69</ele>
        <time>2016-02-24T11:33:39Z</time>
      </trkpt>
      <trkpt lat="44.64973" lon="3.19943">
        <ele>1130.17</ele>
        <time>2016-02-24T11:33:40Z</time>
      </trkpt>
      <trkpt lat="44.64948" lon="3.19971">
        <ele>1132.57</ele>
        <time>2016-02-24T11:33:52Z</time>
      </trkpt>
      <trkpt lat="44.6493" lon="3.1999">
        <ele>1134.01</ele>
        <time>2016-02-24T11:34:02Z</time>
      </trkpt>
      <trkpt lat="44.64907" lon="3.20017">
        <ele>1136.42</ele>
        <time>2016-02-24T11:34:17Z</time>
      </trkpt>
      <trkpt lat="44.64897" lon="3.2004">
        <ele>1137.38</ele>
        <time>2016-02-24T11:34:29Z</time>
      </trkpt>
      <trkpt lat="44.64896" lon="3.20043">
        <ele>1137.38</ele>
        <time>2016-02-24T11:34:30Z</time>
      </trkpt>
      <trkpt lat="44.64895" lon="3.20047">
        <ele>1136.42</ele>
        <time>2016-02-24T11:34:32Z</time>
      </trkpt>
      <trkpt lat="44.64892" lon="3.20073">
        <ele>1138.34</ele>
        <time>2016-02-24T11:34:45Z</time>
      </trkpt>
      <trkpt lat="44.6489" lon="3.20131">
        <ele>1138.34</ele>
        <time>2016-02-24T11:35:00Z</time>
      </trkpt>
      <trkpt lat="44.6488" lon="3.20194">
        <ele>1138.34</ele>
        <time>2016-02-24T11:35:14Z</time>
      </trkpt>
      <trkpt lat="44.64863" lon="3.20271">
        <ele>1139.3</ele>
        <time>2016-02-24T11:35:29Z</time>
      </trkpt>
      <trkpt lat="44.64858" lon="3.20292">
        <ele>1139.78</ele>
        <time>2016-02-24T11:35:33Z</time>
      </trkpt>
      <trkpt lat="44.64833" lon="3.20384">
        <ele>1138.34</ele>
        <time>2016-02-24T11:35:46Z</time>
      </trkpt>
      <trkpt lat="44.64815" lon="3.20463">
        <ele>1137.86</ele>
        <time>2016-02-24T11:35:53Z</time>
      </trkpt>
      <trkpt lat="44.64812" lon="3.20542">
        <ele>1135.94</ele>
        <time>2016-02-24T11:35:59Z</time>
      </trkpt>
      <trkpt lat="44.64811" lon="3.20555">
        <ele>1135.94</ele>
        <time>2016-02-24T11:36:00Z</time>
      </trkpt>
      <trkpt lat="44.64809" lon="3.20567">
        <ele>1135.94</ele>
        <time>2016-02-24T11:36:01Z</time>
      </trkpt>
      <trkpt lat="44.64806" lon="3.20579">
        <ele>1135.45</ele>
        <time>2016-02-24T11:36:02Z</time>
      </trkpt>
      <trkpt lat="44.64802" lon="3.2059">
        <ele>1135.45</ele>
        <time>2016-02-24T11:36:03Z</time>
      </trkpt>
      <trkpt lat="44.64797" lon="3.20601">
        <ele>1135.45</ele>
        <time>2016-02-24T11:36:04Z</time>
      </trkpt>
      <trkpt lat="44.64791" lon="3.20611">
        <ele>1135.45</ele>
        <time>2016-02-24T11:36:05Z</time>
      </trkpt>
      <trkpt lat="44.64785" lon="3.20621">
        <ele>1135.45</ele>
        <time>2016-02-24T11:36:06Z</time>
      </trkpt>
      <trkpt lat="44.64759" lon="3.20665">
        <ele>1133.53</ele>
        <time>2016-02-24T11:36:10Z</time>
      </trkpt>
      <trkpt lat="44.64712" lon="3.20733">
        <ele>1131.13</ele>
        <time>2016-02-24T11:36:17Z</time>
      </trkpt>
      <trkpt lat="44.64704" lon="3.2074">
        <ele>1130.65</ele>
        <time>2016-02-24T11:36:18Z</time>
      </trkpt>
      <trkpt lat="44.64696" lon="3.20745">
        <ele>1130.65</ele>
        <time>2016-02-24T11:36:19Z</time>
      </trkpt>
      <trkpt lat="44.64687" lon="3.20749">
        <ele>1131.13</ele>
        <time>2016-02-24T11:36:20Z</time>
      </trkpt>
      <trkpt lat="44.64678" lon="3.20752">
        <ele>1130.65</ele>
        <time>2016-02-24T11:36:21Z</time>
      </trkpt>
      <trkpt lat="44.64669" lon="3.20754">
        <ele>1131.13</ele>
        <time>2016-02-24T11:36:22Z</time>
      </trkpt>
      <trkpt lat="44.64597" lon="3.20777">
        <ele>1130.65</ele>
        <time>2016-02-24T11:36:31Z</time>
      </trkpt>
      <trkpt lat="44.64527" lon="3.20777">
        <ele>1133.05</ele>
        <time>2016-02-24T11:36:44Z</time>
      </trkpt>
      <trkpt lat="44.6451" lon="3.20774">
        <ele>1134.97</ele>
        <time>2016-02-24T11:36:54Z</time>
      </trkpt>
      <trkpt lat="44.64508" lon="3.20773">
        <ele>1134.49</ele>
        <time>2016-02-24T11:37:15Z</time>
      </trkpt>
      <trkpt lat="44.64509" lon="3.20772">
        <ele>1134.49</ele>
        <time>2016-02-24T11:37:38Z</time>
      </trkpt>
      <trkpt lat="44.64509" lon="3.20772">
        <ele>1134.49</ele>
        <time>2016-02-24T11:38:09Z</time>
      </trkpt>
      <trkpt lat="44.64508" lon="3.20772">
        <ele>1134.49</ele>
        <time>2016-02-24T11:38:37Z</time>
      </trkpt>
      <trkpt lat="44.64507" lon="3.20773">
        <ele>1134.97</ele>
        <time>2016-02-24T11:39:04Z</time>
      </trkpt>
      <trkpt lat="44.64505" lon="3.20774">
        <ele>1134.97</ele>
        <time>2016-02-24T11:39:05Z</time>
      </trkpt>
      <trkpt lat="44.64504" lon="3.20776">
        <ele>1134.97</ele>
        <time>2016-02-24T11:39:06Z</time>
      </trkpt>
      <trkpt lat="44.64502" lon="3.20778">
        <ele>1134.97</ele>
        <time>2016-02-24T11:39:07Z</time>
      </trkpt>
      <trkpt lat="44.645" lon="3.2078">
        <ele>1134.97</ele>
        <time>2016-02-24T11:39:08Z</time>
      </trkpt>
      <trkpt lat="44.64498" lon="3.20782">
        <ele>1134.97</ele>
        <time>2016-02-24T11:39:09Z</time>
      </trkpt>
      <trkpt lat="44.64472" lon="3.2082">
        <ele>1135.94</ele>
        <time>2016-02-24T11:39:23Z</time>
      </trkpt>
      <trkpt lat="44.64476" lon="3.20845">
        <ele>1136.9</ele>
        <time>2016-02-24T11:39:31Z</time>
      </trkpt>
      <trkpt lat="44.64477" lon="3.20846">
        <ele>1136.9</ele>
        <time>2016-02-24T11:39:32Z</time>
      </trkpt>
      <trkpt lat="44.64477" lon="3.20846">
        <ele>1136.9</ele>
        <time>2016-02-24T11:39:45Z</time>
      </trkpt>
      <trkpt lat="44.64477" lon="3.20846">
        <ele>1136.9</ele>
        <time>2016-02-24T11:40:10Z</time>
      </trkpt>
      <trkpt lat="44.64478" lon="3.20847">
        <ele>1136.9</ele>
        <time>2016-02-24T11:40:11Z</time>
      </trkpt>
      <trkpt lat="44.6448" lon="3.2085">
        <ele>1136.9</ele>
        <time>2016-02-24T11:40:13Z</time>
      </trkpt>
      <trkpt lat="44.64481" lon="3.20852">
        <ele>1136.9</ele>
        <time>2016-02-24T11:40:14Z</time>
      </trkpt>
      <trkpt lat="44.64482" lon="3.20855">
        <ele>1136.9</ele>
        <time>2016-02-24T11:40:15Z</time>
      </trkpt>
      <trkpt lat="44.64485" lon="3.20862">
        <ele>1137.86</ele>
        <time>2016-02-24T11:40:19Z</time>
      </trkpt>
      <trkpt lat="44.64487" lon="3.20866">
        <ele>1138.34</ele>
        <time>2016-02-24T11:40:22Z</time>
      </trkpt>
      <trkpt lat="44.64488" lon="3.20868">
        <ele>1138.34</ele>
        <time>2016-02-24T11:40:23Z</time>
      </trkpt>
      <trkpt lat="44.64489" lon="3.2087">
        <ele>1138.34</ele>
        <time>2016-02-24T11:40:24Z</time>
      </trkpt>
      <trkpt lat="44.64498" lon="3.20888">
        <ele>1139.3</ele>
        <time>2016-02-24T11:40:32Z</time>
      </trkpt>
      <trkpt lat="44.64502" lon="3.20894">
        <ele>1139.3</ele>
        <time>2016-02-24T11:40:35Z</time>
      </trkpt>
      <trkpt lat="44.64508" lon="3.20903">
        <ele>1140.26</ele>
        <time>2016-02-24T11:40:41Z</time>
      </trkpt>
      <trkpt lat="44.64508" lon="3.20904">
        <ele>1139.78</ele>
        <time>2016-02-24T11:40:42Z</time>
      </trkpt>
      <trkpt lat="44.64507" lon="3.20917">
        <ele>1135.45</ele>
        <time>2016-02-24T11:40:47Z</time>
      </trkpt>
      <trkpt lat="44.64506" lon="3.20919">
        <ele>1144.11</ele>
        <time>2016-02-24T11:40:48Z</time>
      </trkpt>
      <trkpt lat="44.64505" lon="3.2092">
        <ele>1141.22</ele>
        <time>2016-02-24T11:40:49Z</time>
      </trkpt>
      <trkpt lat="44.64504" lon="3.20922">
        <ele>1140.74</ele>
        <time>2016-02-24T11:40:50Z</time>
      </trkpt>
      <trkpt lat="44.64503" lon="3.20927">
        <ele>1140.74</ele>
        <time>2016-02-24T11:40:52Z</time>
      </trkpt>
      <trkpt lat="44.64503" lon="3.2093">
        <ele>1141.22</ele>
        <time>2016-02-24T11:40:53Z</time>
      </trkpt>
      <trkpt lat="44.64502" lon="3.20933">
        <ele>1141.7</ele>
        <time>2016-02-24T11:40:54Z</time>
      </trkpt>
      <trkpt lat="44.64499" lon="3.2094">
        <ele>1141.7</ele>
        <time>2016-02-24T11:40:57Z</time>
      </trkpt>
      <trkpt lat="44.64498" lon="3.20942">
        <ele>1141.7</ele>
        <time>2016-02-24T11:40:58Z</time>
      </trkpt>
      <trkpt lat="44.6449" lon="3.2097">
        <ele>1142.66</ele>
        <time>2016-02-24T11:41:10Z</time>
      </trkpt>
      <trkpt lat="44.64487" lon="3.20983">
        <ele>1143.14</ele>
        <time>2016-02-24T11:41:16Z</time>
      </trkpt>
      <trkpt lat="44.64487" lon="3.20985">
        <ele>1143.14</ele>
        <time>2016-02-24T11:41:17Z</time>
      </trkpt>
      <trkpt lat="44.64486" lon="3.20987">
        <ele>1143.14</ele>
        <time>2016-02-24T11:41:18Z</time>
      </trkpt>
      <trkpt lat="44.64485" lon="3.20988">
        <ele>1143.14</ele>
        <time>2016-02-24T11:41:19Z</time>
      </trkpt>
      <trkpt lat="44.64484" lon="3.2099">
        <ele>1143.14</ele>
        <time>2016-02-24T11:41:20Z</time>
      </trkpt>
      <trkpt lat="44.64482" lon="3.20994">
        <ele>1143.14</ele>
        <time>2016-02-24T11:41:22Z</time>
      </trkpt>
      <trkpt lat="44.64482" lon="3.20996">
        <ele>1143.63</ele>
        <time>2016-02-24T11:41:23Z</time>
      </trkpt>
      <trkpt lat="44.64481" lon="3.20997">
        <ele>1143.63</ele>
        <time>2016-02-24T11:41:24Z</time>
      </trkpt>
      <trkpt lat="44.6448" lon="3.20999">
        <ele>1143.63</ele>
        <time>2016-02-24T11:41:25Z</time>
      </trkpt>
      <trkpt lat="44.64479" lon="3.21001">
        <ele>1143.63</ele>
        <time>2016-02-24T11:41:26Z</time>
      </trkpt>
      <trkpt lat="44.64479" lon="3.21003">
        <ele>1143.63</ele>
        <time>2016-02-24T11:41:27Z</time>
      </trkpt>
      <trkpt lat="44.64478" lon="3.21005">
        <ele>1144.11</ele>
        <time>2016-02-24T11:41:41Z</time>
      </trkpt>
      <trkpt lat="44.64473" lon="3.21028">
        <ele>1143.14</ele>
        <time>2016-02-24T11:41:52Z</time>
      </trkpt>
      <trkpt lat="44.64467" lon="3.21045">
        <ele>1142.66</ele>
        <time>2016-02-24T11:41:58Z</time>
      </trkpt>
      <trkpt lat="44.64466" lon="3.21048">
        <ele>1142.18</ele>
        <time>2016-02-24T11:41:59Z</time>
      </trkpt>
      <trkpt lat="44.64444" lon="3.21076">
        <ele>1140.26</ele>
        <time>2016-02-24T11:42:06Z</time>
      </trkpt>
      <trkpt lat="44.64443" lon="3.21083">
        <ele>1139.78</ele>
        <time>2016-02-24T11:42:07Z</time>
      </trkpt>
      <trkpt lat="44.64442" lon="3.21089">
        <ele>1139.78</ele>
        <time>2016-02-24T11:42:08Z</time>
      </trkpt>
      <trkpt lat="44.64443" lon="3.21103">
        <ele>1139.78</ele>
        <time>2016-02-24T11:42:10Z</time>
      </trkpt>
      <trkpt lat="44.64444" lon="3.21111">
        <ele>1139.3</ele>
        <time>2016-02-24T11:42:11Z</time>
      </trkpt>
      <trkpt lat="44.64445" lon="3.21117">
        <ele>1138.82</ele>
        <time>2016-02-24T11:42:12Z</time>
      </trkpt>
      <trkpt lat="44.64447" lon="3.21123">
        <ele>1138.82</ele>
        <time>2016-02-24T11:42:13Z</time>
      </trkpt>
      <trkpt lat="44.6445" lon="3.21128">
        <ele>1138.82</ele>
        <time>2016-02-24T11:42:14Z</time>
      </trkpt>
      <trkpt lat="44.64452" lon="3.21133">
        <ele>1138.82</ele>
        <time>2016-02-24T11:42:15Z</time>
      </trkpt>
      <trkpt lat="44.64458" lon="3.21143">
        <ele>1138.34</ele>
        <time>2016-02-24T11:42:17Z</time>
      </trkpt>
      <trkpt lat="44.6446" lon="3.21148">
        <ele>1138.34</ele>
        <time>2016-02-24T11:42:18Z</time>
      </trkpt>
      <trkpt lat="44.64472" lon="3.21169">
        <ele>1138.34</ele>
        <time>2016-02-24T11:42:22Z</time>
      </trkpt>
      <trkpt lat="44.64474" lon="3.21175">
        <ele>1138.34</ele>
        <time>2016-02-24T11:42:23Z</time>
      </trkpt>
      <trkpt lat="44.64475" lon="3.2118">
        <ele>1138.34</ele>
        <time>2016-02-24T11:42:24Z</time>
      </trkpt>
      <trkpt lat="44.64476" lon="3.21184">
        <ele>1138.34</ele>
        <time>2016-02-24T11:42:25Z</time>
      </trkpt>
      <trkpt lat="44.64477" lon="3.2119">
        <ele>1138.34</ele>
        <time>2016-02-24T11:42:26Z</time>
      </trkpt>
      <trkpt lat="44.64483" lon="3.21225">
        <ele>1138.34</ele>
        <time>2016-02-24T11:42:32Z</time>
      </trkpt>
      <trkpt lat="44.64493" lon="3.21262">
        <ele>1137.38</ele>
        <time>2016-02-24T11:42:38Z</time>
      </trkpt>
      <trkpt lat="44.64493" lon="3.2127">
        <ele>1137.38</ele>
        <time>2016-02-24T11:42:39Z</time>
      </trkpt>
      <trkpt lat="44.64493" lon="3.21277">
        <ele>1136.9</ele>
        <time>2016-02-24T11:42:40Z</time>
      </trkpt>
      <trkpt lat="44.64492" lon="3.21284">
        <ele>1136.9</ele>
        <time>2016-02-24T11:42:41Z</time>
      </trkpt>
      <trkpt lat="44.64492" lon="3.21292">
        <ele>1136.9</ele>
        <time>2016-02-24T11:42:42Z</time>
      </trkpt>
      <trkpt lat="44.64492" lon="3.213">
        <ele>1136.42</ele>
        <time>2016-02-24T11:42:43Z</time>
      </trkpt>
      <trkpt lat="44.64492" lon="3.21309">
        <ele>1135.94</ele>
        <time>2016-02-24T11:42:44Z</time>
      </trkpt>
      <trkpt lat="44.64493" lon="3.21319">
        <ele>1135.45</ele>
        <time>2016-02-24T11:42:45Z</time>
      </trkpt>
      <trkpt lat="44.64494" lon="3.2134">
        <ele>1134.49</ele>
        <time>2016-02-24T11:42:47Z</time>
      </trkpt>
      <trkpt lat="44.64498" lon="3.21371">
        <ele>1133.05</ele>
        <time>2016-02-24T11:42:50Z</time>
      </trkpt>
      <trkpt lat="44.64501" lon="3.2138">
        <ele>1133.05</ele>
        <time>2016-02-24T11:42:51Z</time>
      </trkpt>
      <trkpt lat="44.64505" lon="3.21389">
        <ele>1132.57</ele>
        <time>2016-02-24T11:42:52Z</time>
      </trkpt>
      <trkpt lat="44.64511" lon="3.21395">
        <ele>1132.57</ele>
        <time>2016-02-24T11:42:53Z</time>
      </trkpt>
      <trkpt lat="44.64517" lon="3.214">
        <ele>1132.57</ele>
        <time>2016-02-24T11:42:54Z</time>
      </trkpt>
      <trkpt lat="44.64523" lon="3.21405">
        <ele>1132.09</ele>
        <time>2016-02-24T11:42:55Z</time>
      </trkpt>
      <trkpt lat="44.64545" lon="3.21421">
        <ele>1131.61</ele>
        <time>2016-02-24T11:42:59Z</time>
      </trkpt>
      <trkpt lat="44.6461" lon="3.21442">
        <ele>1132.09</ele>
        <time>2016-02-24T11:43:12Z</time>
      </trkpt>
      <trkpt lat="44.64681" lon="3.2145">
        <ele>1131.13</ele>
        <time>2016-02-24T11:43:26Z</time>
      </trkpt>
      <trkpt lat="44.64685" lon="3.21453">
        <ele>1131.13</ele>
        <time>2016-02-24T11:43:27Z</time>
      </trkpt>
      <trkpt lat="44.6469" lon="3.21456">
        <ele>1130.65</ele>
        <time>2016-02-24T11:43:28Z</time>
      </trkpt>
      <trkpt lat="44.64715" lon="3.21469">
        <ele>1131.13</ele>
        <time>2016-02-24T11:43:33Z</time>
      </trkpt>
      <trkpt lat="44.6472" lon="3.21472">
        <ele>1130.65</ele>
        <time>2016-02-24T11:43:34Z</time>
      </trkpt>
      <trkpt lat="44.64729" lon="3.21478">
        <ele>1131.13</ele>
        <time>2016-02-24T11:43:36Z</time>
      </trkpt>
      <trkpt lat="44.64734" lon="3.21482">
        <ele>1131.13</ele>
        <time>2016-02-24T11:43:37Z</time>
      </trkpt>
      <trkpt lat="44.6475" lon="3.21497">
        <ele>1131.13</ele>
        <time>2016-02-24T11:43:41Z</time>
      </trkpt>
      <trkpt lat="44.64754" lon="3.21501">
        <ele>1131.13</ele>
        <time>2016-02-24T11:43:42Z</time>
      </trkpt>
      <trkpt lat="44.64758" lon="3.21504">
        <ele>1131.61</ele>
        <time>2016-02-24T11:43:43Z</time>
      </trkpt>
      <trkpt lat="44.64762" lon="3.21509">
        <ele>1131.61</ele>
        <time>2016-02-24T11:43:44Z</time>
      </trkpt>
      <trkpt lat="44.64767" lon="3.21514">
        <ele>1131.61</ele>
        <time>2016-02-24T11:43:45Z</time>
      </trkpt>
      <trkpt lat="44.64816" lon="3.21563">
        <ele>1129.21</ele>
        <time>2016-02-24T11:43:55Z</time>
      </trkpt>
      <trkpt lat="44.64837" lon="3.21588">
        <ele>1128.24</ele>
        <time>2016-02-24T11:43:59Z</time>
      </trkpt>
      <trkpt lat="44.64845" lon="3.21597">
        <ele>1128.24</ele>
        <time>2016-02-24T11:44:01Z</time>
      </trkpt>
      <trkpt lat="44.64873" lon="3.21618">
        <ele>1127.28</ele>
        <time>2016-02-24T11:44:11Z</time>
      </trkpt>
      <trkpt lat="44.64878" lon="3.21617">
        <ele>1125.84</ele>
        <time>2016-02-24T11:44:12Z</time>
      </trkpt>
      <trkpt lat="44.64887" lon="3.21613">
        <ele>1124.88</ele>
        <time>2016-02-24T11:44:14Z</time>
      </trkpt>
      <trkpt lat="44.64892" lon="3.21611">
        <ele>1124.4</ele>
        <time>2016-02-24T11:44:15Z</time>
      </trkpt>
      <trkpt lat="44.649" lon="3.21606">
        <ele>1124.4</ele>
        <time>2016-02-24T11:44:17Z</time>
      </trkpt>
      <trkpt lat="44.64918" lon="3.21596">
        <ele>1122.96</ele>
        <time>2016-02-24T11:44:23Z</time>
      </trkpt>
      <trkpt lat="44.64922" lon="3.21597">
        <ele>1122.48</ele>
        <time>2016-02-24T11:44:24Z</time>
      </trkpt>
      <trkpt lat="44.64927" lon="3.21599">
        <ele>1122</ele>
        <time>2016-02-24T11:44:25Z</time>
      </trkpt>
      <trkpt lat="44.64932" lon="3.21603">
        <ele>1122</ele>
        <time>2016-02-24T11:44:26Z</time>
      </trkpt>
      <trkpt lat="44.64937" lon="3.21607">
        <ele>1122.48</ele>
        <time>2016-02-24T11:44:27Z</time>
      </trkpt>
      <trkpt lat="44.64941" lon="3.21611">
        <ele>1122.48</ele>
        <time>2016-02-24T11:44:28Z</time>
      </trkpt>
      <trkpt lat="44.6496" lon="3.21632">
        <ele>1122.48</ele>
        <time>2016-02-24T11:44:33Z</time>
      </trkpt>
      <trkpt lat="44.64977" lon="3.21661">
        <ele>1123.44</ele>
        <time>2016-02-24T11:44:39Z</time>
      </trkpt>
      <trkpt lat="44.64978" lon="3.21667">
        <ele>1123.44</ele>
        <time>2016-02-24T11:44:40Z</time>
      </trkpt>
      <trkpt lat="44.64979" lon="3.21673">
        <ele>1123.92</ele>
        <time>2016-02-24T11:44:41Z</time>
      </trkpt>
      <trkpt lat="44.64978" lon="3.2168">
        <ele>1123.44</ele>
        <time>2016-02-24T11:44:42Z</time>
      </trkpt>
      <trkpt lat="44.64977" lon="3.21686">
        <ele>1123.44</ele>
        <time>2016-02-24T11:44:43Z</time>
      </trkpt>
      <trkpt lat="44.64975" lon="3.21691">
        <ele>1123.44</ele>
        <time>2016-02-24T11:44:44Z</time>
      </trkpt>
      <trkpt lat="44.64973" lon="3.21697">
        <ele>1123.44</ele>
        <time>2016-02-24T11:44:45Z</time>
      </trkpt>
      <trkpt lat="44.6497" lon="3.21702">
        <ele>1123.44</ele>
        <time>2016-02-24T11:44:46Z</time>
      </trkpt>
      <trkpt lat="44.6496" lon="3.21722">
        <ele>1122.96</ele>
        <time>2016-02-24T11:44:50Z</time>
      </trkpt>
      <trkpt lat="44.64958" lon="3.21726">
        <ele>1122.96</ele>
        <time>2016-02-24T11:44:51Z</time>
      </trkpt>
      <trkpt lat="44.64955" lon="3.21729">
        <ele>1123.44</ele>
        <time>2016-02-24T11:44:52Z</time>
      </trkpt>
      <trkpt lat="44.64936" lon="3.21748">
        <ele>1123.44</ele>
        <time>2016-02-24T11:44:58Z</time>
      </trkpt>
      <trkpt lat="44.64892" lon="3.21793">
        <ele>1124.88</ele>
        <time>2016-02-24T11:45:12Z</time>
      </trkpt>
      <trkpt lat="44.64864" lon="3.2184">
        <ele>1125.84</ele>
        <time>2016-02-24T11:45:26Z</time>
      </trkpt>
      <trkpt lat="44.64834" lon="3.21859">
        <ele>1125.84</ele>
        <time>2016-02-24T11:45:38Z</time>
      </trkpt>
      <trkpt lat="44.64832" lon="3.21865">
        <ele>1125.36</ele>
        <time>2016-02-24T11:45:39Z</time>
      </trkpt>
      <trkpt lat="44.6483" lon="3.21871">
        <ele>1124.88</ele>
        <time>2016-02-24T11:45:40Z</time>
      </trkpt>
      <trkpt lat="44.64827" lon="3.21877">
        <ele>1123.92</ele>
        <time>2016-02-24T11:45:41Z</time>
      </trkpt>
      <trkpt lat="44.64824" lon="3.21883">
        <ele>1122.48</ele>
        <time>2016-02-24T11:45:42Z</time>
      </trkpt>
      <trkpt lat="44.6482" lon="3.21889">
        <ele>1122</ele>
        <time>2016-02-24T11:45:43Z</time>
      </trkpt>
      <trkpt lat="44.64813" lon="3.219">
        <ele>1121.03</ele>
        <time>2016-02-24T11:45:45Z</time>
      </trkpt>
      <trkpt lat="44.64812" lon="3.21902">
        <ele>1121.52</ele>
        <time>2016-02-24T11:45:46Z</time>
      </trkpt>
      <trkpt lat="44.64813" lon="3.21904">
        <ele>1121.52</ele>
        <time>2016-02-24T11:45:47Z</time>
      </trkpt>
      <trkpt lat="44.64815" lon="3.21905">
        <ele>1121.52</ele>
        <time>2016-02-24T11:45:48Z</time>
      </trkpt>
      <trkpt lat="44.64816" lon="3.21905">
        <ele>1121.52</ele>
        <time>2016-02-24T11:45:49Z</time>
      </trkpt>
      <trkpt lat="44.64818" lon="3.21905">
        <ele>1121.03</ele>
        <time>2016-02-24T11:45:50Z</time>
      </trkpt>
      <trkpt lat="44.64821" lon="3.21904">
        <ele>1120.55</ele>
        <time>2016-02-24T11:45:51Z</time>
      </trkpt>
      <trkpt lat="44.64824" lon="3.21905">
        <ele>1120.07</ele>
        <time>2016-02-24T11:45:52Z</time>
      </trkpt>
      <trkpt lat="44.64827" lon="3.21908">
        <ele>1119.59</ele>
        <time>2016-02-24T11:45:53Z</time>
      </trkpt>
      <trkpt lat="44.64832" lon="3.21912">
        <ele>1118.63</ele>
        <time>2016-02-24T11:45:54Z</time>
      </trkpt>
      <trkpt lat="44.64838" lon="3.21918">
        <ele>1117.67</ele>
        <time>2016-02-24T11:45:55Z</time>
      </trkpt>
      <trkpt lat="44.64844" lon="3.21923">
        <ele>1116.71</ele>
        <time>2016-02-24T11:45:56Z</time>
      </trkpt>
      <trkpt lat="44.64851" lon="3.21925">
        <ele>1115.75</ele>
        <time>2016-02-24T11:45:57Z</time>
      </trkpt>
      <trkpt lat="44.64859" lon="3.21925">
        <ele>1115.27</ele>
        <time>2016-02-24T11:45:58Z</time>
      </trkpt>
      <trkpt lat="44.64866" lon="3.21924">
        <ele>1114.31</ele>
        <time>2016-02-24T11:45:59Z</time>
      </trkpt>
      <trkpt lat="44.6492" lon="3.21915">
        <ele>1111.9</ele>
        <time>2016-02-24T11:46:06Z</time>
      </trkpt>
      <trkpt lat="44.64927" lon="3.21914">
        <ele>1111.42</ele>
        <time>2016-02-24T11:46:07Z</time>
      </trkpt>
      <trkpt lat="44.64935" lon="3.21912">
        <ele>1111.42</ele>
        <time>2016-02-24T11:46:08Z</time>
      </trkpt>
      <trkpt lat="44.64941" lon="3.21909">
        <ele>1111.42</ele>
        <time>2016-02-24T11:46:09Z</time>
      </trkpt>
      <trkpt lat="44.64948" lon="3.21904">
        <ele>1110.46</ele>
        <time>2016-02-24T11:46:10Z</time>
      </trkpt>
      <trkpt lat="44.64954" lon="3.21898">
        <ele>1109.98</ele>
        <time>2016-02-24T11:46:11Z</time>
      </trkpt>
      <trkpt lat="44.6496" lon="3.21892">
        <ele>1109.98</ele>
        <time>2016-02-24T11:46:12Z</time>
      </trkpt>
      <trkpt lat="44.64964" lon="3.21885">
        <ele>1109.98</ele>
        <time>2016-02-24T11:46:13Z</time>
      </trkpt>
      <trkpt lat="44.64969" lon="3.21878">
        <ele>1109.98</ele>
        <time>2016-02-24T11:46:14Z</time>
      </trkpt>
      <trkpt lat="44.64987" lon="3.21846">
        <ele>1108.54</ele>
        <time>2016-02-24T11:46:18Z</time>
      </trkpt>
      <trkpt lat="44.64997" lon="3.2183">
        <ele>1108.06</ele>
        <time>2016-02-24T11:46:20Z</time>
      </trkpt>
      <trkpt lat="44.65004" lon="3.21825">
        <ele>1107.1</ele>
        <time>2016-02-24T11:46:21Z</time>
      </trkpt>
      <trkpt lat="44.6501" lon="3.21822">
        <ele>1106.61</ele>
        <time>2016-02-24T11:46:22Z</time>
      </trkpt>
      <trkpt lat="44.65017" lon="3.21823">
        <ele>1105.65</ele>
        <time>2016-02-24T11:46:23Z</time>
      </trkpt>
      <trkpt lat="44.65023" lon="3.21828">
        <ele>1104.69</ele>
        <time>2016-02-24T11:46:24Z</time>
      </trkpt>
      <trkpt lat="44.65028" lon="3.21836">
        <ele>1103.25</ele>
        <time>2016-02-24T11:46:25Z</time>
      </trkpt>
      <trkpt lat="44.65032" lon="3.21846">
        <ele>1102.77</ele>
        <time>2016-02-24T11:46:26Z</time>
      </trkpt>
      <trkpt lat="44.65035" lon="3.21857">
        <ele>1101.33</ele>
        <time>2016-02-24T11:46:27Z</time>
      </trkpt>
      <trkpt lat="44.65046" lon="3.21896">
        <ele>1095.08</ele>
        <time>2016-02-24T11:46:30Z</time>
      </trkpt>
      <trkpt lat="44.65048" lon="3.21911">
        <ele>1094.12</ele>
        <time>2016-02-24T11:46:31Z</time>
      </trkpt>
      <trkpt lat="44.65048" lon="3.21927">
        <ele>1093.16</ele>
        <time>2016-02-24T11:46:32Z</time>
      </trkpt>
      <trkpt lat="44.65048" lon="3.21959">
        <ele>1090.27</ele>
        <time>2016-02-24T11:46:34Z</time>
      </trkpt>
      <trkpt lat="44.6505" lon="3.21974">
        <ele>1089.79</ele>
        <time>2016-02-24T11:46:35Z</time>
      </trkpt>
      <trkpt lat="44.65053" lon="3.21987">
        <ele>1088.83</ele>
        <time>2016-02-24T11:46:36Z</time>
      </trkpt>
      <trkpt lat="44.65058" lon="3.21998">
        <ele>1088.35</ele>
        <time>2016-02-24T11:46:37Z</time>
      </trkpt>
      <trkpt lat="44.65064" lon="3.22007">
        <ele>1087.87</ele>
        <time>2016-02-24T11:46:38Z</time>
      </trkpt>
      <trkpt lat="44.65072" lon="3.22013">
        <ele>1087.39</ele>
        <time>2016-02-24T11:46:39Z</time>
      </trkpt>
      <trkpt lat="44.6508" lon="3.22017">
        <ele>1087.39</ele>
        <time>2016-02-24T11:46:40Z</time>
      </trkpt>
      <trkpt lat="44.65128" lon="3.22037">
        <ele>1085.95</ele>
        <time>2016-02-24T11:46:46Z</time>
      </trkpt>
      <trkpt lat="44.65134" lon="3.22043">
        <ele>1085.95</ele>
        <time>2016-02-24T11:46:47Z</time>
      </trkpt>
      <trkpt lat="44.65141" lon="3.22049">
        <ele>1086.43</ele>
        <time>2016-02-24T11:46:48Z</time>
      </trkpt>
      <trkpt lat="44.6516" lon="3.22072">
        <ele>1084.99</ele>
        <time>2016-02-24T11:46:51Z</time>
      </trkpt>
      <trkpt lat="44.65185" lon="3.22107">
        <ele>1083.54</ele>
        <time>2016-02-24T11:46:55Z</time>
      </trkpt>
      <trkpt lat="44.65189" lon="3.22119">
        <ele>1082.58</ele>
        <time>2016-02-24T11:46:56Z</time>
      </trkpt>
      <trkpt lat="44.6519" lon="3.2213">
        <ele>1082.1</ele>
        <time>2016-02-24T11:46:57Z</time>
      </trkpt>
      <trkpt lat="44.65191" lon="3.22142">
        <ele>1082.1</ele>
        <time>2016-02-24T11:46:58Z</time>
      </trkpt>
      <trkpt lat="44.65191" lon="3.22153">
        <ele>1081.62</ele>
        <time>2016-02-24T11:46:59Z</time>
      </trkpt>
      <trkpt lat="44.65191" lon="3.22164">
        <ele>1081.62</ele>
        <time>2016-02-24T11:47:00Z</time>
      </trkpt>
      <trkpt lat="44.65192" lon="3.22185">
        <ele>1082.58</ele>
        <time>2016-02-24T11:47:02Z</time>
      </trkpt>
      <trkpt lat="44.65193" lon="3.22194">
        <ele>1083.06</ele>
        <time>2016-02-24T11:47:03Z</time>
      </trkpt>
      <trkpt lat="44.65192" lon="3.22201">
        <ele>1083.54</ele>
        <time>2016-02-24T11:47:04Z</time>
      </trkpt>
      <trkpt lat="44.65192" lon="3.22206">
        <ele>1083.54</ele>
        <time>2016-02-24T11:47:05Z</time>
      </trkpt>
      <trkpt lat="44.65194" lon="3.2221">
        <ele>1083.54</ele>
        <time>2016-02-24T11:47:06Z</time>
      </trkpt>
      <trkpt lat="44.65197" lon="3.22212">
        <ele>1083.54</ele>
        <time>2016-02-24T11:47:07Z</time>
      </trkpt>
      <trkpt lat="44.652" lon="3.22212">
        <ele>1083.06</ele>
        <time>2016-02-24T11:47:08Z</time>
      </trkpt>
      <trkpt lat="44.65203" lon="3.22211">
        <ele>1083.06</ele>
        <time>2016-02-24T11:47:09Z</time>
      </trkpt>
      <trkpt lat="44.65207" lon="3.2221">
        <ele>1083.06</ele>
        <time>2016-02-24T11:47:10Z</time>
      </trkpt>
      <trkpt lat="44.65209" lon="3.2221">
        <ele>1083.54</ele>
        <time>2016-02-24T11:47:11Z</time>
      </trkpt>
      <trkpt lat="44.65212" lon="3.22211">
        <ele>1083.06</ele>
        <time>2016-02-24T11:47:12Z</time>
      </trkpt>
      <trkpt lat="44.65215" lon="3.22212">
        <ele>1083.06</ele>
        <time>2016-02-24T11:47:13Z</time>
      </trkpt>
      <trkpt lat="44.65217" lon="3.22214">
        <ele>1083.06</ele>
        <time>2016-02-24T11:47:14Z</time>
      </trkpt>
      <trkpt lat="44.65219" lon="3.22215">
        <ele>1083.54</ele>
        <time>2016-02-24T11:47:15Z</time>
      </trkpt>
      <trkpt lat="44.65224" lon="3.22221">
        <ele>1084.5</ele>
        <time>2016-02-24T11:47:18Z</time>
      </trkpt>
      <trkpt lat="44.65225" lon="3.22223">
        <ele>1084.02</ele>
        <time>2016-02-24T11:47:19Z</time>
      </trkpt>
      <trkpt lat="44.65225" lon="3.22225">
        <ele>1084.5</ele>
        <time>2016-02-24T11:47:20Z</time>
      </trkpt>
      <trkpt lat="44.65226" lon="3.22226">
        <ele>1084.5</ele>
        <time>2016-02-24T11:47:21Z</time>
      </trkpt>
      <trkpt lat="44.65228" lon="3.22228">
        <ele>1084.5</ele>
        <time>2016-02-24T11:47:22Z</time>
      </trkpt>
      <trkpt lat="44.65229" lon="3.22229">
        <ele>1084.5</ele>
        <time>2016-02-24T11:47:23Z</time>
      </trkpt>
      <trkpt lat="44.6525" lon="3.22234">
        <ele>1084.5</ele>
        <time>2016-02-24T11:47:36Z</time>
      </trkpt>
      <trkpt lat="44.65265" lon="3.22236">
        <ele>1085.95</ele>
        <time>2016-02-24T11:47:45Z</time>
      </trkpt>
      <trkpt lat="44.65267" lon="3.22237">
        <ele>1085.95</ele>
        <time>2016-02-24T11:47:46Z</time>
      </trkpt>
      <trkpt lat="44.65268" lon="3.22237">
        <ele>1085.95</ele>
        <time>2016-02-24T11:47:47Z</time>
      </trkpt>
      <trkpt lat="44.6527" lon="3.22237">
        <ele>1085.95</ele>
        <time>2016-02-24T11:47:48Z</time>
      </trkpt>
      <trkpt lat="44.65272" lon="3.22237">
        <ele>1086.43</ele>
        <time>2016-02-24T11:47:49Z</time>
      </trkpt>
      <trkpt lat="44.65275" lon="3.22236">
        <ele>1086.91</ele>
        <time>2016-02-24T11:48:04Z</time>
      </trkpt>
      <trkpt lat="44.65275" lon="3.22236">
        <ele>1086.91</ele>
        <time>2016-02-24T11:48:30Z</time>
      </trkpt>
      <trkpt lat="44.65276" lon="3.22236">
        <ele>1086.91</ele>
        <time>2016-02-24T11:48:58Z</time>
      </trkpt>
      <trkpt lat="44.65276" lon="3.22236">
        <ele>1086.91</ele>
        <time>2016-02-24T11:49:24Z</time>
      </trkpt>
      <trkpt lat="44.65276" lon="3.22237">
        <ele>1086.91</ele>
        <time>2016-02-24T11:49:55Z</time>
      </trkpt>
      <trkpt lat="44.65276" lon="3.22237">
        <ele>1086.91</ele>
        <time>2016-02-24T11:50:29Z</time>
      </trkpt>
      <trkpt lat="44.65275" lon="3.22237">
        <ele>1086.91</ele>
        <time>2016-02-24T11:50:59Z</time>
      </trkpt>
      <trkpt lat="44.65275" lon="3.22236">
        <ele>1086.91</ele>
        <time>2016-02-24T11:51:27Z</time>
      </trkpt>
      <trkpt lat="44.65275" lon="3.22236">
        <ele>1086.91</ele>
        <time>2016-02-24T11:51:48Z</time>
      </trkpt>
      <trkpt lat="44.65278" lon="3.22238">
        <ele>1086.91</ele>
        <time>2016-02-24T11:51:52Z</time>
      </trkpt>
      <trkpt lat="44.6528" lon="3.22239">
        <ele>1086.91</ele>
        <time>2016-02-24T11:51:53Z</time>
      </trkpt>
      <trkpt lat="44.65283" lon="3.2224">
        <ele>1087.39</ele>
        <time>2016-02-24T11:51:54Z</time>
      </trkpt>
      <trkpt lat="44.65286" lon="3.22239">
        <ele>1087.39</ele>
        <time>2016-02-24T11:51:55Z</time>
      </trkpt>
      <trkpt lat="44.65288" lon="3.22239">
        <ele>1087.39</ele>
        <time>2016-02-24T11:51:56Z</time>
      </trkpt>
      <trkpt lat="44.65293" lon="3.22239">
        <ele>1088.35</ele>
        <time>2016-02-24T11:51:59Z</time>
      </trkpt>
      <trkpt lat="44.65295" lon="3.22239">
        <ele>1088.35</ele>
        <time>2016-02-24T11:52:00Z</time>
      </trkpt>
      <trkpt lat="44.65296" lon="3.22239">
        <ele>1088.35</ele>
        <time>2016-02-24T11:52:01Z</time>
      </trkpt>
      <trkpt lat="44.65298" lon="3.22239">
        <ele>1088.83</ele>
        <time>2016-02-24T11:52:02Z</time>
      </trkpt>
      <trkpt lat="44.653" lon="3.22239">
        <ele>1088.83</ele>
        <time>2016-02-24T11:52:03Z</time>
      </trkpt>
      <trkpt lat="44.65302" lon="3.22239">
        <ele>1088.83</ele>
        <time>2016-02-24T11:52:04Z</time>
      </trkpt>
      <trkpt lat="44.65303" lon="3.22239">
        <ele>1089.31</ele>
        <time>2016-02-24T11:52:05Z</time>
      </trkpt>
      <trkpt lat="44.65326" lon="3.22245">
        <ele>1090.75</ele>
        <time>2016-02-24T11:52:17Z</time>
      </trkpt>
      <trkpt lat="44.65351" lon="3.22263">
        <ele>1092.68</ele>
        <time>2016-02-24T11:52:30Z</time>
      </trkpt>
      <trkpt lat="44.65367" lon="3.2228">
        <ele>1092.68</ele>
        <time>2016-02-24T11:52:38Z</time>
      </trkpt>
      <trkpt lat="44.65368" lon="3.22282">
        <ele>1092.68</ele>
        <time>2016-02-24T11:52:39Z</time>
      </trkpt>
      <trkpt lat="44.65396" lon="3.22318">
        <ele>1094.12</ele>
        <time>2016-02-24T11:52:53Z</time>
      </trkpt>
      <trkpt lat="44.65419" lon="3.22347">
        <ele>1094.6</ele>
        <time>2016-02-24T11:53:05Z</time>
      </trkpt>
      <trkpt lat="44.65439" lon="3.22373">
        <ele>1095.56</ele>
        <time>2016-02-24T11:53:19Z</time>
      </trkpt>
      <trkpt lat="44.6545" lon="3.22392">
        <ele>1096.04</ele>
        <time>2016-02-24T11:53:30Z</time>
      </trkpt>
      <trkpt lat="44.6545" lon="3.22394">
        <ele>1096.52</ele>
        <time>2016-02-24T11:53:31Z</time>
      </trkpt>
      <trkpt lat="44.65449" lon="3.22397">
        <ele>1096.04</ele>
        <time>2016-02-24T11:53:32Z</time>
      </trkpt>
      <trkpt lat="44.65448" lon="3.22399">
        <ele>1096.52</ele>
        <time>2016-02-24T11:53:33Z</time>
      </trkpt>
      <trkpt lat="44.65447" lon="3.224">
        <ele>1096.52</ele>
        <time>2016-02-24T11:53:34Z</time>
      </trkpt>
      <trkpt lat="44.65446" lon="3.22401">
        <ele>1097</ele>
        <time>2016-02-24T11:53:35Z</time>
      </trkpt>
      <trkpt lat="44.65445" lon="3.22403">
        <ele>1097</ele>
        <time>2016-02-24T11:53:36Z</time>
      </trkpt>
      <trkpt lat="44.65445" lon="3.22405">
        <ele>1097</ele>
        <time>2016-02-24T11:53:37Z</time>
      </trkpt>
      <trkpt lat="44.65444" lon="3.22407">
        <ele>1097</ele>
        <time>2016-02-24T11:53:38Z</time>
      </trkpt>
      <trkpt lat="44.65436" lon="3.22435">
        <ele>1099.89</ele>
        <time>2016-02-24T11:53:53Z</time>
      </trkpt>
      <trkpt lat="44.6543" lon="3.22456">
        <ele>1102.29</ele>
        <time>2016-02-24T11:54:06Z</time>
      </trkpt>
      <trkpt lat="44.65428" lon="3.22459">
        <ele>1102.29</ele>
        <time>2016-02-24T11:54:08Z</time>
      </trkpt>
      <trkpt lat="44.65425" lon="3.22468">
        <ele>1103.25</ele>
        <time>2016-02-24T11:54:14Z</time>
      </trkpt>
      <trkpt lat="44.65423" lon="3.22472">
        <ele>1103.73</ele>
        <time>2016-02-24T11:54:16Z</time>
      </trkpt>
      <trkpt lat="44.65422" lon="3.22473">
        <ele>1103.73</ele>
        <time>2016-02-24T11:54:17Z</time>
      </trkpt>
      <trkpt lat="44.65419" lon="3.2248">
        <ele>1104.21</ele>
        <time>2016-02-24T11:54:21Z</time>
      </trkpt>
      <trkpt lat="44.65411" lon="3.22506">
        <ele>1107.58</ele>
        <time>2016-02-24T11:54:36Z</time>
      </trkpt>
      <trkpt lat="44.65402" lon="3.22525">
        <ele>1110.94</ele>
        <time>2016-02-24T11:54:48Z</time>
      </trkpt>
      <trkpt lat="44.654" lon="3.22528">
        <ele>1110.94</ele>
        <time>2016-02-24T11:54:50Z</time>
      </trkpt>
      <trkpt lat="44.65399" lon="3.2253">
        <ele>1111.42</ele>
        <time>2016-02-24T11:54:51Z</time>
      </trkpt>
      <trkpt lat="44.65391" lon="3.22548">
        <ele>1114.31</ele>
        <time>2016-02-24T11:55:02Z</time>
      </trkpt>
      <trkpt lat="44.65381" lon="3.22571">
        <ele>1116.23</ele>
        <time>2016-02-24T11:55:15Z</time>
      </trkpt>
      <trkpt lat="44.65379" lon="3.22575">
        <ele>1116.71</ele>
        <time>2016-02-24T11:55:18Z</time>
      </trkpt>
      <trkpt lat="44.65377" lon="3.22578">
        <ele>1116.71</ele>
        <time>2016-02-24T11:55:20Z</time>
      </trkpt>
      <trkpt lat="44.65377" lon="3.22579">
        <ele>1116.71</ele>
        <time>2016-02-24T11:55:21Z</time>
      </trkpt>
      <trkpt lat="44.65376" lon="3.22581">
        <ele>1116.71</ele>
        <time>2016-02-24T11:55:22Z</time>
      </trkpt>
      <trkpt lat="44.65376" lon="3.22583">
        <ele>1116.71</ele>
        <time>2016-02-24T11:55:23Z</time>
      </trkpt>
      <trkpt lat="44.65375" lon="3.22584">
        <ele>1117.19</ele>
        <time>2016-02-24T11:55:24Z</time>
      </trkpt>
      <trkpt lat="44.65375" lon="3.22586">
        <ele>1117.19</ele>
        <time>2016-02-24T11:55:25Z</time>
      </trkpt>
      <trkpt lat="44.65374" lon="3.22587">
        <ele>1117.19</ele>
        <time>2016-02-24T11:55:26Z</time>
      </trkpt>
      <trkpt lat="44.65374" lon="3.22589">
        <ele>1117.19</ele>
        <time>2016-02-24T11:55:27Z</time>
      </trkpt>
      <trkpt lat="44.65372" lon="3.226">
        <ele>1118.63</ele>
        <time>2016-02-24T11:55:41Z</time>
      </trkpt>
      <trkpt lat="44.65372" lon="3.226">
        <ele>1114.79</ele>
        <time>2016-02-24T11:55:52Z</time>
      </trkpt>
      <trkpt lat="44.65372" lon="3.226">
        <ele>1123.44</ele>
        <time>2016-02-24T11:55:53Z</time>
      </trkpt>
      <trkpt lat="44.65372" lon="3.226">
        <ele>1119.11</ele>
        <time>2016-02-24T11:55:54Z</time>
      </trkpt>
      <trkpt lat="44.65372" lon="3.226">
        <ele>1118.15</ele>
        <time>2016-02-24T11:55:56Z</time>
      </trkpt>
      <trkpt lat="44.65372" lon="3.226">
        <ele>1118.63</ele>
        <time>2016-02-24T11:56:21Z</time>
      </trkpt>
      <trkpt lat="44.65372" lon="3.22601">
        <ele>1118.63</ele>
        <time>2016-02-24T11:56:51Z</time>
      </trkpt>
      <trkpt lat="44.65376" lon="3.2261">
        <ele>1119.59</ele>
        <time>2016-02-24T11:56:57Z</time>
      </trkpt>
      <trkpt lat="44.65377" lon="3.22611">
        <ele>1119.11</ele>
        <time>2016-02-24T11:56:58Z</time>
      </trkpt>
      <trkpt lat="44.65378" lon="3.22611">
        <ele>1119.59</ele>
        <time>2016-02-24T11:56:59Z</time>
      </trkpt>
      <trkpt lat="44.65379" lon="3.22611">
        <ele>1120.07</ele>
        <time>2016-02-24T11:57:00Z</time>
      </trkpt>
      <trkpt lat="44.65387" lon="3.22608">
        <ele>1121.03</ele>
        <time>2016-02-24T11:57:08Z</time>
      </trkpt>
      <trkpt lat="44.65388" lon="3.22607">
        <ele>1121.03</ele>
        <time>2016-02-24T11:57:09Z</time>
      </trkpt>
      <trkpt lat="44.65389" lon="3.22606">
        <ele>1121.03</ele>
        <time>2016-02-24T11:57:10Z</time>
      </trkpt>
      <trkpt lat="44.65391" lon="3.22605">
        <ele>1121.52</ele>
        <time>2016-02-24T11:57:11Z</time>
      </trkpt>
      <trkpt lat="44.65393" lon="3.22604">
        <ele>1121.52</ele>
        <time>2016-02-24T11:57:12Z</time>
      </trkpt>
      <trkpt lat="44.65415" lon="3.22599">
        <ele>1121.52</ele>
        <time>2016-02-24T11:57:24Z</time>
      </trkpt>
      <trkpt lat="44.65419" lon="3.22603">
        <ele>1121.03</ele>
        <time>2016-02-24T11:57:27Z</time>
      </trkpt>
      <trkpt lat="44.65421" lon="3.22603">
        <ele>1121.03</ele>
        <time>2016-02-24T11:57:28Z</time>
      </trkpt>
      <trkpt lat="44.65422" lon="3.22601">
        <ele>1121.03</ele>
        <time>2016-02-24T11:57:29Z</time>
      </trkpt>
      <trkpt lat="44.65422" lon="3.22599">
        <ele>1121.03</ele>
        <time>2016-02-24T11:57:30Z</time>
      </trkpt>
      <trkpt lat="44.65423" lon="3.22597">
        <ele>1121.03</ele>
        <time>2016-02-24T11:57:31Z</time>
      </trkpt>
      <trkpt lat="44.65423" lon="3.22595">
        <ele>1121.03</ele>
        <time>2016-02-24T11:57:32Z</time>
      </trkpt>
      <trkpt lat="44.65421" lon="3.22594">
        <ele>1120.55</ele>
        <time>2016-02-24T11:57:36Z</time>
      </trkpt>
      <trkpt lat="44.6542" lon="3.22595">
        <ele>1120.55</ele>
        <time>2016-02-24T11:57:37Z</time>
      </trkpt>
      <trkpt lat="44.65418" lon="3.22595">
        <ele>1120.55</ele>
        <time>2016-02-24T11:57:38Z</time>
      </trkpt>
      <trkpt lat="44.65417" lon="3.22595">
        <ele>1120.55</ele>
        <time>2016-02-24T11:57:39Z</time>
      </trkpt>
      <trkpt lat="44.65415" lon="3.22595">
        <ele>1120.55</ele>
        <time>2016-02-24T11:57:40Z</time>
      </trkpt>
      <trkpt lat="44.65413" lon="3.22595">
        <ele>1121.03</ele>
        <time>2016-02-24T11:57:41Z</time>
      </trkpt>
      <trkpt lat="44.65411" lon="3.22595">
        <ele>1121.03</ele>
        <time>2016-02-24T11:57:42Z</time>
      </trkpt>
      <trkpt lat="44.65388" lon="3.22606">
        <ele>1121.03</ele>
        <time>2016-02-24T11:57:56Z</time>
      </trkpt>
      <trkpt lat="44.65381" lon="3.2264">
        <ele>1121.03</ele>
        <time>2016-02-24T11:58:06Z</time>
      </trkpt>
      <trkpt lat="44.6538" lon="3.22642">
        <ele>1121.52</ele>
        <time>2016-02-24T11:58:07Z</time>
      </trkpt>
      <trkpt lat="44.6538" lon="3.22644">
        <ele>1121.52</ele>
        <time>2016-02-24T11:58:08Z</time>
      </trkpt>
      <trkpt lat="44.6538" lon="3.22646">
        <ele>1121.52</ele>
        <time>2016-02-24T11:58:09Z</time>
      </trkpt>
      <trkpt lat="44.65381" lon="3.22647">
        <ele>1121.52</ele>
        <time>2016-02-24T11:58:10Z</time>
      </trkpt>
      <trkpt lat="44.65378" lon="3.22651">
        <ele>1121.52</ele>
        <time>2016-02-24T11:58:14Z</time>
      </trkpt>
      <trkpt lat="44.65377" lon="3.22653">
        <ele>1121.52</ele>
        <time>2016-02-24T11:58:15Z</time>
      </trkpt>
      <trkpt lat="44.65377" lon="3.22655">
        <ele>1121.52</ele>
        <time>2016-02-24T11:58:16Z</time>
      </trkpt>
      <trkpt lat="44.65376" lon="3.22657">
        <ele>1121.52</ele>
        <time>2016-02-24T11:58:17Z</time>
      </trkpt>
      <trkpt lat="44.65376" lon="3.2266">
        <ele>1121.03</ele>
        <time>2016-02-24T11:58:18Z</time>
      </trkpt>
      <trkpt lat="44.65372" lon="3.22679">
        <ele>1120.55</ele>
        <time>2016-02-24T11:58:29Z</time>
      </trkpt>
      <trkpt lat="44.65371" lon="3.22681">
        <ele>1120.07</ele>
        <time>2016-02-24T11:58:35Z</time>
      </trkpt>
      <trkpt lat="44.6537" lon="3.22684">
        <ele>1120.07</ele>
        <time>2016-02-24T11:58:36Z</time>
      </trkpt>
      <trkpt lat="44.65369" lon="3.22688">
        <ele>1119.59</ele>
        <time>2016-02-24T11:58:37Z</time>
      </trkpt>
      <trkpt lat="44.65368" lon="3.22693">
        <ele>1119.59</ele>
        <time>2016-02-24T11:58:38Z</time>
      </trkpt>
      <trkpt lat="44.65366" lon="3.22697">
        <ele>1119.59</ele>
        <time>2016-02-24T11:58:39Z</time>
      </trkpt>
      <trkpt lat="44.65356" lon="3.22713">
        <ele>1118.15</ele>
        <time>2016-02-24T11:58:43Z</time>
      </trkpt>
      <trkpt lat="44.65342" lon="3.22727">
        <ele>1116.71</ele>
        <time>2016-02-24T11:58:47Z</time>
      </trkpt>
      <trkpt lat="44.65333" lon="3.22752">
        <ele>1117.67</ele>
        <time>2016-02-24T11:58:56Z</time>
      </trkpt>
      <trkpt lat="44.65333" lon="3.22752">
        <ele>1117.67</ele>
        <time>2016-02-24T11:59:30Z</time>
      </trkpt>
      <trkpt lat="44.65333" lon="3.22751">
        <ele>1117.67</ele>
        <time>2016-02-24T12:00:06Z</time>
      </trkpt>
      <trkpt lat="44.65332" lon="3.22751">
        <ele>1118.15</ele>
        <time>2016-02-24T12:00:40Z</time>
      </trkpt>
      <trkpt lat="44.65332" lon="3.22752">
        <ele>1118.15</ele>
        <time>2016-02-24T12:01:09Z</time>
      </trkpt>
      <trkpt lat="44.65332" lon="3.22752">
        <ele>1117.67</ele>
        <time>2016-02-24T12:01:41Z</time>
      </trkpt>
      <trkpt lat="44.65332" lon="3.22752">
        <ele>1114.79</ele>
        <time>2016-02-24T12:01:57Z</time>
      </trkpt>
      <trkpt lat="44.65332" lon="3.22752">
        <ele>1120.07</ele>
        <time>2016-02-24T12:01:58Z</time>
      </trkpt>
      <trkpt lat="44.65332" lon="3.22752">
        <ele>1114.31</ele>
        <time>2016-02-24T12:02:01Z</time>
      </trkpt>
      <trkpt lat="44.65332" lon="3.22752">
        <ele>1122</ele>
        <time>2016-02-24T12:02:02Z</time>
      </trkpt>
      <trkpt lat="44.65332" lon="3.22752">
        <ele>1118.15</ele>
        <time>2016-02-24T12:02:03Z</time>
      </trkpt>
      <trkpt lat="44.65333" lon="3.22751">
        <ele>1117.67</ele>
        <time>2016-02-24T12:02:12Z</time>
      </trkpt>
      <trkpt lat="44.65334" lon="3.22748">
        <ele>1118.15</ele>
        <time>2016-02-24T12:02:22Z</time>
      </trkpt>
      <trkpt lat="44.65334" lon="3.22745">
        <ele>1117.67</ele>
        <time>2016-02-24T12:02:23Z</time>
      </trkpt>
      <trkpt lat="44.65335" lon="3.22743">
        <ele>1117.67</ele>
        <time>2016-02-24T12:02:24Z</time>
      </trkpt>
      <trkpt lat="44.65335" lon="3.2274">
        <ele>1117.67</ele>
        <time>2016-02-24T12:02:25Z</time>
      </trkpt>
      <trkpt lat="44.65336" lon="3.22737">
        <ele>1117.19</ele>
        <time>2016-02-24T12:02:26Z</time>
      </trkpt>
      <trkpt lat="44.65353" lon="3.22717">
        <ele>1117.67</ele>
        <time>2016-02-24T12:02:37Z</time>
      </trkpt>
      <trkpt lat="44.65371" lon="3.22685">
        <ele>1120.55</ele>
        <time>2016-02-24T12:02:52Z</time>
      </trkpt>
      <trkpt lat="44.65375" lon="3.22675">
        <ele>1121.03</ele>
        <time>2016-02-24T12:03:00Z</time>
      </trkpt>
      <trkpt lat="44.65374" lon="3.22677">
        <ele>1121.03</ele>
        <time>2016-02-24T12:03:01Z</time>
      </trkpt>
      <trkpt lat="44.65356" lon="3.22712">
        <ele>1118.63</ele>
        <time>2016-02-24T12:03:11Z</time>
      </trkpt>
      <trkpt lat="44.65352" lon="3.22716">
        <ele>1118.15</ele>
        <time>2016-02-24T12:03:12Z</time>
      </trkpt>
      <trkpt lat="44.65338" lon="3.22732">
        <ele>1116.71</ele>
        <time>2016-02-24T12:03:16Z</time>
      </trkpt>
      <trkpt lat="44.65336" lon="3.22737">
        <ele>1117.19</ele>
        <time>2016-02-24T12:03:17Z</time>
      </trkpt>
      <trkpt lat="44.65334" lon="3.22741">
        <ele>1117.67</ele>
        <time>2016-02-24T12:03:18Z</time>
      </trkpt>
      <trkpt lat="44.65332" lon="3.22746">
        <ele>1117.67</ele>
        <time>2016-02-24T12:03:20Z</time>
      </trkpt>
      <trkpt lat="44.6533" lon="3.22746">
        <ele>1117.67</ele>
        <time>2016-02-24T12:03:22Z</time>
      </trkpt>
      <trkpt lat="44.65331" lon="3.22743">
        <ele>1117.67</ele>
        <time>2016-02-24T12:03:23Z</time>
      </trkpt>
      <trkpt lat="44.65335" lon="3.22738">
        <ele>1117.19</ele>
        <time>2016-02-24T12:03:26Z</time>
      </trkpt>
      <trkpt lat="44.65336" lon="3.22735">
        <ele>1117.67</ele>
        <time>2016-02-24T12:03:27Z</time>
      </trkpt>
      <trkpt lat="44.65337" lon="3.22733">
        <ele>1117.19</ele>
        <time>2016-02-24T12:03:28Z</time>
      </trkpt>
      <trkpt lat="44.65339" lon="3.22731">
        <ele>1117.19</ele>
        <time>2016-02-24T12:03:29Z</time>
      </trkpt>
      <trkpt lat="44.65341" lon="3.22729">
        <ele>1116.71</ele>
        <time>2016-02-24T12:03:30Z</time>
      </trkpt>
      <trkpt lat="44.65343" lon="3.22726">
        <ele>1116.71</ele>
        <time>2016-02-24T12:03:31Z</time>
      </trkpt>
      <trkpt lat="44.65347" lon="3.22723">
        <ele>1116.71</ele>
        <time>2016-02-24T12:03:32Z</time>
      </trkpt>
      <trkpt lat="44.65364" lon="3.22701">
        <ele>1118.15</ele>
        <time>2016-02-24T12:03:37Z</time>
      </trkpt>
      <trkpt lat="44.65366" lon="3.22695">
        <ele>1117.67</ele>
        <time>2016-02-24T12:03:38Z</time>
      </trkpt>
      <trkpt lat="44.65374" lon="3.22669">
        <ele>1120.55</ele>
        <time>2016-02-24T12:03:43Z</time>
      </trkpt>
      <trkpt lat="44.65379" lon="3.22656">
        <ele>1121.03</ele>
        <time>2016-02-24T12:03:46Z</time>
      </trkpt>
      <trkpt lat="44.65383" lon="3.22656">
        <ele>1121.03</ele>
        <time>2016-02-24T12:03:47Z</time>
      </trkpt>
      <trkpt lat="44.65385" lon="3.22658">
        <ele>1122</ele>
        <time>2016-02-24T12:03:48Z</time>
      </trkpt>
      <trkpt lat="44.65386" lon="3.2266">
        <ele>1122.48</ele>
        <time>2016-02-24T12:03:49Z</time>
      </trkpt>
      <trkpt lat="44.65387" lon="3.22663">
        <ele>1122.48</ele>
        <time>2016-02-24T12:03:50Z</time>
      </trkpt>
      <trkpt lat="44.65388" lon="3.22664">
        <ele>1122.48</ele>
        <time>2016-02-24T12:03:51Z</time>
      </trkpt>
      <trkpt lat="44.65388" lon="3.22662">
        <ele>1122.96</ele>
        <time>2016-02-24T12:03:56Z</time>
      </trkpt>
      <trkpt lat="44.65386" lon="3.2266">
        <ele>1122.48</ele>
        <time>2016-02-24T12:03:57Z</time>
      </trkpt>
      <trkpt lat="44.65386" lon="3.22658">
        <ele>1122.48</ele>
        <time>2016-02-24T12:03:58Z</time>
      </trkpt>
      <trkpt lat="44.65386" lon="3.22656">
        <ele>1122.48</ele>
        <time>2016-02-24T12:03:59Z</time>
      </trkpt>
      <trkpt lat="44.65387" lon="3.22655">
        <ele>1122.48</ele>
        <time>2016-02-24T12:04:00Z</time>
      </trkpt>
      <trkpt lat="44.65389" lon="3.22656">
        <ele>1122.48</ele>
        <time>2016-02-24T12:04:01Z</time>
      </trkpt>
      <trkpt lat="44.6539" lon="3.22657">
        <ele>1122.96</ele>
        <time>2016-02-24T12:04:02Z</time>
      </trkpt>
      <trkpt lat="44.65392" lon="3.22659">
        <ele>1122.96</ele>
        <time>2016-02-24T12:04:03Z</time>
      </trkpt>
      <trkpt lat="44.65394" lon="3.2266">
        <ele>1122.96</ele>
        <time>2016-02-24T12:04:04Z</time>
      </trkpt>
      <trkpt lat="44.65395" lon="3.22661">
        <ele>1122.96</ele>
        <time>2016-02-24T12:04:05Z</time>
      </trkpt>
      <trkpt lat="44.65416" lon="3.22676">
        <ele>1124.88</ele>
        <time>2016-02-24T12:04:19Z</time>
      </trkpt>
      <trkpt lat="44.65428" lon="3.22684">
        <ele>1126.32</ele>
        <time>2016-02-24T12:04:27Z</time>
      </trkpt>
      <trkpt lat="44.65429" lon="3.22685">
        <ele>1126.32</ele>
        <time>2016-02-24T12:04:28Z</time>
      </trkpt>
      <trkpt lat="44.65431" lon="3.22687">
        <ele>1126.32</ele>
        <time>2016-02-24T12:04:29Z</time>
      </trkpt>
      <trkpt lat="44.6544" lon="3.22694">
        <ele>1128.24</ele>
        <time>2016-02-24T12:04:35Z</time>
      </trkpt>
      <trkpt lat="44.65442" lon="3.22696">
        <ele>1128.24</ele>
        <time>2016-02-24T12:04:36Z</time>
      </trkpt>
      <trkpt lat="44.65444" lon="3.22698">
        <ele>1128.24</ele>
        <time>2016-02-24T12:04:38Z</time>
      </trkpt>
      <trkpt lat="44.65445" lon="3.22699">
        <ele>1128.73</ele>
        <time>2016-02-24T12:04:39Z</time>
      </trkpt>
      <trkpt lat="44.65446" lon="3.227">
        <ele>1128.73</ele>
        <time>2016-02-24T12:04:40Z</time>
      </trkpt>
      <trkpt lat="44.65447" lon="3.22702">
        <ele>1129.21</ele>
        <time>2016-02-24T12:04:41Z</time>
      </trkpt>
      <trkpt lat="44.65448" lon="3.22703">
        <ele>1129.21</ele>
        <time>2016-02-24T12:04:42Z</time>
      </trkpt>
      <trkpt lat="44.65456" lon="3.22712">
        <ele>1132.09</ele>
        <time>2016-02-24T12:04:52Z</time>
      </trkpt>
      <trkpt lat="44.65457" lon="3.22713">
        <ele>1132.09</ele>
        <time>2016-02-24T12:04:53Z</time>
      </trkpt>
      <trkpt lat="44.65459" lon="3.22714">
        <ele>1133.05</ele>
        <time>2016-02-24T12:04:56Z</time>
      </trkpt>
      <trkpt lat="44.65464" lon="3.22717">
        <ele>1133.53</ele>
        <time>2016-02-24T12:05:01Z</time>
      </trkpt>
      <trkpt lat="44.65477" lon="3.22721">
        <ele>1134.97</ele>
        <time>2016-02-24T12:05:10Z</time>
      </trkpt>
      <trkpt lat="44.6548" lon="3.22721">
        <ele>1134.97</ele>
        <time>2016-02-24T12:05:11Z</time>
      </trkpt>
      <trkpt lat="44.65482" lon="3.22722">
        <ele>1135.45</ele>
        <time>2016-02-24T12:05:12Z</time>
      </trkpt>
      <trkpt lat="44.65484" lon="3.22723">
        <ele>1135.45</ele>
        <time>2016-02-24T12:05:13Z</time>
      </trkpt>
      <trkpt lat="44.65486" lon="3.22724">
        <ele>1135.45</ele>
        <time>2016-02-24T12:05:14Z</time>
      </trkpt>
      <trkpt lat="44.65502" lon="3.22736">
        <ele>1136.9</ele>
        <time>2016-02-24T12:05:27Z</time>
      </trkpt>
      <trkpt lat="44.65514" lon="3.22744">
        <ele>1138.34</ele>
        <time>2016-02-24T12:05:38Z</time>
      </trkpt>
      <trkpt lat="44.65529" lon="3.22754">
        <ele>1139.78</ele>
        <time>2016-02-24T12:05:48Z</time>
      </trkpt>
      <trkpt lat="44.65531" lon="3.22756">
        <ele>1139.78</ele>
        <time>2016-02-24T12:05:49Z</time>
      </trkpt>
      <trkpt lat="44.65545" lon="3.22771">
        <ele>1141.22</ele>
        <time>2016-02-24T12:06:00Z</time>
      </trkpt>
      <trkpt lat="44.65556" lon="3.22787">
        <ele>1141.7</ele>
        <time>2016-02-24T12:06:10Z</time>
      </trkpt>
      <trkpt lat="44.65558" lon="3.22789">
        <ele>1141.7</ele>
        <time>2016-02-24T12:06:11Z</time>
      </trkpt>
      <trkpt lat="44.6556" lon="3.22791">
        <ele>1141.22</ele>
        <time>2016-02-24T12:06:12Z</time>
      </trkpt>
      <trkpt lat="44.65561" lon="3.22793">
        <ele>1141.22</ele>
        <time>2016-02-24T12:06:13Z</time>
      </trkpt>
      <trkpt lat="44.65563" lon="3.22796">
        <ele>1141.22</ele>
        <time>2016-02-24T12:06:14Z</time>
      </trkpt>
      <trkpt lat="44.65565" lon="3.22798">
        <ele>1141.22</ele>
        <time>2016-02-24T12:06:15Z</time>
      </trkpt>
      <trkpt lat="44.65566" lon="3.22801">
        <ele>1141.22</ele>
        <time>2016-02-24T12:06:16Z</time>
      </trkpt>
      <trkpt lat="44.65568" lon="3.22804">
        <ele>1140.74</ele>
        <time>2016-02-24T12:06:17Z</time>
      </trkpt>
      <trkpt lat="44.6557" lon="3.22808">
        <ele>1140.26</ele>
        <time>2016-02-24T12:06:18Z</time>
      </trkpt>
      <trkpt lat="44.65592" lon="3.22849">
        <ele>1137.38</ele>
        <time>2016-02-24T12:06:25Z</time>
      </trkpt>
      <trkpt lat="44.65634" lon="3.2292">
        <ele>1135.45</ele>
        <time>2016-02-24T12:06:37Z</time>
      </trkpt>
      <trkpt lat="44.6567" lon="3.22979">
        <ele>1136.42</ele>
        <time>2016-02-24T12:06:53Z</time>
      </trkpt>
      <trkpt lat="44.65683" lon="3.22994">
        <ele>1137.86</ele>
        <time>2016-02-24T12:07:02Z</time>
      </trkpt>
      <trkpt lat="44.65695" lon="3.22983">
        <ele>1136.9</ele>
        <time>2016-02-24T12:07:09Z</time>
      </trkpt>
      <trkpt lat="44.6573" lon="3.22938">
        <ele>1136.42</ele>
        <time>2016-02-24T12:07:22Z</time>
      </trkpt>
      <trkpt lat="44.65732" lon="3.22934">
        <ele>1136.42</ele>
        <time>2016-02-24T12:07:23Z</time>
      </trkpt>
      <trkpt lat="44.65735" lon="3.2293">
        <ele>1136.42</ele>
        <time>2016-02-24T12:07:24Z</time>
      </trkpt>
      <trkpt lat="44.65768" lon="3.2289">
        <ele>1136.42</ele>
        <time>2016-02-24T12:07:34Z</time>
      </trkpt>
      <trkpt lat="44.65771" lon="3.22886">
        <ele>1136.42</ele>
        <time>2016-02-24T12:07:35Z</time>
      </trkpt>
      <trkpt lat="44.65777" lon="3.22878">
        <ele>1136.42</ele>
        <time>2016-02-24T12:07:37Z</time>
      </trkpt>
      <trkpt lat="44.65823" lon="3.22833">
        <ele>1137.38</ele>
        <time>2016-02-24T12:07:52Z</time>
      </trkpt>
      <trkpt lat="44.65868" lon="3.22813">
        <ele>1138.34</ele>
        <time>2016-02-24T12:08:08Z</time>
      </trkpt>
      <trkpt lat="44.65883" lon="3.2281">
        <ele>1138.34</ele>
        <time>2016-02-24T12:08:18Z</time>
      </trkpt>
      <trkpt lat="44.65883" lon="3.22808">
        <ele>1138.34</ele>
        <time>2016-02-24T12:08:19Z</time>
      </trkpt>
      <trkpt lat="44.65882" lon="3.22807">
        <ele>1138.34</ele>
        <time>2016-02-24T12:08:20Z</time>
      </trkpt>
      <trkpt lat="44.65881" lon="3.22805">
        <ele>1138.34</ele>
        <time>2016-02-24T12:08:21Z</time>
      </trkpt>
      <trkpt lat="44.65881" lon="3.22803">
        <ele>1138.34</ele>
        <time>2016-02-24T12:08:22Z</time>
      </trkpt>
      <trkpt lat="44.65881" lon="3.228">
        <ele>1138.34</ele>
        <time>2016-02-24T12:08:33Z</time>
      </trkpt>
      <trkpt lat="44.65883" lon="3.22799">
        <ele>1138.34</ele>
        <time>2016-02-24T12:08:50Z</time>
      </trkpt>
      <trkpt lat="44.65884" lon="3.22797">
        <ele>1138.82</ele>
        <time>2016-02-24T12:08:51Z</time>
      </trkpt>
      <trkpt lat="44.65886" lon="3.22795">
        <ele>1138.82</ele>
        <time>2016-02-24T12:08:52Z</time>
      </trkpt>
      <trkpt lat="44.65888" lon="3.22792">
        <ele>1138.34</ele>
        <time>2016-02-24T12:08:53Z</time>
      </trkpt>
      <trkpt lat="44.65891" lon="3.2279">
        <ele>1138.34</ele>
        <time>2016-02-24T12:08:54Z</time>
      </trkpt>
      <trkpt lat="44.65894" lon="3.22787">
        <ele>1138.34</ele>
        <time>2016-02-24T12:08:55Z</time>
      </trkpt>
      <trkpt lat="44.65911" lon="3.22765">
        <ele>1139.3</ele>
        <time>2016-02-24T12:09:03Z</time>
      </trkpt>
      <trkpt lat="44.65929" lon="3.22728">
        <ele>1139.3</ele>
        <time>2016-02-24T12:09:16Z</time>
      </trkpt>
      <trkpt lat="44.65954" lon="3.22674">
        <ele>1137.38</ele>
        <time>2016-02-24T12:09:29Z</time>
      </trkpt>
      <trkpt lat="44.65995" lon="3.22602">
        <ele>1135.45</ele>
        <time>2016-02-24T12:09:41Z</time>
      </trkpt>
      <trkpt lat="44.6602" lon="3.22544">
        <ele>1134.97</ele>
        <time>2016-02-24T12:09:50Z</time>
      </trkpt>
      <trkpt lat="44.6603" lon="3.22503">
        <ele>1135.45</ele>
        <time>2016-02-24T12:09:56Z</time>
      </trkpt>
      <trkpt lat="44.66033" lon="3.22491">
        <ele>1135.45</ele>
        <time>2016-02-24T12:09:58Z</time>
      </trkpt>
      <trkpt lat="44.66035" lon="3.22484">
        <ele>1135.45</ele>
        <time>2016-02-24T12:09:59Z</time>
      </trkpt>
      <trkpt lat="44.66042" lon="3.22467">
        <ele>1135.45</ele>
        <time>2016-02-24T12:10:02Z</time>
      </trkpt>
      <trkpt lat="44.66067" lon="3.22415">
        <ele>1135.94</ele>
        <time>2016-02-24T12:10:13Z</time>
      </trkpt>
      <trkpt lat="44.66069" lon="3.22411">
        <ele>1135.94</ele>
        <time>2016-02-24T12:10:14Z</time>
      </trkpt>
      <trkpt lat="44.66087" lon="3.22385">
        <ele>1135.94</ele>
        <time>2016-02-24T12:10:20Z</time>
      </trkpt>
      <trkpt lat="44.6609" lon="3.22381">
        <ele>1135.94</ele>
        <time>2016-02-24T12:10:21Z</time>
      </trkpt>
      <trkpt lat="44.66096" lon="3.22371">
        <ele>1135.94</ele>
        <time>2016-02-24T12:10:23Z</time>
      </trkpt>
      <trkpt lat="44.66101" lon="3.22361">
        <ele>1135.94</ele>
        <time>2016-02-24T12:10:25Z</time>
      </trkpt>
      <trkpt lat="44.66103" lon="3.22356">
        <ele>1135.45</ele>
        <time>2016-02-24T12:10:26Z</time>
      </trkpt>
      <trkpt lat="44.66106" lon="3.2235">
        <ele>1135.45</ele>
        <time>2016-02-24T12:10:27Z</time>
      </trkpt>
      <trkpt lat="44.66122" lon="3.22319">
        <ele>1135.45</ele>
        <time>2016-02-24T12:10:33Z</time>
      </trkpt>
      <trkpt lat="44.66125" lon="3.22314">
        <ele>1135.45</ele>
        <time>2016-02-24T12:10:34Z</time>
      </trkpt>
      <trkpt lat="44.66128" lon="3.2231">
        <ele>1135.94</ele>
        <time>2016-02-24T12:10:35Z</time>
      </trkpt>
      <trkpt lat="44.66157" lon="3.22249">
        <ele>1136.9</ele>
        <time>2016-02-24T12:10:49Z</time>
      </trkpt>
      <trkpt lat="44.66167" lon="3.22226">
        <ele>1136.42</ele>
        <time>2016-02-24T12:10:54Z</time>
      </trkpt>
      <trkpt lat="44.66184" lon="3.22179">
        <ele>1135.45</ele>
        <time>2016-02-24T12:11:02Z</time>
      </trkpt>
      <trkpt lat="44.66187" lon="3.22174">
        <ele>1135.45</ele>
        <time>2016-02-24T12:11:03Z</time>
      </trkpt>
      <trkpt lat="44.66196" lon="3.22148">
        <ele>1135.45</ele>
        <time>2016-02-24T12:11:08Z</time>
      </trkpt>
      <trkpt lat="44.66197" lon="3.22144">
        <ele>1135.94</ele>
        <time>2016-02-24T12:11:09Z</time>
      </trkpt>
      <trkpt lat="44.66199" lon="3.2214">
        <ele>1135.94</ele>
        <time>2016-02-24T12:11:10Z</time>
      </trkpt>
      <trkpt lat="44.66217" lon="3.22084">
        <ele>1135.94</ele>
        <time>2016-02-24T12:11:21Z</time>
      </trkpt>
      <trkpt lat="44.66238" lon="3.21996">
        <ele>1136.9</ele>
        <time>2016-02-24T12:11:36Z</time>
      </trkpt>
      <trkpt lat="44.66257" lon="3.2193">
        <ele>1137.38</ele>
        <time>2016-02-24T12:11:49Z</time>
      </trkpt>
      <trkpt lat="44.66273" lon="3.21869">
        <ele>1138.82</ele>
        <time>2016-02-24T12:12:02Z</time>
      </trkpt>
      <trkpt lat="44.66286" lon="3.21815">
        <ele>1140.74</ele>
        <time>2016-02-24T12:12:14Z</time>
      </trkpt>
      <trkpt lat="44.66308" lon="3.21768">
        <ele>1143.63</ele>
        <time>2016-02-24T12:12:28Z</time>
      </trkpt>
      <trkpt lat="44.66329" lon="3.21741">
        <ele>1145.55</ele>
        <time>2016-02-24T12:12:41Z</time>
      </trkpt>
      <trkpt lat="44.66338" lon="3.21737">
        <ele>1146.03</ele>
        <time>2016-02-24T12:12:45Z</time>
      </trkpt>
      <trkpt lat="44.66339" lon="3.21735">
        <ele>1146.03</ele>
        <time>2016-02-24T12:12:46Z</time>
      </trkpt>
      <trkpt lat="44.66341" lon="3.21734">
        <ele>1146.51</ele>
        <time>2016-02-24T12:12:47Z</time>
      </trkpt>
      <trkpt lat="44.66343" lon="3.21733">
        <ele>1146.51</ele>
        <time>2016-02-24T12:12:48Z</time>
      </trkpt>
      <trkpt lat="44.66345" lon="3.21732">
        <ele>1146.51</ele>
        <time>2016-02-24T12:12:49Z</time>
      </trkpt>
      <trkpt lat="44.66347" lon="3.21732">
        <ele>1146.99</ele>
        <time>2016-02-24T12:12:50Z</time>
      </trkpt>
      <trkpt lat="44.66349" lon="3.21731">
        <ele>1146.99</ele>
        <time>2016-02-24T12:12:51Z</time>
      </trkpt>
      <trkpt lat="44.66385" lon="3.21712">
        <ele>1148.43</ele>
        <time>2016-02-24T12:13:06Z</time>
      </trkpt>
      <trkpt lat="44.66422" lon="3.21695">
        <ele>1149.39</ele>
        <time>2016-02-24T12:13:20Z</time>
      </trkpt>
      <trkpt lat="44.66448" lon="3.21685">
        <ele>1151.32</ele>
        <time>2016-02-24T12:13:31Z</time>
      </trkpt>
      <trkpt lat="44.6645" lon="3.21686">
        <ele>1151.32</ele>
        <time>2016-02-24T12:13:32Z</time>
      </trkpt>
      <trkpt lat="44.66451" lon="3.21688">
        <ele>1151.8</ele>
        <time>2016-02-24T12:13:33Z</time>
      </trkpt>
      <trkpt lat="44.66452" lon="3.2169">
        <ele>1152.28</ele>
        <time>2016-02-24T12:13:34Z</time>
      </trkpt>
      <trkpt lat="44.66452" lon="3.21692">
        <ele>1152.28</ele>
        <time>2016-02-24T12:13:35Z</time>
      </trkpt>
      <trkpt lat="44.66452" lon="3.21695">
        <ele>1152.28</ele>
        <time>2016-02-24T12:13:36Z</time>
      </trkpt>
      <trkpt lat="44.66452" lon="3.21699">
        <ele>1151.8</ele>
        <time>2016-02-24T12:13:37Z</time>
      </trkpt>
      <trkpt lat="44.66451" lon="3.21748">
        <ele>1154.2</ele>
        <time>2016-02-24T12:13:50Z</time>
      </trkpt>
      <trkpt lat="44.66452" lon="3.21756">
        <ele>1154.68</ele>
        <time>2016-02-24T12:13:53Z</time>
      </trkpt>
      <trkpt lat="44.66452" lon="3.21758">
        <ele>1154.68</ele>
        <time>2016-02-24T12:13:54Z</time>
      </trkpt>
      <trkpt lat="44.66452" lon="3.21761">
        <ele>1154.68</ele>
        <time>2016-02-24T12:13:55Z</time>
      </trkpt>
      <trkpt lat="44.66452" lon="3.21801">
        <ele>1155.64</ele>
        <time>2016-02-24T12:14:06Z</time>
      </trkpt>
      <trkpt lat="44.66449" lon="3.21824">
        <ele>1155.64</ele>
        <time>2016-02-24T12:14:16Z</time>
      </trkpt>
      <trkpt lat="44.66449" lon="3.21826">
        <ele>1155.64</ele>
        <time>2016-02-24T12:14:17Z</time>
      </trkpt>
      <trkpt lat="44.66448" lon="3.21828">
        <ele>1155.64</ele>
        <time>2016-02-24T12:14:18Z</time>
      </trkpt>
      <trkpt lat="44.66447" lon="3.2183">
        <ele>1155.64</ele>
        <time>2016-02-24T12:14:19Z</time>
      </trkpt>
      <trkpt lat="44.66446" lon="3.21832">
        <ele>1155.64</ele>
        <time>2016-02-24T12:14:20Z</time>
      </trkpt>
      <trkpt lat="44.66446" lon="3.21833">
        <ele>1155.64</ele>
        <time>2016-02-24T12:14:21Z</time>
      </trkpt>
      <trkpt lat="44.66445" lon="3.21835">
        <ele>1155.64</ele>
        <time>2016-02-24T12:14:22Z</time>
      </trkpt>
      <trkpt lat="44.66444" lon="3.21837">
        <ele>1155.64</ele>
        <time>2016-02-24T12:14:23Z</time>
      </trkpt>
      <trkpt lat="44.66434" lon="3.21872">
        <ele>1153.72</ele>
        <time>2016-02-24T12:14:32Z</time>
      </trkpt>
      <trkpt lat="44.66433" lon="3.21879">
        <ele>1153.24</ele>
        <time>2016-02-24T12:14:33Z</time>
      </trkpt>
      <trkpt lat="44.66431" lon="3.21905">
        <ele>1151.32</ele>
        <time>2016-02-24T12:14:37Z</time>
      </trkpt>
      <trkpt lat="44.66431" lon="3.21911">
        <ele>1150.84</ele>
        <time>2016-02-24T12:14:38Z</time>
      </trkpt>
      <trkpt lat="44.66432" lon="3.21917">
        <ele>1150.84</ele>
        <time>2016-02-24T12:14:39Z</time>
      </trkpt>
      <trkpt lat="44.66433" lon="3.21929">
        <ele>1149.87</ele>
        <time>2016-02-24T12:14:41Z</time>
      </trkpt>
      <trkpt lat="44.66433" lon="3.21936">
        <ele>1149.39</ele>
        <time>2016-02-24T12:14:42Z</time>
      </trkpt>
      <trkpt lat="44.66437" lon="3.21971">
        <ele>1146.03</ele>
        <time>2016-02-24T12:14:46Z</time>
      </trkpt>
      <trkpt lat="44.66438" lon="3.22017">
        <ele>1142.66</ele>
        <time>2016-02-24T12:14:50Z</time>
      </trkpt>
      <trkpt lat="44.66434" lon="3.22055">
        <ele>1139.3</ele>
        <time>2016-02-24T12:14:53Z</time>
      </trkpt>
      <trkpt lat="44.66434" lon="3.22067">
        <ele>1138.34</ele>
        <time>2016-02-24T12:14:54Z</time>
      </trkpt>
      <trkpt lat="44.66434" lon="3.2208">
        <ele>1137.38</ele>
        <time>2016-02-24T12:14:55Z</time>
      </trkpt>
      <trkpt lat="44.66436" lon="3.22107">
        <ele>1135.94</ele>
        <time>2016-02-24T12:14:57Z</time>
      </trkpt>
      <trkpt lat="44.66441" lon="3.22135">
        <ele>1134.97</ele>
        <time>2016-02-24T12:14:59Z</time>
      </trkpt>
      <trkpt lat="44.66454" lon="3.22192">
        <ele>1132.09</ele>
        <time>2016-02-24T12:15:03Z</time>
      </trkpt>
      <trkpt lat="44.66485" lon="3.22268">
        <ele>1131.61</ele>
        <time>2016-02-24T12:15:11Z</time>
      </trkpt>
      <trkpt lat="44.6651" lon="3.22309">
        <ele>1131.13</ele>
        <time>2016-02-24T12:15:17Z</time>
      </trkpt>
      <trkpt lat="44.66532" lon="3.22341">
        <ele>1130.17</ele>
        <time>2016-02-24T12:15:22Z</time>
      </trkpt>
      <trkpt lat="44.66578" lon="3.22412">
        <ele>1126.8</ele>
        <time>2016-02-24T12:15:33Z</time>
      </trkpt>
      <trkpt lat="44.66592" lon="3.22439">
        <ele>1123.44</ele>
        <time>2016-02-24T12:15:36Z</time>
      </trkpt>
      <trkpt lat="44.66599" lon="3.22446">
        <ele>1122.48</ele>
        <time>2016-02-24T12:15:37Z</time>
      </trkpt>
      <trkpt lat="44.66606" lon="3.22453">
        <ele>1121.52</ele>
        <time>2016-02-24T12:15:38Z</time>
      </trkpt>
      <trkpt lat="44.66614" lon="3.22458">
        <ele>1121.52</ele>
        <time>2016-02-24T12:15:39Z</time>
      </trkpt>
      <trkpt lat="44.66621" lon="3.22462">
        <ele>1121.03</ele>
        <time>2016-02-24T12:15:40Z</time>
      </trkpt>
      <trkpt lat="44.6664" lon="3.22474">
        <ele>1121.52</ele>
        <time>2016-02-24T12:15:43Z</time>
      </trkpt>
      <trkpt lat="44.66656" lon="3.22487">
        <ele>1123.44</ele>
        <time>2016-02-24T12:15:46Z</time>
      </trkpt>
      <trkpt lat="44.6666" lon="3.22491">
        <ele>1123.92</ele>
        <time>2016-02-24T12:15:47Z</time>
      </trkpt>
      <trkpt lat="44.66665" lon="3.22494">
        <ele>1124.4</ele>
        <time>2016-02-24T12:15:48Z</time>
      </trkpt>
      <trkpt lat="44.6667" lon="3.22496">
        <ele>1124.4</ele>
        <time>2016-02-24T12:15:49Z</time>
      </trkpt>
      <trkpt lat="44.66699" lon="3.22502">
        <ele>1127.28</ele>
        <time>2016-02-24T12:15:58Z</time>
      </trkpt>
      <trkpt lat="44.66701" lon="3.22502">
        <ele>1127.28</ele>
        <time>2016-02-24T12:15:59Z</time>
      </trkpt>
      <trkpt lat="44.66703" lon="3.22503">
        <ele>1127.28</ele>
        <time>2016-02-24T12:16:00Z</time>
      </trkpt>
      <trkpt lat="44.66705" lon="3.22503">
        <ele>1127.76</ele>
        <time>2016-02-24T12:16:01Z</time>
      </trkpt>
      <trkpt lat="44.66732" lon="3.22498">
        <ele>1131.13</ele>
        <time>2016-02-24T12:16:13Z</time>
      </trkpt>
      <trkpt lat="44.66754" lon="3.22487">
        <ele>1133.53</ele>
        <time>2016-02-24T12:16:25Z</time>
      </trkpt>
      <trkpt lat="44.6677" lon="3.2248">
        <ele>1134.01</ele>
        <time>2016-02-24T12:16:34Z</time>
      </trkpt>
      <trkpt lat="44.66809" lon="3.22468">
        <ele>1136.42</ele>
        <time>2016-02-24T12:16:49Z</time>
      </trkpt>
      <trkpt lat="44.66811" lon="3.22467">
        <ele>1136.9</ele>
        <time>2016-02-24T12:16:50Z</time>
      </trkpt>
      <trkpt lat="44.66813" lon="3.22466">
        <ele>1136.9</ele>
        <time>2016-02-24T12:16:51Z</time>
      </trkpt>
      <trkpt lat="44.66814" lon="3.22466">
        <ele>1137.38</ele>
        <time>2016-02-24T12:16:52Z</time>
      </trkpt>
      <trkpt lat="44.66816" lon="3.22466">
        <ele>1137.38</ele>
        <time>2016-02-24T12:16:53Z</time>
      </trkpt>
      <trkpt lat="44.66818" lon="3.22466">
        <ele>1137.38</ele>
        <time>2016-02-24T12:16:54Z</time>
      </trkpt>
      <trkpt lat="44.6682" lon="3.22467">
        <ele>1137.86</ele>
        <time>2016-02-24T12:16:55Z</time>
      </trkpt>
      <trkpt lat="44.66822" lon="3.22467">
        <ele>1137.86</ele>
        <time>2016-02-24T12:16:56Z</time>
      </trkpt>
      <trkpt lat="44.66824" lon="3.22467">
        <ele>1137.86</ele>
        <time>2016-02-24T12:16:57Z</time>
      </trkpt>
      <trkpt lat="44.66825" lon="3.22467">
        <ele>1137.86</ele>
        <time>2016-02-24T12:16:58Z</time>
      </trkpt>
      <trkpt lat="44.66827" lon="3.22466">
        <ele>1137.86</ele>
        <time>2016-02-24T12:16:59Z</time>
      </trkpt>
      <trkpt lat="44.66829" lon="3.22466">
        <ele>1137.86</ele>
        <time>2016-02-24T12:17:00Z</time>
      </trkpt>
      <trkpt lat="44.66831" lon="3.22467">
        <ele>1138.34</ele>
        <time>2016-02-24T12:17:01Z</time>
      </trkpt>
      <trkpt lat="44.66833" lon="3.22468">
        <ele>1138.34</ele>
        <time>2016-02-24T12:17:02Z</time>
      </trkpt>
      <trkpt lat="44.66843" lon="3.22471">
        <ele>1138.34</ele>
        <time>2016-02-24T12:17:07Z</time>
      </trkpt>
      <trkpt lat="44.66845" lon="3.22472">
        <ele>1138.34</ele>
        <time>2016-02-24T12:17:08Z</time>
      </trkpt>
      <trkpt lat="44.66847" lon="3.22472">
        <ele>1138.82</ele>
        <time>2016-02-24T12:17:09Z</time>
      </trkpt>
      <trkpt lat="44.66876" lon="3.2249">
        <ele>1140.74</ele>
        <time>2016-02-24T12:17:23Z</time>
      </trkpt>
      <trkpt lat="44.66903" lon="3.22516">
        <ele>1142.66</ele>
        <time>2016-02-24T12:17:36Z</time>
      </trkpt>
      <trkpt lat="44.66911" lon="3.22523">
        <ele>1143.63</ele>
        <time>2016-02-24T12:17:42Z</time>
      </trkpt>
      <trkpt lat="44.66915" lon="3.22531">
        <ele>1143.63</ele>
        <time>2016-02-24T12:17:47Z</time>
      </trkpt>
      <trkpt lat="44.66916" lon="3.22532">
        <ele>1143.63</ele>
        <time>2016-02-24T12:17:48Z</time>
      </trkpt>
      <trkpt lat="44.66917" lon="3.22534">
        <ele>1144.11</ele>
        <time>2016-02-24T12:17:49Z</time>
      </trkpt>
      <trkpt lat="44.66938" lon="3.22563">
        <ele>1143.14</ele>
        <time>2016-02-24T12:18:03Z</time>
      </trkpt>
      <trkpt lat="44.66961" lon="3.22605">
        <ele>1142.18</ele>
        <time>2016-02-24T12:18:14Z</time>
      </trkpt>
      <trkpt lat="44.66989" lon="3.22653">
        <ele>1139.78</ele>
        <time>2016-02-24T12:18:26Z</time>
      </trkpt>
      <trkpt lat="44.6703" lon="3.22719">
        <ele>1139.78</ele>
        <time>2016-02-24T12:18:41Z</time>
      </trkpt>
      <trkpt lat="44.67038" lon="3.2273">
        <ele>1139.3</ele>
        <time>2016-02-24T12:18:51Z</time>
      </trkpt>
      <trkpt lat="44.67038" lon="3.2273">
        <ele>1135.45</ele>
        <time>2016-02-24T12:19:00Z</time>
      </trkpt>
      <trkpt lat="44.67038" lon="3.2273">
        <ele>1143.63</ele>
        <time>2016-02-24T12:19:01Z</time>
      </trkpt>
      <trkpt lat="44.67038" lon="3.2273">
        <ele>1138.82</ele>
        <time>2016-02-24T12:19:02Z</time>
      </trkpt>
      <trkpt lat="44.67038" lon="3.2273">
        <ele>1142.18</ele>
        <time>2016-02-24T12:19:10Z</time>
      </trkpt>
      <trkpt lat="44.67038" lon="3.2273">
        <ele>1138.82</ele>
        <time>2016-02-24T12:19:11Z</time>
      </trkpt>
      <trkpt lat="44.67038" lon="3.2273">
        <ele>1142.18</ele>
        <time>2016-02-24T12:19:12Z</time>
      </trkpt>
      <trkpt lat="44.67038" lon="3.2273">
        <ele>1138.82</ele>
        <time>2016-02-24T12:19:13Z</time>
      </trkpt>
      <trkpt lat="44.67039" lon="3.22731">
        <ele>1139.3</ele>
        <time>2016-02-24T12:19:31Z</time>
      </trkpt>
      <trkpt lat="44.6704" lon="3.22734">
        <ele>1139.3</ele>
        <time>2016-02-24T12:19:32Z</time>
      </trkpt>
      <trkpt lat="44.67041" lon="3.22737">
        <ele>1139.3</ele>
        <time>2016-02-24T12:19:33Z</time>
      </trkpt>
      <trkpt lat="44.67042" lon="3.22741">
        <ele>1138.82</ele>
        <time>2016-02-24T12:19:34Z</time>
      </trkpt>
      <trkpt lat="44.67043" lon="3.22746">
        <ele>1138.34</ele>
        <time>2016-02-24T12:19:35Z</time>
      </trkpt>
      <trkpt lat="44.67059" lon="3.22788">
        <ele>1134.97</ele>
        <time>2016-02-24T12:19:41Z</time>
      </trkpt>
      <trkpt lat="44.67073" lon="3.22816">
        <ele>1131.13</ele>
        <time>2016-02-24T12:19:44Z</time>
      </trkpt>
      <trkpt lat="44.67095" lon="3.22857">
        <ele>1127.76</ele>
        <time>2016-02-24T12:19:48Z</time>
      </trkpt>
      <trkpt lat="44.67111" lon="3.2289">
        <ele>1125.36</ele>
        <time>2016-02-24T12:19:51Z</time>
      </trkpt>
      <trkpt lat="44.67118" lon="3.22901">
        <ele>1124.4</ele>
        <time>2016-02-24T12:19:52Z</time>
      </trkpt>
      <trkpt lat="44.67125" lon="3.22911">
        <ele>1122.96</ele>
        <time>2016-02-24T12:19:53Z</time>
      </trkpt>
      <trkpt lat="44.67134" lon="3.22921">
        <ele>1122</ele>
        <time>2016-02-24T12:19:54Z</time>
      </trkpt>
      <trkpt lat="44.67143" lon="3.22931">
        <ele>1120.07</ele>
        <time>2016-02-24T12:19:55Z</time>
      </trkpt>
      <trkpt lat="44.67163" lon="3.2295">
        <ele>1116.23</ele>
        <time>2016-02-24T12:19:57Z</time>
      </trkpt>
      <trkpt lat="44.67192" lon="3.2298">
        <ele>1112.38</ele>
        <time>2016-02-24T12:20:00Z</time>
      </trkpt>
      <trkpt lat="44.67227" lon="3.23025">
        <ele>1109.02</ele>
        <time>2016-02-24T12:20:04Z</time>
      </trkpt>
      <trkpt lat="44.67243" lon="3.23048">
        <ele>1108.06</ele>
        <time>2016-02-24T12:20:06Z</time>
      </trkpt>
      <trkpt lat="44.67278" lon="3.23102">
        <ele>1107.58</ele>
        <time>2016-02-24T12:20:11Z</time>
      </trkpt>
      <trkpt lat="44.67282" lon="3.23114">
        <ele>1107.58</ele>
        <time>2016-02-24T12:20:12Z</time>
      </trkpt>
      <trkpt lat="44.67284" lon="3.23126">
        <ele>1108.06</ele>
        <time>2016-02-24T12:20:13Z</time>
      </trkpt>
      <trkpt lat="44.67288" lon="3.2315">
        <ele>1109.02</ele>
        <time>2016-02-24T12:20:15Z</time>
      </trkpt>
      <trkpt lat="44.67302" lon="3.23207">
        <ele>1112.86</ele>
        <time>2016-02-24T12:20:21Z</time>
      </trkpt>
      <trkpt lat="44.67323" lon="3.23281">
        <ele>1113.82</ele>
        <time>2016-02-24T12:20:33Z</time>
      </trkpt>
      <trkpt lat="44.67325" lon="3.23287">
        <ele>1114.31</ele>
        <time>2016-02-24T12:20:34Z</time>
      </trkpt>
      <trkpt lat="44.67335" lon="3.23318">
        <ele>1115.27</ele>
        <time>2016-02-24T12:20:40Z</time>
      </trkpt>
      <trkpt lat="44.67337" lon="3.23324">
        <ele>1115.75</ele>
        <time>2016-02-24T12:20:41Z</time>
      </trkpt>
      <trkpt lat="44.67343" lon="3.23343">
        <ele>1115.75</ele>
        <time>2016-02-24T12:20:44Z</time>
      </trkpt>
      <trkpt lat="44.67354" lon="3.23385">
        <ele>1117.67</ele>
        <time>2016-02-24T12:20:54Z</time>
      </trkpt>
      <trkpt lat="44.67354" lon="3.23385">
        <ele>1117.67</ele>
        <time>2016-02-24T12:21:14Z</time>
      </trkpt>
      <trkpt lat="44.67354" lon="3.23385">
        <ele>1117.67</ele>
        <time>2016-02-24T12:21:42Z</time>
      </trkpt>
      <trkpt lat="44.67355" lon="3.23387">
        <ele>1117.67</ele>
        <time>2016-02-24T12:22:04Z</time>
      </trkpt>
      <trkpt lat="44.67355" lon="3.23387">
        <ele>1117.67</ele>
        <time>2016-02-24T12:22:23Z</time>
      </trkpt>
      <trkpt lat="44.67355" lon="3.23387">
        <ele>1117.67</ele>
        <time>2016-02-24T12:22:49Z</time>
      </trkpt>
      <trkpt lat="44.67356" lon="3.23389">
        <ele>1117.67</ele>
        <time>2016-02-24T12:23:07Z</time>
      </trkpt>
      <trkpt lat="44.67356" lon="3.23389">
        <ele>1117.67</ele>
        <time>2016-02-24T12:23:25Z</time>
      </trkpt>
      <trkpt lat="44.67357" lon="3.23389">
        <ele>1117.67</ele>
        <time>2016-02-24T12:23:31Z</time>
      </trkpt>
      <trkpt lat="44.67358" lon="3.23391">
        <ele>1117.67</ele>
        <time>2016-02-24T12:23:32Z</time>
      </trkpt>
      <trkpt lat="44.67359" lon="3.23392">
        <ele>1117.67</ele>
        <time>2016-02-24T12:23:33Z</time>
      </trkpt>
      <trkpt lat="44.67361" lon="3.23394">
        <ele>1117.67</ele>
        <time>2016-02-24T12:23:34Z</time>
      </trkpt>
      <trkpt lat="44.67363" lon="3.23396">
        <ele>1117.67</ele>
        <time>2016-02-24T12:23:35Z</time>
      </trkpt>
      <trkpt lat="44.67396" lon="3.23442">
        <ele>1117.19</ele>
        <time>2016-02-24T12:23:45Z</time>
      </trkpt>
      <trkpt lat="44.6745" lon="3.23528">
        <ele>1117.19</ele>
        <time>2016-02-24T12:24:02Z</time>
      </trkpt>
      <trkpt lat="44.67495" lon="3.23617">
        <ele>1117.19</ele>
        <time>2016-02-24T12:24:18Z</time>
      </trkpt>
      <trkpt lat="44.67498" lon="3.23622">
        <ele>1117.19</ele>
        <time>2016-02-24T12:24:19Z</time>
      </trkpt>
      <trkpt lat="44.67505" lon="3.23631">
        <ele>1117.19</ele>
        <time>2016-02-24T12:24:21Z</time>
      </trkpt>
      <trkpt lat="44.67531" lon="3.23662">
        <ele>1115.27</ele>
        <time>2016-02-24T12:24:27Z</time>
      </trkpt>
      <trkpt lat="44.67535" lon="3.23669">
        <ele>1114.79</ele>
        <time>2016-02-24T12:24:28Z</time>
      </trkpt>
      <trkpt lat="44.67538" lon="3.23677">
        <ele>1114.31</ele>
        <time>2016-02-24T12:24:29Z</time>
      </trkpt>
      <trkpt lat="44.6754" lon="3.23685">
        <ele>1114.31</ele>
        <time>2016-02-24T12:24:30Z</time>
      </trkpt>
      <trkpt lat="44.6754" lon="3.23693">
        <ele>1114.79</ele>
        <time>2016-02-24T12:24:31Z</time>
      </trkpt>
      <trkpt lat="44.67541" lon="3.23702">
        <ele>1114.31</ele>
        <time>2016-02-24T12:24:32Z</time>
      </trkpt>
      <trkpt lat="44.67549" lon="3.23852">
        <ele>1111.9</ele>
        <time>2016-02-24T12:24:49Z</time>
      </trkpt>
      <trkpt lat="44.67547" lon="3.23998">
        <ele>1111.9</ele>
        <time>2016-02-24T12:25:06Z</time>
      </trkpt>
      <trkpt lat="44.67544" lon="3.24099">
        <ele>1110.46</ele>
        <time>2016-02-24T12:25:18Z</time>
      </trkpt>
      <trkpt lat="44.67546" lon="3.24185">
        <ele>1107.58</ele>
        <time>2016-02-24T12:25:28Z</time>
      </trkpt>
      <trkpt lat="44.67546" lon="3.24193">
        <ele>1110.46</ele>
        <time>2016-02-24T12:25:29Z</time>
      </trkpt>
      <trkpt lat="44.67545" lon="3.24221">
        <ele>1107.58</ele>
        <time>2016-02-24T12:25:32Z</time>
      </trkpt>
      <trkpt lat="44.67543" lon="3.24248">
        <ele>1107.1</ele>
        <time>2016-02-24T12:25:35Z</time>
      </trkpt>
      <trkpt lat="44.67543" lon="3.24256">
        <ele>1107.1</ele>
        <time>2016-02-24T12:25:36Z</time>
      </trkpt>
      <trkpt lat="44.6754" lon="3.24302">
        <ele>1106.61</ele>
        <time>2016-02-24T12:25:41Z</time>
      </trkpt>
      <trkpt lat="44.67536" lon="3.24322">
        <ele>1105.65</ele>
        <time>2016-02-24T12:25:43Z</time>
      </trkpt>
      <trkpt lat="44.67527" lon="3.24359">
        <ele>1101.33</ele>
        <time>2016-02-24T12:25:46Z</time>
      </trkpt>
      <trkpt lat="44.67492" lon="3.24489">
        <ele>1098.92</ele>
        <time>2016-02-24T12:25:57Z</time>
      </trkpt>
      <trkpt lat="44.67493" lon="3.245">
        <ele>1098.92</ele>
        <time>2016-02-24T12:25:58Z</time>
      </trkpt>
      <trkpt lat="44.67495" lon="3.24509">
        <ele>1098.92</ele>
        <time>2016-02-24T12:25:59Z</time>
      </trkpt>
      <trkpt lat="44.67498" lon="3.24517">
        <ele>1099.4</ele>
        <time>2016-02-24T12:26:00Z</time>
      </trkpt>
      <trkpt lat="44.67502" lon="3.24526">
        <ele>1099.4</ele>
        <time>2016-02-24T12:26:01Z</time>
      </trkpt>
      <trkpt lat="44.67562" lon="3.24645">
        <ele>1099.89</ele>
        <time>2016-02-24T12:26:17Z</time>
      </trkpt>
      <trkpt lat="44.6759" lon="3.24689">
        <ele>1101.33</ele>
        <time>2016-02-24T12:26:25Z</time>
      </trkpt>
      <trkpt lat="44.67607" lon="3.24705">
        <ele>1101.81</ele>
        <time>2016-02-24T12:26:30Z</time>
      </trkpt>
      <trkpt lat="44.67611" lon="3.24707">
        <ele>1101.81</ele>
        <time>2016-02-24T12:26:31Z</time>
      </trkpt>
      <trkpt lat="44.67615" lon="3.24709">
        <ele>1101.81</ele>
        <time>2016-02-24T12:26:32Z</time>
      </trkpt>
      <trkpt lat="44.67658" lon="3.24736">
        <ele>1104.21</ele>
        <time>2016-02-24T12:26:46Z</time>
      </trkpt>
      <trkpt lat="44.67668" lon="3.24759">
        <ele>1106.61</ele>
        <time>2016-02-24T12:26:56Z</time>
      </trkpt>
      <trkpt lat="44.67666" lon="3.24804">
        <ele>1106.61</ele>
        <time>2016-02-24T12:27:07Z</time>
      </trkpt>
      <trkpt lat="44.67665" lon="3.2481">
        <ele>1106.61</ele>
        <time>2016-02-24T12:27:09Z</time>
      </trkpt>
      <trkpt lat="44.67664" lon="3.24813">
        <ele>1106.13</ele>
        <time>2016-02-24T12:27:10Z</time>
      </trkpt>
      <trkpt lat="44.67663" lon="3.24816">
        <ele>1106.13</ele>
        <time>2016-02-24T12:27:11Z</time>
      </trkpt>
      <trkpt lat="44.67662" lon="3.24819">
        <ele>1106.13</ele>
        <time>2016-02-24T12:27:12Z</time>
      </trkpt>
      <trkpt lat="44.67662" lon="3.24823">
        <ele>1105.65</ele>
        <time>2016-02-24T12:27:13Z</time>
      </trkpt>
      <trkpt lat="44.67659" lon="3.24846">
        <ele>1104.21</ele>
        <time>2016-02-24T12:27:17Z</time>
      </trkpt>
      <trkpt lat="44.67657" lon="3.24852">
        <ele>1104.21</ele>
        <time>2016-02-24T12:27:18Z</time>
      </trkpt>
      <trkpt lat="44.67654" lon="3.24858">
        <ele>1104.21</ele>
        <time>2016-02-24T12:27:19Z</time>
      </trkpt>
      <trkpt lat="44.67651" lon="3.24863">
        <ele>1104.21</ele>
        <time>2016-02-24T12:27:20Z</time>
      </trkpt>
      <trkpt lat="44.67648" lon="3.24868">
        <ele>1103.73</ele>
        <time>2016-02-24T12:27:21Z</time>
      </trkpt>
      <trkpt lat="44.67644" lon="3.24873">
        <ele>1103.25</ele>
        <time>2016-02-24T12:27:22Z</time>
      </trkpt>
      <trkpt lat="44.67634" lon="3.24884">
        <ele>1102.29</ele>
        <time>2016-02-24T12:27:24Z</time>
      </trkpt>
      <trkpt lat="44.6763" lon="3.24892">
        <ele>1101.33</ele>
        <time>2016-02-24T12:27:25Z</time>
      </trkpt>
      <trkpt lat="44.67626" lon="3.249">
        <ele>1100.37</ele>
        <time>2016-02-24T12:27:26Z</time>
      </trkpt>
      <trkpt lat="44.67619" lon="3.24914">
        <ele>1099.4</ele>
        <time>2016-02-24T12:27:28Z</time>
      </trkpt>
      <trkpt lat="44.67612" lon="3.24929">
        <ele>1098.44</ele>
        <time>2016-02-24T12:27:30Z</time>
      </trkpt>
      <trkpt lat="44.6761" lon="3.24938">
        <ele>1097.48</ele>
        <time>2016-02-24T12:27:31Z</time>
      </trkpt>
      <trkpt lat="44.67608" lon="3.24949">
        <ele>1096.52</ele>
        <time>2016-02-24T12:27:32Z</time>
      </trkpt>
      <trkpt lat="44.67606" lon="3.24959">
        <ele>1095.56</ele>
        <time>2016-02-24T12:27:33Z</time>
      </trkpt>
      <trkpt lat="44.67605" lon="3.2497">
        <ele>1094.12</ele>
        <time>2016-02-24T12:27:34Z</time>
      </trkpt>
      <trkpt lat="44.67603" lon="3.2498">
        <ele>1093.64</ele>
        <time>2016-02-24T12:27:35Z</time>
      </trkpt>
      <trkpt lat="44.67599" lon="3.25011">
        <ele>1091.71</ele>
        <time>2016-02-24T12:27:38Z</time>
      </trkpt>
      <trkpt lat="44.67594" lon="3.25032">
        <ele>1089.31</ele>
        <time>2016-02-24T12:27:40Z</time>
      </trkpt>
      <trkpt lat="44.67591" lon="3.25042">
        <ele>1089.31</ele>
        <time>2016-02-24T12:27:41Z</time>
      </trkpt>
      <trkpt lat="44.67575" lon="3.25092">
        <ele>1087.87</ele>
        <time>2016-02-24T12:27:46Z</time>
      </trkpt>
      <trkpt lat="44.67575" lon="3.25102">
        <ele>1087.87</ele>
        <time>2016-02-24T12:27:47Z</time>
      </trkpt>
      <trkpt lat="44.67576" lon="3.25111">
        <ele>1088.83</ele>
        <time>2016-02-24T12:27:48Z</time>
      </trkpt>
      <trkpt lat="44.67579" lon="3.2512">
        <ele>1089.31</ele>
        <time>2016-02-24T12:27:49Z</time>
      </trkpt>
      <trkpt lat="44.67582" lon="3.25127">
        <ele>1089.31</ele>
        <time>2016-02-24T12:27:50Z</time>
      </trkpt>
      <trkpt lat="44.67608" lon="3.25174">
        <ele>1089.31</ele>
        <time>2016-02-24T12:27:58Z</time>
      </trkpt>
      <trkpt lat="44.67616" lon="3.25185">
        <ele>1089.31</ele>
        <time>2016-02-24T12:28:00Z</time>
      </trkpt>
      <trkpt lat="44.67619" lon="3.2519">
        <ele>1088.83</ele>
        <time>2016-02-24T12:28:01Z</time>
      </trkpt>
      <trkpt lat="44.67669" lon="3.25254">
        <ele>1087.87</ele>
        <time>2016-02-24T12:28:13Z</time>
      </trkpt>
      <trkpt lat="44.67674" lon="3.25256">
        <ele>1087.39</ele>
        <time>2016-02-24T12:28:14Z</time>
      </trkpt>
      <trkpt lat="44.67685" lon="3.2526">
        <ele>1087.39</ele>
        <time>2016-02-24T12:28:16Z</time>
      </trkpt>
      <trkpt lat="44.67697" lon="3.25262">
        <ele>1086.91</ele>
        <time>2016-02-24T12:28:18Z</time>
      </trkpt>
      <trkpt lat="44.67717" lon="3.25268">
        <ele>1084.99</ele>
        <time>2016-02-24T12:28:21Z</time>
      </trkpt>
      <trkpt lat="44.67724" lon="3.25271">
        <ele>1084.99</ele>
        <time>2016-02-24T12:28:22Z</time>
      </trkpt>
      <trkpt lat="44.67747" lon="3.25277">
        <ele>1083.06</ele>
        <time>2016-02-24T12:28:25Z</time>
      </trkpt>
      <trkpt lat="44.67755" lon="3.25279">
        <ele>1082.1</ele>
        <time>2016-02-24T12:28:26Z</time>
      </trkpt>
      <trkpt lat="44.67762" lon="3.25281">
        <ele>1081.62</ele>
        <time>2016-02-24T12:28:27Z</time>
      </trkpt>
      <trkpt lat="44.6777" lon="3.25284">
        <ele>1080.66</ele>
        <time>2016-02-24T12:28:28Z</time>
      </trkpt>
      <trkpt lat="44.67801" lon="3.25295">
        <ele>1077.78</ele>
        <time>2016-02-24T12:28:32Z</time>
      </trkpt>
      <trkpt lat="44.67819" lon="3.253">
        <ele>1075.85</ele>
        <time>2016-02-24T12:28:34Z</time>
      </trkpt>
      <trkpt lat="44.67828" lon="3.25303">
        <ele>1074.89</ele>
        <time>2016-02-24T12:28:35Z</time>
      </trkpt>
      <trkpt lat="44.67837" lon="3.25306">
        <ele>1074.41</ele>
        <time>2016-02-24T12:28:36Z</time>
      </trkpt>
      <trkpt lat="44.67845" lon="3.25311">
        <ele>1073.93</ele>
        <time>2016-02-24T12:28:37Z</time>
      </trkpt>
      <trkpt lat="44.67854" lon="3.25315">
        <ele>1073.45</ele>
        <time>2016-02-24T12:28:38Z</time>
      </trkpt>
      <trkpt lat="44.67887" lon="3.25332">
        <ele>1070.57</ele>
        <time>2016-02-24T12:28:42Z</time>
      </trkpt>
      <trkpt lat="44.67895" lon="3.25338">
        <ele>1069.6</ele>
        <time>2016-02-24T12:28:43Z</time>
      </trkpt>
      <trkpt lat="44.67902" lon="3.25346">
        <ele>1069.12</ele>
        <time>2016-02-24T12:28:44Z</time>
      </trkpt>
      <trkpt lat="44.67908" lon="3.25355">
        <ele>1067.68</ele>
        <time>2016-02-24T12:28:45Z</time>
      </trkpt>
      <trkpt lat="44.67913" lon="3.25366">
        <ele>1067.2</ele>
        <time>2016-02-24T12:28:46Z</time>
      </trkpt>
      <trkpt lat="44.67916" lon="3.25377">
        <ele>1066.72</ele>
        <time>2016-02-24T12:28:47Z</time>
      </trkpt>
      <trkpt lat="44.67918" lon="3.25389">
        <ele>1066.24</ele>
        <time>2016-02-24T12:28:48Z</time>
      </trkpt>
      <trkpt lat="44.6792" lon="3.25401">
        <ele>1065.28</ele>
        <time>2016-02-24T12:28:49Z</time>
      </trkpt>
      <trkpt lat="44.67924" lon="3.25412">
        <ele>1065.28</ele>
        <time>2016-02-24T12:28:50Z</time>
      </trkpt>
      <trkpt lat="44.67927" lon="3.25423">
        <ele>1064.32</ele>
        <time>2016-02-24T12:28:51Z</time>
      </trkpt>
      <trkpt lat="44.6793" lon="3.25434">
        <ele>1063.84</ele>
        <time>2016-02-24T12:28:52Z</time>
      </trkpt>
      <trkpt lat="44.67935" lon="3.25466">
        <ele>1062.87</ele>
        <time>2016-02-24T12:28:55Z</time>
      </trkpt>
      <trkpt lat="44.67935" lon="3.25477">
        <ele>1062.87</ele>
        <time>2016-02-24T12:28:56Z</time>
      </trkpt>
      <trkpt lat="44.67932" lon="3.25509">
        <ele>1062.39</ele>
        <time>2016-02-24T12:28:59Z</time>
      </trkpt>
      <trkpt lat="44.6793" lon="3.25519">
        <ele>1061.43</ele>
        <time>2016-02-24T12:29:00Z</time>
      </trkpt>
      <trkpt lat="44.6793" lon="3.25529">
        <ele>1060.95</ele>
        <time>2016-02-24T12:29:01Z</time>
      </trkpt>
      <trkpt lat="44.6793" lon="3.25539">
        <ele>1060.95</ele>
        <time>2016-02-24T12:29:02Z</time>
      </trkpt>
      <trkpt lat="44.67931" lon="3.2555">
        <ele>1060.47</ele>
        <time>2016-02-24T12:29:03Z</time>
      </trkpt>
      <trkpt lat="44.67933" lon="3.25561">
        <ele>1059.99</ele>
        <time>2016-02-24T12:29:04Z</time>
      </trkpt>
      <trkpt lat="44.67935" lon="3.25573">
        <ele>1059.51</ele>
        <time>2016-02-24T12:29:05Z</time>
      </trkpt>
      <trkpt lat="44.67939" lon="3.25584">
        <ele>1058.55</ele>
        <time>2016-02-24T12:29:06Z</time>
      </trkpt>
      <trkpt lat="44.67943" lon="3.25597">
        <ele>1057.11</ele>
        <time>2016-02-24T12:29:07Z</time>
      </trkpt>
      <trkpt lat="44.67948" lon="3.25608">
        <ele>1056.15</ele>
        <time>2016-02-24T12:29:08Z</time>
      </trkpt>
      <trkpt lat="44.67953" lon="3.2562">
        <ele>1055.18</ele>
        <time>2016-02-24T12:29:09Z</time>
      </trkpt>
      <trkpt lat="44.67958" lon="3.25632">
        <ele>1054.7</ele>
        <time>2016-02-24T12:29:10Z</time>
      </trkpt>
      <trkpt lat="44.67961" lon="3.25645">
        <ele>1053.74</ele>
        <time>2016-02-24T12:29:11Z</time>
      </trkpt>
      <trkpt lat="44.67965" lon="3.25672">
        <ele>1052.78</ele>
        <time>2016-02-24T12:29:13Z</time>
      </trkpt>
      <trkpt lat="44.67965" lon="3.25686">
        <ele>1052.3</ele>
        <time>2016-02-24T12:29:14Z</time>
      </trkpt>
      <trkpt lat="44.67963" lon="3.25699">
        <ele>1051.82</ele>
        <time>2016-02-24T12:29:15Z</time>
      </trkpt>
      <trkpt lat="44.67958" lon="3.25711">
        <ele>1051.82</ele>
        <time>2016-02-24T12:29:16Z</time>
      </trkpt>
      <trkpt lat="44.67952" lon="3.25721">
        <ele>1050.86</ele>
        <time>2016-02-24T12:29:17Z</time>
      </trkpt>
      <trkpt lat="44.67946" lon="3.25731">
        <ele>1049.9</ele>
        <time>2016-02-24T12:29:18Z</time>
      </trkpt>
      <trkpt lat="44.6792" lon="3.25774">
        <ele>1046.53</ele>
        <time>2016-02-24T12:29:22Z</time>
      </trkpt>
      <trkpt lat="44.67914" lon="3.25787">
        <ele>1045.57</ele>
        <time>2016-02-24T12:29:23Z</time>
      </trkpt>
      <trkpt lat="44.67908" lon="3.258">
        <ele>1044.61</ele>
        <time>2016-02-24T12:29:24Z</time>
      </trkpt>
      <trkpt lat="44.67899" lon="3.25828">
        <ele>1041.25</ele>
        <time>2016-02-24T12:29:26Z</time>
      </trkpt>
      <trkpt lat="44.67889" lon="3.25851">
        <ele>1039.32</ele>
        <time>2016-02-24T12:29:28Z</time>
      </trkpt>
      <trkpt lat="44.67886" lon="3.2586">
        <ele>1039.32</ele>
        <time>2016-02-24T12:29:29Z</time>
      </trkpt>
      <trkpt lat="44.67884" lon="3.25867">
        <ele>1039.32</ele>
        <time>2016-02-24T12:29:30Z</time>
      </trkpt>
      <trkpt lat="44.67884" lon="3.25873">
        <ele>1038.84</ele>
        <time>2016-02-24T12:29:31Z</time>
      </trkpt>
      <trkpt lat="44.67887" lon="3.25876">
        <ele>1038.84</ele>
        <time>2016-02-24T12:29:32Z</time>
      </trkpt>
      <trkpt lat="44.6789" lon="3.25877">
        <ele>1038.84</ele>
        <time>2016-02-24T12:29:33Z</time>
      </trkpt>
      <trkpt lat="44.67894" lon="3.25875">
        <ele>1038.84</ele>
        <time>2016-02-24T12:29:34Z</time>
      </trkpt>
      <trkpt lat="44.67898" lon="3.25874">
        <ele>1038.84</ele>
        <time>2016-02-24T12:29:35Z</time>
      </trkpt>
      <trkpt lat="44.67903" lon="3.25875">
        <ele>1038.36</ele>
        <time>2016-02-24T12:29:36Z</time>
      </trkpt>
      <trkpt lat="44.67908" lon="3.25876">
        <ele>1037.88</ele>
        <time>2016-02-24T12:29:37Z</time>
      </trkpt>
      <trkpt lat="44.67914" lon="3.25877">
        <ele>1037.88</ele>
        <time>2016-02-24T12:29:38Z</time>
      </trkpt>
      <trkpt lat="44.67921" lon="3.25878">
        <ele>1037.4</ele>
        <time>2016-02-24T12:29:39Z</time>
      </trkpt>
      <trkpt lat="44.67928" lon="3.2588">
        <ele>1036.92</ele>
        <time>2016-02-24T12:29:40Z</time>
      </trkpt>
      <trkpt lat="44.67956" lon="3.25889">
        <ele>1036.44</ele>
        <time>2016-02-24T12:29:44Z</time>
      </trkpt>
      <trkpt lat="44.67964" lon="3.2589">
        <ele>1036.44</ele>
        <time>2016-02-24T12:29:45Z</time>
      </trkpt>
      <trkpt lat="44.67971" lon="3.25891">
        <ele>1036.44</ele>
        <time>2016-02-24T12:29:46Z</time>
      </trkpt>
      <trkpt lat="44.67978" lon="3.25891">
        <ele>1036.44</ele>
        <time>2016-02-24T12:29:47Z</time>
      </trkpt>
      <trkpt lat="44.67985" lon="3.2589">
        <ele>1036.44</ele>
        <time>2016-02-24T12:29:48Z</time>
      </trkpt>
      <trkpt lat="44.67992" lon="3.25889">
        <ele>1036.44</ele>
        <time>2016-02-24T12:29:49Z</time>
      </trkpt>
      <trkpt lat="44.68034" lon="3.25872">
        <ele>1035.48</ele>
        <time>2016-02-24T12:29:55Z</time>
      </trkpt>
      <trkpt lat="44.68073" lon="3.25827">
        <ele>1035.48</ele>
        <time>2016-02-24T12:30:02Z</time>
      </trkpt>
      <trkpt lat="44.68077" lon="3.25818">
        <ele>1035.48</ele>
        <time>2016-02-24T12:30:03Z</time>
      </trkpt>
      <trkpt lat="44.68079" lon="3.25809">
        <ele>1035.48</ele>
        <time>2016-02-24T12:30:04Z</time>
      </trkpt>
      <trkpt lat="44.68081" lon="3.25799">
        <ele>1035.48</ele>
        <time>2016-02-24T12:30:05Z</time>
      </trkpt>
      <trkpt lat="44.68082" lon="3.25789">
        <ele>1035</ele>
        <time>2016-02-24T12:30:06Z</time>
      </trkpt>
      <trkpt lat="44.68084" lon="3.2578">
        <ele>1034.52</ele>
        <time>2016-02-24T12:30:07Z</time>
      </trkpt>
      <trkpt lat="44.68085" lon="3.2577">
        <ele>1034.52</ele>
        <time>2016-02-24T12:30:08Z</time>
      </trkpt>
      <trkpt lat="44.68094" lon="3.25738">
        <ele>1035</ele>
        <time>2016-02-24T12:30:12Z</time>
      </trkpt>
      <trkpt lat="44.68097" lon="3.25731">
        <ele>1035.48</ele>
        <time>2016-02-24T12:30:13Z</time>
      </trkpt>
      <trkpt lat="44.68101" lon="3.25724">
        <ele>1035.48</ele>
        <time>2016-02-24T12:30:14Z</time>
      </trkpt>
      <trkpt lat="44.68104" lon="3.25717">
        <ele>1035.48</ele>
        <time>2016-02-24T12:30:15Z</time>
      </trkpt>
      <trkpt lat="44.68107" lon="3.2571">
        <ele>1035.48</ele>
        <time>2016-02-24T12:30:16Z</time>
      </trkpt>
      <trkpt lat="44.68124" lon="3.25645">
        <ele>1035.48</ele>
        <time>2016-02-24T12:30:25Z</time>
      </trkpt>
      <trkpt lat="44.68126" lon="3.25628">
        <ele>1036.44</ele>
        <time>2016-02-24T12:30:28Z</time>
      </trkpt>
      <trkpt lat="44.68129" lon="3.25617">
        <ele>1036.44</ele>
        <time>2016-02-24T12:30:30Z</time>
      </trkpt>
      <trkpt lat="44.68131" lon="3.25605">
        <ele>1036.44</ele>
        <time>2016-02-24T12:30:32Z</time>
      </trkpt>
      <trkpt lat="44.6814" lon="3.2558">
        <ele>1036.92</ele>
        <time>2016-02-24T12:30:37Z</time>
      </trkpt>
      <trkpt lat="44.68142" lon="3.25574">
        <ele>1036.92</ele>
        <time>2016-02-24T12:30:38Z</time>
      </trkpt>
      <trkpt lat="44.68143" lon="3.25568">
        <ele>1037.4</ele>
        <time>2016-02-24T12:30:39Z</time>
      </trkpt>
      <trkpt lat="44.68148" lon="3.25531">
        <ele>1036.44</ele>
        <time>2016-02-24T12:30:44Z</time>
      </trkpt>
      <trkpt lat="44.68147" lon="3.25521">
        <ele>1036.44</ele>
        <time>2016-02-24T12:30:45Z</time>
      </trkpt>
      <trkpt lat="44.68139" lon="3.2545">
        <ele>1035.48</ele>
        <time>2016-02-24T12:30:53Z</time>
      </trkpt>
      <trkpt lat="44.68138" lon="3.25442">
        <ele>1035.48</ele>
        <time>2016-02-24T12:30:54Z</time>
      </trkpt>
      <trkpt lat="44.68139" lon="3.25387">
        <ele>1035.48</ele>
        <time>2016-02-24T12:31:01Z</time>
      </trkpt>
      <trkpt lat="44.68142" lon="3.25381">
        <ele>1035.48</ele>
        <time>2016-02-24T12:31:02Z</time>
      </trkpt>
      <trkpt lat="44.68146" lon="3.25376">
        <ele>1035.48</ele>
        <time>2016-02-24T12:31:03Z</time>
      </trkpt>
      <trkpt lat="44.6819" lon="3.25345">
        <ele>1037.88</ele>
        <time>2016-02-24T12:31:15Z</time>
      </trkpt>
      <trkpt lat="44.68234" lon="3.2536">
        <ele>1036.44</ele>
        <time>2016-02-24T12:31:26Z</time>
      </trkpt>
      <trkpt lat="44.68238" lon="3.25363">
        <ele>1036.44</ele>
        <time>2016-02-24T12:31:27Z</time>
      </trkpt>
      <trkpt lat="44.68286" lon="3.25405">
        <ele>1036.44</ele>
        <time>2016-02-24T12:31:39Z</time>
      </trkpt>
      <trkpt lat="44.68295" lon="3.25413">
        <ele>1035.96</ele>
        <time>2016-02-24T12:31:41Z</time>
      </trkpt>
      <trkpt lat="44.68299" lon="3.25418">
        <ele>1035.48</ele>
        <time>2016-02-24T12:31:42Z</time>
      </trkpt>
      <trkpt lat="44.68304" lon="3.25422">
        <ele>1035</ele>
        <time>2016-02-24T12:31:43Z</time>
      </trkpt>
      <trkpt lat="44.68309" lon="3.25425">
        <ele>1035</ele>
        <time>2016-02-24T12:31:44Z</time>
      </trkpt>
      <trkpt lat="44.68314" lon="3.25428">
        <ele>1035</ele>
        <time>2016-02-24T12:31:45Z</time>
      </trkpt>
      <trkpt lat="44.68319" lon="3.2543">
        <ele>1035</ele>
        <time>2016-02-24T12:31:46Z</time>
      </trkpt>
      <trkpt lat="44.68324" lon="3.25432">
        <ele>1035</ele>
        <time>2016-02-24T12:31:47Z</time>
      </trkpt>
      <trkpt lat="44.68347" lon="3.25437">
        <ele>1035.48</ele>
        <time>2016-02-24T12:31:52Z</time>
      </trkpt>
      <trkpt lat="44.68351" lon="3.25436">
        <ele>1035.48</ele>
        <time>2016-02-24T12:31:53Z</time>
      </trkpt>
      <trkpt lat="44.68355" lon="3.25434">
        <ele>1035.48</ele>
        <time>2016-02-24T12:31:54Z</time>
      </trkpt>
      <trkpt lat="44.68358" lon="3.25432">
        <ele>1035.96</ele>
        <time>2016-02-24T12:31:55Z</time>
      </trkpt>
      <trkpt lat="44.6836" lon="3.25429">
        <ele>1035.96</ele>
        <time>2016-02-24T12:31:56Z</time>
      </trkpt>
      <trkpt lat="44.68371" lon="3.25417">
        <ele>1037.4</ele>
        <time>2016-02-24T12:32:02Z</time>
      </trkpt>
      <trkpt lat="44.68372" lon="3.25415">
        <ele>1037.88</ele>
        <time>2016-02-24T12:32:03Z</time>
      </trkpt>
      <trkpt lat="44.68373" lon="3.25414">
        <ele>1037.88</ele>
        <time>2016-02-24T12:32:04Z</time>
      </trkpt>
      <trkpt lat="44.68374" lon="3.25412">
        <ele>1037.88</ele>
        <time>2016-02-24T12:32:05Z</time>
      </trkpt>
      <trkpt lat="44.68375" lon="3.2541">
        <ele>1038.36</ele>
        <time>2016-02-24T12:32:06Z</time>
      </trkpt>
      <trkpt lat="44.68377" lon="3.25409">
        <ele>1037.4</ele>
        <time>2016-02-24T12:32:07Z</time>
      </trkpt>
      <trkpt lat="44.68378" lon="3.25407">
        <ele>1039.32</ele>
        <time>2016-02-24T12:32:08Z</time>
      </trkpt>
      <trkpt lat="44.68386" lon="3.25399">
        <ele>1040.28</ele>
        <time>2016-02-24T12:32:14Z</time>
      </trkpt>
      <trkpt lat="44.68387" lon="3.25399">
        <ele>1043.17</ele>
        <time>2016-02-24T12:32:15Z</time>
      </trkpt>
      <trkpt lat="44.6839" lon="3.25398">
        <ele>1040.76</ele>
        <time>2016-02-24T12:32:17Z</time>
      </trkpt>
      <trkpt lat="44.68391" lon="3.25398">
        <ele>1041.25</ele>
        <time>2016-02-24T12:32:18Z</time>
      </trkpt>
      <trkpt lat="44.68414" lon="3.25398">
        <ele>1044.13</ele>
        <time>2016-02-24T12:32:31Z</time>
      </trkpt>
      <trkpt lat="44.68445" lon="3.25398">
        <ele>1043.65</ele>
        <time>2016-02-24T12:32:44Z</time>
      </trkpt>
      <trkpt lat="44.68452" lon="3.25394">
        <ele>1040.28</ele>
        <time>2016-02-24T12:32:46Z</time>
      </trkpt>
      <trkpt lat="44.68456" lon="3.25392">
        <ele>1045.57</ele>
        <time>2016-02-24T12:32:47Z</time>
      </trkpt>
      <trkpt lat="44.68481" lon="3.25385">
        <ele>1042.21</ele>
        <time>2016-02-24T12:32:55Z</time>
      </trkpt>
      <trkpt lat="44.68486" lon="3.25386">
        <ele>1045.57</ele>
        <time>2016-02-24T12:32:57Z</time>
      </trkpt>
      <trkpt lat="44.68489" lon="3.25387">
        <ele>1045.09</ele>
        <time>2016-02-24T12:32:58Z</time>
      </trkpt>
      <trkpt lat="44.68498" lon="3.2539">
        <ele>1043.65</ele>
        <time>2016-02-24T12:33:01Z</time>
      </trkpt>
      <trkpt lat="44.68539" lon="3.25411">
        <ele>1045.09</ele>
        <time>2016-02-24T12:33:16Z</time>
      </trkpt>
      <trkpt lat="44.6857" lon="3.25403">
        <ele>1044.61</ele>
        <time>2016-02-24T12:33:27Z</time>
      </trkpt>
      <trkpt lat="44.68606" lon="3.25411">
        <ele>1045.57</ele>
        <time>2016-02-24T12:33:37Z</time>
      </trkpt>
      <trkpt lat="44.68612" lon="3.25417">
        <ele>1045.57</ele>
        <time>2016-02-24T12:33:39Z</time>
      </trkpt>
      <trkpt lat="44.68614" lon="3.25422">
        <ele>1045.09</ele>
        <time>2016-02-24T12:33:40Z</time>
      </trkpt>
      <trkpt lat="44.68615" lon="3.25428">
        <ele>1044.61</ele>
        <time>2016-02-24T12:33:41Z</time>
      </trkpt>
      <trkpt lat="44.68616" lon="3.25435">
        <ele>1044.13</ele>
        <time>2016-02-24T12:33:42Z</time>
      </trkpt>
      <trkpt lat="44.68617" lon="3.25442">
        <ele>1043.65</ele>
        <time>2016-02-24T12:33:43Z</time>
      </trkpt>
      <trkpt lat="44.68616" lon="3.25451">
        <ele>1043.17</ele>
        <time>2016-02-24T12:33:44Z</time>
      </trkpt>
      <trkpt lat="44.68614" lon="3.2546">
        <ele>1042.21</ele>
        <time>2016-02-24T12:33:45Z</time>
      </trkpt>
      <trkpt lat="44.68612" lon="3.25469">
        <ele>1041.25</ele>
        <time>2016-02-24T12:33:46Z</time>
      </trkpt>
      <trkpt lat="44.68608" lon="3.25478">
        <ele>1040.76</ele>
        <time>2016-02-24T12:33:47Z</time>
      </trkpt>
      <trkpt lat="44.68589" lon="3.25537">
        <ele>1037.4</ele>
        <time>2016-02-24T12:33:53Z</time>
      </trkpt>
      <trkpt lat="44.68585" lon="3.25547">
        <ele>1034.52</ele>
        <time>2016-02-24T12:33:54Z</time>
      </trkpt>
      <trkpt lat="44.68537" lon="3.25683">
        <ele>1032.11</ele>
        <time>2016-02-24T12:34:07Z</time>
      </trkpt>
      <trkpt lat="44.68529" lon="3.25802">
        <ele>1030.19</ele>
        <time>2016-02-24T12:34:18Z</time>
      </trkpt>
      <trkpt lat="44.68526" lon="3.25946">
        <ele>1027.31</ele>
        <time>2016-02-24T12:34:31Z</time>
      </trkpt>
      <trkpt lat="44.68523" lon="3.26">
        <ele>1027.79</ele>
        <time>2016-02-24T12:34:37Z</time>
      </trkpt>
      <trkpt lat="44.68524" lon="3.26023">
        <ele>1027.79</ele>
        <time>2016-02-24T12:34:40Z</time>
      </trkpt>
      <trkpt lat="44.68526" lon="3.2603">
        <ele>1027.79</ele>
        <time>2016-02-24T12:34:41Z</time>
      </trkpt>
      <trkpt lat="44.68528" lon="3.26038">
        <ele>1028.27</ele>
        <time>2016-02-24T12:34:42Z</time>
      </trkpt>
      <trkpt lat="44.6853" lon="3.26045">
        <ele>1028.27</ele>
        <time>2016-02-24T12:34:43Z</time>
      </trkpt>
      <trkpt lat="44.68533" lon="3.26052">
        <ele>1028.27</ele>
        <time>2016-02-24T12:34:44Z</time>
      </trkpt>
      <trkpt lat="44.68537" lon="3.26057">
        <ele>1028.27</ele>
        <time>2016-02-24T12:34:45Z</time>
      </trkpt>
      <trkpt lat="44.68542" lon="3.2606">
        <ele>1028.75</ele>
        <time>2016-02-24T12:34:46Z</time>
      </trkpt>
      <trkpt lat="44.68547" lon="3.26062">
        <ele>1028.75</ele>
        <time>2016-02-24T12:34:47Z</time>
      </trkpt>
      <trkpt lat="44.68551" lon="3.26064">
        <ele>1028.75</ele>
        <time>2016-02-24T12:34:48Z</time>
      </trkpt>
      <trkpt lat="44.68556" lon="3.26065">
        <ele>1028.75</ele>
        <time>2016-02-24T12:34:49Z</time>
      </trkpt>
      <trkpt lat="44.6856" lon="3.26066">
        <ele>1029.23</ele>
        <time>2016-02-24T12:34:50Z</time>
      </trkpt>
      <trkpt lat="44.68564" lon="3.26066">
        <ele>1029.23</ele>
        <time>2016-02-24T12:34:51Z</time>
      </trkpt>
      <trkpt lat="44.68568" lon="3.26066">
        <ele>1029.23</ele>
        <time>2016-02-24T12:34:52Z</time>
      </trkpt>
      <trkpt lat="44.68571" lon="3.26066">
        <ele>1029.71</ele>
        <time>2016-02-24T12:34:53Z</time>
      </trkpt>
      <trkpt lat="44.6859" lon="3.26068">
        <ele>1023.46</ele>
        <time>2016-02-24T12:34:58Z</time>
      </trkpt>
      <trkpt lat="44.68594" lon="3.26068">
        <ele>1033.07</ele>
        <time>2016-02-24T12:34:59Z</time>
      </trkpt>
      <trkpt lat="44.68597" lon="3.26068">
        <ele>1029.71</ele>
        <time>2016-02-24T12:35:00Z</time>
      </trkpt>
      <trkpt lat="44.68647" lon="3.2607">
        <ele>1030.67</ele>
        <time>2016-02-24T12:35:12Z</time>
      </trkpt>
      <trkpt lat="44.68689" lon="3.26069">
        <ele>1031.15</ele>
        <time>2016-02-24T12:35:23Z</time>
      </trkpt>
      <trkpt lat="44.68705" lon="3.26069">
        <ele>1030.67</ele>
        <time>2016-02-24T12:35:27Z</time>
      </trkpt>
      <trkpt lat="44.6875" lon="3.26068">
        <ele>1028.75</ele>
        <time>2016-02-24T12:35:38Z</time>
      </trkpt>
      <trkpt lat="44.68754" lon="3.26069">
        <ele>1033.55</ele>
        <time>2016-02-24T12:35:39Z</time>
      </trkpt>
      <trkpt lat="44.68791" lon="3.26095">
        <ele>1031.15</ele>
        <time>2016-02-24T12:35:51Z</time>
      </trkpt>
      <trkpt lat="44.68824" lon="3.26138">
        <ele>1030.19</ele>
        <time>2016-02-24T12:36:02Z</time>
      </trkpt>
      <trkpt lat="44.68834" lon="3.26149">
        <ele>1030.19</ele>
        <time>2016-02-24T12:36:05Z</time>
      </trkpt>
      <trkpt lat="44.68837" lon="3.26154">
        <ele>1029.71</ele>
        <time>2016-02-24T12:36:06Z</time>
      </trkpt>
      <trkpt lat="44.68858" lon="3.26181">
        <ele>1029.23</ele>
        <time>2016-02-24T12:36:13Z</time>
      </trkpt>
      <trkpt lat="44.68861" lon="3.26185">
        <ele>1028.75</ele>
        <time>2016-02-24T12:36:14Z</time>
      </trkpt>
      <trkpt lat="44.68893" lon="3.26218">
        <ele>1025.86</ele>
        <time>2016-02-24T12:36:22Z</time>
      </trkpt>
      <trkpt lat="44.68902" lon="3.26227">
        <ele>1024.9</ele>
        <time>2016-02-24T12:36:24Z</time>
      </trkpt>
      <trkpt lat="44.68919" lon="3.26238">
        <ele>1024.42</ele>
        <time>2016-02-24T12:36:27Z</time>
      </trkpt>
      <trkpt lat="44.68935" lon="3.26243">
        <ele>1023.46</ele>
        <time>2016-02-24T12:36:30Z</time>
      </trkpt>
      <trkpt lat="44.68952" lon="3.26244">
        <ele>1023.46</ele>
        <time>2016-02-24T12:36:33Z</time>
      </trkpt>
      <trkpt lat="44.68957" lon="3.26243">
        <ele>1023.46</ele>
        <time>2016-02-24T12:36:34Z</time>
      </trkpt>
      <trkpt lat="44.68961" lon="3.26245">
        <ele>1023.94</ele>
        <time>2016-02-24T12:36:35Z</time>
      </trkpt>
      <trkpt lat="44.68965" lon="3.26248">
        <ele>1023.46</ele>
        <time>2016-02-24T12:36:36Z</time>
      </trkpt>
      <trkpt lat="44.68969" lon="3.26252">
        <ele>1023.46</ele>
        <time>2016-02-24T12:36:37Z</time>
      </trkpt>
      <trkpt lat="44.68971" lon="3.26257">
        <ele>1023.94</ele>
        <time>2016-02-24T12:36:38Z</time>
      </trkpt>
      <trkpt lat="44.68973" lon="3.26262">
        <ele>1024.42</ele>
        <time>2016-02-24T12:36:39Z</time>
      </trkpt>
      <trkpt lat="44.68976" lon="3.26278">
        <ele>1023.94</ele>
        <time>2016-02-24T12:36:42Z</time>
      </trkpt>
      <trkpt lat="44.68979" lon="3.26289">
        <ele>1023.94</ele>
        <time>2016-02-24T12:36:44Z</time>
      </trkpt>
      <trkpt lat="44.68981" lon="3.26295">
        <ele>1022.98</ele>
        <time>2016-02-24T12:36:45Z</time>
      </trkpt>
      <trkpt lat="44.68988" lon="3.26328">
        <ele>1022.02</ele>
        <time>2016-02-24T12:36:50Z</time>
      </trkpt>
      <trkpt lat="44.68992" lon="3.26344">
        <ele>1021.54</ele>
        <time>2016-02-24T12:36:52Z</time>
      </trkpt>
      <trkpt lat="44.69002" lon="3.26389">
        <ele>1018.65</ele>
        <time>2016-02-24T12:36:58Z</time>
      </trkpt>
      <trkpt lat="44.69005" lon="3.26398">
        <ele>1018.65</ele>
        <time>2016-02-24T12:36:59Z</time>
      </trkpt>
      <trkpt lat="44.69026" lon="3.26455">
        <ele>1016.25</ele>
        <time>2016-02-24T12:37:06Z</time>
      </trkpt>
      <trkpt lat="44.69029" lon="3.26464">
        <ele>1015.77</ele>
        <time>2016-02-24T12:37:07Z</time>
      </trkpt>
      <trkpt lat="44.69031" lon="3.26473">
        <ele>1015.77</ele>
        <time>2016-02-24T12:37:08Z</time>
      </trkpt>
      <trkpt lat="44.69031" lon="3.26482">
        <ele>1015.29</ele>
        <time>2016-02-24T12:37:09Z</time>
      </trkpt>
      <trkpt lat="44.6903" lon="3.26491">
        <ele>1014.81</ele>
        <time>2016-02-24T12:37:10Z</time>
      </trkpt>
      <trkpt lat="44.69029" lon="3.26498">
        <ele>1016.25</ele>
        <time>2016-02-24T12:37:11Z</time>
      </trkpt>
      <trkpt lat="44.69028" lon="3.26502">
        <ele>1016.25</ele>
        <time>2016-02-24T12:37:12Z</time>
      </trkpt>
      <trkpt lat="44.69028" lon="3.26504">
        <ele>1016.25</ele>
        <time>2016-02-24T12:37:13Z</time>
      </trkpt>
      <trkpt lat="44.69029" lon="3.26507">
        <ele>1015.77</ele>
        <time>2016-02-24T12:37:14Z</time>
      </trkpt>
      <trkpt lat="44.69031" lon="3.26507">
        <ele>1015.77</ele>
        <time>2016-02-24T12:37:15Z</time>
      </trkpt>
      <trkpt lat="44.69032" lon="3.26506">
        <ele>1015.77</ele>
        <time>2016-02-24T12:37:16Z</time>
      </trkpt>
      <trkpt lat="44.69031" lon="3.26504">
        <ele>1016.25</ele>
        <time>2016-02-24T12:37:17Z</time>
      </trkpt>
      <trkpt lat="44.6903" lon="3.26502">
        <ele>1016.25</ele>
        <time>2016-02-24T12:37:18Z</time>
      </trkpt>
      <trkpt lat="44.6903" lon="3.265">
        <ele>1016.73</ele>
        <time>2016-02-24T12:37:19Z</time>
      </trkpt>
      <trkpt lat="44.6903" lon="3.26497">
        <ele>1016.73</ele>
        <time>2016-02-24T12:37:20Z</time>
      </trkpt>
      <trkpt lat="44.69031" lon="3.26495">
        <ele>1016.73</ele>
        <time>2016-02-24T12:37:21Z</time>
      </trkpt>
      <trkpt lat="44.69032" lon="3.26492">
        <ele>1016.73</ele>
        <time>2016-02-24T12:37:22Z</time>
      </trkpt>
      <trkpt lat="44.69033" lon="3.26489">
        <ele>1016.73</ele>
        <time>2016-02-24T12:37:23Z</time>
      </trkpt>
      <trkpt lat="44.69034" lon="3.26487">
        <ele>1016.25</ele>
        <time>2016-02-24T12:37:24Z</time>
      </trkpt>
      <trkpt lat="44.69037" lon="3.26485">
        <ele>1015.77</ele>
        <time>2016-02-24T12:37:25Z</time>
      </trkpt>
      <trkpt lat="44.69041" lon="3.26485">
        <ele>1015.77</ele>
        <time>2016-02-24T12:37:26Z</time>
      </trkpt>
      <trkpt lat="44.69045" lon="3.26483">
        <ele>1015.29</ele>
        <time>2016-02-24T12:37:27Z</time>
      </trkpt>
      <trkpt lat="44.6905" lon="3.26482">
        <ele>1015.29</ele>
        <time>2016-02-24T12:37:28Z</time>
      </trkpt>
      <trkpt lat="44.69054" lon="3.26481">
        <ele>1015.29</ele>
        <time>2016-02-24T12:37:29Z</time>
      </trkpt>
      <trkpt lat="44.69058" lon="3.26479">
        <ele>1015.29</ele>
        <time>2016-02-24T12:37:30Z</time>
      </trkpt>
      <trkpt lat="44.69062" lon="3.26478">
        <ele>1015.29</ele>
        <time>2016-02-24T12:37:31Z</time>
      </trkpt>
      <trkpt lat="44.69076" lon="3.26473">
        <ele>1014.81</ele>
        <time>2016-02-24T12:37:34Z</time>
      </trkpt>
      <trkpt lat="44.69086" lon="3.26467">
        <ele>1014.81</ele>
        <time>2016-02-24T12:37:36Z</time>
      </trkpt>
      <trkpt lat="44.69116" lon="3.26452">
        <ele>1016.73</ele>
        <time>2016-02-24T12:37:43Z</time>
      </trkpt>
      <trkpt lat="44.69124" lon="3.26446">
        <ele>1016.25</ele>
        <time>2016-02-24T12:37:45Z</time>
      </trkpt>
      <trkpt lat="44.69128" lon="3.26443">
        <ele>1016.25</ele>
        <time>2016-02-24T12:37:46Z</time>
      </trkpt>
      <trkpt lat="44.69158" lon="3.26425">
        <ele>1016.25</ele>
        <time>2016-02-24T12:37:53Z</time>
      </trkpt>
      <trkpt lat="44.69162" lon="3.26422">
        <ele>1016.25</ele>
        <time>2016-02-24T12:37:54Z</time>
      </trkpt>
      <trkpt lat="44.69166" lon="3.26419">
        <ele>1016.73</ele>
        <time>2016-02-24T12:37:55Z</time>
      </trkpt>
      <trkpt lat="44.69169" lon="3.26417">
        <ele>1016.73</ele>
        <time>2016-02-24T12:37:56Z</time>
      </trkpt>
      <trkpt lat="44.69172" lon="3.26414">
        <ele>1016.73</ele>
        <time>2016-02-24T12:37:57Z</time>
      </trkpt>
      <trkpt lat="44.69174" lon="3.26411">
        <ele>1016.73</ele>
        <time>2016-02-24T12:37:58Z</time>
      </trkpt>
      <trkpt lat="44.69199" lon="3.26383">
        <ele>1016.25</ele>
        <time>2016-02-24T12:38:07Z</time>
      </trkpt>
      <trkpt lat="44.69232" lon="3.26358">
        <ele>1016.73</ele>
        <time>2016-02-24T12:38:17Z</time>
      </trkpt>
      <trkpt lat="44.69236" lon="3.26355">
        <ele>1016.73</ele>
        <time>2016-02-24T12:38:18Z</time>
      </trkpt>
      <trkpt lat="44.69239" lon="3.26352">
        <ele>1016.25</ele>
        <time>2016-02-24T12:38:19Z</time>
      </trkpt>
      <trkpt lat="44.69243" lon="3.26348">
        <ele>1016.25</ele>
        <time>2016-02-24T12:38:20Z</time>
      </trkpt>
      <trkpt lat="44.69251" lon="3.2634">
        <ele>1016.25</ele>
        <time>2016-02-24T12:38:22Z</time>
      </trkpt>
      <trkpt lat="44.69289" lon="3.26306">
        <ele>1016.73</ele>
        <time>2016-02-24T12:38:33Z</time>
      </trkpt>
      <trkpt lat="44.6932" lon="3.26278">
        <ele>1017.21</ele>
        <time>2016-02-24T12:38:44Z</time>
      </trkpt>
      <trkpt lat="44.69352" lon="3.26269">
        <ele>1017.21</ele>
        <time>2016-02-24T12:38:54Z</time>
      </trkpt>
      <trkpt lat="44.69389" lon="3.26257">
        <ele>1017.21</ele>
        <time>2016-02-24T12:39:08Z</time>
      </trkpt>
      <trkpt lat="44.69414" lon="3.26234">
        <ele>1017.21</ele>
        <time>2016-02-24T12:39:20Z</time>
      </trkpt>
      <trkpt lat="44.69447" lon="3.26205">
        <ele>1017.21</ele>
        <time>2016-02-24T12:39:34Z</time>
      </trkpt>
      <trkpt lat="44.69477" lon="3.26188">
        <ele>1017.69</ele>
        <time>2016-02-24T12:39:45Z</time>
      </trkpt>
      <trkpt lat="44.69518" lon="3.26164">
        <ele>1018.17</ele>
        <time>2016-02-24T12:39:59Z</time>
      </trkpt>
      <trkpt lat="44.69553" lon="3.26149">
        <ele>1018.17</ele>
        <time>2016-02-24T12:40:10Z</time>
      </trkpt>
      <trkpt lat="44.69591" lon="3.26137">
        <ele>1019.13</ele>
        <time>2016-02-24T12:40:22Z</time>
      </trkpt>
      <trkpt lat="44.69635" lon="3.26114">
        <ele>1020.1</ele>
        <time>2016-02-24T12:40:35Z</time>
      </trkpt>
      <trkpt lat="44.69664" lon="3.26088">
        <ele>1020.58</ele>
        <time>2016-02-24T12:40:45Z</time>
      </trkpt>
      <trkpt lat="44.69666" lon="3.26088">
        <ele>1021.06</ele>
        <time>2016-02-24T12:40:46Z</time>
      </trkpt>
      <trkpt lat="44.69668" lon="3.26089">
        <ele>1021.06</ele>
        <time>2016-02-24T12:40:47Z</time>
      </trkpt>
      <trkpt lat="44.6967" lon="3.26092">
        <ele>1021.06</ele>
        <time>2016-02-24T12:40:48Z</time>
      </trkpt>
      <trkpt lat="44.69673" lon="3.26094">
        <ele>1021.06</ele>
        <time>2016-02-24T12:40:49Z</time>
      </trkpt>
      <trkpt lat="44.6971" lon="3.26141">
        <ele>1019.62</ele>
        <time>2016-02-24T12:41:03Z</time>
      </trkpt>
      <trkpt lat="44.69721" lon="3.26152">
        <ele>1013.85</ele>
        <time>2016-02-24T12:41:07Z</time>
      </trkpt>
      <trkpt lat="44.69724" lon="3.26154">
        <ele>1023.46</ele>
        <time>2016-02-24T12:41:08Z</time>
      </trkpt>
      <trkpt lat="44.69726" lon="3.26156">
        <ele>1019.62</ele>
        <time>2016-02-24T12:41:09Z</time>
      </trkpt>
      <trkpt lat="44.6976" lon="3.26192">
        <ele>1019.13</ele>
        <time>2016-02-24T12:41:24Z</time>
      </trkpt>
      <trkpt lat="44.69786" lon="3.26216">
        <ele>1019.13</ele>
        <time>2016-02-24T12:41:36Z</time>
      </trkpt>
      <trkpt lat="44.69792" lon="3.26221">
        <ele>1019.13</ele>
        <time>2016-02-24T12:41:39Z</time>
      </trkpt>
      <trkpt lat="44.69794" lon="3.26223">
        <ele>1019.13</ele>
        <time>2016-02-24T12:41:40Z</time>
      </trkpt>
      <trkpt lat="44.69797" lon="3.26225">
        <ele>1019.13</ele>
        <time>2016-02-24T12:41:41Z</time>
      </trkpt>
      <trkpt lat="44.69799" lon="3.26227">
        <ele>1019.13</ele>
        <time>2016-02-24T12:41:42Z</time>
      </trkpt>
      <trkpt lat="44.69802" lon="3.26229">
        <ele>1019.13</ele>
        <time>2016-02-24T12:41:43Z</time>
      </trkpt>
      <trkpt lat="44.69805" lon="3.26232">
        <ele>1019.62</ele>
        <time>2016-02-24T12:41:44Z</time>
      </trkpt>
      <trkpt lat="44.69844" lon="3.2626">
        <ele>1020.58</ele>
        <time>2016-02-24T12:41:59Z</time>
      </trkpt>
      <trkpt lat="44.69873" lon="3.26276">
        <ele>1021.54</ele>
        <time>2016-02-24T12:42:14Z</time>
      </trkpt>
      <trkpt lat="44.699" lon="3.26299">
        <ele>1022.5</ele>
        <time>2016-02-24T12:42:28Z</time>
      </trkpt>
      <trkpt lat="44.69927" lon="3.26332">
        <ele>1024.42</ele>
        <time>2016-02-24T12:42:44Z</time>
      </trkpt>
      <trkpt lat="44.69931" lon="3.26343">
        <ele>1024.9</ele>
        <time>2016-02-24T12:42:48Z</time>
      </trkpt>
      <trkpt lat="44.69933" lon="3.26345">
        <ele>1024.9</ele>
        <time>2016-02-24T12:42:49Z</time>
      </trkpt>
      <trkpt lat="44.69947" lon="3.26378">
        <ele>1028.27</ele>
        <time>2016-02-24T12:43:03Z</time>
      </trkpt>
      <trkpt lat="44.69964" lon="3.26418">
        <ele>1030.19</ele>
        <time>2016-02-24T12:43:18Z</time>
      </trkpt>
      <trkpt lat="44.69967" lon="3.26424">
        <ele>1030.67</ele>
        <time>2016-02-24T12:43:21Z</time>
      </trkpt>
      <trkpt lat="44.69967" lon="3.26427">
        <ele>1030.67</ele>
        <time>2016-02-24T12:43:22Z</time>
      </trkpt>
      <trkpt lat="44.69978" lon="3.26455">
        <ele>1031.63</ele>
        <time>2016-02-24T12:43:35Z</time>
      </trkpt>
      <trkpt lat="44.69991" lon="3.26487">
        <ele>1033.07</ele>
        <time>2016-02-24T12:43:50Z</time>
      </trkpt>
      <trkpt lat="44.70003" lon="3.26522">
        <ele>1035</ele>
        <time>2016-02-24T12:44:05Z</time>
      </trkpt>
      <trkpt lat="44.70019" lon="3.26559">
        <ele>1035.96</ele>
        <time>2016-02-24T12:44:20Z</time>
      </trkpt>
      <trkpt lat="44.70035" lon="3.26596">
        <ele>1037.4</ele>
        <time>2016-02-24T12:44:35Z</time>
      </trkpt>
      <trkpt lat="44.7005" lon="3.26633">
        <ele>1039.8</ele>
        <time>2016-02-24T12:44:50Z</time>
      </trkpt>
      <trkpt lat="44.70066" lon="3.26667">
        <ele>1041.25</ele>
        <time>2016-02-24T12:45:03Z</time>
      </trkpt>
      <trkpt lat="44.70087" lon="3.26701">
        <ele>1043.17</ele>
        <time>2016-02-24T12:45:17Z</time>
      </trkpt>
      <trkpt lat="44.70109" lon="3.26738">
        <ele>1045.09</ele>
        <time>2016-02-24T12:45:32Z</time>
      </trkpt>
      <trkpt lat="44.70125" lon="3.26787">
        <ele>1046.05</ele>
        <time>2016-02-24T12:45:47Z</time>
      </trkpt>
      <trkpt lat="44.70153" lon="3.26805">
        <ele>1045.57</ele>
        <time>2016-02-24T12:45:59Z</time>
      </trkpt>
      <trkpt lat="44.70196" lon="3.26816">
        <ele>1046.05</ele>
        <time>2016-02-24T12:46:15Z</time>
      </trkpt>
      <trkpt lat="44.70229" lon="3.26826">
        <ele>1046.53</ele>
        <time>2016-02-24T12:46:29Z</time>
      </trkpt>
      <trkpt lat="44.70269" lon="3.26833">
        <ele>1046.53</ele>
        <time>2016-02-24T12:46:45Z</time>
      </trkpt>
      <trkpt lat="44.70299" lon="3.26838">
        <ele>1047.01</ele>
        <time>2016-02-24T12:46:58Z</time>
      </trkpt>
      <trkpt lat="44.70301" lon="3.26838">
        <ele>1047.49</ele>
        <time>2016-02-24T12:46:59Z</time>
      </trkpt>
      <trkpt lat="44.7034" lon="3.26842">
        <ele>1048.45</ele>
        <time>2016-02-24T12:47:15Z</time>
      </trkpt>
      <trkpt lat="44.70379" lon="3.26846">
        <ele>1049.42</ele>
        <time>2016-02-24T12:47:29Z</time>
      </trkpt>
      <trkpt lat="44.70417" lon="3.26841">
        <ele>1050.86</ele>
        <time>2016-02-24T12:47:43Z</time>
      </trkpt>
      <trkpt lat="44.70453" lon="3.26837">
        <ele>1050.86</ele>
        <time>2016-02-24T12:47:57Z</time>
      </trkpt>
      <trkpt lat="44.70479" lon="3.26838">
        <ele>1052.3</ele>
        <time>2016-02-24T12:48:08Z</time>
      </trkpt>
      <trkpt lat="44.70512" lon="3.26839">
        <ele>1051.34</ele>
        <time>2016-02-24T12:48:20Z</time>
      </trkpt>
      <trkpt lat="44.70553" lon="3.26848">
        <ele>1051.34</ele>
        <time>2016-02-24T12:48:34Z</time>
      </trkpt>
      <trkpt lat="44.7059" lon="3.2687">
        <ele>1052.3</ele>
        <time>2016-02-24T12:48:48Z</time>
      </trkpt>
      <trkpt lat="44.70624" lon="3.26891">
        <ele>1053.26</ele>
        <time>2016-02-24T12:49:01Z</time>
      </trkpt>
      <trkpt lat="44.70658" lon="3.26911">
        <ele>1054.22</ele>
        <time>2016-02-24T12:49:15Z</time>
      </trkpt>
      <trkpt lat="44.70692" lon="3.26924">
        <ele>1055.18</ele>
        <time>2016-02-24T12:49:29Z</time>
      </trkpt>
      <trkpt lat="44.70722" lon="3.2693">
        <ele>1056.63</ele>
        <time>2016-02-24T12:49:41Z</time>
      </trkpt>
      <trkpt lat="44.70759" lon="3.26938">
        <ele>1058.07</ele>
        <time>2016-02-24T12:49:56Z</time>
      </trkpt>
      <trkpt lat="44.7079" lon="3.26947">
        <ele>1059.99</ele>
        <time>2016-02-24T12:50:10Z</time>
      </trkpt>
      <trkpt lat="44.70822" lon="3.26955">
        <ele>1062.39</ele>
        <time>2016-02-24T12:50:24Z</time>
      </trkpt>
      <trkpt lat="44.70869" lon="3.26973">
        <ele>1063.84</ele>
        <time>2016-02-24T12:50:43Z</time>
      </trkpt>
      <trkpt lat="44.709" lon="3.26996">
        <ele>1063.84</ele>
        <time>2016-02-24T12:50:57Z</time>
      </trkpt>
      <trkpt lat="44.70929" lon="3.27017">
        <ele>1064.8</ele>
        <time>2016-02-24T12:51:10Z</time>
      </trkpt>
      <trkpt lat="44.70953" lon="3.27029">
        <ele>1065.76</ele>
        <time>2016-02-24T12:51:21Z</time>
      </trkpt>
      <trkpt lat="44.7098" lon="3.27048">
        <ele>1066.24</ele>
        <time>2016-02-24T12:51:34Z</time>
      </trkpt>
      <trkpt lat="44.71003" lon="3.27076">
        <ele>1066.24</ele>
        <time>2016-02-24T12:51:47Z</time>
      </trkpt>
      <trkpt lat="44.71027" lon="3.2711">
        <ele>1065.76</ele>
        <time>2016-02-24T12:52:01Z</time>
      </trkpt>
      <trkpt lat="44.71039" lon="3.27127">
        <ele>1065.76</ele>
        <time>2016-02-24T12:52:08Z</time>
      </trkpt>
      <trkpt lat="44.7104" lon="3.2713">
        <ele>1065.76</ele>
        <time>2016-02-24T12:52:09Z</time>
      </trkpt>
      <trkpt lat="44.71066" lon="3.27166">
        <ele>1059.51</ele>
        <time>2016-02-24T12:52:22Z</time>
      </trkpt>
      <trkpt lat="44.71068" lon="3.27169">
        <ele>1072.97</ele>
        <time>2016-02-24T12:52:23Z</time>
      </trkpt>
      <trkpt lat="44.7107" lon="3.27172">
        <ele>1065.28</ele>
        <time>2016-02-24T12:52:24Z</time>
      </trkpt>
      <trkpt lat="44.711" lon="3.27215">
        <ele>1065.28</ele>
        <time>2016-02-24T12:52:38Z</time>
      </trkpt>
      <trkpt lat="44.71133" lon="3.2725">
        <ele>1065.76</ele>
        <time>2016-02-24T12:52:54Z</time>
      </trkpt>
      <trkpt lat="44.7116" lon="3.27247">
        <ele>1065.76</ele>
        <time>2016-02-24T12:53:05Z</time>
      </trkpt>
      <trkpt lat="44.71202" lon="3.27228">
        <ele>1066.24</ele>
        <time>2016-02-24T12:53:21Z</time>
      </trkpt>
      <trkpt lat="44.71248" lon="3.27211">
        <ele>1065.76</ele>
        <time>2016-02-24T12:53:36Z</time>
      </trkpt>
      <trkpt lat="44.71282" lon="3.27197">
        <ele>1066.24</ele>
        <time>2016-02-24T12:53:47Z</time>
      </trkpt>
      <trkpt lat="44.71323" lon="3.27182">
        <ele>1068.16</ele>
        <time>2016-02-24T12:54:02Z</time>
      </trkpt>
      <trkpt lat="44.71367" lon="3.27171">
        <ele>1068.16</ele>
        <time>2016-02-24T12:54:16Z</time>
      </trkpt>
      <trkpt lat="44.71412" lon="3.27155">
        <ele>1067.2</ele>
        <time>2016-02-24T12:54:30Z</time>
      </trkpt>
      <trkpt lat="44.71416" lon="3.27152">
        <ele>1067.2</ele>
        <time>2016-02-24T12:54:31Z</time>
      </trkpt>
      <trkpt lat="44.71419" lon="3.27148">
        <ele>1067.2</ele>
        <time>2016-02-24T12:54:32Z</time>
      </trkpt>
      <trkpt lat="44.71422" lon="3.27144">
        <ele>1067.2</ele>
        <time>2016-02-24T12:54:33Z</time>
      </trkpt>
      <trkpt lat="44.71429" lon="3.27127">
        <ele>1066.72</ele>
        <time>2016-02-24T12:54:36Z</time>
      </trkpt>
      <trkpt lat="44.71431" lon="3.27121">
        <ele>1066.72</ele>
        <time>2016-02-24T12:54:37Z</time>
      </trkpt>
      <trkpt lat="44.71448" lon="3.27085">
        <ele>1065.76</ele>
        <time>2016-02-24T12:54:43Z</time>
      </trkpt>
      <trkpt lat="44.7147" lon="3.27034">
        <ele>1064.8</ele>
        <time>2016-02-24T12:54:52Z</time>
      </trkpt>
      <trkpt lat="44.71483" lon="3.26996">
        <ele>1063.84</ele>
        <time>2016-02-24T12:55:01Z</time>
      </trkpt>
      <trkpt lat="44.71487" lon="3.26995">
        <ele>1062.87</ele>
        <time>2016-02-24T12:55:02Z</time>
      </trkpt>
      <trkpt lat="44.71504" lon="3.26993">
        <ele>1063.84</ele>
        <time>2016-02-24T12:55:06Z</time>
      </trkpt>
      <trkpt lat="44.71508" lon="3.26994">
        <ele>1062.87</ele>
        <time>2016-02-24T12:55:07Z</time>
      </trkpt>
      <trkpt lat="44.7152" lon="3.27003">
        <ele>1062.39</ele>
        <time>2016-02-24T12:55:10Z</time>
      </trkpt>
      <trkpt lat="44.71542" lon="3.27015">
        <ele>1060.95</ele>
        <time>2016-02-24T12:55:15Z</time>
      </trkpt>
      <trkpt lat="44.71547" lon="3.27018">
        <ele>1059.99</ele>
        <time>2016-02-24T12:55:16Z</time>
      </trkpt>
      <trkpt lat="44.71581" lon="3.27033">
        <ele>1056.63</ele>
        <time>2016-02-24T12:55:21Z</time>
      </trkpt>
      <trkpt lat="44.7162" lon="3.27054">
        <ele>1053.26</ele>
        <time>2016-02-24T12:55:26Z</time>
      </trkpt>
      <trkpt lat="44.71649" lon="3.27083">
        <ele>1050.38</ele>
        <time>2016-02-24T12:55:30Z</time>
      </trkpt>
      <trkpt lat="44.71694" lon="3.27125">
        <ele>1048.45</ele>
        <time>2016-02-24T12:55:36Z</time>
      </trkpt>
      <trkpt lat="44.71702" lon="3.27129">
        <ele>1047.97</ele>
        <time>2016-02-24T12:55:37Z</time>
      </trkpt>
      <trkpt lat="44.71802" lon="3.2716">
        <ele>1048.45</ele>
        <time>2016-02-24T12:55:50Z</time>
      </trkpt>
      <trkpt lat="44.71885" lon="3.27201">
        <ele>1048.45</ele>
        <time>2016-02-24T12:56:04Z</time>
      </trkpt>
      <trkpt lat="44.7197" lon="3.27266">
        <ele>1047.01</ele>
        <time>2016-02-24T12:56:20Z</time>
      </trkpt>
      <trkpt lat="44.72025" lon="3.2729">
        <ele>1047.97</ele>
        <time>2016-02-24T12:56:31Z</time>
      </trkpt>
      <trkpt lat="44.72027" lon="3.27294">
        <ele>1047.49</ele>
        <time>2016-02-24T12:56:32Z</time>
      </trkpt>
      <trkpt lat="44.7203" lon="3.27299">
        <ele>1047.49</ele>
        <time>2016-02-24T12:56:33Z</time>
      </trkpt>
      <trkpt lat="44.72032" lon="3.27306">
        <ele>1047.01</ele>
        <time>2016-02-24T12:56:34Z</time>
      </trkpt>
      <trkpt lat="44.72035" lon="3.27314">
        <ele>1046.05</ele>
        <time>2016-02-24T12:56:35Z</time>
      </trkpt>
      <trkpt lat="44.72041" lon="3.27339">
        <ele>1043.65</ele>
        <time>2016-02-24T12:56:38Z</time>
      </trkpt>
      <trkpt lat="44.72042" lon="3.27345">
        <ele>1042.69</ele>
        <time>2016-02-24T12:56:39Z</time>
      </trkpt>
      <trkpt lat="44.7204" lon="3.27351">
        <ele>1042.69</ele>
        <time>2016-02-24T12:56:40Z</time>
      </trkpt>
      <trkpt lat="44.72037" lon="3.27355">
        <ele>1042.69</ele>
        <time>2016-02-24T12:56:41Z</time>
      </trkpt>
      <trkpt lat="44.72035" lon="3.27359">
        <ele>1042.69</ele>
        <time>2016-02-24T12:56:42Z</time>
      </trkpt>
      <trkpt lat="44.72032" lon="3.27363">
        <ele>1042.69</ele>
        <time>2016-02-24T12:56:43Z</time>
      </trkpt>
      <trkpt lat="44.72016" lon="3.27397">
        <ele>1041.73</ele>
        <time>2016-02-24T12:56:49Z</time>
      </trkpt>
      <trkpt lat="44.72017" lon="3.27403">
        <ele>1041.25</ele>
        <time>2016-02-24T12:56:50Z</time>
      </trkpt>
      <trkpt lat="44.72019" lon="3.27409">
        <ele>1041.73</ele>
        <time>2016-02-24T12:56:51Z</time>
      </trkpt>
      <trkpt lat="44.72021" lon="3.27413">
        <ele>1041.73</ele>
        <time>2016-02-24T12:56:52Z</time>
      </trkpt>
      <trkpt lat="44.72024" lon="3.27417">
        <ele>1041.73</ele>
        <time>2016-02-24T12:56:53Z</time>
      </trkpt>
      <trkpt lat="44.72033" lon="3.27428">
        <ele>1043.17</ele>
        <time>2016-02-24T12:57:02Z</time>
      </trkpt>
      <trkpt lat="44.72029" lon="3.27427">
        <ele>1042.69</ele>
        <time>2016-02-24T12:57:11Z</time>
      </trkpt>
      <trkpt lat="44.72028" lon="3.27425">
        <ele>1042.69</ele>
        <time>2016-02-24T12:57:12Z</time>
      </trkpt>
      <trkpt lat="44.72027" lon="3.27423">
        <ele>1042.69</ele>
        <time>2016-02-24T12:57:13Z</time>
      </trkpt>
      <trkpt lat="44.72016" lon="3.27407">
        <ele>1041.73</ele>
        <time>2016-02-24T12:57:17Z</time>
      </trkpt>
      <trkpt lat="44.71987" lon="3.27362">
        <ele>1042.69</ele>
        <time>2016-02-24T12:57:29Z</time>
      </trkpt>
      <trkpt lat="44.71964" lon="3.27335">
        <ele>1045.57</ele>
        <time>2016-02-24T12:57:41Z</time>
      </trkpt>
      <trkpt lat="44.71943" lon="3.27328">
        <ele>1047.49</ele>
        <time>2016-02-24T12:57:50Z</time>
      </trkpt>
      <trkpt lat="44.71909" lon="3.27357">
        <ele>1049.9</ele>
        <time>2016-02-24T12:58:06Z</time>
      </trkpt>
      <trkpt lat="44.71905" lon="3.27363">
        <ele>1050.38</ele>
        <time>2016-02-24T12:58:09Z</time>
      </trkpt>
      <trkpt lat="44.71903" lon="3.27364">
        <ele>1050.38</ele>
        <time>2016-02-24T12:58:10Z</time>
      </trkpt>
      <trkpt lat="44.719" lon="3.27365">
        <ele>1050.38</ele>
        <time>2016-02-24T12:58:11Z</time>
      </trkpt>
      <trkpt lat="44.71898" lon="3.27366">
        <ele>1050.38</ele>
        <time>2016-02-24T12:58:12Z</time>
      </trkpt>
      <trkpt lat="44.71896" lon="3.27368">
        <ele>1050.38</ele>
        <time>2016-02-24T12:58:13Z</time>
      </trkpt>
      <trkpt lat="44.71894" lon="3.27371">
        <ele>1050.38</ele>
        <time>2016-02-24T12:58:14Z</time>
      </trkpt>
      <trkpt lat="44.71892" lon="3.27373">
        <ele>1050.86</ele>
        <time>2016-02-24T12:58:15Z</time>
      </trkpt>
      <trkpt lat="44.71889" lon="3.27375">
        <ele>1050.86</ele>
        <time>2016-02-24T12:58:16Z</time>
      </trkpt>
      <trkpt lat="44.71882" lon="3.27385">
        <ele>1050.86</ele>
        <time>2016-02-24T12:58:20Z</time>
      </trkpt>
      <trkpt lat="44.7188" lon="3.27387">
        <ele>1050.86</ele>
        <time>2016-02-24T12:58:21Z</time>
      </trkpt>
      <trkpt lat="44.71878" lon="3.2739">
        <ele>1050.86</ele>
        <time>2016-02-24T12:58:22Z</time>
      </trkpt>
      <trkpt lat="44.71868" lon="3.27401">
        <ele>1052.3</ele>
        <time>2016-02-24T12:58:29Z</time>
      </trkpt>
      <trkpt lat="44.71866" lon="3.27401">
        <ele>1052.3</ele>
        <time>2016-02-24T12:58:30Z</time>
      </trkpt>
      <trkpt lat="44.71864" lon="3.274">
        <ele>1051.82</ele>
        <time>2016-02-24T12:58:31Z</time>
      </trkpt>
      <trkpt lat="44.71862" lon="3.27398">
        <ele>1052.3</ele>
        <time>2016-02-24T12:58:32Z</time>
      </trkpt>
      <trkpt lat="44.7186" lon="3.27397">
        <ele>1052.3</ele>
        <time>2016-02-24T12:58:33Z</time>
      </trkpt>
      <trkpt lat="44.71858" lon="3.27396">
        <ele>1052.78</ele>
        <time>2016-02-24T12:58:34Z</time>
      </trkpt>
      <trkpt lat="44.71835" lon="3.27381">
        <ele>1054.22</ele>
        <time>2016-02-24T12:58:46Z</time>
      </trkpt>
      <trkpt lat="44.71798" lon="3.27371">
        <ele>1056.15</ele>
        <time>2016-02-24T12:59:02Z</time>
      </trkpt>
      <trkpt lat="44.71762" lon="3.27359">
        <ele>1056.15</ele>
        <time>2016-02-24T12:59:19Z</time>
      </trkpt>
      <trkpt lat="44.71742" lon="3.2735">
        <ele>1057.11</ele>
        <time>2016-02-24T12:59:33Z</time>
      </trkpt>
      <trkpt lat="44.71742" lon="3.2735">
        <ele>1060.47</ele>
        <time>2016-02-24T12:59:46Z</time>
      </trkpt>
      <trkpt lat="44.71742" lon="3.2735">
        <ele>1055.18</ele>
        <time>2016-02-24T12:59:47Z</time>
      </trkpt>
      <trkpt lat="44.71742" lon="3.2735">
        <ele>1059.99</ele>
        <time>2016-02-24T12:59:48Z</time>
      </trkpt>
      <trkpt lat="44.71742" lon="3.2735">
        <ele>1055.67</ele>
        <time>2016-02-24T12:59:50Z</time>
      </trkpt>
      <trkpt lat="44.71743" lon="3.2735">
        <ele>1057.11</ele>
        <time>2016-02-24T13:00:11Z</time>
      </trkpt>
      <trkpt lat="44.71742" lon="3.27349">
        <ele>1057.11</ele>
        <time>2016-02-24T13:00:18Z</time>
      </trkpt>
      <trkpt lat="44.71741" lon="3.27346">
        <ele>1056.63</ele>
        <time>2016-02-24T13:00:19Z</time>
      </trkpt>
      <trkpt lat="44.7174" lon="3.27343">
        <ele>1056.15</ele>
        <time>2016-02-24T13:00:20Z</time>
      </trkpt>
      <trkpt lat="44.71739" lon="3.27339">
        <ele>1056.63</ele>
        <time>2016-02-24T13:00:21Z</time>
      </trkpt>
      <trkpt lat="44.71738" lon="3.27335">
        <ele>1056.63</ele>
        <time>2016-02-24T13:00:22Z</time>
      </trkpt>
      <trkpt lat="44.71737" lon="3.27332">
        <ele>1056.63</ele>
        <time>2016-02-24T13:00:23Z</time>
      </trkpt>
      <trkpt lat="44.71712" lon="3.273">
        <ele>1057.11</ele>
        <time>2016-02-24T13:00:35Z</time>
      </trkpt>
      <trkpt lat="44.71684" lon="3.2727">
        <ele>1058.07</ele>
        <time>2016-02-24T13:00:50Z</time>
      </trkpt>
      <trkpt lat="44.71661" lon="3.27256">
        <ele>1058.55</ele>
        <time>2016-02-24T13:01:02Z</time>
      </trkpt>
      <trkpt lat="44.71636" lon="3.2725">
        <ele>1058.55</ele>
        <time>2016-02-24T13:01:11Z</time>
      </trkpt>
      <trkpt lat="44.71591" lon="3.27208">
        <ele>1059.03</ele>
        <time>2016-02-24T13:01:25Z</time>
      </trkpt>
      <trkpt lat="44.71556" lon="3.27198">
        <ele>1059.51</ele>
        <time>2016-02-24T13:01:37Z</time>
      </trkpt>
      <trkpt lat="44.7151" lon="3.27196">
        <ele>1060.47</ele>
        <time>2016-02-24T13:01:53Z</time>
      </trkpt>
      <trkpt lat="44.71501" lon="3.27197">
        <ele>1061.43</ele>
        <time>2016-02-24T13:01:58Z</time>
      </trkpt>
      <trkpt lat="44.71499" lon="3.27196">
        <ele>1061.91</ele>
        <time>2016-02-24T13:01:59Z</time>
      </trkpt>
      <trkpt lat="44.71497" lon="3.27195">
        <ele>1061.91</ele>
        <time>2016-02-24T13:02:00Z</time>
      </trkpt>
      <trkpt lat="44.71471" lon="3.27199">
        <ele>1063.84</ele>
        <time>2016-02-24T13:02:13Z</time>
      </trkpt>
      <trkpt lat="44.71436" lon="3.27206">
        <ele>1066.72</ele>
        <time>2016-02-24T13:02:30Z</time>
      </trkpt>
      <trkpt lat="44.71407" lon="3.27217">
        <ele>1068.64</ele>
        <time>2016-02-24T13:02:44Z</time>
      </trkpt>
      <trkpt lat="44.71384" lon="3.27244">
        <ele>1070.57</ele>
        <time>2016-02-24T13:02:59Z</time>
      </trkpt>
      <trkpt lat="44.71375" lon="3.27268">
        <ele>1071.53</ele>
        <time>2016-02-24T13:03:09Z</time>
      </trkpt>
      <trkpt lat="44.71375" lon="3.27271">
        <ele>1071.05</ele>
        <time>2016-02-24T13:03:10Z</time>
      </trkpt>
      <trkpt lat="44.71375" lon="3.27274">
        <ele>1071.53</ele>
        <time>2016-02-24T13:03:11Z</time>
      </trkpt>
      <trkpt lat="44.71374" lon="3.27277">
        <ele>1071.53</ele>
        <time>2016-02-24T13:03:12Z</time>
      </trkpt>
      <trkpt lat="44.71374" lon="3.2728">
        <ele>1071.53</ele>
        <time>2016-02-24T13:03:13Z</time>
      </trkpt>
      <trkpt lat="44.71371" lon="3.27332">
        <ele>1072.49</ele>
        <time>2016-02-24T13:03:30Z</time>
      </trkpt>
      <trkpt lat="44.7137" lon="3.27371">
        <ele>1072.97</ele>
        <time>2016-02-24T13:03:43Z</time>
      </trkpt>
      <trkpt lat="44.71369" lon="3.27425">
        <ele>1072.97</ele>
        <time>2016-02-24T13:03:58Z</time>
      </trkpt>
      <trkpt lat="44.71367" lon="3.27481">
        <ele>1072.97</ele>
        <time>2016-02-24T13:04:11Z</time>
      </trkpt>
      <trkpt lat="44.71373" lon="3.27571">
        <ele>1070.57</ele>
        <time>2016-02-24T13:04:27Z</time>
      </trkpt>
      <trkpt lat="44.71376" lon="3.27577">
        <ele>1070.57</ele>
        <time>2016-02-24T13:04:28Z</time>
      </trkpt>
      <trkpt lat="44.71396" lon="3.27624">
        <ele>1068.64</ele>
        <time>2016-02-24T13:04:35Z</time>
      </trkpt>
      <trkpt lat="44.71398" lon="3.27631">
        <ele>1068.64</ele>
        <time>2016-02-24T13:04:36Z</time>
      </trkpt>
      <trkpt lat="44.71399" lon="3.27637">
        <ele>1069.12</ele>
        <time>2016-02-24T13:04:37Z</time>
      </trkpt>
      <trkpt lat="44.71401" lon="3.27644">
        <ele>1069.12</ele>
        <time>2016-02-24T13:04:38Z</time>
      </trkpt>
      <trkpt lat="44.71402" lon="3.2765">
        <ele>1069.12</ele>
        <time>2016-02-24T13:04:39Z</time>
      </trkpt>
      <trkpt lat="44.71415" lon="3.27753">
        <ele>1068.64</ele>
        <time>2016-02-24T13:04:56Z</time>
      </trkpt>
      <trkpt lat="44.71419" lon="3.27788">
        <ele>1068.64</ele>
        <time>2016-02-24T13:05:01Z</time>
      </trkpt>
      <trkpt lat="44.7142" lon="3.27843">
        <ele>1068.64</ele>
        <time>2016-02-24T13:05:10Z</time>
      </trkpt>
      <trkpt lat="44.7142" lon="3.27849">
        <ele>1068.64</ele>
        <time>2016-02-24T13:05:11Z</time>
      </trkpt>
      <trkpt lat="44.71417" lon="3.27905">
        <ele>1068.64</ele>
        <time>2016-02-24T13:05:21Z</time>
      </trkpt>
      <trkpt lat="44.71417" lon="3.27911">
        <ele>1068.64</ele>
        <time>2016-02-24T13:05:22Z</time>
      </trkpt>
      <trkpt lat="44.71418" lon="3.27917">
        <ele>1068.64</ele>
        <time>2016-02-24T13:05:23Z</time>
      </trkpt>
      <trkpt lat="44.71424" lon="3.27978">
        <ele>1069.6</ele>
        <time>2016-02-24T13:05:35Z</time>
      </trkpt>
      <trkpt lat="44.71445" lon="3.2802">
        <ele>1072.01</ele>
        <time>2016-02-24T13:05:48Z</time>
      </trkpt>
      <trkpt lat="44.71475" lon="3.28056">
        <ele>1074.41</ele>
        <time>2016-02-24T13:06:02Z</time>
      </trkpt>
      <trkpt lat="44.71502" lon="3.2808">
        <ele>1074.41</ele>
        <time>2016-02-24T13:06:14Z</time>
      </trkpt>
      <trkpt lat="44.71536" lon="3.2812">
        <ele>1070.08</ele>
        <time>2016-02-24T13:06:25Z</time>
      </trkpt>
      <trkpt lat="44.71541" lon="3.28125">
        <ele>1068.64</ele>
        <time>2016-02-24T13:06:26Z</time>
      </trkpt>
      <trkpt lat="44.71547" lon="3.2813">
        <ele>1067.68</ele>
        <time>2016-02-24T13:06:27Z</time>
      </trkpt>
      <trkpt lat="44.71553" lon="3.28135">
        <ele>1066.24</ele>
        <time>2016-02-24T13:06:28Z</time>
      </trkpt>
      <trkpt lat="44.71559" lon="3.2814">
        <ele>1064.8</ele>
        <time>2016-02-24T13:06:29Z</time>
      </trkpt>
      <trkpt lat="44.71571" lon="3.28152">
        <ele>1061.91</ele>
        <time>2016-02-24T13:06:31Z</time>
      </trkpt>
      <trkpt lat="44.71593" lon="3.28173">
        <ele>1057.11</ele>
        <time>2016-02-24T13:06:34Z</time>
      </trkpt>
      <trkpt lat="44.71609" lon="3.28188">
        <ele>1053.74</ele>
        <time>2016-02-24T13:06:36Z</time>
      </trkpt>
      <trkpt lat="44.71632" lon="3.28211">
        <ele>1050.38</ele>
        <time>2016-02-24T13:06:39Z</time>
      </trkpt>
      <trkpt lat="44.71639" lon="3.28217">
        <ele>1049.9</ele>
        <time>2016-02-24T13:06:40Z</time>
      </trkpt>
      <trkpt lat="44.71645" lon="3.28224">
        <ele>1049.9</ele>
        <time>2016-02-24T13:06:41Z</time>
      </trkpt>
      <trkpt lat="44.71651" lon="3.28231">
        <ele>1049.42</ele>
        <time>2016-02-24T13:06:42Z</time>
      </trkpt>
      <trkpt lat="44.71656" lon="3.2824">
        <ele>1048.45</ele>
        <time>2016-02-24T13:06:43Z</time>
      </trkpt>
      <trkpt lat="44.7166" lon="3.28249">
        <ele>1047.97</ele>
        <time>2016-02-24T13:06:44Z</time>
      </trkpt>
      <trkpt lat="44.71663" lon="3.28259">
        <ele>1047.49</ele>
        <time>2016-02-24T13:06:45Z</time>
      </trkpt>
      <trkpt lat="44.7168" lon="3.28302">
        <ele>1043.17</ele>
        <time>2016-02-24T13:06:49Z</time>
      </trkpt>
      <trkpt lat="44.71699" lon="3.2835">
        <ele>1043.17</ele>
        <time>2016-02-24T13:06:56Z</time>
      </trkpt>
      <trkpt lat="44.71719" lon="3.2837">
        <ele>1043.17</ele>
        <time>2016-02-24T13:07:06Z</time>
      </trkpt>
      <trkpt lat="44.71756" lon="3.28374">
        <ele>1041.73</ele>
        <time>2016-02-24T13:07:19Z</time>
      </trkpt>
      <trkpt lat="44.71785" lon="3.28341">
        <ele>1038.84</ele>
        <time>2016-02-24T13:07:29Z</time>
      </trkpt>
      <trkpt lat="44.71801" lon="3.28317">
        <ele>1036.44</ele>
        <time>2016-02-24T13:07:33Z</time>
      </trkpt>
      <trkpt lat="44.71872" lon="3.28234">
        <ele>1035</ele>
        <time>2016-02-24T13:07:47Z</time>
      </trkpt>
      <trkpt lat="44.71936" lon="3.28196">
        <ele>1033.55</ele>
        <time>2016-02-24T13:08:01Z</time>
      </trkpt>
      <trkpt lat="44.71974" lon="3.28176">
        <ele>1035.96</ele>
        <time>2016-02-24T13:08:13Z</time>
      </trkpt>
      <trkpt lat="44.71996" lon="3.28173">
        <ele>1037.88</ele>
        <time>2016-02-24T13:08:24Z</time>
      </trkpt>
      <trkpt lat="44.71998" lon="3.28175">
        <ele>1037.88</ele>
        <time>2016-02-24T13:08:25Z</time>
      </trkpt>
      <trkpt lat="44.71999" lon="3.28178">
        <ele>1038.36</ele>
        <time>2016-02-24T13:08:26Z</time>
      </trkpt>
      <trkpt lat="44.72" lon="3.2818">
        <ele>1038.36</ele>
        <time>2016-02-24T13:08:27Z</time>
      </trkpt>
      <trkpt lat="44.72002" lon="3.28183">
        <ele>1038.36</ele>
        <time>2016-02-24T13:08:28Z</time>
      </trkpt>
      <trkpt lat="44.72003" lon="3.28185">
        <ele>1038.36</ele>
        <time>2016-02-24T13:08:29Z</time>
      </trkpt>
      <trkpt lat="44.72004" lon="3.28187">
        <ele>1038.36</ele>
        <time>2016-02-24T13:08:30Z</time>
      </trkpt>
      <trkpt lat="44.72004" lon="3.2819">
        <ele>1038.84</ele>
        <time>2016-02-24T13:08:31Z</time>
      </trkpt>
      <trkpt lat="44.72005" lon="3.28192">
        <ele>1038.84</ele>
        <time>2016-02-24T13:08:32Z</time>
      </trkpt>
      <trkpt lat="44.72026" lon="3.28221">
        <ele>1040.28</ele>
        <time>2016-02-24T13:08:49Z</time>
      </trkpt>
      <trkpt lat="44.72052" lon="3.28214">
        <ele>1042.21</ele>
        <time>2016-02-24T13:09:03Z</time>
      </trkpt>
      <trkpt lat="44.72067" lon="3.28209">
        <ele>1043.17</ele>
        <time>2016-02-24T13:09:12Z</time>
      </trkpt>
      <trkpt lat="44.72068" lon="3.28208">
        <ele>1043.65</ele>
        <time>2016-02-24T13:09:13Z</time>
      </trkpt>
      <trkpt lat="44.7207" lon="3.28208">
        <ele>1043.65</ele>
        <time>2016-02-24T13:09:14Z</time>
      </trkpt>
      <trkpt lat="44.72071" lon="3.28209">
        <ele>1043.65</ele>
        <time>2016-02-24T13:09:15Z</time>
      </trkpt>
      <trkpt lat="44.72073" lon="3.2821">
        <ele>1044.13</ele>
        <time>2016-02-24T13:09:16Z</time>
      </trkpt>
      <trkpt lat="44.72074" lon="3.28211">
        <ele>1044.13</ele>
        <time>2016-02-24T13:09:17Z</time>
      </trkpt>
      <trkpt lat="44.72075" lon="3.28213">
        <ele>1044.13</ele>
        <time>2016-02-24T13:09:18Z</time>
      </trkpt>
      <trkpt lat="44.72094" lon="3.28235">
        <ele>1046.05</ele>
        <time>2016-02-24T13:09:31Z</time>
      </trkpt>
      <trkpt lat="44.72113" lon="3.28256">
        <ele>1047.49</ele>
        <time>2016-02-24T13:09:44Z</time>
      </trkpt>
      <trkpt lat="44.72131" lon="3.28275">
        <ele>1048.94</ele>
        <time>2016-02-24T13:09:56Z</time>
      </trkpt>
      <trkpt lat="44.72145" lon="3.28295">
        <ele>1050.38</ele>
        <time>2016-02-24T13:10:07Z</time>
      </trkpt>
      <trkpt lat="44.7216" lon="3.28316">
        <ele>1050.86</ele>
        <time>2016-02-24T13:10:19Z</time>
      </trkpt>
      <trkpt lat="44.72183" lon="3.28333">
        <ele>1051.34</ele>
        <time>2016-02-24T13:10:31Z</time>
      </trkpt>
      <trkpt lat="44.72193" lon="3.28342">
        <ele>1051.34</ele>
        <time>2016-02-24T13:10:36Z</time>
      </trkpt>
      <trkpt lat="44.72195" lon="3.28345">
        <ele>1051.34</ele>
        <time>2016-02-24T13:10:37Z</time>
      </trkpt>
      <trkpt lat="44.72195" lon="3.28348">
        <ele>1051.34</ele>
        <time>2016-02-24T13:10:38Z</time>
      </trkpt>
      <trkpt lat="44.72192" lon="3.28374">
        <ele>1053.26</ele>
        <time>2016-02-24T13:10:47Z</time>
      </trkpt>
      <trkpt lat="44.7219" lon="3.28376">
        <ele>1053.74</ele>
        <time>2016-02-24T13:10:48Z</time>
      </trkpt>
      <trkpt lat="44.72188" lon="3.28378">
        <ele>1053.74</ele>
        <time>2016-02-24T13:10:49Z</time>
      </trkpt>
      <trkpt lat="44.72187" lon="3.2838">
        <ele>1053.74</ele>
        <time>2016-02-24T13:10:50Z</time>
      </trkpt>
      <trkpt lat="44.72185" lon="3.28381">
        <ele>1054.22</ele>
        <time>2016-02-24T13:10:51Z</time>
      </trkpt>
      <trkpt lat="44.72183" lon="3.28383">
        <ele>1054.22</ele>
        <time>2016-02-24T13:10:52Z</time>
      </trkpt>
      <trkpt lat="44.72181" lon="3.28384">
        <ele>1054.22</ele>
        <time>2016-02-24T13:10:53Z</time>
      </trkpt>
      <trkpt lat="44.72177" lon="3.28391">
        <ele>1055.18</ele>
        <time>2016-02-24T13:10:57Z</time>
      </trkpt>
      <trkpt lat="44.72177" lon="3.28394">
        <ele>1055.18</ele>
        <time>2016-02-24T13:10:58Z</time>
      </trkpt>
      <trkpt lat="44.72178" lon="3.28396">
        <ele>1055.18</ele>
        <time>2016-02-24T13:10:59Z</time>
      </trkpt>
      <trkpt lat="44.7219" lon="3.28442">
        <ele>1056.63</ele>
        <time>2016-02-24T13:11:13Z</time>
      </trkpt>
      <trkpt lat="44.72187" lon="3.28485">
        <ele>1059.03</ele>
        <time>2016-02-24T13:11:28Z</time>
      </trkpt>
      <trkpt lat="44.72187" lon="3.28487">
        <ele>1059.03</ele>
        <time>2016-02-24T13:11:29Z</time>
      </trkpt>
      <trkpt lat="44.72188" lon="3.28488">
        <ele>1059.51</ele>
        <time>2016-02-24T13:11:30Z</time>
      </trkpt>
      <trkpt lat="44.72191" lon="3.28489">
        <ele>1059.03</ele>
        <time>2016-02-24T13:11:32Z</time>
      </trkpt>
      <trkpt lat="44.72192" lon="3.28491">
        <ele>1058.55</ele>
        <time>2016-02-24T13:11:33Z</time>
      </trkpt>
      <trkpt lat="44.72192" lon="3.28494">
        <ele>1058.55</ele>
        <time>2016-02-24T13:11:34Z</time>
      </trkpt>
      <trkpt lat="44.72192" lon="3.28497">
        <ele>1058.55</ele>
        <time>2016-02-24T13:11:35Z</time>
      </trkpt>
      <trkpt lat="44.72191" lon="3.28501">
        <ele>1058.07</ele>
        <time>2016-02-24T13:11:36Z</time>
      </trkpt>
      <trkpt lat="44.72185" lon="3.28544">
        <ele>1059.51</ele>
        <time>2016-02-24T13:11:49Z</time>
      </trkpt>
      <trkpt lat="44.72169" lon="3.2859">
        <ele>1061.43</ele>
        <time>2016-02-24T13:12:05Z</time>
      </trkpt>
      <trkpt lat="44.72164" lon="3.28607">
        <ele>1061.91</ele>
        <time>2016-02-24T13:12:11Z</time>
      </trkpt>
      <trkpt lat="44.72165" lon="3.2861">
        <ele>1061.91</ele>
        <time>2016-02-24T13:12:12Z</time>
      </trkpt>
      <trkpt lat="44.72168" lon="3.28651">
        <ele>1060.47</ele>
        <time>2016-02-24T13:12:22Z</time>
      </trkpt>
      <trkpt lat="44.7217" lon="3.28656">
        <ele>1060.47</ele>
        <time>2016-02-24T13:12:23Z</time>
      </trkpt>
      <trkpt lat="44.72172" lon="3.28663">
        <ele>1059.51</ele>
        <time>2016-02-24T13:12:24Z</time>
      </trkpt>
      <trkpt lat="44.7217" lon="3.28669">
        <ele>1059.51</ele>
        <time>2016-02-24T13:12:25Z</time>
      </trkpt>
      <trkpt lat="44.72161" lon="3.28671">
        <ele>1060.95</ele>
        <time>2016-02-24T13:12:28Z</time>
      </trkpt>
      <trkpt lat="44.72144" lon="3.28687">
        <ele>1063.84</ele>
        <time>2016-02-24T13:12:41Z</time>
      </trkpt>
      <trkpt lat="44.72145" lon="3.28692">
        <ele>1063.36</ele>
        <time>2016-02-24T13:12:43Z</time>
      </trkpt>
      <trkpt lat="44.72152" lon="3.28695">
        <ele>1063.36</ele>
        <time>2016-02-24T13:12:56Z</time>
      </trkpt>
    </trkseg>
  </trk>
</gpx>